<?xml version='1.0' encoding='UTF-8'?><gpx version="1.1" creator="JPX - https://github.com/jenetics/jpx" xmlns="http://www.topografix.com/GPX/1/1"><trk><trkseg><trkpt lat="43.947051443130384" lon="12.331419916196115"><ele>407.00000000000006</ele><time>2026-04-18T07:16:30Z</time></trkpt><trkpt lat="43.94699072945415" lon="12.33148051130023"><ele>407.0</ele><time>2026-04-18T07:16:32Z</time></trkpt><trkpt lat="43.94693801835891" lon="12.33153482912055"><ele>407.0</ele><time>2026-04-18T07:16:34Z</time></trkpt><trkpt lat="43.946882508896635" lon="12.331584815876502"><ele>407.0</ele><time>2026-04-18T07:16:36Z</time></trkpt><trkpt lat="43.9468268012557" lon="12.331635822931688"><ele>407.0</ele><time>2026-04-18T07:16:38Z</time></trkpt><trkpt lat="43.946769384219046" lon="12.331705582846046"><ele>407.00000000000006</ele><time>2026-04-18T07:16:41Z</time></trkpt><trkpt lat="43.94671367644763" lon="12.331774008529093"><ele>407.0</ele><time>2026-04-18T07:16:56Z</time></trkpt><trkpt lat="43.94664210877638" lon="12.331812081816905"><ele>409.75</ele><time>2026-04-18T07:17:01Z</time></trkpt><trkpt lat="43.94650344170344" lon="12.331918319740225"><ele>412.5</ele><time>2026-04-18T07:17:03Z</time></trkpt><trkpt lat="43.94639448066194" lon="12.331975099542616"><ele>415.25</ele><time>2026-04-18T07:17:04Z</time></trkpt><trkpt lat="43.946286242080475" lon="12.332051912454123"><ele>418.0</ele><time>2026-04-18T07:17:05Z</time></trkpt><trkpt lat="43.94617270937094" lon="12.332117581197803"><ele>418.0</ele><time>2026-04-18T07:17:06Z</time></trkpt><trkpt lat="43.94606806015923" lon="12.3321713595255"><ele>418.0</ele><time>2026-04-18T07:17:07Z</time></trkpt><trkpt lat="43.945965459442604" lon="12.332211192376015"><ele>418.0</ele><time>2026-04-18T07:17:08Z</time></trkpt><trkpt lat="43.94587976595157" lon="12.332226800978265"><ele>418.0</ele><time>2026-04-18T07:17:09Z</time></trkpt><trkpt lat="43.94580612611362" lon="12.332248768445183"><ele>418.0</ele><time>2026-04-18T07:17:10Z</time></trkpt><trkpt lat="43.94572249664108" lon="12.3322731971305"><ele>416.83333333333337</ele><time>2026-04-18T07:17:11Z</time></trkpt><trkpt lat="43.94565781166767" lon="12.332298599727164"><ele>415.6666666666667</ele><time>2026-04-18T07:17:12Z</time></trkpt><trkpt lat="43.94555458894081" lon="12.332348137532403"><ele>414.5</ele><time>2026-04-18T07:17:14Z</time></trkpt><trkpt lat="43.94549591114476" lon="12.332393403857251"><ele>413.33333333333337</ele><time>2026-04-18T07:17:16Z</time></trkpt><trkpt lat="43.94541836350732" lon="12.332434852087626"><ele>412.1666666666667</ele><time>2026-04-18T07:17:20Z</time></trkpt><trkpt lat="43.94533811151268" lon="12.332468852013879"><ele>411.0</ele><time>2026-04-18T07:17:35Z</time></trkpt><trkpt lat="43.94524903923857" lon="12.332579524103554"><ele>411.0</ele><time>2026-04-18T07:17:37Z</time></trkpt><trkpt lat="43.94516350514054" lon="12.332640285288887"><ele>411.0</ele><time>2026-04-18T07:17:38Z</time></trkpt><trkpt lat="43.94508627802293" lon="12.332713159583955"><ele>411.0</ele><time>2026-04-18T07:17:39Z</time></trkpt><trkpt lat="43.945010556833175" lon="12.332803659583131"><ele>411.0</ele><time>2026-04-18T07:17:40Z</time></trkpt><trkpt lat="43.944956357352" lon="12.332913126428927"><ele>411.0</ele><time>2026-04-18T07:17:41Z</time></trkpt><trkpt lat="43.94487436876374" lon="12.332966073345515"><ele>412.1666666666667</ele><time>2026-04-18T07:17:42Z</time></trkpt><trkpt lat="43.944777454849536" lon="12.333002235391668"><ele>413.33333333333337</ele><time>2026-04-18T07:17:43Z</time></trkpt><trkpt lat="43.944684703917744" lon="12.33303402056505"><ele>414.5</ele><time>2026-04-18T07:17:44Z</time></trkpt><trkpt lat="43.94458748712053" lon="12.333043389833446"><ele>415.6666666666667</ele><time>2026-04-18T07:17:45Z</time></trkpt><trkpt lat="43.944502953546326" lon="12.333063353196753"><ele>416.83333333333337</ele><time>2026-04-18T07:17:46Z</time></trkpt><trkpt lat="43.9444382770402" lon="12.33307213880496"><ele>418.0</ele><time>2026-04-18T07:17:47Z</time></trkpt><trkpt lat="43.944359916145594" lon="12.333039338581363"><ele>419.79999999999995</ele><time>2026-04-18T07:17:49Z</time></trkpt><trkpt lat="43.9442851161028" lon="12.332928343244225"><ele>421.6</ele><time>2026-04-18T07:17:51Z</time></trkpt><trkpt lat="43.94421757187367" lon="12.332842656173167"><ele>423.40000000000003</ele><time>2026-04-18T07:17:52Z</time></trkpt><trkpt lat="43.94413444932934" lon="12.332751083255816"><ele>425.20000000000005</ele><time>2026-04-18T07:17:52.999Z</time></trkpt><trkpt lat="43.944044065888306" lon="12.332647005925601"><ele>427.0</ele><time>2026-04-18T07:17:53.999Z</time></trkpt><trkpt lat="43.94394278961366" lon="12.332527137442789"><ele>428.25</ele><time>2026-04-18T07:17:54.999Z</time></trkpt><trkpt lat="43.94384210899941" lon="12.332409812173456"><ele>429.5</ele><time>2026-04-18T07:17:55.999Z</time></trkpt><trkpt lat="43.94373779578513" lon="12.332287620073089"><ele>430.75</ele><time>2026-04-18T07:17:56.999Z</time></trkpt><trkpt lat="43.943627648908574" lon="12.332159597052657"><ele>432.0</ele><time>2026-04-18T07:17:57.999Z</time></trkpt><trkpt lat="43.94351383958642" lon="12.332029738019855"><ele>432.0</ele><time>2026-04-18T07:17:58.999Z</time></trkpt><trkpt lat="43.94339739412295" lon="12.331899568357327"><ele>432.0</ele><time>2026-04-18T07:17:59.999Z</time></trkpt><trkpt lat="43.94328535826766" lon="12.331760566678813"><ele>432.0</ele><time>2026-04-18T07:18:00.999Z</time></trkpt><trkpt lat="43.94318218714217" lon="12.33163561421338"><ele>432.0</ele><time>2026-04-18T07:18:01.999Z</time></trkpt><trkpt lat="43.94307872466492" lon="12.331517254890723"><ele>432.0</ele><time>2026-04-18T07:18:02.999Z</time></trkpt><trkpt lat="43.942984039212696" lon="12.331409757507368"><ele>432.0</ele><time>2026-04-18T07:18:03.999Z</time></trkpt><trkpt lat="43.942900578376594" lon="12.331303647728353"><ele>432.0</ele><time>2026-04-18T07:18:04.999Z</time></trkpt><trkpt lat="43.94282211523603" lon="12.331197126144813"><ele>432.0</ele><time>2026-04-18T07:18:05.999Z</time></trkpt><trkpt lat="43.94274428686179" lon="12.331081601766538"><ele>434.1666666666667</ele><time>2026-04-18T07:18:06.999Z</time></trkpt><trkpt lat="43.94267755027129" lon="12.330969371455145"><ele>436.33333333333337</ele><time>2026-04-18T07:18:07.999Z</time></trkpt><trkpt lat="43.94264155299968" lon="12.33086454380121"><ele>438.5</ele><time>2026-04-18T07:18:08.999Z</time></trkpt><trkpt lat="43.942585221820934" lon="12.330795437723106"><ele>440.6666666666667</ele><time>2026-04-18T07:18:10.999Z</time></trkpt><trkpt lat="43.942614927986966" lon="12.330709554367024"><ele>442.83333333333337</ele><time>2026-04-18T07:18:12.999Z</time></trkpt><trkpt lat="43.942635331799856" lon="12.330562284734745"><ele>445.0</ele><time>2026-04-18T07:18:14.999Z</time></trkpt><trkpt lat="43.942660407621275" lon="12.330456832307913"><ele>446.6666666666667</ele><time>2026-04-18T07:18:15.999Z</time></trkpt><trkpt lat="43.942682490783874" lon="12.33034656635782"><ele>448.33333333333337</ele><time>2026-04-18T07:18:16.999Z</time></trkpt><trkpt lat="43.94270734973027" lon="12.330240008464312"><ele>450.0</ele><time>2026-04-18T07:18:17.999Z</time></trkpt><trkpt lat="43.94272663877877" lon="12.330140562629676"><ele>451.66666666666663</ele><time>2026-04-18T07:18:18.999Z</time></trkpt><trkpt lat="43.94274359827764" lon="12.330029741633986"><ele>453.3333333333333</ele><time>2026-04-18T07:18:19.999Z</time></trkpt><trkpt lat="43.942758461813625" lon="12.329919935493713"><ele>455.0</ele><time>2026-04-18T07:18:20.999Z</time></trkpt><trkpt lat="43.942781096998615" lon="12.32980669684108"><ele>454.2</ele><time>2026-04-18T07:18:21.999Z</time></trkpt><trkpt lat="43.94280703696584" lon="12.329688898829863"><ele>453.4</ele><time>2026-04-18T07:18:22.999Z</time></trkpt><trkpt lat="43.94281534801952" lon="12.329569250327989"><ele>452.6</ele><time>2026-04-18T07:18:23.999Z</time></trkpt><trkpt lat="43.94282360142475" lon="12.329451731425669"><ele>451.8</ele><time>2026-04-18T07:18:24.999Z</time></trkpt><trkpt lat="43.942835842612205" lon="12.329314792250916"><ele>451.0</ele><time>2026-04-18T07:18:25.999Z</time></trkpt><trkpt lat="43.942849812416206" lon="12.329172949400627"><ele>451.0</ele><time>2026-04-18T07:18:26.999Z</time></trkpt><trkpt lat="43.94287790961856" lon="12.32904709636613"><ele>451.0</ele><time>2026-04-18T07:18:27.999Z</time></trkpt><trkpt lat="43.942885799580196" lon="12.328912473740111"><ele>451.0</ele><time>2026-04-18T07:18:28.999Z</time></trkpt><trkpt lat="43.94291091137034" lon="12.328796053028283"><ele>451.0</ele><time>2026-04-18T07:18:29.999Z</time></trkpt><trkpt lat="43.942970375729466" lon="12.328696547561549"><ele>451.0</ele><time>2026-04-18T07:18:30.999Z</time></trkpt><trkpt lat="43.94302317029947" lon="12.328587186898298"><ele>446.4</ele><time>2026-04-18T07:18:31.999Z</time></trkpt><trkpt lat="43.943129445749925" lon="12.328522041803403"><ele>441.8</ele><time>2026-04-18T07:18:32.999Z</time></trkpt><trkpt lat="43.943224710847915" lon="12.328440615150953"><ele>437.19999999999993</ele><time>2026-04-18T07:18:33.999Z</time></trkpt><trkpt lat="43.94329538591138" lon="12.328327595327574"><ele>432.59999999999997</ele><time>2026-04-18T07:18:34.999Z</time></trkpt><trkpt lat="43.94334723684548" lon="12.32822360725132"><ele>428.0</ele><time>2026-04-18T07:18:36Z</time></trkpt><trkpt lat="43.94337320455919" lon="12.328100552210051"><ele>426.4</ele><time>2026-04-18T07:18:37Z</time></trkpt><trkpt lat="43.94337635548971" lon="12.327955688100051"><ele>424.79999999999995</ele><time>2026-04-18T07:18:38Z</time></trkpt><trkpt lat="43.94337409147192" lon="12.327801148850767"><ele>423.2</ele><time>2026-04-18T07:18:39Z</time></trkpt><trkpt lat="43.94335999413092" lon="12.327652054895852"><ele>421.6</ele><time>2026-04-18T07:18:40Z</time></trkpt><trkpt lat="43.9433389235531" lon="12.327500268390994"><ele>420.0</ele><time>2026-04-18T07:18:41Z</time></trkpt><trkpt lat="43.94330164972301" lon="12.327368835420758"><ele>421.0</ele><time>2026-04-18T07:18:42Z</time></trkpt><trkpt lat="43.94329326670354" lon="12.327217326688405"><ele>422.0</ele><time>2026-04-18T07:18:43Z</time></trkpt><trkpt lat="43.94327213400938" lon="12.327060294664173"><ele>423.0</ele><time>2026-04-18T07:18:44Z</time></trkpt><trkpt lat="43.943243710951165" lon="12.32691368817153"><ele>424.0</ele><time>2026-04-18T07:18:45Z</time></trkpt><trkpt lat="43.9432057940331" lon="12.326771545682583"><ele>425.0</ele><time>2026-04-18T07:18:46Z</time></trkpt><trkpt lat="43.943160890587" lon="12.32661803450657"><ele>425.0</ele><time>2026-04-18T07:18:47Z</time></trkpt><trkpt lat="43.94312005800572" lon="12.326463247512079"><ele>425.0</ele><time>2026-04-18T07:18:48Z</time></trkpt><trkpt lat="43.94308951157283" lon="12.326264911576347"><ele>425.0</ele><time>2026-04-18T07:18:50Z</time></trkpt><trkpt lat="43.9430940350223" lon="12.326167374028348"><ele>425.0</ele><time>2026-04-18T07:18:52Z</time></trkpt><trkpt lat="43.94310769900803" lon="12.326282986109124"><ele>425.0</ele><time>2026-04-18T07:19:09Z</time></trkpt><trkpt lat="43.94312540134058" lon="12.326442247890377"><ele>425.0</ele><time>2026-04-18T07:19:11Z</time></trkpt><trkpt lat="43.94314493282129" lon="12.32654499851963"><ele>425.0</ele><time>2026-04-18T07:19:13Z</time></trkpt><trkpt lat="43.94312958058066" lon="12.326452887615476"><ele>425.0</ele><time>2026-04-18T07:19:24Z</time></trkpt><trkpt lat="43.94310366397923" lon="12.326249386187751"><ele>425.0</ele><time>2026-04-18T07:19:26Z</time></trkpt><trkpt lat="43.94308729772452" lon="12.326110157132314"><ele>425.0</ele><time>2026-04-18T07:19:27Z</time></trkpt><trkpt lat="43.94305234920978" lon="12.32596802260915"><ele>425.0</ele><time>2026-04-18T07:19:28Z</time></trkpt><trkpt lat="43.942974600572846" lon="12.325816853381326"><ele>425.0</ele><time>2026-04-18T07:19:29Z</time></trkpt><trkpt lat="43.942875401198684" lon="12.325726743022726"><ele>425.0</ele><time>2026-04-18T07:19:30Z</time></trkpt><trkpt lat="43.9427980649327" lon="12.325639551769745"><ele>425.0</ele><time>2026-04-18T07:19:31Z</time></trkpt><trkpt lat="43.94272094139444" lon="12.325550460287678"><ele>424.8</ele><time>2026-04-18T07:19:32Z</time></trkpt><trkpt lat="43.942699842254314" lon="12.32545128996173"><ele>424.6</ele><time>2026-04-18T07:19:34Z</time></trkpt><trkpt lat="43.94265189542038" lon="12.325381643818645"><ele>424.4</ele><time>2026-04-18T07:19:35Z</time></trkpt><trkpt lat="43.94259904610066" lon="12.325310385064535"><ele>424.2</ele><time>2026-04-18T07:19:36Z</time></trkpt><trkpt lat="43.942539653814485" lon="12.325236041003105"><ele>424.0</ele><time>2026-04-18T07:19:37Z</time></trkpt><trkpt lat="43.94208679131385" lon="12.325551818259083"><ele>423.83333333333337</ele><time>2026-04-18T07:19:38Z</time></trkpt><trkpt lat="43.942002245177825" lon="12.325510065129034"><ele>423.6666666666667</ele><time>2026-04-18T07:19:39Z</time></trkpt><trkpt lat="43.94193498196859" lon="12.325472144291915"><ele>423.5</ele><time>2026-04-18T07:19:40Z</time></trkpt><trkpt lat="43.94183536705886" lon="12.325396063446263"><ele>423.33333333333337</ele><time>2026-04-18T07:19:42Z</time></trkpt><trkpt lat="43.9418054696076" lon="12.325312351444243"><ele>423.1666666666667</ele><time>2026-04-18T07:19:43Z</time></trkpt><trkpt lat="43.9417598882934" lon="12.325207466052488"><ele>423.0</ele><time>2026-04-18T07:19:44Z</time></trkpt><trkpt lat="43.94170521882374" lon="12.325097954630795"><ele>417.3333333333333</ele><time>2026-04-18T07:19:45Z</time></trkpt><trkpt lat="43.94166129539726" lon="12.325024253957121"><ele>411.66666666666663</ele><time>2026-04-18T07:19:46Z</time></trkpt><trkpt lat="43.941602873351215" lon="12.324976327589413"><ele>406.0</ele><time>2026-04-18T07:19:47Z</time></trkpt><trkpt lat="43.94152237428088" lon="12.324888903629775"><ele>400.3333333333333</ele><time>2026-04-18T07:19:49Z</time></trkpt><trkpt lat="43.94151074468022" lon="12.324759338745704"><ele>394.66666666666663</ele><time>2026-04-18T07:19:52Z</time></trkpt><trkpt lat="43.94151414851362" lon="12.32460502143959"><ele>389.0</ele><time>2026-04-18T07:19:54Z</time></trkpt><trkpt lat="43.94152788226305" lon="12.324501840105357"><ele>388.4</ele><time>2026-04-18T07:19:55Z</time></trkpt><trkpt lat="43.94153519796623" lon="12.324370424230594"><ele>387.79999999999995</ele><time>2026-04-18T07:19:57Z</time></trkpt><trkpt lat="43.94152916599562" lon="12.324257619413922"><ele>387.20000000000005</ele><time>2026-04-18T07:19:59Z</time></trkpt><trkpt lat="43.94151947227046" lon="12.324117733122012"><ele>386.6</ele><time>2026-04-18T07:20:01Z</time></trkpt><trkpt lat="43.94149243386237" lon="12.3239643209848"><ele>386.0</ele><time>2026-04-18T07:20:03Z</time></trkpt><trkpt lat="43.94145922646641" lon="12.32382631430845"><ele>385.66666666666663</ele><time>2026-04-18T07:20:05Z</time></trkpt><trkpt lat="43.941434889925006" lon="12.323733005438791"><ele>385.3333333333333</ele><time>2026-04-18T07:20:06Z</time></trkpt><trkpt lat="43.941401268774364" lon="12.32363757754022"><ele>385.0</ele><time>2026-04-18T07:20:07Z</time></trkpt><trkpt lat="43.94136842125019" lon="12.323523262709957"><ele>384.66666666666663</ele><time>2026-04-18T07:20:07.999Z</time></trkpt><trkpt lat="43.941342879624806" lon="12.323425715719198"><ele>384.3333333333333</ele><time>2026-04-18T07:20:08.999Z</time></trkpt><trkpt lat="43.94130495110491" lon="12.323269093512765"><ele>384.0</ele><time>2026-04-18T07:20:10.999Z</time></trkpt><trkpt lat="43.94130052717878" lon="12.323157378251732"><ele>384.0</ele><time>2026-04-18T07:20:11.999Z</time></trkpt><trkpt lat="43.941288800025774" lon="12.32306139470756"><ele>384.0</ele><time>2026-04-18T07:20:12.999Z</time></trkpt><trkpt lat="43.94128924902399" lon="12.322960412628879"><ele>384.0</ele><time>2026-04-18T07:20:14.999Z</time></trkpt><trkpt lat="43.941237975185295" lon="12.322886688854192"><ele>384.0</ele><time>2026-04-18T07:20:17.999Z</time></trkpt><trkpt lat="43.94118036626063" lon="12.322851180663045"><ele>384.0</ele><time>2026-04-18T07:20:19.999Z</time></trkpt><trkpt lat="43.941122903533184" lon="12.322943306415706"><ele>384.0</ele><time>2026-04-18T07:20:21.999Z</time></trkpt><trkpt lat="43.941117962572086" lon="12.323108704491565"><ele>384.0</ele><time>2026-04-18T07:20:23.999Z</time></trkpt><trkpt lat="43.94108873448419" lon="12.323188962360895"><ele>384.0</ele><time>2026-04-18T07:20:24.999Z</time></trkpt><trkpt lat="43.941057949523724" lon="12.323268493561306"><ele>384.0</ele><time>2026-04-18T07:20:25.999Z</time></trkpt><trkpt lat="43.941025112627834" lon="12.323367495234265"><ele>384.0</ele><time>2026-04-18T07:20:26.999Z</time></trkpt><trkpt lat="43.940981764558295" lon="12.323471470464693"><ele>384.0</ele><time>2026-04-18T07:20:27.999Z</time></trkpt><trkpt lat="43.940902256189545" lon="12.323547032680553"><ele>384.0</ele><time>2026-04-18T07:20:28.999Z</time></trkpt><trkpt lat="43.940827340456096" lon="12.323639692990367"><ele>376.5</ele><time>2026-04-18T07:20:29.999Z</time></trkpt><trkpt lat="43.94073656211853" lon="12.323757634577037"><ele>369.0</ele><time>2026-04-18T07:20:30.999Z</time></trkpt><trkpt lat="43.94064961005351" lon="12.323871006192906"><ele>361.5</ele><time>2026-04-18T07:20:31.999Z</time></trkpt><trkpt lat="43.940579344558785" lon="12.323984414620945"><ele>354.0</ele><time>2026-04-18T07:20:32.999Z</time></trkpt><trkpt lat="43.940487939216474" lon="12.324106492495169"><ele>354.0</ele><time>2026-04-18T07:20:33.999Z</time></trkpt><trkpt lat="43.94037400637294" lon="12.324232755552107"><ele>354.0</ele><time>2026-04-18T07:20:34.999Z</time></trkpt><trkpt lat="43.94026569673888" lon="12.324381552764125"><ele>354.0</ele><time>2026-04-18T07:20:35.999Z</time></trkpt><trkpt lat="43.940193992433734" lon="12.32448767824191"><ele>354.0</ele><time>2026-04-18T07:20:36.999Z</time></trkpt><trkpt lat="43.94014744376123" lon="12.324591266546623"><ele>354.0</ele><time>2026-04-18T07:20:37.999Z</time></trkpt><trkpt lat="43.940108725466565" lon="12.324660205871577"><ele>354.0</ele><time>2026-04-18T07:20:38.999Z</time></trkpt><trkpt lat="43.94007089645638" lon="12.324737940783995"><ele>354.0</ele><time>2026-04-18T07:20:39.999Z</time></trkpt><trkpt lat="43.94001331921557" lon="12.324819922799477"><ele>354.0</ele><time>2026-04-18T07:20:40.999Z</time></trkpt><trkpt lat="43.93996906809278" lon="12.324911858613378"><ele>354.0</ele><time>2026-04-18T07:20:42Z</time></trkpt><trkpt lat="43.939931980051384" lon="12.32498558716246"><ele>354.0</ele><time>2026-04-18T07:20:43.001Z</time></trkpt><trkpt lat="43.93987193815776" lon="12.325055154791448"><ele>354.0</ele><time>2026-04-18T07:20:45Z</time></trkpt><trkpt lat="43.939783025283404" lon="12.324907145698722"><ele>347.75</ele><time>2026-04-18T07:20:48Z</time></trkpt><trkpt lat="43.93979187571155" lon="12.324730496211398"><ele>341.5</ele><time>2026-04-18T07:20:49Z</time></trkpt><trkpt lat="43.939756756223716" lon="12.324588289055727"><ele>335.25</ele><time>2026-04-18T07:20:50Z</time></trkpt><trkpt lat="43.93970596804069" lon="12.32443853858387"><ele>329.0</ele><time>2026-04-18T07:20:51Z</time></trkpt><trkpt lat="43.93967135127402" lon="12.32427796477115"><ele>327.4</ele><time>2026-04-18T07:20:52Z</time></trkpt><trkpt lat="43.93959910019253" lon="12.324141587664723"><ele>325.79999999999995</ele><time>2026-04-18T07:20:53Z</time></trkpt><trkpt lat="43.93954645922181" lon="12.324007902469717"><ele>324.20000000000005</ele><time>2026-04-18T07:20:54Z</time></trkpt><trkpt lat="43.93949346239122" lon="12.323885595257766"><ele>322.6</ele><time>2026-04-18T07:20:55Z</time></trkpt><trkpt lat="43.93944285107387" lon="12.323777308684404"><ele>321.0</ele><time>2026-04-18T07:20:56Z</time></trkpt><trkpt lat="43.939394817789136" lon="12.323686614452548"><ele>319.6</ele><time>2026-04-18T07:20:57Z</time></trkpt><trkpt lat="43.939323703860225" lon="12.323607707261937"><ele>318.20000000000005</ele><time>2026-04-18T07:20:58Z</time></trkpt><trkpt lat="43.939223066424994" lon="12.32357106464954"><ele>316.79999999999995</ele><time>2026-04-18T07:20:59Z</time></trkpt><trkpt lat="43.93911749619115" lon="12.323593864175796"><ele>315.4</ele><time>2026-04-18T07:21:00Z</time></trkpt><trkpt lat="43.939012856818046" lon="12.323631122020407"><ele>314.0</ele><time>2026-04-18T07:21:01Z</time></trkpt><trkpt lat="43.938908660351515" lon="12.323670334758154"><ele>310.4</ele><time>2026-04-18T07:21:02Z</time></trkpt><trkpt lat="43.93880217569874" lon="12.323705147330614"><ele>306.79999999999995</ele><time>2026-04-18T07:21:03Z</time></trkpt><trkpt lat="43.93869948705762" lon="12.323747675800485"><ele>303.20000000000005</ele><time>2026-04-18T07:21:04Z</time></trkpt><trkpt lat="43.93860869956195" lon="12.323791668110108"><ele>299.6</ele><time>2026-04-18T07:21:05Z</time></trkpt><trkpt lat="43.93852744739776" lon="12.323831027017857"><ele>296.0</ele><time>2026-04-18T07:21:06Z</time></trkpt><trkpt lat="43.93845660458271" lon="12.32385834592694"><ele>296.0</ele><time>2026-04-18T07:21:07Z</time></trkpt><trkpt lat="43.938392270256145" lon="12.32384995421553"><ele>296.0</ele><time>2026-04-18T07:21:08Z</time></trkpt><trkpt lat="43.93834274219491" lon="12.323775077545154"><ele>296.0</ele><time>2026-04-18T07:21:09Z</time></trkpt><trkpt lat="43.938336669561245" lon="12.323647428654589"><ele>296.0</ele><time>2026-04-18T07:21:10Z</time></trkpt><trkpt lat="43.93831449971072" lon="12.323514847274128"><ele>296.0</ele><time>2026-04-18T07:21:11Z</time></trkpt><trkpt lat="43.938284740559084" lon="12.323385063184913"><ele>296.0</ele><time>2026-04-18T07:21:12Z</time></trkpt><trkpt lat="43.938266896905255" lon="12.323232558829702"><ele>293.0</ele><time>2026-04-18T07:21:13Z</time></trkpt><trkpt lat="43.93827640686803" lon="12.323073932229113"><ele>290.0</ele><time>2026-04-18T07:21:14Z</time></trkpt><trkpt lat="43.938288960909546" lon="12.322912813991678"><ele>287.0</ele><time>2026-04-18T07:21:15Z</time></trkpt><trkpt lat="43.938330075687055" lon="12.322750251816725"><ele>284.0</ele><time>2026-04-18T07:21:16Z</time></trkpt><trkpt lat="43.93835732159256" lon="12.322586456336406"><ele>282.5</ele><time>2026-04-18T07:21:17Z</time></trkpt><trkpt lat="43.938360148977814" lon="12.322433213766963"><ele>281.0</ele><time>2026-04-18T07:21:18Z</time></trkpt><trkpt lat="43.938367270443116" lon="12.32227523435464"><ele>279.5</ele><time>2026-04-18T07:21:19Z</time></trkpt><trkpt lat="43.938398790476676" lon="12.32212208565829"><ele>278.0</ele><time>2026-04-18T07:21:20Z</time></trkpt><trkpt lat="43.93842065517299" lon="12.321971498299073"><ele>278.0</ele><time>2026-04-18T07:21:21Z</time></trkpt><trkpt lat="43.93845522778972" lon="12.321845731108493"><ele>278.0</ele><time>2026-04-18T07:21:22Z</time></trkpt><trkpt lat="43.938489901962654" lon="12.321738564719313"><ele>278.0</ele><time>2026-04-18T07:21:23Z</time></trkpt><trkpt lat="43.9384169118416" lon="12.321557936293807"><ele>278.0</ele><time>2026-04-18T07:21:25Z</time></trkpt><trkpt lat="43.93835090573552" lon="12.321498131713996"><ele>278.0</ele><time>2026-04-18T07:21:26Z</time></trkpt><trkpt lat="43.93824085846635" lon="12.32158903182721"><ele>275.8</ele><time>2026-04-18T07:21:27Z</time></trkpt><trkpt lat="43.93816185095305" lon="12.321668589190345"><ele>273.6</ele><time>2026-04-18T07:21:28Z</time></trkpt><trkpt lat="43.9380638407512" lon="12.321724846542763"><ele>271.4</ele><time>2026-04-18T07:21:29Z</time></trkpt><trkpt lat="43.93797603051745" lon="12.32170662478849"><ele>269.2</ele><time>2026-04-18T07:21:30Z</time></trkpt><trkpt lat="43.9378923040038" lon="12.321612998882571"><ele>267.0</ele><time>2026-04-18T07:21:31Z</time></trkpt><trkpt lat="43.93785238623327" lon="12.321454548383349"><ele>264.8</ele><time>2026-04-18T07:21:32Z</time></trkpt><trkpt lat="43.937837611910915" lon="12.32129592863525"><ele>262.6</ele><time>2026-04-18T07:21:33Z</time></trkpt><trkpt lat="43.937847846001056" lon="12.321147185358093"><ele>260.40000000000003</ele><time>2026-04-18T07:21:34Z</time></trkpt><trkpt lat="43.93785523727106" lon="12.321022473703827"><ele>258.2</ele><time>2026-04-18T07:21:35Z</time></trkpt><trkpt lat="43.93783685671258" lon="12.320906659765557"><ele>256.0</ele><time>2026-04-18T07:21:36Z</time></trkpt><trkpt lat="43.93779668636908" lon="12.320792809167274"><ele>256.0</ele><time>2026-04-18T07:21:37Z</time></trkpt><trkpt lat="43.93770762484762" lon="12.320763552675729"><ele>256.0</ele><time>2026-04-18T07:21:38Z</time></trkpt><trkpt lat="43.93762522049578" lon="12.320815539610573"><ele>256.0</ele><time>2026-04-18T07:21:39Z</time></trkpt><trkpt lat="43.937586716110495" lon="12.320920357329326"><ele>256.0</ele><time>2026-04-18T07:21:40Z</time></trkpt><trkpt lat="43.937577913854575" lon="12.321140518972065"><ele>256.0</ele><time>2026-04-18T07:21:42Z</time></trkpt><trkpt lat="43.93758264031929" lon="12.321286552646763"><ele>254.99999999999997</ele><time>2026-04-18T07:21:43Z</time></trkpt><trkpt lat="43.937594517257104" lon="12.321411328405796"><ele>254.0</ele><time>2026-04-18T07:21:44Z</time></trkpt><trkpt lat="43.93758749364633" lon="12.321505688074685"><ele>253.0</ele><time>2026-04-18T07:21:45Z</time></trkpt><trkpt lat="43.937498708521225" lon="12.32162334954285"><ele>252.0</ele><time>2026-04-18T07:21:47Z</time></trkpt><trkpt lat="43.93742280755957" lon="12.321580992255322"><ele>250.99999999999997</ele><time>2026-04-18T07:21:48Z</time></trkpt><trkpt lat="43.93739073653581" lon="12.321478347989876"><ele>250.0</ele><time>2026-04-18T07:21:49Z</time></trkpt><trkpt lat="43.937395173561036" lon="12.321327620763542"><ele>249.66666666666666</ele><time>2026-04-18T07:21:50Z</time></trkpt><trkpt lat="43.93740359267298" lon="12.321190289139821"><ele>249.33333333333331</ele><time>2026-04-18T07:21:51Z</time></trkpt><trkpt lat="43.93739337424623" lon="12.321072252863603"><ele>249.0</ele><time>2026-04-18T07:21:52Z</time></trkpt><trkpt lat="43.93736947940942" lon="12.320980782931287"><ele>248.66666666666669</ele><time>2026-04-18T07:21:53Z</time></trkpt><trkpt lat="43.93731230209627" lon="12.320907838731248"><ele>248.33333333333334</ele><time>2026-04-18T07:21:54Z</time></trkpt><trkpt lat="43.93721402581551" lon="12.320896458022752"><ele>248.0</ele><time>2026-04-18T07:21:55Z</time></trkpt><trkpt lat="43.937136035565956" lon="12.321012745537061"><ele>248.0</ele><time>2026-04-18T07:21:56Z</time></trkpt><trkpt lat="43.93706001831557" lon="12.321144939570436"><ele>248.0</ele><time>2026-04-18T07:21:57Z</time></trkpt><trkpt lat="43.9369766500384" lon="12.321285851635185"><ele>248.0</ele><time>2026-04-18T07:21:58Z</time></trkpt><trkpt lat="43.93686486288853" lon="12.321421677520961"><ele>248.0</ele><time>2026-04-18T07:22:00Z</time></trkpt><trkpt lat="43.93678127313259" lon="12.32141464151104"><ele>246.0</ele><time>2026-04-18T07:22:01Z</time></trkpt><trkpt lat="43.936717446780605" lon="12.321378757419511"><ele>244.0</ele><time>2026-04-18T07:22:02Z</time></trkpt><trkpt lat="43.93664580158785" lon="12.321347943001106"><ele>242.0</ele><time>2026-04-18T07:22:04Z</time></trkpt><trkpt lat="43.936624053194166" lon="12.32107671854491"><ele>240.0</ele><time>2026-04-18T07:22:05Z</time></trkpt><trkpt lat="43.9365877079761" lon="12.320949709571126"><ele>238.0</ele><time>2026-04-18T07:22:06Z</time></trkpt><trkpt lat="43.93650617931723" lon="12.32084653757767"><ele>238.0</ele><time>2026-04-18T07:22:07Z</time></trkpt><trkpt lat="43.93641882761489" lon="12.320723072111962"><ele>238.0</ele><time>2026-04-18T07:22:08Z</time></trkpt><trkpt lat="43.93634779375403" lon="12.320606012249435"><ele>238.0</ele><time>2026-04-18T07:22:09Z</time></trkpt><trkpt lat="43.93628270308638" lon="12.320473377954604"><ele>238.0</ele><time>2026-04-18T07:22:10Z</time></trkpt><trkpt lat="43.93621471389755" lon="12.320339724539"><ele>240.60000000000002</ele><time>2026-04-18T07:22:11Z</time></trkpt><trkpt lat="43.93614547215055" lon="12.320211133398816"><ele>243.20000000000002</ele><time>2026-04-18T07:22:12Z</time></trkpt><trkpt lat="43.936073266500514" lon="12.320130993092148"><ele>245.8</ele><time>2026-04-18T07:22:13Z</time></trkpt><trkpt lat="43.93599707672473" lon="12.320075053948878"><ele>248.4</ele><time>2026-04-18T07:22:14Z</time></trkpt><trkpt lat="43.93598054309735" lon="12.319925250415038"><ele>251.0</ele><time>2026-04-18T07:22:16Z</time></trkpt><trkpt lat="43.93606141750322" lon="12.31991289997791"><ele>251.00000000000003</ele><time>2026-04-18T07:22:17.999Z</time></trkpt><trkpt lat="43.93613697517529" lon="12.3199618026441"><ele>251.0</ele><time>2026-04-18T07:22:23.999Z</time></trkpt><trkpt lat="43.936222173162186" lon="12.319914530438123"><ele>251.0</ele><time>2026-04-18T07:22:25.999Z</time></trkpt><trkpt lat="43.936286443501025" lon="12.319890963313554"><ele>251.0</ele><time>2026-04-18T07:22:26.999Z</time></trkpt><trkpt lat="43.93635058856805" lon="12.319884705920915"><ele>251.00000000000003</ele><time>2026-04-18T07:22:27.999Z</time></trkpt><trkpt lat="43.936431292307525" lon="12.319864048841504"><ele>251.0</ele><time>2026-04-18T07:22:28.999Z</time></trkpt><trkpt lat="43.93650955794381" lon="12.319795720598197"><ele>252.83333333333334</ele><time>2026-04-18T07:22:29.999Z</time></trkpt><trkpt lat="43.93655667332127" lon="12.319695668723853"><ele>254.66666666666669</ele><time>2026-04-18T07:22:30.999Z</time></trkpt><trkpt lat="43.93659446396839" lon="12.319583270109373"><ele>256.5</ele><time>2026-04-18T07:22:31.999Z</time></trkpt><trkpt lat="43.936637625726384" lon="12.319480745316167"><ele>258.3333333333333</ele><time>2026-04-18T07:22:32.999Z</time></trkpt><trkpt lat="43.93669164577158" lon="12.319396822615833"><ele>260.16666666666663</ele><time>2026-04-18T07:22:33.999Z</time></trkpt><trkpt lat="43.936743509566504" lon="12.319343198305472"><ele>262.0</ele><time>2026-04-18T07:22:34.999Z</time></trkpt><trkpt lat="43.936833249743714" lon="12.319265835663401"><ele>262.0</ele><time>2026-04-18T07:22:36.999Z</time></trkpt><trkpt lat="43.93687146340408" lon="12.319164477704193"><ele>262.0</ele><time>2026-04-18T07:22:38.999Z</time></trkpt><trkpt lat="43.93687662298152" lon="12.319055006417365"><ele>262.0</ele><time>2026-04-18T07:22:40.999Z</time></trkpt><trkpt lat="43.936913828870665" lon="12.318933046870622"><ele>262.0</ele><time>2026-04-18T07:22:41.999Z</time></trkpt><trkpt lat="43.936947940891066" lon="12.318856878147578"><ele>262.0</ele><time>2026-04-18T07:22:42.999Z</time></trkpt><trkpt lat="43.93699856990655" lon="12.318719513942728"><ele>262.0</ele><time>2026-04-18T07:22:44.999Z</time></trkpt><trkpt lat="43.93702014348194" lon="12.318606116416383"><ele>264.3333333333333</ele><time>2026-04-18T07:22:45.999Z</time></trkpt><trkpt lat="43.93703401152692" lon="12.318513140730412"><ele>266.66666666666663</ele><time>2026-04-18T07:22:47.001Z</time></trkpt><trkpt lat="43.93705900671375" lon="12.318410349484392"><ele>269.0</ele><time>2026-04-18T07:22:49.001Z</time></trkpt><trkpt lat="43.93709570196311" lon="12.31833063621773"><ele>271.3333333333333</ele><time>2026-04-18T07:22:54.001Z</time></trkpt><trkpt lat="43.93712778572" lon="12.318229849238694"><ele>273.6666666666667</ele><time>2026-04-18T07:22:57.001Z</time></trkpt><trkpt lat="43.937163804347904" lon="12.318061482932736"><ele>276.0</ele><time>2026-04-18T07:22:58Z</time></trkpt><trkpt lat="43.9371518027435" lon="12.317887397810907"><ele>279.6</ele><time>2026-04-18T07:23:00.001Z</time></trkpt><trkpt lat="43.93715440643376" lon="12.317727906821371"><ele>283.20000000000005</ele><time>2026-04-18T07:23:01Z</time></trkpt><trkpt lat="43.93713164021293" lon="12.317626672645735"><ele>286.79999999999995</ele><time>2026-04-18T07:23:02Z</time></trkpt><trkpt lat="43.93711383716596" lon="12.317469210264134"><ele>290.4</ele><time>2026-04-18T07:23:04Z</time></trkpt><trkpt lat="43.93716185959105" lon="12.317320230123563"><ele>294.0</ele><time>2026-04-18T07:23:06Z</time></trkpt><trkpt lat="43.93720657379769" lon="12.317233425105343"><ele>296.0</ele><time>2026-04-18T07:23:07Z</time></trkpt><trkpt lat="43.937258521404544" lon="12.317149046104467"><ele>298.0</ele><time>2026-04-18T07:23:08Z</time></trkpt><trkpt lat="43.93733309145967" lon="12.317064282968591"><ele>300.0</ele><time>2026-04-18T07:23:09Z</time></trkpt><trkpt lat="43.93740778233767" lon="12.31700021875135"><ele>302.0</ele><time>2026-04-18T07:23:10Z</time></trkpt><trkpt lat="43.93748168654153" lon="12.316935898252899"><ele>304.0</ele><time>2026-04-18T07:23:11Z</time></trkpt><trkpt lat="43.93754975721234" lon="12.316877392720532"><ele>306.0</ele><time>2026-04-18T07:23:12Z</time></trkpt><trkpt lat="43.93759278694835" lon="12.316810086884352"><ele>306.0</ele><time>2026-04-18T07:23:13Z</time></trkpt><trkpt lat="43.937613553174394" lon="12.316719533509112"><ele>306.0</ele><time>2026-04-18T07:23:15Z</time></trkpt><trkpt lat="43.937614972032925" lon="12.316592942745633"><ele>306.0</ele><time>2026-04-18T07:23:19Z</time></trkpt><trkpt lat="43.93764744500669" lon="12.316452336571333"><ele>306.0</ele><time>2026-04-18T07:23:21Z</time></trkpt><trkpt lat="43.93766378384514" lon="12.316342252837444"><ele>306.0</ele><time>2026-04-18T07:23:22Z</time></trkpt><trkpt lat="43.93767807617889" lon="12.31624437908382"><ele>306.0</ele><time>2026-04-18T07:23:23Z</time></trkpt><trkpt lat="43.93769384200602" lon="12.316144076069182"><ele>307.6666666666667</ele><time>2026-04-18T07:23:24Z</time></trkpt><trkpt lat="43.93771152987949" lon="12.316059989098635"><ele>309.3333333333333</ele><time>2026-04-18T07:23:25Z</time></trkpt><trkpt lat="43.93773128015193" lon="12.315876810928467"><ele>311.0</ele><time>2026-04-18T07:23:27Z</time></trkpt><trkpt lat="43.93774198743728" lon="12.315780638719152"><ele>312.66666666666663</ele><time>2026-04-18T07:23:28Z</time></trkpt><trkpt lat="43.93774989992531" lon="12.315686246904972"><ele>314.3333333333333</ele><time>2026-04-18T07:23:29Z</time></trkpt><trkpt lat="43.93776565646376" lon="12.315594321737231"><ele>316.0</ele><time>2026-04-18T07:23:30Z</time></trkpt><trkpt lat="43.937779236985016" lon="12.315503223905614"><ele>319.0</ele><time>2026-04-18T07:23:31Z</time></trkpt><trkpt lat="43.9378089572734" lon="12.315352799302456"><ele>322.0</ele><time>2026-04-18T07:23:33Z</time></trkpt><trkpt lat="43.93785278598341" lon="12.315219538049277"><ele>325.0</ele><time>2026-04-18T07:23:35Z</time></trkpt><trkpt lat="43.93785838444222" lon="12.31511441514068"><ele>328.0</ele><time>2026-04-18T07:23:37Z</time></trkpt><trkpt lat="43.93784162128575" lon="12.315018502918836"><ele>331.0</ele><time>2026-04-18T07:23:45Z</time></trkpt><trkpt lat="43.93784879393778" lon="12.314831099403552"><ele>333.0</ele><time>2026-04-18T07:23:47Z</time></trkpt><trkpt lat="43.93784876940732" lon="12.314724631327477"><ele>335.0</ele><time>2026-04-18T07:23:48Z</time></trkpt><trkpt lat="43.93785385907724" lon="12.314619410119636"><ele>337.0</ele><time>2026-04-18T07:23:49Z</time></trkpt><trkpt lat="43.93788056335748" lon="12.314519327134075"><ele>339.0</ele><time>2026-04-18T07:23:50Z</time></trkpt><trkpt lat="43.93794866735313" lon="12.314366620007087"><ele>341.0</ele><time>2026-04-18T07:23:52Z</time></trkpt><trkpt lat="43.937982636852354" lon="12.31428669134874"><ele>343.0</ele><time>2026-04-18T07:23:53Z</time></trkpt><trkpt lat="43.93803491182968" lon="12.314142562240777"><ele>343.0</ele><time>2026-04-18T07:23:55Z</time></trkpt><trkpt lat="43.9380927424518" lon="12.313986891979381"><ele>343.0</ele><time>2026-04-18T07:23:57Z</time></trkpt><trkpt lat="43.93813106809351" lon="12.31390422741048"><ele>343.0</ele><time>2026-04-18T07:23:59Z</time></trkpt><trkpt lat="43.93807307907005" lon="12.313795261893299"><ele>343.0</ele><time>2026-04-18T07:24:30.999Z</time></trkpt><trkpt lat="43.93800659287073" lon="12.313770085295266"><ele>343.0</ele><time>2026-04-18T07:24:31.999Z</time></trkpt><trkpt lat="43.937912866420646" lon="12.313768846261565"><ele>342.75</ele><time>2026-04-18T07:24:32.999Z</time></trkpt><trkpt lat="43.93779138367699" lon="12.313785626928794"><ele>342.5</ele><time>2026-04-18T07:24:33.999Z</time></trkpt><trkpt lat="43.93765620543063" lon="12.313813218800204"><ele>342.25</ele><time>2026-04-18T07:24:34.999Z</time></trkpt><trkpt lat="43.937530947536864" lon="12.313826555827523"><ele>342.0</ele><time>2026-04-18T07:24:35.999Z</time></trkpt><trkpt lat="43.93741187596945" lon="12.313784016992548"><ele>342.0</ele><time>2026-04-18T07:24:36.999Z</time></trkpt><trkpt lat="43.93728636334954" lon="12.313741151107552"><ele>342.0</ele><time>2026-04-18T07:24:37.999Z</time></trkpt><trkpt lat="43.93715305515368" lon="12.313718945636062"><ele>342.0</ele><time>2026-04-18T07:24:38.999Z</time></trkpt><trkpt lat="43.93704354112658" lon="12.313691845987758"><ele>342.0</ele><time>2026-04-18T07:24:39.999Z</time></trkpt><trkpt lat="43.936932452139956" lon="12.313701667752209"><ele>342.0</ele><time>2026-04-18T07:24:40.999Z</time></trkpt><trkpt lat="43.936805652468465" lon="12.313745688731881"><ele>342.0</ele><time>2026-04-18T07:24:41.999Z</time></trkpt><trkpt lat="43.93667380104913" lon="12.313781593197763"><ele>342.0</ele><time>2026-04-18T07:24:42.999Z</time></trkpt><trkpt lat="43.93654340831291" lon="12.313787345172472"><ele>342.0</ele><time>2026-04-18T07:24:43.999Z</time></trkpt><trkpt lat="43.936418549177276" lon="12.313761671389367"><ele>342.25</ele><time>2026-04-18T07:24:44.999Z</time></trkpt><trkpt lat="43.93630481697473" lon="12.313739431483674"><ele>342.5</ele><time>2026-04-18T07:24:45.999Z</time></trkpt><trkpt lat="43.93620762267158" lon="12.313743504929208"><ele>342.75</ele><time>2026-04-18T07:24:46.999Z</time></trkpt><trkpt lat="43.93609917249293" lon="12.31377473362439"><ele>343.0</ele><time>2026-04-18T07:24:47.999Z</time></trkpt><trkpt lat="43.93596902515013" lon="12.313837702392547"><ele>344.25</ele><time>2026-04-18T07:24:48.999Z</time></trkpt><trkpt lat="43.93584985277798" lon="12.313890417453118"><ele>345.5</ele><time>2026-04-18T07:24:49.999Z</time></trkpt><trkpt lat="43.93574536930947" lon="12.313905722063394"><ele>346.75</ele><time>2026-04-18T07:24:50.999Z</time></trkpt><trkpt lat="43.93562598697693" lon="12.313887213178825"><ele>348.0</ele><time>2026-04-18T07:24:52.001Z</time></trkpt><trkpt lat="43.935505506630385" lon="12.31392257023063"><ele>348.0</ele><time>2026-04-18T07:24:53.001Z</time></trkpt><trkpt lat="43.935394563919495" lon="12.31397021474806"><ele>348.0</ele><time>2026-04-18T07:24:54.001Z</time></trkpt><trkpt lat="43.93528523575527" lon="12.314019375427096"><ele>348.0</ele><time>2026-04-18T07:24:55.001Z</time></trkpt><trkpt lat="43.93516124731862" lon="12.314079749030931"><ele>348.0</ele><time>2026-04-18T07:24:56.001Z</time></trkpt><trkpt lat="43.93503534695535" lon="12.314137406206829"><ele>347.75</ele><time>2026-04-18T07:24:57.001Z</time></trkpt><trkpt lat="43.93491778119534" lon="12.314224249053481"><ele>347.5</ele><time>2026-04-18T07:24:58.001Z</time></trkpt><trkpt lat="43.93478553275272" lon="12.314255972459838"><ele>347.25</ele><time>2026-04-18T07:24:59.001Z</time></trkpt><trkpt lat="43.93467020412324" lon="12.314333225313767"><ele>347.0</ele><time>2026-04-18T07:25:00.001Z</time></trkpt><trkpt lat="43.934550995123935" lon="12.314406995810097"><ele>347.0</ele><time>2026-04-18T07:25:01.001Z</time></trkpt><trkpt lat="43.93441732505037" lon="12.314481612662455"><ele>347.0</ele><time>2026-04-18T07:25:02.001Z</time></trkpt><trkpt lat="43.93429858356591" lon="12.31455772317697"><ele>347.0</ele><time>2026-04-18T07:25:03.001Z</time></trkpt><trkpt lat="43.93418956306463" lon="12.31463075662893"><ele>347.0</ele><time>2026-04-18T07:25:04.001Z</time></trkpt><trkpt lat="43.93409248329844" lon="12.31474040829246"><ele>345.8</ele><time>2026-04-18T07:25:05.001Z</time></trkpt><trkpt lat="43.93398955205551" lon="12.314827746647229"><ele>344.6</ele><time>2026-04-18T07:25:06.001Z</time></trkpt><trkpt lat="43.93388902726063" lon="12.314875186383427"><ele>343.40000000000003</ele><time>2026-04-18T07:25:07Z</time></trkpt><trkpt lat="43.93378964125406" lon="12.314906679252925"><ele>342.20000000000005</ele><time>2026-04-18T07:25:08Z</time></trkpt><trkpt lat="43.933673694000035" lon="12.314915558342223"><ele>341.0</ele><time>2026-04-18T07:25:09Z</time></trkpt><trkpt lat="43.9335744529837" lon="12.314941632459735"><ele>341.0</ele><time>2026-04-18T07:25:10Z</time></trkpt><trkpt lat="43.93350464689233" lon="12.314943115591667"><ele>341.0</ele><time>2026-04-18T07:25:11Z</time></trkpt><trkpt lat="43.93344094264269" lon="12.314960881586318"><ele>341.0</ele><time>2026-04-18T07:25:12Z</time></trkpt><trkpt lat="43.933358824400614" lon="12.315009226169858"><ele>341.0</ele><time>2026-04-18T07:25:14Z</time></trkpt><trkpt lat="43.93329158062976" lon="12.315089211036682"><ele>341.0</ele><time>2026-04-18T07:25:16Z</time></trkpt><trkpt lat="43.933211809330444" lon="12.31516918171426"><ele>341.0</ele><time>2026-04-18T07:25:18Z</time></trkpt><trkpt lat="43.933151502588196" lon="12.31522966623607"><ele>341.4</ele><time>2026-04-18T07:25:20Z</time></trkpt><trkpt lat="43.933076208568" lon="12.315353642356424"><ele>341.8</ele><time>2026-04-18T07:25:22Z</time></trkpt><trkpt lat="43.93312812083573" lon="12.315271041489996"><ele>342.2</ele><time>2026-04-18T07:25:28Z</time></trkpt><trkpt lat="43.93319985900301" lon="12.315211286819766"><ele>342.59999999999997</ele><time>2026-04-18T07:25:29Z</time></trkpt><trkpt lat="43.93326551491006" lon="12.31512743084391"><ele>343.0</ele><time>2026-04-18T07:25:30Z</time></trkpt><trkpt lat="43.933333368017855" lon="12.315049367042631"><ele>342.66666666666663</ele><time>2026-04-18T07:25:31Z</time></trkpt><trkpt lat="43.933407935150136" lon="12.314989534852018"><ele>342.3333333333333</ele><time>2026-04-18T07:25:32Z</time></trkpt><trkpt lat="43.93349601797868" lon="12.314977782628672"><ele>342.0</ele><time>2026-04-18T07:25:33Z</time></trkpt><trkpt lat="43.93356759626952" lon="12.31497084233961"><ele>341.6666666666667</ele><time>2026-04-18T07:25:34Z</time></trkpt><trkpt lat="43.93364955378038" lon="12.31496097252323"><ele>341.33333333333337</ele><time>2026-04-18T07:25:36Z</time></trkpt><trkpt lat="43.93361666261125" lon="12.314849109632771"><ele>341.0</ele><time>2026-04-18T07:25:38Z</time></trkpt><trkpt lat="43.933490424162684" lon="12.314755160964115"><ele>341.20000000000005</ele><time>2026-04-18T07:25:40Z</time></trkpt><trkpt lat="43.93340220370878" lon="12.314701074001357"><ele>341.40000000000003</ele><time>2026-04-18T07:25:41Z</time></trkpt><trkpt lat="43.933298399942565" lon="12.314657896352353"><ele>341.6</ele><time>2026-04-18T07:25:42Z</time></trkpt><trkpt lat="43.93319745231471" lon="12.31463663820277"><ele>341.8</ele><time>2026-04-18T07:25:43Z</time></trkpt><trkpt lat="43.93308851300975" lon="12.31462991403996"><ele>342.0</ele><time>2026-04-18T07:25:44Z</time></trkpt><trkpt lat="43.932963084780354" lon="12.314639731993022"><ele>342.0</ele><time>2026-04-18T07:25:45Z</time></trkpt><trkpt lat="43.93283112148919" lon="12.314660417086708"><ele>342.0</ele><time>2026-04-18T07:25:46Z</time></trkpt><trkpt lat="43.932726420904906" lon="12.314692632974522"><ele>342.0</ele><time>2026-04-18T07:25:47Z</time></trkpt><trkpt lat="43.932637133430006" lon="12.314727518410553"><ele>342.0</ele><time>2026-04-18T07:25:48Z</time></trkpt><trkpt lat="43.93254585079231" lon="12.31474481008054"><ele>342.0</ele><time>2026-04-18T07:25:49Z</time></trkpt><trkpt lat="43.93244804538485" lon="12.314747815679349"><ele>342.0</ele><time>2026-04-18T07:25:50Z</time></trkpt><trkpt lat="43.9323418403253" lon="12.314735132721648"><ele>342.0</ele><time>2026-04-18T07:25:51Z</time></trkpt><trkpt lat="43.93223770642184" lon="12.314735818712228"><ele>342.0</ele><time>2026-04-18T07:25:52Z</time></trkpt><trkpt lat="43.93212599037553" lon="12.314786424590261"><ele>342.0</ele><time>2026-04-18T07:25:53Z</time></trkpt><trkpt lat="43.93204353926381" lon="12.314843481433577"><ele>342.0</ele><time>2026-04-18T07:25:54Z</time></trkpt><trkpt lat="43.93196735877022" lon="12.314882557036734"><ele>342.0</ele><time>2026-04-18T07:25:55Z</time></trkpt><trkpt lat="43.93188067598855" lon="12.314853415139142"><ele>342.0</ele><time>2026-04-18T07:25:57Z</time></trkpt><trkpt lat="43.931922465295386" lon="12.314656091571788"><ele>342.0</ele><time>2026-04-18T07:26:00Z</time></trkpt><trkpt lat="43.9319259937961" lon="12.314546301053106"><ele>342.0</ele><time>2026-04-18T07:26:01Z</time></trkpt><trkpt lat="43.931920056202905" lon="12.314438522135374"><ele>342.0</ele><time>2026-04-18T07:26:02Z</time></trkpt><trkpt lat="43.93191608700119" lon="12.314339141291805"><ele>341.1666666666667</ele><time>2026-04-18T07:26:03Z</time></trkpt><trkpt lat="43.93186815506413" lon="12.314260222975227"><ele>340.3333333333333</ele><time>2026-04-18T07:26:04Z</time></trkpt><trkpt lat="43.93184731309779" lon="12.314164955017894"><ele>339.5</ele><time>2026-04-18T07:26:05Z</time></trkpt><trkpt lat="43.93179480433321" lon="12.314076770397607"><ele>338.66666666666663</ele><time>2026-04-18T07:26:06Z</time></trkpt><trkpt lat="43.931771609512886" lon="12.313961715543503"><ele>337.8333333333333</ele><time>2026-04-18T07:26:07Z</time></trkpt><trkpt lat="43.93174254027011" lon="12.313865656163069"><ele>337.0</ele><time>2026-04-18T07:26:08Z</time></trkpt><trkpt lat="43.93172135347846" lon="12.31378261123102"><ele>335.5</ele><time>2026-04-18T07:26:09Z</time></trkpt><trkpt lat="43.9317043576488" lon="12.31369734056124"><ele>334.0</ele><time>2026-04-18T07:26:10Z</time></trkpt><trkpt lat="43.93166947641402" lon="12.313586228454682"><ele>332.5</ele><time>2026-04-18T07:26:11Z</time></trkpt><trkpt lat="43.93170429906394" lon="12.313460210727571"><ele>331.0</ele><time>2026-04-18T07:26:12Z</time></trkpt><trkpt lat="43.93179321910382" lon="12.313383347398172"><ele>329.5</ele><time>2026-04-18T07:26:13Z</time></trkpt><trkpt lat="43.931833676919446" lon="12.31327911492962"><ele>328.0</ele><time>2026-04-18T07:26:14Z</time></trkpt><trkpt lat="43.93186419014951" lon="12.3131628926273"><ele>325.66666666666663</ele><time>2026-04-18T07:26:15Z</time></trkpt><trkpt lat="43.931845689555644" lon="12.313030965514717"><ele>323.3333333333333</ele><time>2026-04-18T07:26:16Z</time></trkpt><trkpt lat="43.93181529646914" lon="12.312951492407619"><ele>321.0</ele><time>2026-04-18T07:26:17Z</time></trkpt><trkpt lat="43.93174880778074" lon="12.312902279037376"><ele>318.6666666666667</ele><time>2026-04-18T07:26:19Z</time></trkpt><trkpt lat="43.931665164913646" lon="12.312889818042688"><ele>316.33333333333337</ele><time>2026-04-18T07:26:21Z</time></trkpt><trkpt lat="43.93156469500803" lon="12.312879721433841"><ele>314.0</ele><time>2026-04-18T07:26:22Z</time></trkpt><trkpt lat="43.93146507883797" lon="12.31287511125276"><ele>313.1666666666667</ele><time>2026-04-18T07:26:23Z</time></trkpt><trkpt lat="43.93138627047861" lon="12.312889618450907"><ele>312.33333333333337</ele><time>2026-04-18T07:26:24Z</time></trkpt><trkpt lat="43.93131816119911" lon="12.312878823259435"><ele>311.5</ele><time>2026-04-18T07:26:25Z</time></trkpt><trkpt lat="43.93120523712264" lon="12.312861222020517"><ele>310.6666666666667</ele><time>2026-04-18T07:26:27Z</time></trkpt><trkpt lat="43.931187437462974" lon="12.312767146092513"><ele>309.8333333333333</ele><time>2026-04-18T07:26:30Z</time></trkpt><trkpt lat="43.931272642490995" lon="12.312783444320159"><ele>309.0</ele><time>2026-04-18T07:26:31.999Z</time></trkpt><trkpt lat="43.931335886964106" lon="12.312760804348175"><ele>309.0</ele><time>2026-04-18T07:26:32.999Z</time></trkpt><trkpt lat="43.93141196021597" lon="12.312704005020548"><ele>309.0</ele><time>2026-04-18T07:26:33.999Z</time></trkpt><trkpt lat="43.93149503735009" lon="12.312649732743903"><ele>309.0</ele><time>2026-04-18T07:26:34.999Z</time></trkpt><trkpt lat="43.931550535620495" lon="12.31256017897956"><ele>309.0</ele><time>2026-04-18T07:26:35.999Z</time></trkpt><trkpt lat="43.931602818799924" lon="12.31247666349265"><ele>309.0</ele><time>2026-04-18T07:26:36.999Z</time></trkpt><trkpt lat="43.93164590529052" lon="12.312405820028525"><ele>309.0</ele><time>2026-04-18T07:26:37.999Z</time></trkpt><trkpt lat="43.93169289883382" lon="12.312333142256556"><ele>306.4</ele><time>2026-04-18T07:26:39.999Z</time></trkpt><trkpt lat="43.931678016366384" lon="12.31221973484159"><ele>303.79999999999995</ele><time>2026-04-18T07:26:42.999Z</time></trkpt><trkpt lat="43.93175124597356" lon="12.312117168182425"><ele>301.20000000000005</ele><time>2026-04-18T07:26:44.999Z</time></trkpt><trkpt lat="43.931859102173654" lon="12.312071079041017"><ele>298.6</ele><time>2026-04-18T07:26:46.999Z</time></trkpt><trkpt lat="43.93193397033249" lon="12.312065454241875"><ele>296.0</ele><time>2026-04-18T07:26:47.999Z</time></trkpt><trkpt lat="43.93202025638909" lon="12.312183382492899"><ele>295.6666666666667</ele><time>2026-04-18T07:26:48.999Z</time></trkpt><trkpt lat="43.93209448350306" lon="12.312181437983746"><ele>295.33333333333337</ele><time>2026-04-18T07:26:50.999Z</time></trkpt><trkpt lat="43.932124492775195" lon="12.312047635026444"><ele>295.0</ele><time>2026-04-18T07:26:51.999Z</time></trkpt><trkpt lat="43.93219892463773" lon="12.3120468220631"><ele>294.6666666666667</ele><time>2026-04-18T07:26:53.999Z</time></trkpt><trkpt lat="43.93227047610979" lon="12.312032565639642"><ele>294.3333333333333</ele><time>2026-04-18T07:26:55.999Z</time></trkpt><trkpt lat="43.932334906039614" lon="12.3120144105733"><ele>294.0</ele><time>2026-04-18T07:26:58.001Z</time></trkpt><trkpt lat="43.93226223530034" lon="12.31202819597566"><ele>294.0</ele><time>2026-04-18T07:27:44Z</time></trkpt><trkpt lat="43.93219859531657" lon="12.312032506312926"><ele>294.0</ele><time>2026-04-18T07:27:45Z</time></trkpt><trkpt lat="43.93208810138429" lon="12.312038902589608"><ele>294.0</ele><time>2026-04-18T07:27:47Z</time></trkpt><trkpt lat="43.93198229929645" lon="12.312029439213465"><ele>294.0</ele><time>2026-04-18T07:27:49Z</time></trkpt><trkpt lat="43.93189193129604" lon="12.31205496058771"><ele>294.0</ele><time>2026-04-18T07:27:51Z</time></trkpt><trkpt lat="43.93180865523039" lon="12.312097234120019"><ele>294.0</ele><time>2026-04-18T07:27:53Z</time></trkpt><trkpt lat="43.931727048802166" lon="12.31214867955687"><ele>294.0</ele><time>2026-04-18T07:27:56Z</time></trkpt><trkpt lat="43.931689255274975" lon="12.312230872557917"><ele>294.0</ele><time>2026-04-18T07:27:58Z</time></trkpt><trkpt lat="43.931670741846666" lon="12.312325222622304"><ele>294.0</ele><time>2026-04-18T07:28:00Z</time></trkpt><trkpt lat="43.93162985659355" lon="12.312400871237156"><ele>294.0</ele><time>2026-04-18T07:28:13Z</time></trkpt><trkpt lat="43.93157245785559" lon="12.312492848012681"><ele>294.0</ele><time>2026-04-18T07:29:34Z</time></trkpt><trkpt lat="43.93164103385305" lon="12.31243510014441"><ele>294.3333333333333</ele><time>2026-04-18T07:29:39Z</time></trkpt><trkpt lat="43.93161410539435" lon="12.31234490277044"><ele>294.6666666666667</ele><time>2026-04-18T07:29:43Z</time></trkpt><trkpt lat="43.93159586575916" lon="12.312254758599222"><ele>295.0</ele><time>2026-04-18T07:29:46Z</time></trkpt><trkpt lat="43.931569300665565" lon="12.31211745864226"><ele>295.33333333333337</ele><time>2026-04-18T07:29:49Z</time></trkpt><trkpt lat="43.93152739611794" lon="12.312037026407918"><ele>295.6666666666667</ele><time>2026-04-18T07:29:52Z</time></trkpt><trkpt lat="43.93149713521264" lon="12.311938981635596"><ele>296.0</ele><time>2026-04-18T07:29:56Z</time></trkpt><trkpt lat="43.931510012312216" lon="12.311841185989959"><ele>296.0</ele><time>2026-04-18T07:30:56.999Z</time></trkpt><trkpt lat="43.93157291221182" lon="12.311745240480434"><ele>296.0</ele><time>2026-04-18T07:31:02.999Z</time></trkpt><trkpt lat="43.93163661117991" lon="12.311667135284722"><ele>296.0</ele><time>2026-04-18T07:31:05.999Z</time></trkpt><trkpt lat="43.931652083034955" lon="12.311547394385858"><ele>296.0</ele><time>2026-04-18T07:31:08.999Z</time></trkpt><trkpt lat="43.93166484205662" lon="12.31145253544844"><ele>296.0</ele><time>2026-04-18T07:31:11.001Z</time></trkpt><trkpt lat="43.931672070611064" lon="12.311343555316679"><ele>296.0</ele><time>2026-04-18T07:31:13.001Z</time></trkpt><trkpt lat="43.93167267878503" lon="12.3112506552465"><ele>293.0</ele><time>2026-04-18T07:31:15.001Z</time></trkpt><trkpt lat="43.93167807590634" lon="12.31114694682368"><ele>290.0</ele><time>2026-04-18T07:31:18.001Z</time></trkpt><trkpt lat="43.931709865303354" lon="12.311043610975386"><ele>287.0</ele><time>2026-04-18T07:31:21Z</time></trkpt><trkpt lat="43.93173574640631" lon="12.31095920867308"><ele>284.0</ele><time>2026-04-18T07:31:23.001Z</time></trkpt><trkpt lat="43.93175871158744" lon="12.310846900870473"><ele>281.0</ele><time>2026-04-18T07:31:26Z</time></trkpt><trkpt lat="43.9317852450742" lon="12.310751285921786"><ele>278.0</ele><time>2026-04-18T07:31:31Z</time></trkpt><trkpt lat="43.931775801170055" lon="12.31064964187312"><ele>276.1428571428571</ele><time>2026-04-18T07:31:34Z</time></trkpt><trkpt lat="43.93174426820757" lon="12.31056224864153"><ele>274.2857142857143</ele><time>2026-04-18T07:31:37Z</time></trkpt><trkpt lat="43.931694255145" lon="12.310469309794879"><ele>272.42857142857144</ele><time>2026-04-18T07:31:40Z</time></trkpt><trkpt lat="43.93164663152155" lon="12.310386003456536"><ele>270.57142857142856</ele><time>2026-04-18T07:31:43Z</time></trkpt><trkpt lat="43.931609192279346" lon="12.310315123344518"><ele>268.7142857142857</ele><time>2026-04-18T07:31:46Z</time></trkpt><trkpt lat="43.93157012910249" lon="12.31024414711705"><ele>266.85714285714283</ele><time>2026-04-18T07:31:49Z</time></trkpt><trkpt lat="43.93154913270349" lon="12.310156016611842"><ele>265.0</ele><time>2026-04-18T07:31:52Z</time></trkpt><trkpt lat="43.93154364684829" lon="12.31006486990892"><ele>264.16666666666663</ele><time>2026-04-18T07:31:55Z</time></trkpt><trkpt lat="43.93154094955467" lon="12.309950454910917"><ele>263.3333333333333</ele><time>2026-04-18T07:31:59Z</time></trkpt><trkpt lat="43.931534529015074" lon="12.30985276615497"><ele>262.5</ele><time>2026-04-18T07:32:02Z</time></trkpt><trkpt lat="43.93151345455727" lon="12.309743864698529"><ele>261.6666666666667</ele><time>2026-04-18T07:32:07Z</time></trkpt><trkpt lat="43.93149310043035" lon="12.309628586217853"><ele>260.83333333333337</ele><time>2026-04-18T07:32:10Z</time></trkpt><trkpt lat="43.931473024899866" lon="12.309525735635244"><ele>260.0</ele><time>2026-04-18T07:32:13Z</time></trkpt><trkpt lat="43.9315026723979" lon="12.309444011109877"><ele>260.2</ele><time>2026-04-18T07:32:17Z</time></trkpt><trkpt lat="43.93156722023716" lon="12.309396301609825"><ele>260.4</ele><time>2026-04-18T07:32:20Z</time></trkpt><trkpt lat="43.93163393111947" lon="12.309363197924243"><ele>260.6</ele><time>2026-04-18T07:32:22Z</time></trkpt><trkpt lat="43.93170488584923" lon="12.309275688108647"><ele>260.8</ele><time>2026-04-18T07:32:26Z</time></trkpt><trkpt lat="43.931813478367395" lon="12.309181579325104"><ele>261.0</ele><time>2026-04-18T07:32:28Z</time></trkpt><trkpt lat="43.93189015547633" lon="12.309133384648552"><ele>261.0</ele><time>2026-04-18T07:32:29Z</time></trkpt><trkpt lat="43.931984357458376" lon="12.309080041044684"><ele>261.0</ele><time>2026-04-18T07:32:30Z</time></trkpt><trkpt lat="43.93205593534705" lon="12.309024324059758"><ele>261.0</ele><time>2026-04-18T07:32:31Z</time></trkpt><trkpt lat="43.93212295156852" lon="12.308962050574628"><ele>261.0</ele><time>2026-04-18T07:32:32Z</time></trkpt><trkpt lat="43.93219581619456" lon="12.308887561771432"><ele>261.0</ele><time>2026-04-18T07:32:33Z</time></trkpt><trkpt lat="43.93225313113228" lon="12.30882483331082"><ele>261.0</ele><time>2026-04-18T07:32:34Z</time></trkpt><trkpt lat="43.932295810123826" lon="12.308736258247224"><ele>261.6666666666667</ele><time>2026-04-18T07:32:35Z</time></trkpt><trkpt lat="43.932299298513236" lon="12.308622341875369"><ele>262.3333333333333</ele><time>2026-04-18T07:32:36Z</time></trkpt><trkpt lat="43.93226712034622" lon="12.308498557369015"><ele>263.0</ele><time>2026-04-18T07:32:37Z</time></trkpt><trkpt lat="43.93222258474275" lon="12.30841192842516"><ele>263.66666666666663</ele><time>2026-04-18T07:32:38Z</time></trkpt><trkpt lat="43.93215277258179" lon="12.308357424420736"><ele>264.3333333333333</ele><time>2026-04-18T07:32:39Z</time></trkpt><trkpt lat="43.93208227342072" lon="12.308322604698692"><ele>265.0</ele><time>2026-04-18T07:32:40Z</time></trkpt><trkpt lat="43.93203118423214" lon="12.308266407528018"><ele>265.0</ele><time>2026-04-18T07:32:43Z</time></trkpt><trkpt lat="43.93200158340119" lon="12.308145103257324"><ele>265.0</ele><time>2026-04-18T07:32:46Z</time></trkpt><trkpt lat="43.93196698011174" lon="12.307986443279567"><ele>265.0</ele><time>2026-04-18T07:32:48Z</time></trkpt><trkpt lat="43.931931157250055" lon="12.30788728490047"><ele>265.0</ele><time>2026-04-18T07:32:49Z</time></trkpt><trkpt lat="43.93188107698712" lon="12.307807984795021"><ele>265.0</ele><time>2026-04-18T07:32:50Z</time></trkpt><trkpt lat="43.93181158439433" lon="12.30768019809482"><ele>266.0</ele><time>2026-04-18T07:32:51.999Z</time></trkpt><trkpt lat="43.931791578292454" lon="12.307596850409709"><ele>267.0</ele><time>2026-04-18T07:32:52.999Z</time></trkpt><trkpt lat="43.93170506048686" lon="12.307458725927829"><ele>268.0</ele><time>2026-04-18T07:32:54.999Z</time></trkpt><trkpt lat="43.93161418557787" lon="12.307444188667255"><ele>269.0</ele><time>2026-04-18T07:32:56.999Z</time></trkpt><trkpt lat="43.93153743098759" lon="12.307490383448519"><ele>270.0</ele><time>2026-04-18T07:32:59.999Z</time></trkpt><trkpt lat="43.93145137054633" lon="12.3074483006057"><ele>273.2</ele><time>2026-04-18T07:33:01.999Z</time></trkpt><trkpt lat="43.931378608530245" lon="12.307339313923876"><ele>276.4</ele><time>2026-04-18T07:33:03.999Z</time></trkpt><trkpt lat="43.931295791816424" lon="12.307195369263415"><ele>279.6</ele><time>2026-04-18T07:33:05.999Z</time></trkpt><trkpt lat="43.931265809185916" lon="12.307107719254372"><ele>282.8</ele><time>2026-04-18T07:33:06.999Z</time></trkpt><trkpt lat="43.931231132258425" lon="12.306982385216573"><ele>286.0</ele><time>2026-04-18T07:33:07.999Z</time></trkpt><trkpt lat="43.93121209958004" lon="12.306842639147572"><ele>288.25</ele><time>2026-04-18T07:33:08.999Z</time></trkpt><trkpt lat="43.93119063461008" lon="12.306688008763265"><ele>290.5</ele><time>2026-04-18T07:33:09.999Z</time></trkpt><trkpt lat="43.93116176279623" lon="12.306500464439363"><ele>292.75</ele><time>2026-04-18T07:33:10.999Z</time></trkpt><trkpt lat="43.93114041764897" lon="12.306308419184209"><ele>295.0</ele><time>2026-04-18T07:33:11.999Z</time></trkpt><trkpt lat="43.931126277068394" lon="12.306166235789357"><ele>297.6</ele><time>2026-04-18T07:33:12.999Z</time></trkpt><trkpt lat="43.931096300894595" lon="12.305988347286146"><ele>300.2</ele><time>2026-04-18T07:33:14.999Z</time></trkpt><trkpt lat="43.931055388881255" lon="12.305869162682649"><ele>302.8</ele><time>2026-04-18T07:33:16.001Z</time></trkpt><trkpt lat="43.931007799378285" lon="12.305754378965492"><ele>305.4</ele><time>2026-04-18T07:33:17.001Z</time></trkpt><trkpt lat="43.930935399857866" lon="12.305612494276549"><ele>308.0</ele><time>2026-04-18T07:33:18.001Z</time></trkpt><trkpt lat="43.930848943723646" lon="12.305466516729478"><ele>314.5</ele><time>2026-04-18T07:33:19.001Z</time></trkpt><trkpt lat="43.93075002878219" lon="12.305339005899047"><ele>321.0</ele><time>2026-04-18T07:33:20.001Z</time></trkpt><trkpt lat="43.9306665948853" lon="12.305207543684798"><ele>327.5</ele><time>2026-04-18T07:33:21.001Z</time></trkpt><trkpt lat="43.93060830020748" lon="12.305073418018603"><ele>334.0</ele><time>2026-04-18T07:33:22.001Z</time></trkpt><trkpt lat="43.930543217717904" lon="12.304946440227138"><ele>334.0</ele><time>2026-04-18T07:33:23.001Z</time></trkpt><trkpt lat="43.930487316370936" lon="12.30484508523245"><ele>334.0</ele><time>2026-04-18T07:33:24.001Z</time></trkpt><trkpt lat="43.930435543894745" lon="12.304728908420172"><ele>334.0</ele><time>2026-04-18T07:33:25.001Z</time></trkpt><trkpt lat="43.93039471820389" lon="12.304607396088588"><ele>334.0</ele><time>2026-04-18T07:33:26.001Z</time></trkpt><trkpt lat="43.93037314742816" lon="12.304480125435596"><ele>334.0</ele><time>2026-04-18T07:33:27.001Z</time></trkpt><trkpt lat="43.930380250501955" lon="12.304330875076095"><ele>337.5</ele><time>2026-04-18T07:33:28.001Z</time></trkpt><trkpt lat="43.93040683251767" lon="12.304169771192864"><ele>341.0</ele><time>2026-04-18T07:33:29.001Z</time></trkpt><trkpt lat="43.93041351961952" lon="12.304010532286023"><ele>344.5</ele><time>2026-04-18T07:33:30Z</time></trkpt><trkpt lat="43.93040791683255" lon="12.303826197441413"><ele>348.0</ele><time>2026-04-18T07:33:31Z</time></trkpt><trkpt lat="43.93040635487921" lon="12.30366692540507"><ele>350.0</ele><time>2026-04-18T07:33:32Z</time></trkpt><trkpt lat="43.93042353104005" lon="12.30352611361048"><ele>352.0</ele><time>2026-04-18T07:33:34Z</time></trkpt><trkpt lat="43.93047546311009" lon="12.303473360080625"><ele>354.0</ele><time>2026-04-18T07:33:35Z</time></trkpt><trkpt lat="43.93054674602079" lon="12.30338461050994"><ele>356.0</ele><time>2026-04-18T07:33:36Z</time></trkpt><trkpt lat="43.93062074393021" lon="12.303295431339368"><ele>358.0</ele><time>2026-04-18T07:33:37Z</time></trkpt><trkpt lat="43.93068235031107" lon="12.303176566198688"><ele>359.4</ele><time>2026-04-18T07:33:38Z</time></trkpt><trkpt lat="43.93071161869935" lon="12.303044974536455"><ele>360.79999999999995</ele><time>2026-04-18T07:33:39Z</time></trkpt><trkpt lat="43.93073413260872" lon="12.302898495007547"><ele>362.2</ele><time>2026-04-18T07:33:40Z</time></trkpt><trkpt lat="43.93076093626107" lon="12.302742993666792"><ele>363.6</ele><time>2026-04-18T07:33:41Z</time></trkpt><trkpt lat="43.93079927736803" lon="12.30258866450646"><ele>365.0</ele><time>2026-04-18T07:33:42Z</time></trkpt><trkpt lat="43.93084569040027" lon="12.30244599543285"><ele>366.2</ele><time>2026-04-18T07:33:43Z</time></trkpt><trkpt lat="43.930919071147514" lon="12.302200655900613"><ele>367.4</ele><time>2026-04-18T07:33:45Z</time></trkpt><trkpt lat="43.93095689708618" lon="12.30206749991451"><ele>368.6</ele><time>2026-04-18T07:33:47Z</time></trkpt><trkpt lat="43.93097898292909" lon="12.301979859501273"><ele>369.8</ele><time>2026-04-18T07:33:48Z</time></trkpt><trkpt lat="43.93101329595486" lon="12.301879365606695"><ele>371.0</ele><time>2026-04-18T07:33:49Z</time></trkpt><trkpt lat="43.931057191603244" lon="12.301774090044193"><ele>371.0</ele><time>2026-04-18T07:33:50Z</time></trkpt><trkpt lat="43.93110965467733" lon="12.301653812515985"><ele>371.0</ele><time>2026-04-18T07:33:51Z</time></trkpt><trkpt lat="43.93116801286099" lon="12.301516985813922"><ele>371.0</ele><time>2026-04-18T07:33:52Z</time></trkpt><trkpt lat="43.93122680175995" lon="12.301416205394505"><ele>371.0</ele><time>2026-04-18T07:33:53Z</time></trkpt><trkpt lat="43.93128783454138" lon="12.301311312007986"><ele>371.0</ele><time>2026-04-18T07:33:54Z</time></trkpt><trkpt lat="43.93135097006541" lon="12.301192966427125"><ele>373.0</ele><time>2026-04-18T07:33:55Z</time></trkpt><trkpt lat="43.93141775794545" lon="12.301055008042221"><ele>375.0</ele><time>2026-04-18T07:33:56Z</time></trkpt><trkpt lat="43.9314823534573" lon="12.300905940551678"><ele>377.0</ele><time>2026-04-18T07:33:57Z</time></trkpt><trkpt lat="43.93154788981296" lon="12.300791592184005"><ele>379.0</ele><time>2026-04-18T07:33:58Z</time></trkpt><trkpt lat="43.9316193207278" lon="12.300672598423992"><ele>380.0</ele><time>2026-04-18T07:33:59Z</time></trkpt><trkpt lat="43.931691649534436" lon="12.300556746447675"><ele>381.0</ele><time>2026-04-18T07:34:00Z</time></trkpt><trkpt lat="43.931749813493745" lon="12.300460012747378"><ele>382.0</ele><time>2026-04-18T07:34:01Z</time></trkpt><trkpt lat="43.93180205262383" lon="12.30037521983191"><ele>383.0</ele><time>2026-04-18T07:34:02Z</time></trkpt><trkpt lat="43.93186786066038" lon="12.300299899769874"><ele>384.00000000000006</ele><time>2026-04-18T07:34:03Z</time></trkpt><trkpt lat="43.93191574244628" lon="12.300235305235221"><ele>385.0</ele><time>2026-04-18T07:34:04Z</time></trkpt><trkpt lat="43.931971605439166" lon="12.300168613264558"><ele>386.2</ele><time>2026-04-18T07:34:05Z</time></trkpt><trkpt lat="43.93203928505292" lon="12.300096289628629"><ele>387.4</ele><time>2026-04-18T07:34:06Z</time></trkpt><trkpt lat="43.93211537618211" lon="12.300004113564768"><ele>388.6</ele><time>2026-04-18T07:34:07Z</time></trkpt><trkpt lat="43.932193846204505" lon="12.299907069810134"><ele>389.8</ele><time>2026-04-18T07:34:08Z</time></trkpt><trkpt lat="43.932262779931754" lon="12.299820010130025"><ele>391.0</ele><time>2026-04-18T07:34:09Z</time></trkpt><trkpt lat="43.93232247470819" lon="12.299738879194317"><ele>391.20000000000005</ele><time>2026-04-18T07:34:10Z</time></trkpt><trkpt lat="43.932387201368954" lon="12.299656105620835"><ele>391.40000000000003</ele><time>2026-04-18T07:34:11Z</time></trkpt><trkpt lat="43.932461987264574" lon="12.299556036788182"><ele>391.6</ele><time>2026-04-18T07:34:12Z</time></trkpt><trkpt lat="43.93252415267796" lon="12.299465729794765"><ele>391.8</ele><time>2026-04-18T07:34:13Z</time></trkpt><trkpt lat="43.93255750371065" lon="12.299383745534747"><ele>392.0</ele><time>2026-04-18T07:34:14Z</time></trkpt><trkpt lat="43.93257096024629" lon="12.299227800108763"><ele>394.0</ele><time>2026-04-18T07:34:16Z</time></trkpt><trkpt lat="43.93255512174362" lon="12.299036671120408"><ele>396.0</ele><time>2026-04-18T07:34:18Z</time></trkpt><trkpt lat="43.93254320552711" lon="12.298931364164394"><ele>398.0</ele><time>2026-04-18T07:34:19Z</time></trkpt><trkpt lat="43.932532953012505" lon="12.298834343663476"><ele>400.0</ele><time>2026-04-18T07:34:20Z</time></trkpt><trkpt lat="43.93251472896028" lon="12.298674739333535"><ele>402.0</ele><time>2026-04-18T07:34:22Z</time></trkpt><trkpt lat="43.932517595286576" lon="12.298567087520858"><ele>403.8</ele><time>2026-04-18T07:34:23Z</time></trkpt><trkpt lat="43.93251046168825" lon="12.298462889755548"><ele>405.6</ele><time>2026-04-18T07:34:24Z</time></trkpt><trkpt lat="43.932516920511084" lon="12.298337047260548"><ele>407.40000000000003</ele><time>2026-04-18T07:34:26Z</time></trkpt><trkpt lat="43.932399612332226" lon="12.298382624746466"><ele>409.20000000000005</ele><time>2026-04-18T07:34:29Z</time></trkpt><trkpt lat="43.93231442066339" lon="12.298452935714092"><ele>411.0</ele><time>2026-04-18T07:34:30Z</time></trkpt><trkpt lat="43.932251412272755" lon="12.298503003640002"><ele>411.0</ele><time>2026-04-18T07:34:31Z</time></trkpt><trkpt lat="43.932192316109074" lon="12.298562563190476"><ele>411.0</ele><time>2026-04-18T07:34:32Z</time></trkpt><trkpt lat="43.932124933251266" lon="12.298655375048792"><ele>411.0</ele><time>2026-04-18T07:34:33Z</time></trkpt><trkpt lat="43.93204736685675" lon="12.298750546220305"><ele>411.0</ele><time>2026-04-18T07:34:34Z</time></trkpt><trkpt lat="43.931963132414076" lon="12.298835207339769"><ele>411.0</ele><time>2026-04-18T07:34:35Z</time></trkpt><trkpt lat="43.93188442533458" lon="12.298939548061577"><ele>409.5</ele><time>2026-04-18T07:34:36Z</time></trkpt><trkpt lat="43.93182189265847" lon="12.299034298512646"><ele>408.0</ele><time>2026-04-18T07:34:36.999Z</time></trkpt><trkpt lat="43.931768583051124" lon="12.299121106971487"><ele>406.5</ele><time>2026-04-18T07:34:37.999Z</time></trkpt><trkpt lat="43.93171609128463" lon="12.29919932762416"><ele>405.0</ele><time>2026-04-18T07:34:38.999Z</time></trkpt><trkpt lat="43.93165577519388" lon="12.299278132524835"><ele>403.5</ele><time>2026-04-18T07:34:39.999Z</time></trkpt><trkpt lat="43.931577980747015" lon="12.299360899097827"><ele>402.0</ele><time>2026-04-18T07:34:40.999Z</time></trkpt><trkpt lat="43.93150383422909" lon="12.299421655213271"><ele>400.57142857142856</ele><time>2026-04-18T07:34:41.999Z</time></trkpt><trkpt lat="43.93144962797905" lon="12.299488352647401"><ele>399.14285714285717</ele><time>2026-04-18T07:34:42.999Z</time></trkpt><trkpt lat="43.93139395227942" lon="12.299546477605132"><ele>397.7142857142857</ele><time>2026-04-18T07:34:43.999Z</time></trkpt><trkpt lat="43.93133518885787" lon="12.299597771133035"><ele>396.2857142857143</ele><time>2026-04-18T07:34:44.999Z</time></trkpt><trkpt lat="43.931276117306815" lon="12.299658570717991"><ele>394.8571428571429</ele><time>2026-04-18T07:34:45.999Z</time></trkpt><trkpt lat="43.93121812181863" lon="12.299718917696676"><ele>393.42857142857144</ele><time>2026-04-18T07:34:46.999Z</time></trkpt><trkpt lat="43.931158932315405" lon="12.299788188076302"><ele>392.0</ele><time>2026-04-18T07:34:47.999Z</time></trkpt><trkpt lat="43.93109801053156" lon="12.299858602941871"><ele>390.8333333333333</ele><time>2026-04-18T07:34:48.999Z</time></trkpt><trkpt lat="43.93103408742035" lon="12.29992114253281"><ele>389.66666666666663</ele><time>2026-04-18T07:34:49.999Z</time></trkpt><trkpt lat="43.93097116694406" lon="12.299981565420326"><ele>388.5</ele><time>2026-04-18T07:34:50.999Z</time></trkpt><trkpt lat="43.930898415721245" lon="12.30004535526777"><ele>387.33333333333337</ele><time>2026-04-18T07:34:51.999Z</time></trkpt><trkpt lat="43.93082769821727" lon="12.300101630815101"><ele>386.1666666666667</ele><time>2026-04-18T07:34:52.999Z</time></trkpt><trkpt lat="43.93075786745819" lon="12.300140312490859"><ele>385.0</ele><time>2026-04-18T07:34:53.999Z</time></trkpt><trkpt lat="43.93068958076574" lon="12.300182902770278"><ele>382.0</ele><time>2026-04-18T07:34:54.999Z</time></trkpt><trkpt lat="43.93061903365507" lon="12.300243646494833"><ele>379.0</ele><time>2026-04-18T07:34:55.999Z</time></trkpt><trkpt lat="43.93055621620515" lon="12.300300819603647"><ele>376.0</ele><time>2026-04-18T07:34:56.998Z</time></trkpt><trkpt lat="43.93048434775304" lon="12.300362656732759"><ele>373.0</ele><time>2026-04-18T07:34:57.998Z</time></trkpt><trkpt lat="43.930419354570816" lon="12.30040907894457"><ele>370.0</ele><time>2026-04-18T07:34:58.998Z</time></trkpt><trkpt lat="43.930300270199595" lon="12.300501860841882"><ele>370.0</ele><time>2026-04-18T07:35:00.998Z</time></trkpt><trkpt lat="43.93022470409008" lon="12.30056057913801"><ele>370.0</ele><time>2026-04-18T07:35:01.998Z</time></trkpt><trkpt lat="43.930143467136475" lon="12.300616292502584"><ele>370.0</ele><time>2026-04-18T07:35:02.998Z</time></trkpt><trkpt lat="43.93007328659071" lon="12.300629447417526"><ele>370.0</ele><time>2026-04-18T07:35:03.998Z</time></trkpt><trkpt lat="43.92998179008687" lon="12.300637918277612"><ele>370.0</ele><time>2026-04-18T07:35:04.998Z</time></trkpt><trkpt lat="43.92989554103357" lon="12.300647771732198"><ele>370.0</ele><time>2026-04-18T07:35:05.998Z</time></trkpt><trkpt lat="43.9298143360098" lon="12.300668280435188"><ele>368.4</ele><time>2026-04-18T07:35:06.998Z</time></trkpt><trkpt lat="43.92975029990032" lon="12.300689671426516"><ele>366.8</ele><time>2026-04-18T07:35:07.998Z</time></trkpt><trkpt lat="43.92964998893137" lon="12.300702206693519"><ele>365.20000000000005</ele><time>2026-04-18T07:35:09.998Z</time></trkpt><trkpt lat="43.92951528136712" lon="12.300692535261312"><ele>363.6</ele><time>2026-04-18T07:35:11.998Z</time></trkpt><trkpt lat="43.9294220627435" lon="12.300673986351965"><ele>362.0</ele><time>2026-04-18T07:35:12.998Z</time></trkpt><trkpt lat="43.92932212202026" lon="12.300649104309132"><ele>360.25</ele><time>2026-04-18T07:35:13.998Z</time></trkpt><trkpt lat="43.929212205184676" lon="12.300626138627264"><ele>358.5</ele><time>2026-04-18T07:35:14.998Z</time></trkpt><trkpt lat="43.929099953211626" lon="12.300604884206619"><ele>356.75</ele><time>2026-04-18T07:35:15.998Z</time></trkpt><trkpt lat="43.92896522008146" lon="12.300582559024688"><ele>355.0</ele><time>2026-04-18T07:35:16.998Z</time></trkpt><trkpt lat="43.92881920501304" lon="12.30056317443861"><ele>354.25</ele><time>2026-04-18T07:35:17.998Z</time></trkpt><trkpt lat="43.92867542750158" lon="12.300544452996618"><ele>353.5</ele><time>2026-04-18T07:35:18.998Z</time></trkpt><trkpt lat="43.92854087134591" lon="12.30051792409943"><ele>352.75</ele><time>2026-04-18T07:35:19.998Z</time></trkpt><trkpt lat="43.928417616335665" lon="12.300491408846685"><ele>352.0</ele><time>2026-04-18T07:35:21Z</time></trkpt><trkpt lat="43.92831275040349" lon="12.300486490695508"><ele>352.0</ele><time>2026-04-18T07:35:22Z</time></trkpt><trkpt lat="43.92821103213173" lon="12.300492415255977"><ele>352.0</ele><time>2026-04-18T07:35:23Z</time></trkpt><trkpt lat="43.928129674537225" lon="12.300504061050392"><ele>352.0</ele><time>2026-04-18T07:35:24Z</time></trkpt><trkpt lat="43.928051083856595" lon="12.30053072789023"><ele>352.0</ele><time>2026-04-18T07:35:25Z</time></trkpt><trkpt lat="43.927961293147575" lon="12.300587264124093"><ele>352.0</ele><time>2026-04-18T07:35:26Z</time></trkpt><trkpt lat="43.92788307651568" lon="12.300677081504764"><ele>352.40000000000003</ele><time>2026-04-18T07:35:27Z</time></trkpt><trkpt lat="43.92780641752323" lon="12.30076579218477"><ele>352.8</ele><time>2026-04-18T07:35:28Z</time></trkpt><trkpt lat="43.9277409290866" lon="12.300862327560662"><ele>353.2</ele><time>2026-04-18T07:35:29Z</time></trkpt><trkpt lat="43.92767360613429" lon="12.300940833933183"><ele>353.6</ele><time>2026-04-18T07:35:30Z</time></trkpt><trkpt lat="43.92761856404592" lon="12.301003722638313"><ele>354.0</ele><time>2026-04-18T07:35:31Z</time></trkpt><trkpt lat="43.92752663378894" lon="12.301120617167971"><ele>354.3333333333333</ele><time>2026-04-18T07:35:33Z</time></trkpt><trkpt lat="43.927473542765135" lon="12.301185216343555"><ele>354.6666666666667</ele><time>2026-04-18T07:35:34Z</time></trkpt><trkpt lat="43.92741741078482" lon="12.301245465417761"><ele>355.0</ele><time>2026-04-18T07:35:35Z</time></trkpt><trkpt lat="43.92736073212523" lon="12.301342805296969"><ele>355.33333333333337</ele><time>2026-04-18T07:35:36Z</time></trkpt><trkpt lat="43.9272937103841" lon="12.301444527391997"><ele>355.6666666666667</ele><time>2026-04-18T07:35:37Z</time></trkpt><trkpt lat="43.927216975322" lon="12.301506360501167"><ele>356.0</ele><time>2026-04-18T07:35:38Z</time></trkpt><trkpt lat="43.9271406370694" lon="12.301541640434378"><ele>354.4</ele><time>2026-04-18T07:35:38.999Z</time></trkpt><trkpt lat="43.92705007563226" lon="12.301575066516412"><ele>352.8</ele><time>2026-04-18T07:35:39.999Z</time></trkpt><trkpt lat="43.926959372956816" lon="12.301608645880306"><ele>351.2</ele><time>2026-04-18T07:35:40.999Z</time></trkpt><trkpt lat="43.92687456402215" lon="12.301626037772433"><ele>349.59999999999997</ele><time>2026-04-18T07:35:41.999Z</time></trkpt><trkpt lat="43.92678059736438" lon="12.301650966398505"><ele>348.0</ele><time>2026-04-18T07:35:42.999Z</time></trkpt><trkpt lat="43.92669025225438" lon="12.301679353719065"><ele>346.4</ele><time>2026-04-18T07:35:43.999Z</time></trkpt><trkpt lat="43.92661743482536" lon="12.301716717535593"><ele>344.79999999999995</ele><time>2026-04-18T07:35:44.999Z</time></trkpt><trkpt lat="43.92653988198775" lon="12.301740810882825"><ele>343.2</ele><time>2026-04-18T07:35:45.999Z</time></trkpt><trkpt lat="43.92646581250795" lon="12.301779820246876"><ele>341.6</ele><time>2026-04-18T07:35:46.999Z</time></trkpt><trkpt lat="43.926388574226834" lon="12.301845982197587"><ele>340.0</ele><time>2026-04-18T07:35:47.999Z</time></trkpt><trkpt lat="43.9262973144731" lon="12.301966697730236"><ele>340.0</ele><time>2026-04-18T07:35:48.999Z</time></trkpt><trkpt lat="43.92621923404915" lon="12.302098639336872"><ele>340.0</ele><time>2026-04-18T07:35:49.999Z</time></trkpt><trkpt lat="43.926130861618866" lon="12.302208054083517"><ele>340.0</ele><time>2026-04-18T07:35:50.999Z</time></trkpt><trkpt lat="43.92604125994221" lon="12.30226944916397"><ele>340.0</ele><time>2026-04-18T07:35:51.999Z</time></trkpt><trkpt lat="43.925950727940894" lon="12.302321831239784"><ele>340.0</ele><time>2026-04-18T07:35:52.999Z</time></trkpt><trkpt lat="43.92588210405477" lon="12.30234838800607"><ele>337.2</ele><time>2026-04-18T07:35:53.999Z</time></trkpt><trkpt lat="43.925816639376976" lon="12.302358420005735"><ele>334.4</ele><time>2026-04-18T07:35:54.999Z</time></trkpt><trkpt lat="43.92573873523331" lon="12.302354264418742"><ele>331.6</ele><time>2026-04-18T07:35:55.999Z</time></trkpt><trkpt lat="43.925624907259035" lon="12.3023291748643"><ele>328.8</ele><time>2026-04-18T07:35:56.999Z</time></trkpt><trkpt lat="43.92551674953807" lon="12.302306192203051"><ele>326.0</ele><time>2026-04-18T07:35:57.999Z</time></trkpt><trkpt lat="43.92542161010312" lon="12.302323070015648"><ele>326.0</ele><time>2026-04-18T07:35:58.999Z</time></trkpt><trkpt lat="43.92532997447585" lon="12.302382771916657"><ele>326.0</ele><time>2026-04-18T07:35:59.999Z</time></trkpt><trkpt lat="43.92525757395701" lon="12.302458881268048"><ele>326.0</ele><time>2026-04-18T07:36:00.999Z</time></trkpt><trkpt lat="43.92519951418641" lon="12.302500418290387"><ele>326.0</ele><time>2026-04-18T07:36:01.999Z</time></trkpt><trkpt lat="43.92513787662418" lon="12.302582353931136"><ele>326.0</ele><time>2026-04-18T07:36:03.999Z</time></trkpt><trkpt lat="43.92520123637376" lon="12.30250817202927"><ele>326.0</ele><time>2026-04-18T07:36:43.999Z</time></trkpt><trkpt lat="43.9252971254265" lon="12.302433562673237"><ele>326.0</ele><time>2026-04-18T07:36:45.999Z</time></trkpt><trkpt lat="43.9253817417242" lon="12.302382281757648"><ele>326.0</ele><time>2026-04-18T07:36:47.999Z</time></trkpt><trkpt lat="43.92545622185016" lon="12.302327610273728"><ele>326.0</ele><time>2026-04-18T07:36:50.999Z</time></trkpt><trkpt lat="43.925536527563615" lon="12.302303831808246"><ele>326.0</ele><time>2026-04-18T07:37:13.998Z</time></trkpt><trkpt lat="43.92545094018229" lon="12.30232730185234"><ele>326.0</ele><time>2026-04-18T07:37:28Z</time></trkpt><trkpt lat="43.92539331018225" lon="12.30236294594566"><ele>326.0</ele><time>2026-04-18T07:37:30Z</time></trkpt><trkpt lat="43.925316767178366" lon="12.302409766728438"><ele>326.0</ele><time>2026-04-18T07:37:43Z</time></trkpt><trkpt lat="43.92523576644772" lon="12.302445960566406"><ele>326.0</ele><time>2026-04-18T07:37:46.999Z</time></trkpt><trkpt lat="43.92518087613516" lon="12.302537910831758"><ele>326.0</ele><time>2026-04-18T07:38:53.999Z</time></trkpt><trkpt lat="43.92514624350711" lon="12.302613966505692"><ele>326.0</ele><time>2026-04-18T07:38:54.999Z</time></trkpt><trkpt lat="43.925099782626496" lon="12.302715884303492"><ele>326.0</ele><time>2026-04-18T07:38:55.999Z</time></trkpt><trkpt lat="43.92506141562361" lon="12.302835306885967"><ele>326.0</ele><time>2026-04-18T07:38:56.999Z</time></trkpt><trkpt lat="43.92503289422593" lon="12.302931175044145"><ele>324.6</ele><time>2026-04-18T07:38:57.999Z</time></trkpt><trkpt lat="43.925010167539725" lon="12.303024271267418"><ele>323.20000000000005</ele><time>2026-04-18T07:38:58.999Z</time></trkpt><trkpt lat="43.92499213989867" lon="12.30313273260117"><ele>321.79999999999995</ele><time>2026-04-18T07:38:59.999Z</time></trkpt><trkpt lat="43.924976566320076" lon="12.303225017406037"><ele>320.4</ele><time>2026-04-18T07:39:00.999Z</time></trkpt><trkpt lat="43.92491827691882" lon="12.303407500294448"><ele>319.0</ele><time>2026-04-18T07:39:02.999Z</time></trkpt><trkpt lat="43.92487131830898" lon="12.303524896262033"><ele>318.16666666666663</ele><time>2026-04-18T07:39:03.999Z</time></trkpt><trkpt lat="43.92482528365777" lon="12.30363037220412"><ele>317.3333333333333</ele><time>2026-04-18T07:39:04.999Z</time></trkpt><trkpt lat="43.924789002078526" lon="12.30372634912085"><ele>316.5</ele><time>2026-04-18T07:39:05.999Z</time></trkpt><trkpt lat="43.92475826884405" lon="12.30383345451111"><ele>315.6666666666667</ele><time>2026-04-18T07:39:06.999Z</time></trkpt><trkpt lat="43.92472549996198" lon="12.303953623867601"><ele>314.83333333333337</ele><time>2026-04-18T07:39:07.999Z</time></trkpt><trkpt lat="43.92469530764797" lon="12.304057802657109"><ele>314.0</ele><time>2026-04-18T07:39:08.998Z</time></trkpt><trkpt lat="43.92467729419474" lon="12.304154866555528"><ele>311.8</ele><time>2026-04-18T07:39:09.998Z</time></trkpt><trkpt lat="43.924644617029" lon="12.304324086781335"><ele>309.59999999999997</ele><time>2026-04-18T07:39:11.998Z</time></trkpt><trkpt lat="43.92457757193402" lon="12.304464109880588"><ele>307.4</ele><time>2026-04-18T07:39:13.998Z</time></trkpt><trkpt lat="43.92448440229838" lon="12.304503739296177"><ele>305.2</ele><time>2026-04-18T07:39:15.998Z</time></trkpt><trkpt lat="43.92442292122635" lon="12.304477121636557"><ele>303.0</ele><time>2026-04-18T07:39:16.998Z</time></trkpt><trkpt lat="43.924360235052305" lon="12.304448280031833"><ele>303.0</ele><time>2026-04-18T07:39:17.998Z</time></trkpt><trkpt lat="43.92428058704257" lon="12.304415852123832"><ele>303.0</ele><time>2026-04-18T07:39:18.998Z</time></trkpt><trkpt lat="43.92419500193267" lon="12.30438642258957"><ele>303.0</ele><time>2026-04-18T07:39:19.998Z</time></trkpt><trkpt lat="43.92410539537649" lon="12.304354794515227"><ele>303.0</ele><time>2026-04-18T07:39:20.998Z</time></trkpt><trkpt lat="43.92403022466716" lon="12.304308753326477"><ele>303.0</ele><time>2026-04-18T07:39:21.998Z</time></trkpt><trkpt lat="43.92395037585969" lon="12.30426856417368"><ele>303.0</ele><time>2026-04-18T07:39:22.998Z</time></trkpt><trkpt lat="43.9238750104893" lon="12.304239765672847"><ele>302.14285714285717</ele><time>2026-04-18T07:39:23.998Z</time></trkpt><trkpt lat="43.92380694483014" lon="12.304217153626878"><ele>301.2857142857143</ele><time>2026-04-18T07:39:24.998Z</time></trkpt><trkpt lat="43.923733481891226" lon="12.304210151652471"><ele>300.42857142857144</ele><time>2026-04-18T07:39:25.998Z</time></trkpt><trkpt lat="43.923672521834476" lon="12.304236610205917"><ele>299.57142857142856</ele><time>2026-04-18T07:39:26.998Z</time></trkpt><trkpt lat="43.92363676334667" lon="12.304323027337462"><ele>298.7142857142857</ele><time>2026-04-18T07:39:27.998Z</time></trkpt><trkpt lat="43.92363032136094" lon="12.304424395583707"><ele>297.8571428571429</ele><time>2026-04-18T07:39:28.998Z</time></trkpt><trkpt lat="43.92366096954293" lon="12.304544061974463"><ele>297.0</ele><time>2026-04-18T07:39:29.998Z</time></trkpt><trkpt lat="43.923715215216916" lon="12.304722248931386"><ele>295.6666666666667</ele><time>2026-04-18T07:39:30.998Z</time></trkpt><trkpt lat="43.92377984290383" lon="12.30489747760203"><ele>294.3333333333333</ele><time>2026-04-18T07:39:31.998Z</time></trkpt><trkpt lat="43.923813415415104" lon="12.305023683586315"><ele>293.0</ele><time>2026-04-18T07:39:33Z</time></trkpt><trkpt lat="43.9238542313433" lon="12.305105969620248"><ele>291.66666666666663</ele><time>2026-04-18T07:39:34Z</time></trkpt><trkpt lat="43.92387985801248" lon="12.305188714145547"><ele>290.3333333333333</ele><time>2026-04-18T07:39:35Z</time></trkpt><trkpt lat="43.9238723469373" lon="12.305276511198528"><ele>289.0</ele><time>2026-04-18T07:39:36Z</time></trkpt><trkpt lat="43.923840806894574" lon="12.305358582530998"><ele>289.0</ele><time>2026-04-18T07:39:37Z</time></trkpt><trkpt lat="43.923798546391566" lon="12.305445266559367"><ele>289.0</ele><time>2026-04-18T07:39:38Z</time></trkpt><trkpt lat="43.92374565253455" lon="12.305537787093972"><ele>289.0</ele><time>2026-04-18T07:39:39Z</time></trkpt><trkpt lat="43.92368387887173" lon="12.305629397238402"><ele>289.0</ele><time>2026-04-18T07:39:40Z</time></trkpt><trkpt lat="43.92362507938894" lon="12.305732289003803"><ele>289.0</ele><time>2026-04-18T07:39:41Z</time></trkpt><trkpt lat="43.923582889764575" lon="12.305854027932002"><ele>289.0</ele><time>2026-04-18T07:39:42Z</time></trkpt><trkpt lat="43.92355438564534" lon="12.305942349041555"><ele>286.8333333333333</ele><time>2026-04-18T07:39:43Z</time></trkpt><trkpt lat="43.92353185784362" lon="12.306032639208825"><ele>284.66666666666663</ele><time>2026-04-18T07:39:44Z</time></trkpt><trkpt lat="43.92352301886639" lon="12.306137557316081"><ele>282.5</ele><time>2026-04-18T07:39:45Z</time></trkpt><trkpt lat="43.923498118920975" lon="12.306284885097211"><ele>280.3333333333333</ele><time>2026-04-18T07:39:47Z</time></trkpt><trkpt lat="43.92348939179638" lon="12.306383856433637"><ele>278.1666666666667</ele><time>2026-04-18T07:39:50Z</time></trkpt><trkpt lat="43.923491883172225" lon="12.30648211168179"><ele>276.0</ele><time>2026-04-18T07:40:16.999Z</time></trkpt><trkpt lat="43.92351168175992" lon="12.306590214243741"><ele>273.0</ele><time>2026-04-18T07:40:20.999Z</time></trkpt><trkpt lat="43.92352726650737" lon="12.30670200980735"><ele>270.0</ele><time>2026-04-18T07:40:23.999Z</time></trkpt><trkpt lat="43.923535982230824" lon="12.306808489996243"><ele>267.0</ele><time>2026-04-18T07:40:25.999Z</time></trkpt><trkpt lat="43.92354365164227" lon="12.306939304739528"><ele>264.0</ele><time>2026-04-18T07:40:27.999Z</time></trkpt><trkpt lat="43.92354688493293" lon="12.307104096347091"><ele>261.0</ele><time>2026-04-18T07:40:29.999Z</time></trkpt><trkpt lat="43.92353796440758" lon="12.307260443186445"><ele>258.6</ele><time>2026-04-18T07:40:31.999Z</time></trkpt><trkpt lat="43.923555704324606" lon="12.307436083299887"><ele>256.20000000000005</ele><time>2026-04-18T07:40:33.999Z</time></trkpt><trkpt lat="43.92357496616919" lon="12.30753039783729"><ele>253.79999999999998</ele><time>2026-04-18T07:40:34.999Z</time></trkpt><trkpt lat="43.92359219194447" lon="12.307616050333598"><ele>251.39999999999998</ele><time>2026-04-18T07:40:35.999Z</time></trkpt><trkpt lat="43.923586589910585" lon="12.307760663804439"><ele>249.0</ele><time>2026-04-18T07:40:37.999Z</time></trkpt><trkpt lat="43.92351775115244" lon="12.307845184205183"><ele>249.0</ele><time>2026-04-18T07:40:39.999Z</time></trkpt><trkpt lat="43.92342239500615" lon="12.307917372544642"><ele>248.99999999999997</ele><time>2026-04-18T07:40:41.999Z</time></trkpt><trkpt lat="43.92330485550711" lon="12.30801658976468"><ele>248.99999999999997</ele><time>2026-04-18T07:40:43.999Z</time></trkpt><trkpt lat="43.92323460057515" lon="12.30806278176314"><ele>249.0</ele><time>2026-04-18T07:40:44.999Z</time></trkpt><trkpt lat="43.92316717091962" lon="12.308093845996977"><ele>249.0</ele><time>2026-04-18T07:40:45.999Z</time></trkpt><trkpt lat="43.92310007673645" lon="12.308104396091105"><ele>249.16666666666666</ele><time>2026-04-18T07:40:46.999Z</time></trkpt><trkpt lat="43.92302044851774" lon="12.308110625616623"><ele>249.33333333333331</ele><time>2026-04-18T07:40:47.999Z</time></trkpt><trkpt lat="43.92294553573533" lon="12.308097385362244"><ele>249.5</ele><time>2026-04-18T07:40:48.999Z</time></trkpt><trkpt lat="43.92286682336601" lon="12.308069793772694"><ele>249.66666666666666</ele><time>2026-04-18T07:40:49.999Z</time></trkpt><trkpt lat="43.92279221502177" lon="12.308048509207799"><ele>249.83333333333331</ele><time>2026-04-18T07:40:50.999Z</time></trkpt><trkpt lat="43.922717724440204" lon="12.308044572945368"><ele>250.0</ele><time>2026-04-18T07:40:51.999Z</time></trkpt><trkpt lat="43.92266226408822" lon="12.308095734181418"><ele>248.49999999999997</ele><time>2026-04-18T07:40:52.999Z</time></trkpt><trkpt lat="43.92262701777096" lon="12.30819387432326"><ele>247.0</ele><time>2026-04-18T07:40:53.999Z</time></trkpt><trkpt lat="43.922628161879175" lon="12.308303289498532"><ele>245.5</ele><time>2026-04-18T07:40:54.999Z</time></trkpt><trkpt lat="43.922667417175965" lon="12.308403394857578"><ele>244.0</ele><time>2026-04-18T07:40:55.999Z</time></trkpt><trkpt lat="43.922732581291775" lon="12.308487869941226"><ele>242.49999999999997</ele><time>2026-04-18T07:40:56.999Z</time></trkpt><trkpt lat="43.922839067340135" lon="12.30855779807292"><ele>241.0</ele><time>2026-04-18T07:40:57.999Z</time></trkpt><trkpt lat="43.922978265436356" lon="12.308640648202998"><ele>241.0</ele><time>2026-04-18T07:40:58.999Z</time></trkpt><trkpt lat="43.92308224257881" lon="12.308707577887896"><ele>241.00000000000003</ele><time>2026-04-18T07:40:59.999Z</time></trkpt><trkpt lat="43.92314942982186" lon="12.308781876604657"><ele>241.00000000000003</ele><time>2026-04-18T07:41:00.999Z</time></trkpt><trkpt lat="43.92322521274009" lon="12.308839447756744"><ele>241.0</ele><time>2026-04-18T07:41:01.999Z</time></trkpt><trkpt lat="43.92333313974892" lon="12.308871272113583"><ele>241.0</ele><time>2026-04-18T07:41:02.999Z</time></trkpt><trkpt lat="43.92345305384774" lon="12.308874595313004"><ele>240.0</ele><time>2026-04-18T07:41:03.999Z</time></trkpt><trkpt lat="43.923580888605294" lon="12.308879084792482"><ele>239.0</ele><time>2026-04-18T07:41:04.999Z</time></trkpt><trkpt lat="43.9237069557295" lon="12.30888504407899"><ele>238.0</ele><time>2026-04-18T07:41:05.999Z</time></trkpt><trkpt lat="43.92384310233567" lon="12.308908287515754"><ele>237.0</ele><time>2026-04-18T07:41:06.999Z</time></trkpt><trkpt lat="43.92395918616648" lon="12.308919827977665"><ele>234.39999999999998</ele><time>2026-04-18T07:41:07.999Z</time></trkpt><trkpt lat="43.92405160689314" lon="12.308943659558752"><ele>231.79999999999998</ele><time>2026-04-18T07:41:08.999Z</time></trkpt><trkpt lat="43.92411877368211" lon="12.308964424247943"><ele>229.2</ele><time>2026-04-18T07:41:09.999Z</time></trkpt><trkpt lat="43.92412419369341" lon="12.30924443645716"><ele>226.6</ele><time>2026-04-18T07:41:11.999Z</time></trkpt><trkpt lat="43.92410674394441" lon="12.309329243114806"><ele>224.0</ele><time>2026-04-18T07:41:52Z</time></trkpt><trkpt lat="43.924161499749296" lon="12.309435867518106"><ele>224.0</ele><time>2026-04-18T07:41:54Z</time></trkpt><trkpt lat="43.92411886583806" lon="12.309622600717905"><ele>223.99999999999997</ele><time>2026-04-18T07:41:56Z</time></trkpt><trkpt lat="43.92403989232571" lon="12.30971363530627"><ele>223.99999999999997</ele><time>2026-04-18T07:41:56.999Z</time></trkpt><trkpt lat="43.92400063749055" lon="12.30984734787655"><ele>224.0</ele><time>2026-04-18T07:41:57.999Z</time></trkpt><trkpt lat="43.923957368857764" lon="12.309971243934093"><ele>224.0</ele><time>2026-04-18T07:41:58.999Z</time></trkpt><trkpt lat="43.92390963399975" lon="12.310066812091405"><ele>225.0</ele><time>2026-04-18T07:41:59.999Z</time></trkpt><trkpt lat="43.9238556178369" lon="12.310161051198003"><ele>225.99999999999997</ele><time>2026-04-18T07:42:00.999Z</time></trkpt><trkpt lat="43.92381757423593" lon="12.310248888844276"><ele>226.99999999999997</ele><time>2026-04-18T07:42:01.999Z</time></trkpt><trkpt lat="43.923782113289484" lon="12.310339249543075"><ele>228.0</ele><time>2026-04-18T07:42:02.999Z</time></trkpt><trkpt lat="43.92372957174143" lon="12.310491236589533"><ele>229.0</ele><time>2026-04-18T07:42:04.999Z</time></trkpt><trkpt lat="43.92367754830095" lon="12.310615016724753"><ele>230.49999999999997</ele><time>2026-04-18T07:42:06.999Z</time></trkpt><trkpt lat="43.92362482958103" lon="12.3107523509748"><ele>232.0</ele><time>2026-04-18T07:42:08.999Z</time></trkpt><trkpt lat="43.92356883097602" lon="12.310867339060396"><ele>233.5</ele><time>2026-04-18T07:42:10.999Z</time></trkpt><trkpt lat="43.92353701595239" lon="12.310948759772568"><ele>235.0</ele><time>2026-04-18T07:42:11.999Z</time></trkpt><trkpt lat="43.923487683849885" lon="12.311021983987073"><ele>236.49999999999997</ele><time>2026-04-18T07:42:12.999Z</time></trkpt><trkpt lat="43.9234499566813" lon="12.311109689822212"><ele>238.0</ele><time>2026-04-18T07:42:13.999Z</time></trkpt><trkpt lat="43.923406074307444" lon="12.31118869138645"><ele>236.0</ele><time>2026-04-18T07:42:14.999Z</time></trkpt><trkpt lat="43.92336186083031" lon="12.311266738308193"><ele>234.0</ele><time>2026-04-18T07:42:15.999Z</time></trkpt><trkpt lat="43.92332035453619" lon="12.31133464734918"><ele>232.0</ele><time>2026-04-18T07:42:16.999Z</time></trkpt><trkpt lat="43.92324557982361" lon="12.311457462697945"><ele>230.0</ele><time>2026-04-18T07:42:18.999Z</time></trkpt><trkpt lat="43.92318238683293" lon="12.311613447965607"><ele>228.0</ele><time>2026-04-18T07:42:20.999Z</time></trkpt><trkpt lat="43.92316402035793" lon="12.311707814534486"><ele>228.0</ele><time>2026-04-18T07:42:21.999Z</time></trkpt><trkpt lat="43.923146135140236" lon="12.311805071996552"><ele>228.0</ele><time>2026-04-18T07:42:22.999Z</time></trkpt><trkpt lat="43.92312946363777" lon="12.311900779326924"><ele>228.0</ele><time>2026-04-18T07:42:23.999Z</time></trkpt><trkpt lat="43.92311691104936" lon="12.311988961932885"><ele>228.0</ele><time>2026-04-18T07:42:24.999Z</time></trkpt><trkpt lat="43.92310925052839" lon="12.312141905758164"><ele>228.0</ele><time>2026-04-18T07:42:26.999Z</time></trkpt><trkpt lat="43.923199455416935" lon="12.312266559099882"><ele>228.0</ele><time>2026-04-18T07:42:28.999Z</time></trkpt><trkpt lat="43.92325693642069" lon="12.312324601160482"><ele>227.66666666666666</ele><time>2026-04-18T07:42:30.999Z</time></trkpt><trkpt lat="43.92322678892632" lon="12.312474939014919"><ele>227.33333333333331</ele><time>2026-04-18T07:42:36.999Z</time></trkpt><trkpt lat="43.92317894922846" lon="12.312545931476786"><ele>227.0</ele><time>2026-04-18T07:42:37.999Z</time></trkpt><trkpt lat="43.92315077698577" lon="12.31263087438158"><ele>226.66666666666666</ele><time>2026-04-18T07:42:38.999Z</time></trkpt><trkpt lat="43.923131817431006" lon="12.312726791538086"><ele>226.33333333333331</ele><time>2026-04-18T07:42:39.999Z</time></trkpt><trkpt lat="43.92311593611189" lon="12.312818352554848"><ele>226.0</ele><time>2026-04-18T07:42:40.999Z</time></trkpt><trkpt lat="43.92311134580176" lon="12.312919428613377"><ele>226.0</ele><time>2026-04-18T07:42:41.999Z</time></trkpt><trkpt lat="43.92310271230732" lon="12.31301849344806"><ele>226.0</ele><time>2026-04-18T07:42:42.999Z</time></trkpt><trkpt lat="43.923112340389096" lon="12.313115470873592"><ele>226.0</ele><time>2026-04-18T07:42:43.999Z</time></trkpt><trkpt lat="43.923129620497306" lon="12.313213422620818"><ele>226.0</ele><time>2026-04-18T07:42:44.999Z</time></trkpt><trkpt lat="43.92316766374273" lon="12.31330767764828"><ele>226.0</ele><time>2026-04-18T07:42:45.999Z</time></trkpt><trkpt lat="43.92318911146411" lon="12.31340701500167"><ele>226.0</ele><time>2026-04-18T07:42:46.999Z</time></trkpt><trkpt lat="43.92321779524147" lon="12.313503575018416"><ele>226.0</ele><time>2026-04-18T07:42:47.999Z</time></trkpt><trkpt lat="43.92324700018778" lon="12.313601705858485"><ele>225.33333333333331</ele><time>2026-04-18T07:42:48.999Z</time></trkpt><trkpt lat="43.92326792985695" lon="12.313694908727042"><ele>224.66666666666666</ele><time>2026-04-18T07:42:49.999Z</time></trkpt><trkpt lat="43.92329619075887" lon="12.31378044312117"><ele>224.0</ele><time>2026-04-18T07:42:50.999Z</time></trkpt><trkpt lat="43.92332211236298" lon="12.31386304207438"><ele>223.33333333333331</ele><time>2026-04-18T07:42:51.999Z</time></trkpt><trkpt lat="43.92336213434066" lon="12.313933375548785"><ele>222.66666666666666</ele><time>2026-04-18T07:42:52.999Z</time></trkpt><trkpt lat="43.923394370777096" lon="12.314091898419353"><ele>222.0</ele><time>2026-04-18T07:42:54.999Z</time></trkpt><trkpt lat="43.92340568780312" lon="12.314189148514313"><ele>222.0</ele><time>2026-04-18T07:42:56.999Z</time></trkpt><trkpt lat="43.92334079308323" lon="12.314211325225287"><ele>222.0</ele><time>2026-04-18T07:43:00.999Z</time></trkpt><trkpt lat="43.92332308089542" lon="12.31410036337153"><ele>222.0</ele><time>2026-04-18T07:43:03.999Z</time></trkpt><trkpt lat="43.92329482483767" lon="12.314000009868941"><ele>222.0</ele><time>2026-04-18T07:43:05.999Z</time></trkpt><trkpt lat="43.923257105693665" lon="12.313867608225195"><ele>222.0</ele><time>2026-04-18T07:43:07.999Z</time></trkpt><trkpt lat="43.92321347589043" lon="12.313735632133643"><ele>222.0</ele><time>2026-04-18T07:43:09.999Z</time></trkpt><trkpt lat="43.923159129222654" lon="12.313601145821098"><ele>222.0</ele><time>2026-04-18T07:43:11.999Z</time></trkpt><trkpt lat="43.92309322503777" lon="12.313465919521132"><ele>222.0</ele><time>2026-04-18T07:43:13.999Z</time></trkpt><trkpt lat="43.923026202581624" lon="12.313325430352442"><ele>222.0</ele><time>2026-04-18T07:43:15.999Z</time></trkpt><trkpt lat="43.9229912770723" lon="12.313246931286491"><ele>222.0</ele><time>2026-04-18T07:43:16.999Z</time></trkpt><trkpt lat="43.92294962908458" lon="12.313163203540682"><ele>222.0</ele><time>2026-04-18T07:43:17.999Z</time></trkpt><trkpt lat="43.922899372859625" lon="12.313074804026847"><ele>222.8</ele><time>2026-04-18T07:43:18.999Z</time></trkpt><trkpt lat="43.92284726959246" lon="12.31297403699023"><ele>223.6</ele><time>2026-04-18T07:43:19.999Z</time></trkpt><trkpt lat="43.92277993574376" lon="12.312836607878191"><ele>224.40000000000003</ele><time>2026-04-18T07:43:21.999Z</time></trkpt><trkpt lat="43.92274912843917" lon="12.312749176558158"><ele>225.20000000000002</ele><time>2026-04-18T07:43:22.999Z</time></trkpt><trkpt lat="43.92270861591765" lon="12.312675173689675"><ele>226.0</ele><time>2026-04-18T07:43:23.999Z</time></trkpt><trkpt lat="43.92263412624149" lon="12.312533677758031"><ele>226.0</ele><time>2026-04-18T07:43:25.999Z</time></trkpt><trkpt lat="43.92257569512678" lon="12.312403157051099"><ele>226.00000000000003</ele><time>2026-04-18T07:43:27.998Z</time></trkpt><trkpt lat="43.9225176756217" lon="12.31228390502157"><ele>226.00000000000003</ele><time>2026-04-18T07:43:29.998Z</time></trkpt><trkpt lat="43.92243713772742" lon="12.31215531625899"><ele>226.0</ele><time>2026-04-18T07:43:31.998Z</time></trkpt><trkpt lat="43.92239389192487" lon="12.312090056544866"><ele>226.0</ele><time>2026-04-18T07:43:32.998Z</time></trkpt><trkpt lat="43.92234656822658" lon="12.312021895234153"><ele>224.57142857142858</ele><time>2026-04-18T07:43:33.998Z</time></trkpt><trkpt lat="43.92229818995959" lon="12.311963925419834"><ele>223.14285714285714</ele><time>2026-04-18T07:43:34.998Z</time></trkpt><trkpt lat="43.922244357285976" lon="12.311903480829772"><ele>221.71428571428572</ele><time>2026-04-18T07:43:35.998Z</time></trkpt><trkpt lat="43.922186867005045" lon="12.311858374655282"><ele>220.28571428571428</ele><time>2026-04-18T07:43:36.998Z</time></trkpt><trkpt lat="43.92212289297114" lon="12.311811988392733"><ele>218.85714285714283</ele><time>2026-04-18T07:43:37.998Z</time></trkpt><trkpt lat="43.92205887315164" lon="12.311775625105508"><ele>217.42857142857142</ele><time>2026-04-18T07:43:38.998Z</time></trkpt><trkpt lat="43.92199250046481" lon="12.311741712620961"><ele>216.0</ele><time>2026-04-18T07:43:39.998Z</time></trkpt><trkpt lat="43.92192428057116" lon="12.311706678675788"><ele>216.0</ele><time>2026-04-18T07:43:40.998Z</time></trkpt><trkpt lat="43.92185677479298" lon="12.311673404610387"><ele>216.0</ele><time>2026-04-18T07:43:41.998Z</time></trkpt><trkpt lat="43.92178748971254" lon="12.31164037595232"><ele>216.0</ele><time>2026-04-18T07:43:42.998Z</time></trkpt><trkpt lat="43.92171780999462" lon="12.311602870671061"><ele>216.0</ele><time>2026-04-18T07:43:44Z</time></trkpt><trkpt lat="43.921652892844214" lon="12.311566967240923"><ele>216.0</ele><time>2026-04-18T07:43:45Z</time></trkpt><trkpt lat="43.92158916230932" lon="12.311536702683604"><ele>216.0</ele><time>2026-04-18T07:43:46Z</time></trkpt><trkpt lat="43.92152778242729" lon="12.311504569882171"><ele>216.0</ele><time>2026-04-18T07:43:47Z</time></trkpt><trkpt lat="43.92146374993436" lon="12.311466115530733"><ele>215.16666666666666</ele><time>2026-04-18T07:43:48Z</time></trkpt><trkpt lat="43.92139384072209" lon="12.311428810620374"><ele>214.33333333333331</ele><time>2026-04-18T07:43:49Z</time></trkpt><trkpt lat="43.92133376448298" lon="12.311391315677504"><ele>213.5</ele><time>2026-04-18T07:43:50Z</time></trkpt><trkpt lat="43.921274613895484" lon="12.311356968737188"><ele>212.66666666666666</ele><time>2026-04-18T07:43:51Z</time></trkpt><trkpt lat="43.921162756866785" lon="12.311306979665678"><ele>211.83333333333331</ele><time>2026-04-18T07:43:53Z</time></trkpt><trkpt lat="43.92105667416472" lon="12.311245064555735"><ele>211.0</ele><time>2026-04-18T07:43:55Z</time></trkpt><trkpt lat="43.92098943773794" lon="12.31119981711685"><ele>210.99999999999997</ele><time>2026-04-18T07:43:56Z</time></trkpt><trkpt lat="43.92091778885031" lon="12.311164280028978"><ele>211.0</ele><time>2026-04-18T07:43:57Z</time></trkpt><trkpt lat="43.92083779906272" lon="12.311126618056162"><ele>211.0</ele><time>2026-04-18T07:43:58Z</time></trkpt><trkpt lat="43.920759973426506" lon="12.311086569194668"><ele>211.0</ele><time>2026-04-18T07:43:59Z</time></trkpt><trkpt lat="43.92067916812709" lon="12.311047677262199"><ele>210.99999999999997</ele><time>2026-04-18T07:44:00Z</time></trkpt><trkpt lat="43.92060081684936" lon="12.310999917732929"><ele>211.0</ele><time>2026-04-18T07:44:01Z</time></trkpt><trkpt lat="43.92051595366252" lon="12.310961657785835"><ele>212.16666666666666</ele><time>2026-04-18T07:44:02Z</time></trkpt><trkpt lat="43.92043493791195" lon="12.310916311192171"><ele>213.33333333333331</ele><time>2026-04-18T07:44:03Z</time></trkpt><trkpt lat="43.920353313635914" lon="12.310871970330842"><ele>214.5</ele><time>2026-04-18T07:44:04Z</time></trkpt><trkpt lat="43.920268497713415" lon="12.310823553818826"><ele>215.66666666666669</ele><time>2026-04-18T07:44:05Z</time></trkpt><trkpt lat="43.92019855007207" lon="12.310789587682454"><ele>216.83333333333334</ele><time>2026-04-18T07:44:06Z</time></trkpt><trkpt lat="43.92013449307511" lon="12.310754485282748"><ele>218.0</ele><time>2026-04-18T07:44:07Z</time></trkpt><trkpt lat="43.92007356857213" lon="12.310718992222945"><ele>218.00000000000003</ele><time>2026-04-18T07:44:08Z</time></trkpt><trkpt lat="43.92001237702005" lon="12.310683998143718"><ele>218.0</ele><time>2026-04-18T07:44:08.999Z</time></trkpt><trkpt lat="43.91989762698467" lon="12.31061484793487"><ele>218.0</ele><time>2026-04-18T07:44:10.999Z</time></trkpt><trkpt lat="43.91982961510548" lon="12.31056762709963"><ele>218.0</ele><time>2026-04-18T07:44:11.999Z</time></trkpt><trkpt lat="43.919765833747626" lon="12.310514414304022"><ele>218.00000000000003</ele><time>2026-04-18T07:44:12.999Z</time></trkpt><trkpt lat="43.91970769298735" lon="12.310458035737303"><ele>218.0</ele><time>2026-04-18T07:44:13.999Z</time></trkpt><trkpt lat="43.919619704176746" lon="12.310373492741405"><ele>219.2</ele><time>2026-04-18T07:44:15.999Z</time></trkpt><trkpt lat="43.91957131210484" lon="12.310311810112308"><ele>220.4</ele><time>2026-04-18T07:44:17.999Z</time></trkpt><trkpt lat="43.919502755330456" lon="12.31035244676422"><ele>221.59999999999997</ele><time>2026-04-18T07:44:27.999Z</time></trkpt><trkpt lat="43.919463510695465" lon="12.310239541099532"><ele>222.79999999999998</ele><time>2026-04-18T07:44:28.999Z</time></trkpt><trkpt lat="43.919390524549826" lon="12.310143205852157"><ele>224.0</ele><time>2026-04-18T07:44:29.999Z</time></trkpt><trkpt lat="43.919307076068755" lon="12.310017822579919"><ele>224.0</ele><time>2026-04-18T07:44:30.999Z</time></trkpt><trkpt lat="43.91922538106396" lon="12.309886403209132"><ele>223.99999999999997</ele><time>2026-04-18T07:44:31.999Z</time></trkpt><trkpt lat="43.919148818115495" lon="12.309769757346338"><ele>223.99999999999997</ele><time>2026-04-18T07:44:32.999Z</time></trkpt><trkpt lat="43.91907389584899" lon="12.309663350208561"><ele>224.0</ele><time>2026-04-18T07:44:33.999Z</time></trkpt><trkpt lat="43.919003654669595" lon="12.309557819912389"><ele>224.0</ele><time>2026-04-18T07:44:34.999Z</time></trkpt><trkpt lat="43.91893393230455" lon="12.309458673985151"><ele>224.0</ele><time>2026-04-18T07:44:35.999Z</time></trkpt><trkpt lat="43.91886815914146" lon="12.309366348739143"><ele>223.99999999999997</ele><time>2026-04-18T07:44:36.999Z</time></trkpt><trkpt lat="43.91881242255231" lon="12.309282527848808"><ele>223.99999999999997</ele><time>2026-04-18T07:44:37.999Z</time></trkpt><trkpt lat="43.918763482276674" lon="12.30921271723134"><ele>224.0</ele><time>2026-04-18T07:44:38.999Z</time></trkpt><trkpt lat="43.9187346155037" lon="12.309131967500871"><ele>224.0</ele><time>2026-04-18T07:44:39.999Z</time></trkpt><trkpt lat="43.91878179109894" lon="12.308939853674211"><ele>224.6</ele><time>2026-04-18T07:44:41.999Z</time></trkpt><trkpt lat="43.91883320799323" lon="12.308838675251826"><ele>225.2</ele><time>2026-04-18T07:44:42.999Z</time></trkpt><trkpt lat="43.91888521579785" lon="12.30872701833886"><ele>225.79999999999998</ele><time>2026-04-18T07:44:43.999Z</time></trkpt><trkpt lat="43.91894932898292" lon="12.308606074608607"><ele>226.39999999999998</ele><time>2026-04-18T07:44:44.999Z</time></trkpt><trkpt lat="43.919008174347645" lon="12.308473193835272"><ele>227.0</ele><time>2026-04-18T07:44:45.999Z</time></trkpt><trkpt lat="43.919068108955614" lon="12.308350091068359"><ele>227.0</ele><time>2026-04-18T07:44:46.999Z</time></trkpt><trkpt lat="43.919116475849755" lon="12.308240422608051"><ele>227.0</ele><time>2026-04-18T07:44:47.999Z</time></trkpt><trkpt lat="43.91916298280062" lon="12.308138886676655"><ele>227.0</ele><time>2026-04-18T07:44:48.999Z</time></trkpt><trkpt lat="43.919204618168855" lon="12.30803813147866"><ele>227.0</ele><time>2026-04-18T07:44:49.999Z</time></trkpt><trkpt lat="43.919225383060166" lon="12.307912670281844"><ele>227.0</ele><time>2026-04-18T07:44:50.999Z</time></trkpt><trkpt lat="43.91921134391069" lon="12.307759143923922"><ele>227.0</ele><time>2026-04-18T07:44:51.999Z</time></trkpt><trkpt lat="43.91917033195613" lon="12.307598958807224"><ele>227.0</ele><time>2026-04-18T07:44:52.999Z</time></trkpt><trkpt lat="43.91911161962866" lon="12.307439891066686"><ele>227.0</ele><time>2026-04-18T07:44:53.999Z</time></trkpt><trkpt lat="43.919051432627604" lon="12.307273515654193"><ele>227.0</ele><time>2026-04-18T07:44:54.999Z</time></trkpt><trkpt lat="43.91899400297508" lon="12.307095900421503"><ele>228.0</ele><time>2026-04-18T07:44:55.999Z</time></trkpt><trkpt lat="43.918945200183025" lon="12.30692332578583"><ele>229.0</ele><time>2026-04-18T07:44:56.999Z</time></trkpt><trkpt lat="43.918893112678234" lon="12.306754739623369"><ele>230.0</ele><time>2026-04-18T07:44:57.999Z</time></trkpt><trkpt lat="43.91884484413356" lon="12.306598770077446"><ele>231.0</ele><time>2026-04-18T07:44:58.999Z</time></trkpt><trkpt lat="43.91880411249383" lon="12.306457852167279"><ele>232.0</ele><time>2026-04-18T07:44:59.999Z</time></trkpt><trkpt lat="43.91878464736155" lon="12.30631962993486"><ele>233.00000000000003</ele><time>2026-04-18T07:45:00.999Z</time></trkpt><trkpt lat="43.91879395884219" lon="12.306173344445568"><ele>234.00000000000003</ele><time>2026-04-18T07:45:01.999Z</time></trkpt><trkpt lat="43.91881571366478" lon="12.306031422522882"><ele>235.0</ele><time>2026-04-18T07:45:02.999Z</time></trkpt><trkpt lat="43.918799488286346" lon="12.305888939154073"><ele>236.0</ele><time>2026-04-18T07:45:03.999Z</time></trkpt><trkpt lat="43.918742319261284" lon="12.305750525891916"><ele>236.0</ele><time>2026-04-18T07:45:04.999Z</time></trkpt><trkpt lat="43.91867630005852" lon="12.3056284292331"><ele>236.00000000000003</ele><time>2026-04-18T07:45:05.999Z</time></trkpt><trkpt lat="43.91861047603537" lon="12.305504873621915"><ele>236.00000000000003</ele><time>2026-04-18T07:45:06.999Z</time></trkpt><trkpt lat="43.918553787902674" lon="12.305373580838296"><ele>236.0</ele><time>2026-04-18T07:45:07.999Z</time></trkpt><trkpt lat="43.91849399025573" lon="12.305240253768593"><ele>236.0</ele><time>2026-04-18T07:45:08.999Z</time></trkpt><trkpt lat="43.918431767096436" lon="12.305129202260359"><ele>238.20000000000002</ele><time>2026-04-18T07:45:09.999Z</time></trkpt><trkpt lat="43.91839566905447" lon="12.30502551341557"><ele>240.40000000000003</ele><time>2026-04-18T07:45:10.999Z</time></trkpt><trkpt lat="43.918333133553716" lon="12.304913142927724"><ele>242.6</ele><time>2026-04-18T07:45:11.999Z</time></trkpt><trkpt lat="43.91830156429499" lon="12.304804711660749"><ele>244.8</ele><time>2026-04-18T07:45:12.999Z</time></trkpt><trkpt lat="43.91825700245724" lon="12.304713904362984"><ele>247.0</ele><time>2026-04-18T07:45:14.999Z</time></trkpt><trkpt lat="43.91831246402337" lon="12.304841958460955"><ele>247.0</ele><time>2026-04-18T07:45:21.999Z</time></trkpt><trkpt lat="43.91837025573778" lon="12.304984529988783"><ele>247.0</ele><time>2026-04-18T07:45:23.999Z</time></trkpt><trkpt lat="43.918445649616885" lon="12.305084672792283"><ele>247.0</ele><time>2026-04-18T07:45:25.999Z</time></trkpt><trkpt lat="43.91853212240653" lon="12.305090641127284"><ele>247.0</ele><time>2026-04-18T07:45:27.999Z</time></trkpt><trkpt lat="43.918579133131374" lon="12.304983408197225"><ele>247.0</ele><time>2026-04-18T07:45:28.999Z</time></trkpt><trkpt lat="43.918609271154324" lon="12.304897282678935"><ele>247.33333333333331</ele><time>2026-04-18T07:45:29.999Z</time></trkpt><trkpt lat="43.91864382017872" lon="12.304804613089381"><ele>247.66666666666666</ele><time>2026-04-18T07:45:30.999Z</time></trkpt><trkpt lat="43.91869029499236" lon="12.304737358091048"><ele>248.0</ele><time>2026-04-18T07:45:31.999Z</time></trkpt><trkpt lat="43.918739926952554" lon="12.304652680847003"><ele>248.33333333333331</ele><time>2026-04-18T07:45:32.999Z</time></trkpt><trkpt lat="43.918803889156045" lon="12.304564532148818"><ele>248.66666666666666</ele><time>2026-04-18T07:45:33.998Z</time></trkpt><trkpt lat="43.91888282305753" lon="12.304492783874137"><ele>249.0</ele><time>2026-04-18T07:45:34.998Z</time></trkpt><trkpt lat="43.918964147605145" lon="12.304443498071459"><ele>249.0</ele><time>2026-04-18T07:45:35.998Z</time></trkpt><trkpt lat="43.91904275755307" lon="12.304398940846434"><ele>248.99999999999997</ele><time>2026-04-18T07:45:36.998Z</time></trkpt><trkpt lat="43.91912464426374" lon="12.30432573237539"><ele>248.99999999999997</ele><time>2026-04-18T07:45:37.998Z</time></trkpt><trkpt lat="43.91920856769429" lon="12.304234473092169"><ele>249.0</ele><time>2026-04-18T07:45:38.998Z</time></trkpt><trkpt lat="43.91927831623588" lon="12.3041223741161"><ele>249.0</ele><time>2026-04-18T07:45:39.998Z</time></trkpt><trkpt lat="43.919341928739705" lon="12.303993006105953"><ele>249.2</ele><time>2026-04-18T07:45:40.998Z</time></trkpt><trkpt lat="43.919402930229815" lon="12.303871841757157"><ele>249.39999999999998</ele><time>2026-04-18T07:45:41.998Z</time></trkpt><trkpt lat="43.9194591658614" lon="12.303747170831834"><ele>249.6</ele><time>2026-04-18T07:45:42.998Z</time></trkpt><trkpt lat="43.91951731536555" lon="12.303616715469255"><ele>249.8</ele><time>2026-04-18T07:45:43.998Z</time></trkpt><trkpt lat="43.91957189810924" lon="12.303497801032531"><ele>250.0</ele><time>2026-04-18T07:45:44.998Z</time></trkpt><trkpt lat="43.91961950257166" lon="12.303397932154926"><ele>249.99999999999997</ele><time>2026-04-18T07:45:45.998Z</time></trkpt><trkpt lat="43.9196652055105" lon="12.303304545734841"><ele>250.0</ele><time>2026-04-18T07:45:46.998Z</time></trkpt><trkpt lat="43.91970663117927" lon="12.303205144298145"><ele>250.0</ele><time>2026-04-18T07:45:47.998Z</time></trkpt><trkpt lat="43.919731609279715" lon="12.303102393404192"><ele>250.0</ele><time>2026-04-18T07:45:49Z</time></trkpt><trkpt lat="43.919704197367516" lon="12.303008049158757"><ele>249.99999999999997</ele><time>2026-04-18T07:45:50Z</time></trkpt><trkpt lat="43.91965501593392" lon="12.302920899351525"><ele>250.0</ele><time>2026-04-18T07:45:51Z</time></trkpt><trkpt lat="43.919497620436125" lon="12.302962390520317"><ele>250.75</ele><time>2026-04-18T07:45:52Z</time></trkpt><trkpt lat="43.919401234162656" lon="12.303012932591981"><ele>251.5</ele><time>2026-04-18T07:45:53Z</time></trkpt><trkpt lat="43.91927746992742" lon="12.303063639014697"><ele>252.25</ele><time>2026-04-18T07:45:54Z</time></trkpt><trkpt lat="43.91916371742072" lon="12.303112165438732"><ele>253.0</ele><time>2026-04-18T07:45:55Z</time></trkpt><trkpt lat="43.91906113149092" lon="12.30314152379276"><ele>254.2</ele><time>2026-04-18T07:45:56Z</time></trkpt><trkpt lat="43.9189569170468" lon="12.303161631242034"><ele>255.4</ele><time>2026-04-18T07:45:57Z</time></trkpt><trkpt lat="43.91885412007192" lon="12.303166515474375"><ele>256.59999999999997</ele><time>2026-04-18T07:45:58Z</time></trkpt><trkpt lat="43.9187548877525" lon="12.303138047301738"><ele>257.8</ele><time>2026-04-18T07:45:59Z</time></trkpt><trkpt lat="43.91866636382979" lon="12.303089149013404"><ele>259.0</ele><time>2026-04-18T07:46:00Z</time></trkpt><trkpt lat="43.91858611167604" lon="12.303019895954222"><ele>260.66666666666663</ele><time>2026-04-18T07:46:01Z</time></trkpt><trkpt lat="43.918522279300184" lon="12.302931595553016"><ele>262.3333333333333</ele><time>2026-04-18T07:46:02Z</time></trkpt><trkpt lat="43.918474910243624" lon="12.302832856501064"><ele>264.0</ele><time>2026-04-18T07:46:03Z</time></trkpt><trkpt lat="43.91843801876939" lon="12.302725029515392"><ele>265.6666666666667</ele><time>2026-04-18T07:46:04Z</time></trkpt><trkpt lat="43.91842167735506" lon="12.30262508163935"><ele>267.33333333333337</ele><time>2026-04-18T07:46:05Z</time></trkpt><trkpt lat="43.918412627825404" lon="12.302534623221977"><ele>269.0</ele><time>2026-04-18T07:46:06Z</time></trkpt><trkpt lat="43.91840764312284" lon="12.302443849879454"><ele>269.0</ele><time>2026-04-18T07:46:07Z</time></trkpt><trkpt lat="43.91842258278933" lon="12.302291673844186"><ele>269.0</ele><time>2026-04-18T07:46:09Z</time></trkpt><trkpt lat="43.91849742627849" lon="12.302131523077884"><ele>269.0</ele><time>2026-04-18T07:46:12Z</time></trkpt><trkpt lat="43.918504869102435" lon="12.301990460349035"><ele>269.0</ele><time>2026-04-18T07:46:15Z</time></trkpt><trkpt lat="43.918388882022455" lon="12.301792092218358"><ele>270.4</ele><time>2026-04-18T07:46:18Z</time></trkpt><trkpt lat="43.91835716338546" lon="12.301692076564798"><ele>271.79999999999995</ele><time>2026-04-18T07:46:18.999Z</time></trkpt><trkpt lat="43.91830160027938" lon="12.301559272669081"><ele>273.20000000000005</ele><time>2026-04-18T07:46:19.999Z</time></trkpt><trkpt lat="43.918229192191404" lon="12.301428311115819"><ele>274.6</ele><time>2026-04-18T07:46:20.999Z</time></trkpt><trkpt lat="43.91820041902649" lon="12.30128762597909"><ele>276.0</ele><time>2026-04-18T07:46:21.999Z</time></trkpt><trkpt lat="43.918153248162206" lon="12.301150417452181"><ele>277.25</ele><time>2026-04-18T07:46:22.999Z</time></trkpt><trkpt lat="43.918108754453456" lon="12.301022362424725"><ele>278.5</ele><time>2026-04-18T07:46:23.999Z</time></trkpt><trkpt lat="43.918049824830504" lon="12.300867655211057"><ele>279.75</ele><time>2026-04-18T07:46:24.999Z</time></trkpt><trkpt lat="43.91798319710396" lon="12.300700563303298"><ele>281.0</ele><time>2026-04-18T07:46:25.999Z</time></trkpt><trkpt lat="43.91792042515058" lon="12.30053834932458"><ele>281.5</ele><time>2026-04-18T07:46:26.999Z</time></trkpt><trkpt lat="43.917861985900096" lon="12.30039992930155"><ele>282.0</ele><time>2026-04-18T07:46:27.999Z</time></trkpt><trkpt lat="43.91780954433858" lon="12.300261567905356"><ele>282.5</ele><time>2026-04-18T07:46:28.999Z</time></trkpt><trkpt lat="43.91776986544838" lon="12.300108420100212"><ele>283.0</ele><time>2026-04-18T07:46:29.999Z</time></trkpt><trkpt lat="43.91773013559703" lon="12.299971895932174"><ele>283.0</ele><time>2026-04-18T07:46:30.999Z</time></trkpt><trkpt lat="43.91769103938184" lon="12.299862946747846"><ele>283.0</ele><time>2026-04-18T07:46:31.999Z</time></trkpt><trkpt lat="43.917649375757435" lon="12.299769770890917"><ele>283.0</ele><time>2026-04-18T07:46:32.999Z</time></trkpt><trkpt lat="43.91761938884668" lon="12.299662792942424"><ele>283.0</ele><time>2026-04-18T07:46:33.999Z</time></trkpt><trkpt lat="43.91760092643346" lon="12.29956889625979"><ele>283.0</ele><time>2026-04-18T07:46:34.999Z</time></trkpt><trkpt lat="43.917577578884774" lon="12.299441068255106"><ele>283.0</ele><time>2026-04-18T07:46:35.999Z</time></trkpt><trkpt lat="43.91754840197497" lon="12.29928872206858"><ele>286.2</ele><time>2026-04-18T07:46:36.999Z</time></trkpt><trkpt lat="43.917512696470844" lon="12.299121640561927"><ele>289.4</ele><time>2026-04-18T07:46:37.999Z</time></trkpt><trkpt lat="43.91746665031005" lon="12.299020354409517"><ele>292.59999999999997</ele><time>2026-04-18T07:46:38.999Z</time></trkpt><trkpt lat="43.91740375877496" lon="12.298954768108793"><ele>295.8</ele><time>2026-04-18T07:46:39.999Z</time></trkpt><trkpt lat="43.91732090380887" lon="12.29890642982876"><ele>299.0</ele><time>2026-04-18T07:46:40.999Z</time></trkpt><trkpt lat="43.91721218822886" lon="12.298831390960581"><ele>299.0</ele><time>2026-04-18T07:46:41.999Z</time></trkpt><trkpt lat="43.91712657768282" lon="12.298755937114782"><ele>299.0</ele><time>2026-04-18T07:46:42.999Z</time></trkpt><trkpt lat="43.917041619210025" lon="12.298687151121731"><ele>299.0</ele><time>2026-04-18T07:46:43.999Z</time></trkpt><trkpt lat="43.91693434953778" lon="12.298604568045796"><ele>299.0</ele><time>2026-04-18T07:46:44.999Z</time></trkpt><trkpt lat="43.91680592629406" lon="12.298523453696921"><ele>303.5</ele><time>2026-04-18T07:46:45.999Z</time></trkpt><trkpt lat="43.9166713877802" lon="12.298467917157708"><ele>308.0</ele><time>2026-04-18T07:46:46.999Z</time></trkpt><trkpt lat="43.91659413784825" lon="12.298442944994239"><ele>312.5</ele><time>2026-04-18T07:46:47.999Z</time></trkpt><trkpt lat="43.91648031184527" lon="12.29838285504346"><ele>317.0</ele><time>2026-04-18T07:46:48.999Z</time></trkpt><trkpt lat="43.91637476272461" lon="12.29833288220996"><ele>317.0</ele><time>2026-04-18T07:46:49.999Z</time></trkpt><trkpt lat="43.91629661233646" lon="12.298284381911937"><ele>317.0</ele><time>2026-04-18T07:46:50.999Z</time></trkpt><trkpt lat="43.91619339032558" lon="12.298240032875869"><ele>317.0</ele><time>2026-04-18T07:46:51.999Z</time></trkpt><trkpt lat="43.91610270637514" lon="12.29822867091685"><ele>317.0</ele><time>2026-04-18T07:46:52.999Z</time></trkpt><trkpt lat="43.91600034422671" lon="12.298245512119777"><ele>317.0</ele><time>2026-04-18T07:46:53.999Z</time></trkpt><trkpt lat="43.91589036728702" lon="12.298256328619358"><ele>321.5</ele><time>2026-04-18T07:46:54.999Z</time></trkpt><trkpt lat="43.91583575467749" lon="12.298211490433296"><ele>326.0</ele><time>2026-04-18T07:46:55.999Z</time></trkpt><trkpt lat="43.91585101556012" lon="12.298019083280035"><ele>330.5</ele><time>2026-04-18T07:46:57.999Z</time></trkpt><trkpt lat="43.91570698929679" lon="12.297896325509555"><ele>335.0</ele><time>2026-04-18T07:46:58.999Z</time></trkpt><trkpt lat="43.915718046591806" lon="12.297751532662737"><ele>336.4</ele><time>2026-04-18T07:46:59.999Z</time></trkpt><trkpt lat="43.915726742707875" lon="12.297660488473571"><ele>337.8</ele><time>2026-04-18T07:47:00.999Z</time></trkpt><trkpt lat="43.915744637918046" lon="12.297542207585845"><ele>339.20000000000005</ele><time>2026-04-18T07:47:02.999Z</time></trkpt><trkpt lat="43.91574769428227" lon="12.297381419745244"><ele>340.6</ele><time>2026-04-18T07:47:04.999Z</time></trkpt><trkpt lat="43.915760583048275" lon="12.297231569097477"><ele>342.0</ele><time>2026-04-18T07:47:06.999Z</time></trkpt><trkpt lat="43.91576597875159" lon="12.297061977061302"><ele>343.25</ele><time>2026-04-18T07:47:07.999Z</time></trkpt><trkpt lat="43.915776267248866" lon="12.29688267612471"><ele>344.5</ele><time>2026-04-18T07:47:08.999Z</time></trkpt><trkpt lat="43.91578891735447" lon="12.29670357208155"><ele>345.75</ele><time>2026-04-18T07:47:09.999Z</time></trkpt><trkpt lat="43.91578220513066" lon="12.296563497319967"><ele>347.0</ele><time>2026-04-18T07:47:10.999Z</time></trkpt><trkpt lat="43.91575847829817" lon="12.296437491040276"><ele>347.8</ele><time>2026-04-18T07:47:11.999Z</time></trkpt><trkpt lat="43.915742892708224" lon="12.296309616493922"><ele>348.6</ele><time>2026-04-18T07:47:12.999Z</time></trkpt><trkpt lat="43.91571965217503" lon="12.29619192408184"><ele>349.40000000000003</ele><time>2026-04-18T07:47:13.999Z</time></trkpt><trkpt lat="43.91571068699011" lon="12.296070765519753"><ele>350.20000000000005</ele><time>2026-04-18T07:47:14.999Z</time></trkpt><trkpt lat="43.91565738722375" lon="12.295965103549408"><ele>351.0</ele><time>2026-04-18T07:47:15.999Z</time></trkpt><trkpt lat="43.915626935212664" lon="12.295846831302956"><ele>351.0</ele><time>2026-04-18T07:47:16.999Z</time></trkpt><trkpt lat="43.9156020000216" lon="12.29573615608254"><ele>351.0</ele><time>2026-04-18T07:47:17.999Z</time></trkpt><trkpt lat="43.91557605769443" lon="12.295616330292983"><ele>351.0</ele><time>2026-04-18T07:47:18.999Z</time></trkpt><trkpt lat="43.91555298153844" lon="12.295492684960466"><ele>351.0</ele><time>2026-04-18T07:47:19.999Z</time></trkpt><trkpt lat="43.91552883818324" lon="12.295356484427465"><ele>351.0</ele><time>2026-04-18T07:47:20.999Z</time></trkpt><trkpt lat="43.91550020227846" lon="12.295209411772914"><ele>351.5</ele><time>2026-04-18T07:47:21.999Z</time></trkpt><trkpt lat="43.915476761811604" lon="12.295039077604953"><ele>352.0</ele><time>2026-04-18T07:47:22.999Z</time></trkpt><trkpt lat="43.91545766420335" lon="12.294874006260097"><ele>352.5</ele><time>2026-04-18T07:47:23.999Z</time></trkpt><trkpt lat="43.9154487705077" lon="12.294692354133657"><ele>353.0</ele><time>2026-04-18T07:47:24.999Z</time></trkpt><trkpt lat="43.915436288501496" lon="12.29452129260103"><ele>353.0</ele><time>2026-04-18T07:47:25.999Z</time></trkpt><trkpt lat="43.91541834824944" lon="12.29435576379452"><ele>353.0</ele><time>2026-04-18T07:47:26.999Z</time></trkpt><trkpt lat="43.91539456416609" lon="12.294209762281913"><ele>353.0</ele><time>2026-04-18T07:47:27.999Z</time></trkpt><trkpt lat="43.91537760348392" lon="12.29407121405553"><ele>353.0</ele><time>2026-04-18T07:47:28.999Z</time></trkpt><trkpt lat="43.915380495788156" lon="12.293919753159017"><ele>353.0</ele><time>2026-04-18T07:47:29.999Z</time></trkpt><trkpt lat="43.91541349889259" lon="12.293786862383874"><ele>353.59999999999997</ele><time>2026-04-18T07:47:30.999Z</time></trkpt><trkpt lat="43.91545168925941" lon="12.293690078623298"><ele>354.2</ele><time>2026-04-18T07:47:31.999Z</time></trkpt><trkpt lat="43.9154876123656" lon="12.293543408248064"><ele>354.8</ele><time>2026-04-18T07:47:32.999Z</time></trkpt><trkpt lat="43.91549961417603" lon="12.29336831795666"><ele>355.4</ele><time>2026-04-18T07:47:33.999Z</time></trkpt><trkpt lat="43.9155207753498" lon="12.293193039043638"><ele>356.0</ele><time>2026-04-18T07:47:34.999Z</time></trkpt><trkpt lat="43.9155629337401" lon="12.293027054781593"><ele>356.25</ele><time>2026-04-18T07:47:35.999Z</time></trkpt><trkpt lat="43.9155969247395" lon="12.292840777556243"><ele>356.5</ele><time>2026-04-18T07:47:36.999Z</time></trkpt><trkpt lat="43.915607623122604" lon="12.292662134695094"><ele>356.75</ele><time>2026-04-18T07:47:37.999Z</time></trkpt><trkpt lat="43.91562709455448" lon="12.29248550591409"><ele>357.0</ele><time>2026-04-18T07:47:38.999Z</time></trkpt><trkpt lat="43.91563809720655" lon="12.292316696273371"><ele>358.25</ele><time>2026-04-18T07:47:39.999Z</time></trkpt><trkpt lat="43.915644300815835" lon="12.292173892850698"><ele>359.5</ele><time>2026-04-18T07:47:40.999Z</time></trkpt><trkpt lat="43.91565135900802" lon="12.292025269128903"><ele>360.75</ele><time>2026-04-18T07:47:41.999Z</time></trkpt><trkpt lat="43.91566265291022" lon="12.291859014211445"><ele>362.0</ele><time>2026-04-18T07:47:42.999Z</time></trkpt><trkpt lat="43.915677339006855" lon="12.2916774728523"><ele>362.0</ele><time>2026-04-18T07:47:43.998Z</time></trkpt><trkpt lat="43.91569234666952" lon="12.291514661148517"><ele>362.0</ele><time>2026-04-18T07:47:44.998Z</time></trkpt><trkpt lat="43.9157114288127" lon="12.291370238622436"><ele>362.0</ele><time>2026-04-18T07:47:45.998Z</time></trkpt><trkpt lat="43.91572683816658" lon="12.291223430215872"><ele>362.0</ele><time>2026-04-18T07:47:46.998Z</time></trkpt><trkpt lat="43.91578018952154" lon="12.29107213672063"><ele>363.0</ele><time>2026-04-18T07:47:47.998Z</time></trkpt><trkpt lat="43.915827929990854" lon="12.29091190586709"><ele>364.0</ele><time>2026-04-18T07:47:48.998Z</time></trkpt><trkpt lat="43.915876911227876" lon="12.29077937049283"><ele>365.0</ele><time>2026-04-18T07:47:49.998Z</time></trkpt><trkpt lat="43.91590301993104" lon="12.2906204956495"><ele>366.0</ele><time>2026-04-18T07:47:50.998Z</time></trkpt><trkpt lat="43.91591072726877" lon="12.290474420954865"><ele>366.5</ele><time>2026-04-18T07:47:51.998Z</time></trkpt><trkpt lat="43.91588574811011" lon="12.290325783947821"><ele>367.0</ele><time>2026-04-18T07:47:52.998Z</time></trkpt><trkpt lat="43.91585583773229" lon="12.290158515727601"><ele>367.5</ele><time>2026-04-18T07:47:53.998Z</time></trkpt><trkpt lat="43.91582559729267" lon="12.289990005063723"><ele>368.0</ele><time>2026-04-18T07:47:55Z</time></trkpt><trkpt lat="43.915825897489235" lon="12.28984249354616"><ele>369.0</ele><time>2026-04-18T07:47:56Z</time></trkpt><trkpt lat="43.91581873059256" lon="12.289698164128154"><ele>370.0</ele><time>2026-04-18T07:47:57Z</time></trkpt><trkpt lat="43.91581442421172" lon="12.289522673790206"><ele>371.0</ele><time>2026-04-18T07:47:58Z</time></trkpt><trkpt lat="43.91580996739218" lon="12.289326187450518"><ele>372.0</ele><time>2026-04-18T07:47:59Z</time></trkpt><trkpt lat="43.915804121227275" lon="12.289127730800914"><ele>372.0</ele><time>2026-04-18T07:48:00Z</time></trkpt><trkpt lat="43.915797561695" lon="12.28892963942449"><ele>372.0</ele><time>2026-04-18T07:48:01Z</time></trkpt><trkpt lat="43.91577407355152" lon="12.288756742740814"><ele>372.0</ele><time>2026-04-18T07:48:02Z</time></trkpt><trkpt lat="43.91577227823096" lon="12.288603698837694"><ele>372.0</ele><time>2026-04-18T07:48:03Z</time></trkpt><trkpt lat="43.915755369188496" lon="12.288462530612932"><ele>373.8</ele><time>2026-04-18T07:48:04Z</time></trkpt><trkpt lat="43.91573480810346" lon="12.288325620517677"><ele>375.6</ele><time>2026-04-18T07:48:05Z</time></trkpt><trkpt lat="43.91570033931328" lon="12.28816847384025"><ele>377.40000000000003</ele><time>2026-04-18T07:48:06Z</time></trkpt><trkpt lat="43.91569160535772" lon="12.288038240859446"><ele>379.20000000000005</ele><time>2026-04-18T07:48:07Z</time></trkpt><trkpt lat="43.91573254316191" lon="12.287945863696148"><ele>381.0</ele><time>2026-04-18T07:48:08Z</time></trkpt><trkpt lat="43.915745361064936" lon="12.287840032437334"><ele>382.5</ele><time>2026-04-18T07:48:09Z</time></trkpt><trkpt lat="43.915741504467434" lon="12.287713669188573"><ele>384.0</ele><time>2026-04-18T07:48:10Z</time></trkpt><trkpt lat="43.91572075243561" lon="12.287575735690632"><ele>385.5</ele><time>2026-04-18T07:48:11Z</time></trkpt><trkpt lat="43.91568169603036" lon="12.287434660288199"><ele>387.0</ele><time>2026-04-18T07:48:12Z</time></trkpt><trkpt lat="43.915557085814704" lon="12.287315694541029"><ele>387.0</ele><time>2026-04-18T07:48:13Z</time></trkpt><trkpt lat="43.91545473766129" lon="12.287175869410795"><ele>387.0</ele><time>2026-04-18T07:48:14Z</time></trkpt><trkpt lat="43.91536970844722" lon="12.28707031533124"><ele>387.0</ele><time>2026-04-18T07:48:15Z</time></trkpt><trkpt lat="43.91531412753371" lon="12.286980928192648"><ele>387.0</ele><time>2026-04-18T07:48:16Z</time></trkpt><trkpt lat="43.91528074572471" lon="12.28687948131101"><ele>387.0</ele><time>2026-04-18T07:48:17Z</time></trkpt><trkpt lat="43.91525844737735" lon="12.286749642248363"><ele>387.0</ele><time>2026-04-18T07:48:18Z</time></trkpt><trkpt lat="43.91527580989418" lon="12.286656982734979"><ele>387.0</ele><time>2026-04-18T07:48:19Z</time></trkpt><trkpt lat="43.91531363698968" lon="12.28656283314576"><ele>387.0</ele><time>2026-04-18T07:48:20Z</time></trkpt><trkpt lat="43.91535176111319" lon="12.286437003321819"><ele>387.0</ele><time>2026-04-18T07:48:21Z</time></trkpt><trkpt lat="43.915375893584404" lon="12.286257463103201"><ele>387.0</ele><time>2026-04-18T07:48:22Z</time></trkpt><trkpt lat="43.91539533737214" lon="12.286075565443046"><ele>386.8</ele><time>2026-04-18T07:48:23Z</time></trkpt><trkpt lat="43.91538447260771" lon="12.285930513213994"><ele>386.6</ele><time>2026-04-18T07:48:24Z</time></trkpt><trkpt lat="43.915353610001894" lon="12.285780137677062"><ele>386.40000000000003</ele><time>2026-04-18T07:48:25Z</time></trkpt><trkpt lat="43.91531325605118" lon="12.285671953590874"><ele>386.20000000000005</ele><time>2026-04-18T07:48:26Z</time></trkpt><trkpt lat="43.91527655187298" lon="12.285561210958752"><ele>386.0</ele><time>2026-04-18T07:48:27Z</time></trkpt><trkpt lat="43.91523174657634" lon="12.285474831176366"><ele>385.6</ele><time>2026-04-18T07:48:27.999Z</time></trkpt><trkpt lat="43.91517580743196" lon="12.285388298438466"><ele>385.20000000000005</ele><time>2026-04-18T07:48:28.999Z</time></trkpt><trkpt lat="43.91509233862602" lon="12.285336155900694"><ele>384.79999999999995</ele><time>2026-04-18T07:48:29.999Z</time></trkpt><trkpt lat="43.914996317972836" lon="12.285267370601103"><ele>384.4</ele><time>2026-04-18T07:48:30.999Z</time></trkpt><trkpt lat="43.91488597478832" lon="12.28518625442032"><ele>384.0</ele><time>2026-04-18T07:48:31.999Z</time></trkpt><trkpt lat="43.91476545586518" lon="12.285115846466265"><ele>389.25</ele><time>2026-04-18T07:48:32.999Z</time></trkpt><trkpt lat="43.914652163560845" lon="12.285101059504774"><ele>394.5</ele><time>2026-04-18T07:48:33.999Z</time></trkpt><trkpt lat="43.91455803174757" lon="12.285017554199285"><ele>399.75</ele><time>2026-04-18T07:48:34.999Z</time></trkpt><trkpt lat="43.91444290085112" lon="12.28492024968555"><ele>405.0</ele><time>2026-04-18T07:48:35.999Z</time></trkpt><trkpt lat="43.914329764843814" lon="12.284801328809875"><ele>411.0</ele><time>2026-04-18T07:48:36.999Z</time></trkpt><trkpt lat="43.91422772571013" lon="12.284663754981379"><ele>417.0</ele><time>2026-04-18T07:48:37.999Z</time></trkpt><trkpt lat="43.91413153624427" lon="12.284494551919158"><ele>423.0</ele><time>2026-04-18T07:48:38.999Z</time></trkpt><trkpt lat="43.914037386603255" lon="12.284325075203158"><ele>423.0</ele><time>2026-04-18T07:48:39.999Z</time></trkpt><trkpt lat="43.91397164734915" lon="12.284211627044725"><ele>423.0</ele><time>2026-04-18T07:48:40.999Z</time></trkpt><trkpt lat="43.913895738708156" lon="12.284132410314148"><ele>423.0</ele><time>2026-04-18T07:48:41.999Z</time></trkpt><trkpt lat="43.91379639568245" lon="12.284030977827761"><ele>423.0</ele><time>2026-04-18T07:48:42.999Z</time></trkpt><trkpt lat="43.9136753162075" lon="12.283940631059856"><ele>422.5</ele><time>2026-04-18T07:48:43.999Z</time></trkpt><trkpt lat="43.913562970630295" lon="12.283827541700202"><ele>422.0</ele><time>2026-04-18T07:48:44.999Z</time></trkpt><trkpt lat="43.91349864617639" lon="12.28369163598901"><ele>421.5</ele><time>2026-04-18T07:48:45.999Z</time></trkpt><trkpt lat="43.9134276913776" lon="12.283541811434931"><ele>421.0</ele><time>2026-04-18T07:48:46.999Z</time></trkpt><trkpt lat="43.913346162819735" lon="12.283364763317318"><ele>422.0</ele><time>2026-04-18T07:48:47.999Z</time></trkpt><trkpt lat="43.91326618719104" lon="12.283203607638303"><ele>423.0</ele><time>2026-04-18T07:48:48.999Z</time></trkpt><trkpt lat="43.91318852957174" lon="12.283070591697717"><ele>424.0</ele><time>2026-04-18T07:48:49.999Z</time></trkpt><trkpt lat="43.913106830017064" lon="12.282947097142456"><ele>425.0</ele><time>2026-04-18T07:48:50.999Z</time></trkpt><trkpt lat="43.91300744124754" lon="12.282842914091372"><ele>425.0</ele><time>2026-04-18T07:48:51.999Z</time></trkpt><trkpt lat="43.912897297683124" lon="12.282718734751272"><ele>425.0</ele><time>2026-04-18T07:48:52.999Z</time></trkpt><trkpt lat="43.91277780638253" lon="12.282604054891278"><ele>425.0</ele><time>2026-04-18T07:48:53.999Z</time></trkpt><trkpt lat="43.9126530312642" lon="12.282498547520749"><ele>425.0</ele><time>2026-04-18T07:48:54.999Z</time></trkpt><trkpt lat="43.91254699100267" lon="12.28233046641396"><ele>424.3333333333333</ele><time>2026-04-18T07:48:55.999Z</time></trkpt><trkpt lat="43.912439433230865" lon="12.282146466717274"><ele>423.66666666666663</ele><time>2026-04-18T07:48:56.999Z</time></trkpt><trkpt lat="43.91233165900434" lon="12.281960728261957"><ele>423.0</ele><time>2026-04-18T07:48:57.999Z</time></trkpt><trkpt lat="43.91222640883845" lon="12.28177841130017"><ele>423.0</ele><time>2026-04-18T07:48:58.999Z</time></trkpt><trkpt lat="43.912131169101336" lon="12.281612901750181"><ele>423.0</ele><time>2026-04-18T07:48:59.999Z</time></trkpt><trkpt lat="43.9120437010188" lon="12.281455997776801"><ele>423.0</ele><time>2026-04-18T07:49:00.999Z</time></trkpt><trkpt lat="43.91194811681308" lon="12.281286390906597"><ele>423.75</ele><time>2026-04-18T07:49:01.999Z</time></trkpt><trkpt lat="43.91183210928596" lon="12.281133337257197"><ele>424.5</ele><time>2026-04-18T07:49:02.999Z</time></trkpt><trkpt lat="43.91173947867189" lon="12.280967955556449"><ele>425.25</ele><time>2026-04-18T07:49:03.999Z</time></trkpt><trkpt lat="43.91166244655655" lon="12.280861009559679"><ele>426.0</ele><time>2026-04-18T07:49:04.999Z</time></trkpt><trkpt lat="43.91160644722267" lon="12.2807795510039"><ele>426.0</ele><time>2026-04-18T07:49:05.999Z</time></trkpt><trkpt lat="43.91156139935119" lon="12.280713001673211"><ele>426.0</ele><time>2026-04-18T07:49:06.999Z</time></trkpt><trkpt lat="43.91146819304538" lon="12.2806072005828"><ele>426.0</ele><time>2026-04-18T07:49:08.999Z</time></trkpt><trkpt lat="43.911388954299724" lon="12.280469688149601"><ele>426.0</ele><time>2026-04-18T07:49:10.999Z</time></trkpt><trkpt lat="43.91133534948393" lon="12.280402731176512"><ele>426.0</ele><time>2026-04-18T07:49:11.999Z</time></trkpt><trkpt lat="43.91124024392096" lon="12.280303115604983"><ele>427.5</ele><time>2026-04-18T07:49:13.999Z</time></trkpt><trkpt lat="43.91118339544221" lon="12.280258381408151"><ele>429.0</ele><time>2026-04-18T07:49:14.999Z</time></trkpt><trkpt lat="43.91112628085029" lon="12.28021999109326"><ele>430.5</ele><time>2026-04-18T07:49:15.999Z</time></trkpt><trkpt lat="43.91104849332986" lon="12.280168823337496"><ele>432.0</ele><time>2026-04-18T07:49:17.999Z</time></trkpt><trkpt lat="43.91096247545093" lon="12.280118690517588"><ele>433.5</ele><time>2026-04-18T07:49:19.999Z</time></trkpt><trkpt lat="43.910838636379985" lon="12.28007185221816"><ele>435.0</ele><time>2026-04-18T07:49:21.999Z</time></trkpt><trkpt lat="43.91071760375299" lon="12.279983271576043"><ele>435.0</ele><time>2026-04-18T07:49:23.999Z</time></trkpt><trkpt lat="43.91067229330623" lon="12.279905505975096"><ele>435.0</ele><time>2026-04-18T07:49:24.999Z</time></trkpt><trkpt lat="43.910638039125296" lon="12.27982621884121"><ele>435.0</ele><time>2026-04-18T07:49:25.999Z</time></trkpt><trkpt lat="43.9105797944181" lon="12.279769910063631"><ele>435.0</ele><time>2026-04-18T07:49:26.999Z</time></trkpt><trkpt lat="43.91053703170446" lon="12.279695278711221"><ele>435.0</ele><time>2026-04-18T07:49:27.999Z</time></trkpt><trkpt lat="43.91045595504508" lon="12.27958512802286"><ele>435.0</ele><time>2026-04-18T07:49:29.999Z</time></trkpt><trkpt lat="43.91038966013605" lon="12.279456707867519"><ele>434.2</ele><time>2026-04-18T07:49:31.999Z</time></trkpt><trkpt lat="43.910348142846395" lon="12.279378889575995"><ele>433.4</ele><time>2026-04-18T07:49:32.999Z</time></trkpt><trkpt lat="43.91030787264528" lon="12.279307378410067"><ele>432.6</ele><time>2026-04-18T07:49:33.999Z</time></trkpt><trkpt lat="43.910235708682485" lon="12.279171265710026"><ele>431.8</ele><time>2026-04-18T07:49:35.999Z</time></trkpt><trkpt lat="43.91021465808315" lon="12.279002599717487"><ele>431.0</ele><time>2026-04-18T07:49:37.999Z</time></trkpt><trkpt lat="43.91017187313448" lon="12.278871315939007"><ele>431.49999999999994</ele><time>2026-04-18T07:49:39.999Z</time></trkpt><trkpt lat="43.91012093206948" lon="12.278787197303513"><ele>432.0</ele><time>2026-04-18T07:49:41.999Z</time></trkpt><trkpt lat="43.91009443335192" lon="12.278702272869385"><ele>432.5</ele><time>2026-04-18T07:49:42.999Z</time></trkpt><trkpt lat="43.9100509290413" lon="12.278617790752847"><ele>433.0</ele><time>2026-04-18T07:49:43.999Z</time></trkpt><trkpt lat="43.9100114857443" lon="12.278541194779649"><ele>433.49999999999994</ele><time>2026-04-18T07:49:44.999Z</time></trkpt><trkpt lat="43.909962727553975" lon="12.278448758370788"><ele>434.0</ele><time>2026-04-18T07:49:45.999Z</time></trkpt><trkpt lat="43.90990355977399" lon="12.278345428258525"><ele>434.0</ele><time>2026-04-18T07:49:46.999Z</time></trkpt><trkpt lat="43.90983762007858" lon="12.278243711979304"><ele>434.0</ele><time>2026-04-18T07:49:47.999Z</time></trkpt><trkpt lat="43.90977849859702" lon="12.27815618979513"><ele>434.0</ele><time>2026-04-18T07:49:48.999Z</time></trkpt><trkpt lat="43.909729993763015" lon="12.278086536667521"><ele>434.0</ele><time>2026-04-18T07:49:49.999Z</time></trkpt><trkpt lat="43.909655322973265" lon="12.278009088755937"><ele>434.0</ele><time>2026-04-18T07:49:51.999Z</time></trkpt><trkpt lat="43.90972958548606" lon="12.277777576893248"><ele>432.49999999999994</ele><time>2026-04-18T07:49:54.998Z</time></trkpt><trkpt lat="43.909775535318275" lon="12.27767720978504"><ele>431.0</ele><time>2026-04-18T07:49:55.998Z</time></trkpt><trkpt lat="43.90980067620535" lon="12.277567582760666"><ele>429.5</ele><time>2026-04-18T07:49:56.998Z</time></trkpt><trkpt lat="43.909801100246305" lon="12.277433928098635"><ele>428.0</ele><time>2026-04-18T07:49:57.998Z</time></trkpt><trkpt lat="43.909822371028625" lon="12.277308035574093"><ele>426.49999999999994</ele><time>2026-04-18T07:49:58.998Z</time></trkpt><trkpt lat="43.90983538020438" lon="12.277184025434238"><ele>425.0</ele><time>2026-04-18T07:49:59.998Z</time></trkpt><trkpt lat="43.90984486217112" lon="12.27704755293598"><ele>422.8</ele><time>2026-04-18T07:50:01Z</time></trkpt><trkpt lat="43.90983547255712" lon="12.276907025567239"><ele>420.6</ele><time>2026-04-18T07:50:02Z</time></trkpt><trkpt lat="43.90984704826992" lon="12.276769392505127"><ele>418.4</ele><time>2026-04-18T07:50:03Z</time></trkpt><trkpt lat="43.909848307840576" lon="12.276638814037128"><ele>416.2</ele><time>2026-04-18T07:50:04Z</time></trkpt><trkpt lat="43.90984985677542" lon="12.276513591060427"><ele>414.0</ele><time>2026-04-18T07:50:05Z</time></trkpt><trkpt lat="43.90983939601479" lon="12.276402750803276"><ele>412.5714285714286</ele><time>2026-04-18T07:50:06Z</time></trkpt><trkpt lat="43.909819148520434" lon="12.27630626907608"><ele>411.14285714285717</ele><time>2026-04-18T07:50:07Z</time></trkpt><trkpt lat="43.90977879776226" lon="12.276237812380591"><ele>409.7142857142857</ele><time>2026-04-18T07:50:08Z</time></trkpt><trkpt lat="43.909749305108676" lon="12.276154553036319"><ele>408.28571428571433</ele><time>2026-04-18T07:50:09Z</time></trkpt><trkpt lat="43.90968621628448" lon="12.276097858945626"><ele>406.85714285714283</ele><time>2026-04-18T07:50:10Z</time></trkpt><trkpt lat="43.909633503909646" lon="12.276045097180802"><ele>405.42857142857144</ele><time>2026-04-18T07:50:11Z</time></trkpt><trkpt lat="43.90957781185396" lon="12.275980901319048"><ele>404.0</ele><time>2026-04-18T07:50:12Z</time></trkpt><trkpt lat="43.90952566841696" lon="12.275901908374733"><ele>404.0</ele><time>2026-04-18T07:50:13Z</time></trkpt><trkpt lat="43.90947494074082" lon="12.275808857995953"><ele>404.0</ele><time>2026-04-18T07:50:14Z</time></trkpt><trkpt lat="43.90941768895255" lon="12.275696830801195"><ele>404.0</ele><time>2026-04-18T07:50:15Z</time></trkpt><trkpt lat="43.90934773012591" lon="12.275575109921819"><ele>404.0</ele><time>2026-04-18T07:50:16Z</time></trkpt><trkpt lat="43.90928601860932" lon="12.275446416436813"><ele>404.0</ele><time>2026-04-18T07:50:17Z</time></trkpt><trkpt lat="43.90924066445119" lon="12.275342678089517"><ele>405.4</ele><time>2026-04-18T07:50:18Z</time></trkpt><trkpt lat="43.90920844249196" lon="12.275227937593026"><ele>406.79999999999995</ele><time>2026-04-18T07:50:19Z</time></trkpt><trkpt lat="43.90921025339342" lon="12.27510214712289"><ele>408.20000000000005</ele><time>2026-04-18T07:50:20Z</time></trkpt><trkpt lat="43.90926150533786" lon="12.274982380790338"><ele>409.6</ele><time>2026-04-18T07:50:21Z</time></trkpt><trkpt lat="43.90935733254749" lon="12.274879292702362"><ele>411.0</ele><time>2026-04-18T07:50:22Z</time></trkpt><trkpt lat="43.90947612749672" lon="12.274776764132191"><ele>416.25</ele><time>2026-04-18T07:50:23Z</time></trkpt><trkpt lat="43.9095972499506" lon="12.27468600360431"><ele>421.5</ele><time>2026-04-18T07:50:24Z</time></trkpt><trkpt lat="43.90972164357751" lon="12.274687335870535"><ele>426.75</ele><time>2026-04-18T07:50:25Z</time></trkpt><trkpt lat="43.909806272594544" lon="12.274653562600463"><ele>432.0</ele><time>2026-04-18T07:50:26Z</time></trkpt><trkpt lat="43.909912760392544" lon="12.274560254596514"><ele>432.0</ele><time>2026-04-18T07:50:28Z</time></trkpt><trkpt lat="43.909964956534004" lon="12.274438659949032"><ele>432.00000000000006</ele><time>2026-04-18T07:50:29Z</time></trkpt><trkpt lat="43.90999340553374" lon="12.27428179756895"><ele>432.00000000000006</ele><time>2026-04-18T07:50:30Z</time></trkpt><trkpt lat="43.91003938648433" lon="12.274130177075172"><ele>432.0</ele><time>2026-04-18T07:50:31Z</time></trkpt><trkpt lat="43.910097487401536" lon="12.273999009353572"><ele>432.0</ele><time>2026-04-18T07:50:32Z</time></trkpt><trkpt lat="43.91014122726534" lon="12.273854007294547"><ele>428.5</ele><time>2026-04-18T07:50:33Z</time></trkpt><trkpt lat="43.9101827708594" lon="12.27368250072389"><ele>425.0</ele><time>2026-04-18T07:50:34Z</time></trkpt><trkpt lat="43.91019184443121" lon="12.273510035028567"><ele>421.5</ele><time>2026-04-18T07:50:35Z</time></trkpt><trkpt lat="43.9101878783153" lon="12.27337461351859"><ele>418.0</ele><time>2026-04-18T07:50:36Z</time></trkpt><trkpt lat="43.910147297784846" lon="12.27325027234731"><ele>418.0</ele><time>2026-04-18T07:50:36.999Z</time></trkpt><trkpt lat="43.91007928197474" lon="12.273122143821496"><ele>418.0</ele><time>2026-04-18T07:50:37.999Z</time></trkpt><trkpt lat="43.90999054892132" lon="12.272999818399276"><ele>418.0</ele><time>2026-04-18T07:50:38.999Z</time></trkpt><trkpt lat="43.90994825478069" lon="12.272873468935897"><ele>418.0</ele><time>2026-04-18T07:50:39.999Z</time></trkpt><trkpt lat="43.90991821266892" lon="12.272737492088595"><ele>418.0</ele><time>2026-04-18T07:50:40.999Z</time></trkpt><trkpt lat="43.90997022689949" lon="12.27261844825954"><ele>423.79999999999995</ele><time>2026-04-18T07:50:41.999Z</time></trkpt><trkpt lat="43.910015912689104" lon="12.27250045722208"><ele>429.6</ele><time>2026-04-18T07:50:42.999Z</time></trkpt><trkpt lat="43.91007315664164" lon="12.272351866092176"><ele>435.40000000000003</ele><time>2026-04-18T07:50:43.999Z</time></trkpt><trkpt lat="43.91014060111989" lon="12.27222727756095"><ele>441.20000000000005</ele><time>2026-04-18T07:50:44.999Z</time></trkpt><trkpt lat="43.910191088139825" lon="12.272114796494057"><ele>447.0</ele><time>2026-04-18T07:50:45.999Z</time></trkpt><trkpt lat="43.91026339702168" lon="12.27197070893457"><ele>448.0</ele><time>2026-04-18T07:50:46.999Z</time></trkpt><trkpt lat="43.91035290318582" lon="12.27186917632249"><ele>449.00000000000006</ele><time>2026-04-18T07:50:47.999Z</time></trkpt><trkpt lat="43.91046323309088" lon="12.271788344981918"><ele>450.00000000000006</ele><time>2026-04-18T07:50:48.999Z</time></trkpt><trkpt lat="43.910554931678" lon="12.27177321268054"><ele>451.0</ele><time>2026-04-18T07:50:49.999Z</time></trkpt><trkpt lat="43.91064219038736" lon="12.271762092295546"><ele>452.0</ele><time>2026-04-18T07:50:50.999Z</time></trkpt><trkpt lat="43.91073496240196" lon="12.27177405657186"><ele>452.0</ele><time>2026-04-18T07:50:51.999Z</time></trkpt><trkpt lat="43.91083432942299" lon="12.271828744988177"><ele>452.00000000000006</ele><time>2026-04-18T07:50:52.999Z</time></trkpt><trkpt lat="43.91092742994678" lon="12.271870608499604"><ele>452.00000000000006</ele><time>2026-04-18T07:50:53.999Z</time></trkpt><trkpt lat="43.91102065918562" lon="12.271918823195417"><ele>452.0</ele><time>2026-04-18T07:50:54.999Z</time></trkpt><trkpt lat="43.91110937592734" lon="12.271898109322553"><ele>452.0</ele><time>2026-04-18T07:50:55.999Z</time></trkpt><trkpt lat="43.911191202539165" lon="12.271795237728716"><ele>453.0</ele><time>2026-04-18T07:50:56.999Z</time></trkpt><trkpt lat="43.91127298937909" lon="12.27164019729031"><ele>454.0</ele><time>2026-04-18T07:50:57.999Z</time></trkpt><trkpt lat="43.91136091291907" lon="12.271456341314856"><ele>455.0</ele><time>2026-04-18T07:50:58.999Z</time></trkpt><trkpt lat="43.91144214961419" lon="12.271271121071141"><ele>455.0</ele><time>2026-04-18T07:50:59.999Z</time></trkpt><trkpt lat="43.91150248719002" lon="12.271132479629458"><ele>455.0</ele><time>2026-04-18T07:51:00.999Z</time></trkpt><trkpt lat="43.91154890562096" lon="12.271024151268264"><ele>455.0</ele><time>2026-04-18T07:51:01.999Z</time></trkpt><trkpt lat="43.911608013675135" lon="12.270940369349049"><ele>455.0</ele><time>2026-04-18T07:51:02.999Z</time></trkpt><trkpt lat="43.91164917889716" lon="12.270834817591219"><ele>455.0</ele><time>2026-04-18T07:51:03.999Z</time></trkpt><trkpt lat="43.91169728523475" lon="12.270746842804726"><ele>454.66666666666663</ele><time>2026-04-18T07:51:04.999Z</time></trkpt><trkpt lat="43.911748151879" lon="12.270663376924364"><ele>454.3333333333333</ele><time>2026-04-18T07:51:05.999Z</time></trkpt><trkpt lat="43.91179508133156" lon="12.27058409002344"><ele>454.0</ele><time>2026-04-18T07:51:06.999Z</time></trkpt><trkpt lat="43.911844984413264" lon="12.270505151568132"><ele>453.66666666666663</ele><time>2026-04-18T07:51:07.999Z</time></trkpt><trkpt lat="43.911879516979056" lon="12.270429297015781"><ele>453.3333333333333</ele><time>2026-04-18T07:51:08.999Z</time></trkpt><trkpt lat="43.91192535605673" lon="12.270266276065497"><ele>453.0</ele><time>2026-04-18T07:51:10.999Z</time></trkpt><trkpt lat="43.91194660536431" lon="12.27016342527171"><ele>455.33333333333337</ele><time>2026-04-18T07:51:11.999Z</time></trkpt><trkpt lat="43.911993857199064" lon="12.27002718985399"><ele>457.6666666666667</ele><time>2026-04-18T07:51:13.999Z</time></trkpt><trkpt lat="43.91197949607764" lon="12.270121657075745"><ele>460.0</ele><time>2026-04-18T07:52:09Z</time></trkpt><trkpt lat="43.911781363601506" lon="12.270578441682837"><ele>459.1666666666667</ele><time>2026-04-18T07:52:12Z</time></trkpt><trkpt lat="43.91172190519273" lon="12.270685725235948"><ele>458.33333333333337</ele><time>2026-04-18T07:52:13Z</time></trkpt><trkpt lat="43.911661363982255" lon="12.27079329449732"><ele>457.5</ele><time>2026-04-18T07:52:14Z</time></trkpt><trkpt lat="43.91160948760543" lon="12.270891722164862"><ele>456.66666666666663</ele><time>2026-04-18T07:52:15Z</time></trkpt><trkpt lat="43.91156104862024" lon="12.270992965126071"><ele>455.8333333333333</ele><time>2026-04-18T07:52:16Z</time></trkpt><trkpt lat="43.9115197757271" lon="12.271083770863038"><ele>455.0</ele><time>2026-04-18T07:52:17Z</time></trkpt><trkpt lat="43.91147905249618" lon="12.271178056069155"><ele>454.99999999999994</ele><time>2026-04-18T07:52:18Z</time></trkpt><trkpt lat="43.91143609836612" lon="12.271270091689871"><ele>455.0</ele><time>2026-04-18T07:52:19Z</time></trkpt><trkpt lat="43.91139152592259" lon="12.271372689875953"><ele>455.0</ele><time>2026-04-18T07:52:20Z</time></trkpt><trkpt lat="43.911345939741196" lon="12.271475337621352"><ele>455.0</ele><time>2026-04-18T07:52:21Z</time></trkpt><trkpt lat="43.911293005074626" lon="12.271578796418808"><ele>454.99999999999994</ele><time>2026-04-18T07:52:22Z</time></trkpt><trkpt lat="43.91124702896226" lon="12.271661636640047"><ele>455.0</ele><time>2026-04-18T07:52:23Z</time></trkpt><trkpt lat="43.911204934295625" lon="12.271736133727062"><ele>454.57142857142856</ele><time>2026-04-18T07:52:24Z</time></trkpt><trkpt lat="43.91115639638609" lon="12.271810148584139"><ele>454.1428571428571</ele><time>2026-04-18T07:52:25Z</time></trkpt><trkpt lat="43.911100230153714" lon="12.271871518419266"><ele>453.7142857142857</ele><time>2026-04-18T07:52:26Z</time></trkpt><trkpt lat="43.91103543805271" lon="12.271908565819485"><ele>453.2857142857143</ele><time>2026-04-18T07:52:27Z</time></trkpt><trkpt lat="43.91096169850318" lon="12.271876328401563"><ele>452.85714285714283</ele><time>2026-04-18T07:52:28Z</time></trkpt><trkpt lat="43.91090404427096" lon="12.271813464874272"><ele>452.42857142857144</ele><time>2026-04-18T07:52:29Z</time></trkpt><trkpt lat="43.91083329641146" lon="12.271777513951411"><ele>452.0</ele><time>2026-04-18T07:52:30Z</time></trkpt><trkpt lat="43.91075993270589" lon="12.271735743756295"><ele>451.99999999999994</ele><time>2026-04-18T07:52:31Z</time></trkpt><trkpt lat="43.91068731090297" lon="12.271710641341597"><ele>452.0</ele><time>2026-04-18T07:52:32Z</time></trkpt><trkpt lat="43.91061314467871" lon="12.271705825988365"><ele>452.0</ele><time>2026-04-18T07:52:33Z</time></trkpt><trkpt lat="43.91054414356423" lon="12.271721855026005"><ele>452.0</ele><time>2026-04-18T07:52:34Z</time></trkpt><trkpt lat="43.9104274112061" lon="12.27177400285394"><ele>451.99999999999994</ele><time>2026-04-18T07:52:36Z</time></trkpt><trkpt lat="43.91033798421363" lon="12.271844195040115"><ele>452.0</ele><time>2026-04-18T07:52:38Z</time></trkpt><trkpt lat="43.9102366288154" lon="12.271964334637222"><ele>452.0</ele><time>2026-04-18T07:52:40Z</time></trkpt><trkpt lat="43.91019086465324" lon="12.272045535545125"><ele>452.00000000000006</ele><time>2026-04-18T07:52:41.999Z</time></trkpt><trkpt lat="43.91013504591949" lon="12.272167750102314"><ele>452.00000000000006</ele><time>2026-04-18T07:53:12.999Z</time></trkpt><trkpt lat="43.910097961966336" lon="12.272250868528053"><ele>452.0</ele><time>2026-04-18T07:53:13.999Z</time></trkpt><trkpt lat="43.910046262061385" lon="12.27235553520092"><ele>452.0</ele><time>2026-04-18T07:53:14.999Z</time></trkpt><trkpt lat="43.909983181320094" lon="12.27248787704664"><ele>450.75</ele><time>2026-04-18T07:53:15.999Z</time></trkpt><trkpt lat="43.9099334301475" lon="12.272623187408884"><ele>449.5</ele><time>2026-04-18T07:53:16.999Z</time></trkpt><trkpt lat="43.909905109332726" lon="12.272770431829391"><ele>448.25</ele><time>2026-04-18T07:53:17.999Z</time></trkpt><trkpt lat="43.90992145451873" lon="12.272925986310733"><ele>447.0</ele><time>2026-04-18T07:53:18.999Z</time></trkpt><trkpt lat="43.91001406243137" lon="12.273051505784492"><ele>445.8</ele><time>2026-04-18T07:53:19.999Z</time></trkpt><trkpt lat="43.91007149106417" lon="12.273187803617748"><ele>444.6</ele><time>2026-04-18T07:53:20.999Z</time></trkpt><trkpt lat="43.91012660279708" lon="12.27329999502319"><ele>443.40000000000003</ele><time>2026-04-18T07:53:21.999Z</time></trkpt><trkpt lat="43.91015981190067" lon="12.273408491885133"><ele>442.20000000000005</ele><time>2026-04-18T07:53:22.999Z</time></trkpt><trkpt lat="43.91017604047515" lon="12.273528102724189"><ele>441.0</ele><time>2026-04-18T07:53:23.999Z</time></trkpt><trkpt lat="43.910157090884645" lon="12.27364294414857"><ele>439.20000000000005</ele><time>2026-04-18T07:53:24.999Z</time></trkpt><trkpt lat="43.9101405054909" lon="12.273763221185817"><ele>437.40000000000003</ele><time>2026-04-18T07:53:25.999Z</time></trkpt><trkpt lat="43.91008481308238" lon="12.273905285882527"><ele>435.6</ele><time>2026-04-18T07:53:26.999Z</time></trkpt><trkpt lat="43.91003816198372" lon="12.274037865757702"><ele>433.8</ele><time>2026-04-18T07:53:27.999Z</time></trkpt><trkpt lat="43.91000191093187" lon="12.274185989462861"><ele>432.0</ele><time>2026-04-18T07:53:28.999Z</time></trkpt><trkpt lat="43.90997130902779" lon="12.27432503052785"><ele>432.0</ele><time>2026-04-18T07:53:29.999Z</time></trkpt><trkpt lat="43.90991609538261" lon="12.274440614345496"><ele>432.0</ele><time>2026-04-18T07:53:30.999Z</time></trkpt><trkpt lat="43.909870190656555" lon="12.27453537598579"><ele>432.0</ele><time>2026-04-18T07:53:31.999Z</time></trkpt><trkpt lat="43.90980935370071" lon="12.274605175432225"><ele>432.0</ele><time>2026-04-18T07:53:32.999Z</time></trkpt><trkpt lat="43.90972973832216" lon="12.27463453639102"><ele>432.0</ele><time>2026-04-18T07:53:33.999Z</time></trkpt><trkpt lat="43.9096360403883" lon="12.2746559225786"><ele>432.0</ele><time>2026-04-18T07:53:34.999Z</time></trkpt><trkpt lat="43.90952756546821" lon="12.274696753371085"><ele>432.0</ele><time>2026-04-18T07:53:35.999Z</time></trkpt><trkpt lat="43.90941839669882" lon="12.274768963611454"><ele>432.00000000000006</ele><time>2026-04-18T07:53:36.999Z</time></trkpt><trkpt lat="43.909326672057574" lon="12.274867452010163"><ele>432.00000000000006</ele><time>2026-04-18T07:53:37.999Z</time></trkpt><trkpt lat="43.90924856317706" lon="12.274952433325316"><ele>432.0</ele><time>2026-04-18T07:53:38.999Z</time></trkpt><trkpt lat="43.90918594387788" lon="12.275055330341639"><ele>432.0</ele><time>2026-04-18T07:53:39.999Z</time></trkpt><trkpt lat="43.90914988463369" lon="12.275180682675579"><ele>436.25</ele><time>2026-04-18T07:53:40.999Z</time></trkpt><trkpt lat="43.90918696732691" lon="12.275332290606299"><ele>440.5</ele><time>2026-04-18T07:53:41.999Z</time></trkpt><trkpt lat="43.90926624042389" lon="12.275487006922278"><ele>444.75</ele><time>2026-04-18T07:53:42.999Z</time></trkpt><trkpt lat="43.90935137911088" lon="12.275643223743455"><ele>449.0</ele><time>2026-04-18T07:53:43.999Z</time></trkpt><trkpt lat="43.90943294606303" lon="12.2758087586337"><ele>437.75</ele><time>2026-04-18T07:53:44.999Z</time></trkpt><trkpt lat="43.90951469129505" lon="12.27595265867399"><ele>426.5</ele><time>2026-04-18T07:53:45.999Z</time></trkpt><trkpt lat="43.909605422002215" lon="12.276098066042874"><ele>415.25</ele><time>2026-04-18T07:53:46.999Z</time></trkpt><trkpt lat="43.90970583635514" lon="12.276182504091873"><ele>404.0</ele><time>2026-04-18T07:53:47.999Z</time></trkpt><trkpt lat="43.909782124399115" lon="12.276266941292448"><ele>404.0</ele><time>2026-04-18T07:53:48.999Z</time></trkpt><trkpt lat="43.9098236178136" lon="12.276368755967106"><ele>404.0</ele><time>2026-04-18T07:53:49.999Z</time></trkpt><trkpt lat="43.90982453418881" lon="12.276489892981347"><ele>404.0</ele><time>2026-04-18T07:53:50.999Z</time></trkpt><trkpt lat="43.909824449058945" lon="12.276623171075233"><ele>404.0</ele><time>2026-04-18T07:53:51.999Z</time></trkpt><trkpt lat="43.909820278460366" lon="12.276789790080137"><ele>404.0</ele><time>2026-04-18T07:53:52.999Z</time></trkpt><trkpt lat="43.90981653449858" lon="12.276917942758978"><ele>406.0</ele><time>2026-04-18T07:53:53.999Z</time></trkpt><trkpt lat="43.90981985446023" lon="12.277058276446779"><ele>408.0</ele><time>2026-04-18T07:53:54.999Z</time></trkpt><trkpt lat="43.909808244778795" lon="12.277205674290238"><ele>410.0</ele><time>2026-04-18T07:53:55.999Z</time></trkpt><trkpt lat="43.909794721688606" lon="12.277367496882174"><ele>412.0</ele><time>2026-04-18T07:53:56.999Z</time></trkpt><trkpt lat="43.90976286745212" lon="12.277518694633674"><ele>414.0</ele><time>2026-04-18T07:53:57.999Z</time></trkpt><trkpt lat="43.90974180326513" lon="12.277652987076976"><ele>415.8333333333333</ele><time>2026-04-18T07:53:58.999Z</time></trkpt><trkpt lat="43.909723094094915" lon="12.277763063062146"><ele>417.66666666666663</ele><time>2026-04-18T07:53:59.999Z</time></trkpt><trkpt lat="43.90971595958261" lon="12.277869459783584"><ele>419.5</ele><time>2026-04-18T07:54:00.999Z</time></trkpt><trkpt lat="43.909662357255804" lon="12.27796293160672"><ele>421.3333333333333</ele><time>2026-04-18T07:54:01.999Z</time></trkpt><trkpt lat="43.9096113029185" lon="12.278046162638176"><ele>423.16666666666663</ele><time>2026-04-18T07:54:02.999Z</time></trkpt><trkpt lat="43.90956489712768" lon="12.27813096032917"><ele>425.0</ele><time>2026-04-18T07:54:03.999Z</time></trkpt><trkpt lat="43.90951947909461" lon="12.278211969483847"><ele>426.49999999999994</ele><time>2026-04-18T07:54:04.998Z</time></trkpt><trkpt lat="43.90952428378235" lon="12.278306472884648"><ele>428.0</ele><time>2026-04-18T07:54:05.998Z</time></trkpt><trkpt lat="43.90955723474311" lon="12.27839880462807"><ele>429.5</ele><time>2026-04-18T07:54:06.998Z</time></trkpt><trkpt lat="43.909575502019024" lon="12.278496723987951"><ele>431.0</ele><time>2026-04-18T07:54:07.998Z</time></trkpt><trkpt lat="43.909602957638945" lon="12.278617370779253"><ele>432.49999999999994</ele><time>2026-04-18T07:54:08.998Z</time></trkpt><trkpt lat="43.90962940003733" lon="12.278763079747133"><ele>434.0</ele><time>2026-04-18T07:54:10.998Z</time></trkpt><trkpt lat="43.90964840037245" lon="12.278874751690953"><ele>434.16666666666663</ele><time>2026-04-18T07:54:13Z</time></trkpt><trkpt lat="43.90966092625467" lon="12.278994400611225"><ele>434.3333333333333</ele><time>2026-04-18T07:54:15Z</time></trkpt><trkpt lat="43.90967795193522" lon="12.279105927481025"><ele>434.5</ele><time>2026-04-18T07:54:17Z</time></trkpt><trkpt lat="43.90968802307478" lon="12.279194570709025"><ele>434.66666666666663</ele><time>2026-04-18T07:54:19Z</time></trkpt><trkpt lat="43.909708744277324" lon="12.279299743904309"><ele>434.8333333333333</ele><time>2026-04-18T07:54:21Z</time></trkpt><trkpt lat="43.909730043025235" lon="12.27944699600199"><ele>435.0</ele><time>2026-04-18T07:54:23Z</time></trkpt><trkpt lat="43.90973988569303" lon="12.27955116544376"><ele>435.0</ele><time>2026-04-18T07:54:24Z</time></trkpt><trkpt lat="43.90975357114788" lon="12.279672456173053"><ele>435.0</ele><time>2026-04-18T07:54:25Z</time></trkpt><trkpt lat="43.9097724648183" lon="12.279782506012834"><ele>435.0</ele><time>2026-04-18T07:54:26Z</time></trkpt><trkpt lat="43.90978478188613" lon="12.279891996233212"><ele>435.0</ele><time>2026-04-18T07:54:27Z</time></trkpt><trkpt lat="43.90979419716178" lon="12.280005257675215"><ele>435.0</ele><time>2026-04-18T07:54:28Z</time></trkpt><trkpt lat="43.90980132684769" lon="12.280112790698338"><ele>435.0</ele><time>2026-04-18T07:54:29Z</time></trkpt><trkpt lat="43.909807251679844" lon="12.280220180890721"><ele>433.8333333333333</ele><time>2026-04-18T07:54:30Z</time></trkpt><trkpt lat="43.909816954071886" lon="12.280323545627782"><ele>432.66666666666663</ele><time>2026-04-18T07:54:31Z</time></trkpt><trkpt lat="43.90983032931054" lon="12.2804285819254"><ele>431.5</ele><time>2026-04-18T07:54:32Z</time></trkpt><trkpt lat="43.90983425145287" lon="12.280534487521425"><ele>430.3333333333333</ele><time>2026-04-18T07:54:33Z</time></trkpt><trkpt lat="43.90984385491671" lon="12.280645886268283"><ele>429.16666666666663</ele><time>2026-04-18T07:54:34Z</time></trkpt><trkpt lat="43.90985597820777" lon="12.280763320085414"><ele>428.0</ele><time>2026-04-18T07:54:35Z</time></trkpt><trkpt lat="43.90986405458196" lon="12.280887502705323"><ele>426.49999999999994</ele><time>2026-04-18T07:54:36Z</time></trkpt><trkpt lat="43.909867535623704" lon="12.281012715046657"><ele>425.0</ele><time>2026-04-18T07:54:37Z</time></trkpt><trkpt lat="43.909872886261596" lon="12.281138280554801"><ele>423.5</ele><time>2026-04-18T07:54:38Z</time></trkpt><trkpt lat="43.909877531155495" lon="12.281264535031415"><ele>422.0</ele><time>2026-04-18T07:54:39Z</time></trkpt><trkpt lat="43.90988694710411" lon="12.28137893978737"><ele>420.49999999999994</ele><time>2026-04-18T07:54:40Z</time></trkpt><trkpt lat="43.90992790378064" lon="12.281486980592785"><ele>419.0</ele><time>2026-04-18T07:54:41Z</time></trkpt><trkpt lat="43.91001399129741" lon="12.281572458966862"><ele>417.5</ele><time>2026-04-18T07:54:42Z</time></trkpt><trkpt lat="43.9100973287533" lon="12.281684101821474"><ele>416.0</ele><time>2026-04-18T07:54:43Z</time></trkpt><trkpt lat="43.91018944730827" lon="12.281778755445066"><ele>414.5</ele><time>2026-04-18T07:54:44Z</time></trkpt><trkpt lat="43.91027484136155" lon="12.28188299837176"><ele>413.0</ele><time>2026-04-18T07:54:45Z</time></trkpt><trkpt lat="43.91034404911141" lon="12.281997381873964"><ele>413.0</ele><time>2026-04-18T07:54:46Z</time></trkpt><trkpt lat="43.91040961111788" lon="12.2821264653712"><ele>413.0</ele><time>2026-04-18T07:54:47Z</time></trkpt><trkpt lat="43.910460934309654" lon="12.282260804609756"><ele>413.0</ele><time>2026-04-18T07:54:48Z</time></trkpt><trkpt lat="43.91048272210548" lon="12.282384040111095"><ele>413.0</ele><time>2026-04-18T07:54:49Z</time></trkpt><trkpt lat="43.91047514732524" lon="12.282497677377092"><ele>413.0</ele><time>2026-04-18T07:54:49.999Z</time></trkpt><trkpt lat="43.91041805026544" lon="12.28260164277121"><ele>410.25</ele><time>2026-04-18T07:54:50.999Z</time></trkpt><trkpt lat="43.91032381020788" lon="12.282675038744069"><ele>407.5</ele><time>2026-04-18T07:54:51.999Z</time></trkpt><trkpt lat="43.91021690472763" lon="12.282714692620239"><ele>404.75</ele><time>2026-04-18T07:54:52.999Z</time></trkpt><trkpt lat="43.91009890915269" lon="12.28272588128191"><ele>402.0</ele><time>2026-04-18T07:54:53.999Z</time></trkpt><trkpt lat="43.90997624661498" lon="12.282699910018566"><ele>399.25</ele><time>2026-04-18T07:54:54.999Z</time></trkpt><trkpt lat="43.909849071771575" lon="12.282657112233062"><ele>396.5</ele><time>2026-04-18T07:54:55.999Z</time></trkpt><trkpt lat="43.90972207972077" lon="12.282629397718999"><ele>393.75</ele><time>2026-04-18T07:54:56.999Z</time></trkpt><trkpt lat="43.909600662737915" lon="12.282605884992778"><ele>391.0</ele><time>2026-04-18T07:54:57.999Z</time></trkpt><trkpt lat="43.90947750185348" lon="12.282588130615173"><ele>391.0</ele><time>2026-04-18T07:54:58.999Z</time></trkpt><trkpt lat="43.909357822252915" lon="12.282560819818672"><ele>391.0</ele><time>2026-04-18T07:54:59.999Z</time></trkpt><trkpt lat="43.909241688104075" lon="12.282544190291835"><ele>391.0</ele><time>2026-04-18T07:55:00.999Z</time></trkpt><trkpt lat="43.90914007776267" lon="12.282527405793909"><ele>391.0</ele><time>2026-04-18T07:55:01.999Z</time></trkpt><trkpt lat="43.90904146085181" lon="12.28250601627538"><ele>391.0</ele><time>2026-04-18T07:55:02.999Z</time></trkpt><trkpt lat="43.908939556001044" lon="12.282480246586807"><ele>389.20000000000005</ele><time>2026-04-18T07:55:03.999Z</time></trkpt><trkpt lat="43.90883520936494" lon="12.282458310608403"><ele>387.40000000000003</ele><time>2026-04-18T07:55:04.999Z</time></trkpt><trkpt lat="43.90872741420264" lon="12.28242648263833"><ele>385.6</ele><time>2026-04-18T07:55:05.999Z</time></trkpt><trkpt lat="43.90862118068202" lon="12.28238961830249"><ele>383.8</ele><time>2026-04-18T07:55:06.999Z</time></trkpt><trkpt lat="43.908513058099004" lon="12.282355034941782"><ele>382.0</ele><time>2026-04-18T07:55:07.999Z</time></trkpt><trkpt lat="43.90840119594757" lon="12.282330621502306"><ele>379.75</ele><time>2026-04-18T07:55:08.999Z</time></trkpt><trkpt lat="43.90828344289488" lon="12.282310528112909"><ele>377.5</ele><time>2026-04-18T07:55:09.999Z</time></trkpt><trkpt lat="43.90816797514602" lon="12.282301434160779"><ele>375.25</ele><time>2026-04-18T07:55:10.999Z</time></trkpt><trkpt lat="43.90805584478255" lon="12.282305467738846"><ele>373.0</ele><time>2026-04-18T07:55:11.999Z</time></trkpt><trkpt lat="43.90793167911863" lon="12.282321611829175"><ele>373.0</ele><time>2026-04-18T07:55:12.999Z</time></trkpt><trkpt lat="43.90781747302123" lon="12.282335404878507"><ele>373.0</ele><time>2026-04-18T07:55:13.999Z</time></trkpt><trkpt lat="43.907688458322745" lon="12.282348761018003"><ele>373.0</ele><time>2026-04-18T07:55:14.999Z</time></trkpt><trkpt lat="43.90757139437026" lon="12.282362203655556"><ele>373.0</ele><time>2026-04-18T07:55:15.999Z</time></trkpt><trkpt lat="43.907458057692395" lon="12.282366949329937"><ele>372.59999999999997</ele><time>2026-04-18T07:55:16.999Z</time></trkpt><trkpt lat="43.90735303174507" lon="12.282365404388656"><ele>372.2</ele><time>2026-04-18T07:55:17.999Z</time></trkpt><trkpt lat="43.90723953622943" lon="12.282383704922326"><ele>371.8</ele><time>2026-04-18T07:55:18.999Z</time></trkpt><trkpt lat="43.90714141094616" lon="12.282398879945651"><ele>371.4</ele><time>2026-04-18T07:55:19.999Z</time></trkpt><trkpt lat="43.90704095064881" lon="12.28240042199374"><ele>371.0</ele><time>2026-04-18T07:55:20.999Z</time></trkpt><trkpt lat="43.90693601580385" lon="12.282408264398876"><ele>371.0</ele><time>2026-04-18T07:55:21.999Z</time></trkpt><trkpt lat="43.90684937895384" lon="12.282407628133509"><ele>371.0</ele><time>2026-04-18T07:55:22.999Z</time></trkpt><trkpt lat="43.90676814180734" lon="12.282419965016416"><ele>371.0</ele><time>2026-04-18T07:55:23.999Z</time></trkpt><trkpt lat="43.90665952857095" lon="12.282444455877132"><ele>371.0</ele><time>2026-04-18T07:55:25.999Z</time></trkpt><trkpt lat="43.906579900603646" lon="12.282501835678051"><ele>371.0</ele><time>2026-04-18T07:55:27.999Z</time></trkpt><trkpt lat="43.906498703837755" lon="12.282640775252473"><ele>371.5</ele><time>2026-04-18T07:55:29.999Z</time></trkpt><trkpt lat="43.90643385535507" lon="12.282753440217821"><ele>372.0</ele><time>2026-04-18T07:55:31.999Z</time></trkpt><trkpt lat="43.906380182191306" lon="12.282824769870214"><ele>372.5</ele><time>2026-04-18T07:56:23Z</time></trkpt><trkpt lat="43.90633843961995" lon="12.282917094958"><ele>373.0</ele><time>2026-04-18T07:56:24Z</time></trkpt><trkpt lat="43.90631344303307" lon="12.283023565255595"><ele>373.5</ele><time>2026-04-18T07:56:25Z</time></trkpt><trkpt lat="43.90628229747526" lon="12.283136400238899"><ele>374.0</ele><time>2026-04-18T07:56:26Z</time></trkpt><trkpt lat="43.90623520436519" lon="12.283268375699317"><ele>371.4</ele><time>2026-04-18T07:56:27Z</time></trkpt><trkpt lat="43.90619556417141" lon="12.283393094717631"><ele>368.79999999999995</ele><time>2026-04-18T07:56:28Z</time></trkpt><trkpt lat="43.906154074516074" lon="12.283519223501006"><ele>366.20000000000005</ele><time>2026-04-18T07:56:29Z</time></trkpt><trkpt lat="43.90611807410259" lon="12.283630216527309"><ele>363.6</ele><time>2026-04-18T07:56:30Z</time></trkpt><trkpt lat="43.906062541463285" lon="12.283723269911835"><ele>361.0</ele><time>2026-04-18T07:56:32Z</time></trkpt><trkpt lat="43.90600993094123" lon="12.283826501759616"><ele>363.20000000000005</ele><time>2026-04-18T07:56:36Z</time></trkpt><trkpt lat="43.90596817050825" lon="12.283942890400638"><ele>365.40000000000003</ele><time>2026-04-18T07:56:38Z</time></trkpt><trkpt lat="43.905898495073025" lon="12.284056296454832"><ele>367.6</ele><time>2026-04-18T07:56:40Z</time></trkpt><trkpt lat="43.90579106389973" lon="12.283936423218178"><ele>369.8</ele><time>2026-04-18T07:56:45Z</time></trkpt><trkpt lat="43.905791471239944" lon="12.283842220318311"><ele>372.0</ele><time>2026-04-18T07:56:46Z</time></trkpt><trkpt lat="43.90577794102469" lon="12.283670608124782"><ele>372.3333333333333</ele><time>2026-04-18T07:56:48Z</time></trkpt><trkpt lat="43.90584327239055" lon="12.283562724904531"><ele>372.6666666666667</ele><time>2026-04-18T07:56:51Z</time></trkpt><trkpt lat="43.905890413564485" lon="12.283422524763502"><ele>373.0</ele><time>2026-04-18T07:56:53Z</time></trkpt><trkpt lat="43.9059217066963" lon="12.283344853802049"><ele>373.33333333333337</ele><time>2026-04-18T07:56:54Z</time></trkpt><trkpt lat="43.90596055330782" lon="12.283245947603929"><ele>373.6666666666667</ele><time>2026-04-18T07:56:55Z</time></trkpt><trkpt lat="43.9059971355661" lon="12.283135581135516"><ele>374.0</ele><time>2026-04-18T07:56:56Z</time></trkpt><trkpt lat="43.90601493324189" lon="12.283021314820488"><ele>374.0</ele><time>2026-04-18T07:56:57Z</time></trkpt><trkpt lat="43.90603033017851" lon="12.282923649272423"><ele>374.0</ele><time>2026-04-18T07:56:58Z</time></trkpt><trkpt lat="43.906025230998544" lon="12.282829148133866"><ele>374.0</ele><time>2026-04-18T07:56:59Z</time></trkpt><trkpt lat="43.90600536093325" lon="12.282689837514246"><ele>374.0</ele><time>2026-04-18T07:57:00.999Z</time></trkpt><trkpt lat="43.90617216293219" lon="12.282181004066063"><ele>377.4</ele><time>2026-04-18T07:57:31.999Z</time></trkpt><trkpt lat="43.90619776363887" lon="12.282069664987608"><ele>380.79999999999995</ele><time>2026-04-18T07:57:33.999Z</time></trkpt><trkpt lat="43.906213572078336" lon="12.281933405671795"><ele>384.20000000000005</ele><time>2026-04-18T07:57:35.999Z</time></trkpt><trkpt lat="43.90620808876964" lon="12.281782691856932"><ele>387.6</ele><time>2026-04-18T07:57:37.999Z</time></trkpt><trkpt lat="43.90623040914745" lon="12.28165731850282"><ele>391.0</ele><time>2026-04-18T07:57:39.999Z</time></trkpt><trkpt lat="43.90630654010303" lon="12.281552418566063"><ele>391.00000000000006</ele><time>2026-04-18T07:57:41.999Z</time></trkpt><trkpt lat="43.90632393196934" lon="12.281451797325706"><ele>391.0</ele><time>2026-04-18T07:57:43.999Z</time></trkpt><trkpt lat="43.90628829836792" lon="12.281542345015938"><ele>391.0</ele><time>2026-04-18T07:58:00.999Z</time></trkpt><trkpt lat="43.906232491941644" lon="12.281671363272798"><ele>391.0</ele><time>2026-04-18T07:58:02.999Z</time></trkpt><trkpt lat="43.9061834095514" lon="12.281757135268277"><ele>391.00000000000006</ele><time>2026-04-18T07:58:04.999Z</time></trkpt><trkpt lat="43.90614792009273" lon="12.281830889963453"><ele>391.0</ele><time>2026-04-18T07:58:10.999Z</time></trkpt><trkpt lat="43.906086968059405" lon="12.28178775566828"><ele>391.00000000000006</ele><time>2026-04-18T07:58:14.999Z</time></trkpt><trkpt lat="43.90603381806625" lon="12.281708456161164"><ele>391.0</ele><time>2026-04-18T07:58:17.999Z</time></trkpt><trkpt lat="43.90604055817374" lon="12.281595036442614"><ele>391.0</ele><time>2026-04-18T07:58:20.999Z</time></trkpt><trkpt lat="43.906128583158896" lon="12.281544664913694"><ele>391.0</ele><time>2026-04-18T07:58:22.999Z</time></trkpt><trkpt lat="43.90611459244708" lon="12.281431291137325"><ele>391.00000000000006</ele><time>2026-04-18T07:58:26Z</time></trkpt><trkpt lat="43.906123205121396" lon="12.281545238564965"><ele>391.0</ele><time>2026-04-18T07:59:41.999Z</time></trkpt><trkpt lat="43.90608838625991" lon="12.28163094917882"><ele>391.00000000000006</ele><time>2026-04-18T07:59:43.999Z</time></trkpt><trkpt lat="43.90603332785085" lon="12.28170121536585"><ele>391.0</ele><time>2026-04-18T07:59:46.999Z</time></trkpt><trkpt lat="43.90609155454638" lon="12.281780808109223"><ele>391.0</ele><time>2026-04-18T07:59:51.999Z</time></trkpt><trkpt lat="43.90613119650329" lon="12.281871472867824"><ele>391.0</ele><time>2026-04-18T07:59:54.999Z</time></trkpt><trkpt lat="43.90614624314228" lon="12.28195835874522"><ele>391.00000000000006</ele><time>2026-04-18T07:59:56.999Z</time></trkpt><trkpt lat="43.906127140471895" lon="12.282066892548432"><ele>391.0</ele><time>2026-04-18T07:59:58.999Z</time></trkpt><trkpt lat="43.90611254043499" lon="12.282177080845187"><ele>388.1666666666667</ele><time>2026-04-18T08:00:00.999Z</time></trkpt><trkpt lat="43.90611874024087" lon="12.28231522505335"><ele>385.33333333333337</ele><time>2026-04-18T08:00:02.999Z</time></trkpt><trkpt lat="43.90609217330915" lon="12.282439599519142"><ele>382.5</ele><time>2026-04-18T08:00:04.999Z</time></trkpt><trkpt lat="43.906068405009876" lon="12.28253189142953"><ele>379.6666666666667</ele><time>2026-04-18T08:00:07.999Z</time></trkpt><trkpt lat="43.90599164686524" lon="12.282596748575296"><ele>376.83333333333337</ele><time>2026-04-18T08:00:10.999Z</time></trkpt><trkpt lat="43.9059831408389" lon="12.282691496401037"><ele>374.0</ele><time>2026-04-18T08:00:12.999Z</time></trkpt><trkpt lat="43.90600636193245" lon="12.282804959916904"><ele>374.0</ele><time>2026-04-18T08:00:14.999Z</time></trkpt><trkpt lat="43.9060015217312" lon="12.282940673794567"><ele>374.0</ele><time>2026-04-18T08:00:16.999Z</time></trkpt><trkpt lat="43.90600038862498" lon="12.283098259068488"><ele>374.0</ele><time>2026-04-18T08:00:17.999Z</time></trkpt><trkpt lat="43.905937123620596" lon="12.28320989053379"><ele>374.0</ele><time>2026-04-18T08:00:19.999Z</time></trkpt><trkpt lat="43.90589640791876" lon="12.283313031568479"><ele>374.0</ele><time>2026-04-18T08:00:20.999Z</time></trkpt><trkpt lat="43.905844181576185" lon="12.283442660013444"><ele>374.1666666666667</ele><time>2026-04-18T08:00:22.999Z</time></trkpt><trkpt lat="43.90581691342608" lon="12.283530412904094"><ele>374.33333333333337</ele><time>2026-04-18T08:00:23.999Z</time></trkpt><trkpt lat="43.905786232355936" lon="12.283632675432468"><ele>374.5</ele><time>2026-04-18T08:00:25.999Z</time></trkpt><trkpt lat="43.905748966582" lon="12.283756723402755"><ele>374.6666666666667</ele><time>2026-04-18T08:00:27.999Z</time></trkpt><trkpt lat="43.905716464696475" lon="12.283864916552066"><ele>374.8333333333333</ele><time>2026-04-18T08:00:28.999Z</time></trkpt><trkpt lat="43.90575556892911" lon="12.284005285154066"><ele>375.0</ele><time>2026-04-18T08:00:31Z</time></trkpt><trkpt lat="43.9057954243481" lon="12.284085521302789"><ele>374.4</ele><time>2026-04-18T08:00:34Z</time></trkpt><trkpt lat="43.9058642800531" lon="12.284136769240241"><ele>373.8</ele><time>2026-04-18T08:01:36.999Z</time></trkpt><trkpt lat="43.90593003805639" lon="12.28406120868413"><ele>373.20000000000005</ele><time>2026-04-18T08:01:38.999Z</time></trkpt><trkpt lat="43.90597971531471" lon="12.283913176925909"><ele>372.6</ele><time>2026-04-18T08:01:40.999Z</time></trkpt><trkpt lat="43.90606529697962" lon="12.283771596967481"><ele>372.0</ele><time>2026-04-18T08:01:42.999Z</time></trkpt><trkpt lat="43.90610322000036" lon="12.283668263474738"><ele>372.5</ele><time>2026-04-18T08:01:43.999Z</time></trkpt><trkpt lat="43.9061517670747" lon="12.283548869055805"><ele>373.0</ele><time>2026-04-18T08:01:44.999Z</time></trkpt><trkpt lat="43.90620205296145" lon="12.283417330916633"><ele>373.5</ele><time>2026-04-18T08:01:45.999Z</time></trkpt><trkpt lat="43.90625052449312" lon="12.283261999781049"><ele>374.0</ele><time>2026-04-18T08:01:46.999Z</time></trkpt><trkpt lat="43.90630553593832" lon="12.283090317129663"><ele>374.0</ele><time>2026-04-18T08:01:47.999Z</time></trkpt><trkpt lat="43.90637050231704" lon="12.282920406353142"><ele>374.0</ele><time>2026-04-18T08:01:48.999Z</time></trkpt><trkpt lat="43.906446316037446" lon="12.282763220913036"><ele>374.0</ele><time>2026-04-18T08:01:49.999Z</time></trkpt><trkpt lat="43.906524875286784" lon="12.282622084181535"><ele>374.0</ele><time>2026-04-18T08:01:50.999Z</time></trkpt><trkpt lat="43.906608559366845" lon="12.282491927385866"><ele>374.0</ele><time>2026-04-18T08:01:51.999Z</time></trkpt><trkpt lat="43.906697992308324" lon="12.28239565877643"><ele>374.0</ele><time>2026-04-18T08:01:52.999Z</time></trkpt><trkpt lat="43.90677594550987" lon="12.282358453779965"><ele>374.0</ele><time>2026-04-18T08:01:53.999Z</time></trkpt><trkpt lat="43.9069023971529" lon="12.28241913671943"><ele>374.0</ele><time>2026-04-18T08:01:55.999Z</time></trkpt><trkpt lat="43.90698894843542" lon="12.282448896517202"><ele>374.0</ele><time>2026-04-18T08:01:56.999Z</time></trkpt><trkpt lat="43.907095419738575" lon="12.28244290481452"><ele>373.79999999999995</ele><time>2026-04-18T08:01:57.999Z</time></trkpt><trkpt lat="43.9071839969814" lon="12.282428375488584"><ele>373.59999999999997</ele><time>2026-04-18T08:01:58.999Z</time></trkpt><trkpt lat="43.907282521251126" lon="12.282413836320462"><ele>373.4</ele><time>2026-04-18T08:01:59.999Z</time></trkpt><trkpt lat="43.9073890810642" lon="12.28238721619476"><ele>373.2</ele><time>2026-04-18T08:02:00.999Z</time></trkpt><trkpt lat="43.907484354035425" lon="12.282388474773295"><ele>373.0</ele><time>2026-04-18T08:02:01.999Z</time></trkpt><trkpt lat="43.90760135151154" lon="12.282370664687098"><ele>373.0</ele><time>2026-04-18T08:02:02.999Z</time></trkpt><trkpt lat="43.90771555787118" lon="12.28235958508687"><ele>373.0</ele><time>2026-04-18T08:02:03.999Z</time></trkpt><trkpt lat="43.90782672865631" lon="12.282363358331736"><ele>373.0</ele><time>2026-04-18T08:02:04.999Z</time></trkpt><trkpt lat="43.907938833506186" lon="12.282357713333283"><ele>373.0</ele><time>2026-04-18T08:02:05.999Z</time></trkpt><trkpt lat="43.908039964171756" lon="12.282337553715871"><ele>373.0</ele><time>2026-04-18T08:02:06.999Z</time></trkpt><trkpt lat="43.90812995953204" lon="12.28235195245394"><ele>373.0</ele><time>2026-04-18T08:02:07.999Z</time></trkpt><trkpt lat="43.908207659137744" lon="12.282356131502056"><ele>373.0</ele><time>2026-04-18T08:02:08.999Z</time></trkpt><trkpt lat="43.90829456468014" lon="12.282363296914706"><ele>373.0</ele><time>2026-04-18T08:02:09.999Z</time></trkpt><trkpt lat="43.90838418077018" lon="12.282378846161777"><ele>373.0</ele><time>2026-04-18T08:02:10.999Z</time></trkpt><trkpt lat="43.908475695142194" lon="12.282400209103784"><ele>373.0</ele><time>2026-04-18T08:02:11.999Z</time></trkpt><trkpt lat="43.90857674757603" lon="12.282426034351216"><ele>374.79999999999995</ele><time>2026-04-18T08:02:12.999Z</time></trkpt><trkpt lat="43.90867822712548" lon="12.282444866719251"><ele>376.6</ele><time>2026-04-18T08:02:13.999Z</time></trkpt><trkpt lat="43.90878517397032" lon="12.282476261410213"><ele>378.4</ele><time>2026-04-18T08:02:14.999Z</time></trkpt><trkpt lat="43.90889431443319" lon="12.282510318598463"><ele>380.20000000000005</ele><time>2026-04-18T08:02:15.999Z</time></trkpt><trkpt lat="43.909005813120366" lon="12.282527708775579"><ele>382.0</ele><time>2026-04-18T08:02:16.999Z</time></trkpt><trkpt lat="43.90911668687171" lon="12.282545023065657"><ele>382.0</ele><time>2026-04-18T08:02:17.999Z</time></trkpt><trkpt lat="43.90922879418846" lon="12.282567881021343"><ele>382.0</ele><time>2026-04-18T08:02:18.999Z</time></trkpt><trkpt lat="43.909343300440085" lon="12.282596029572035"><ele>382.0</ele><time>2026-04-18T08:02:19.999Z</time></trkpt><trkpt lat="43.90945071675706" lon="12.282612476954666"><ele>382.0</ele><time>2026-04-18T08:02:20.999Z</time></trkpt><trkpt lat="43.909553134652064" lon="12.282633463429734"><ele>382.0</ele><time>2026-04-18T08:02:21.999Z</time></trkpt><trkpt lat="43.90965373135136" lon="12.28265577729367"><ele>384.25</ele><time>2026-04-18T08:02:22.999Z</time></trkpt><trkpt lat="43.909763669957336" lon="12.2826742654831"><ele>386.5</ele><time>2026-04-18T08:02:23.999Z</time></trkpt><trkpt lat="43.90987532425403" lon="12.28270373103341"><ele>388.75</ele><time>2026-04-18T08:02:24.999Z</time></trkpt><trkpt lat="43.90998789461782" lon="12.282724748882488"><ele>391.0</ele><time>2026-04-18T08:02:25.999Z</time></trkpt><trkpt lat="43.91012624512785" lon="12.282734767898502"><ele>393.20000000000005</ele><time>2026-04-18T08:02:26.999Z</time></trkpt><trkpt lat="43.91025952331924" lon="12.282720106555248"><ele>395.40000000000003</ele><time>2026-04-18T08:02:27.999Z</time></trkpt><trkpt lat="43.910364092608525" lon="12.282676062846962"><ele>397.6</ele><time>2026-04-18T08:02:28.999Z</time></trkpt><trkpt lat="43.910450358311024" lon="12.282620530291187"><ele>399.8</ele><time>2026-04-18T08:02:29.999Z</time></trkpt><trkpt lat="43.91050560297683" lon="12.282491590902971"><ele>402.0</ele><time>2026-04-18T08:02:30.999Z</time></trkpt><trkpt lat="43.91050537301606" lon="12.282329468106182"><ele>404.75</ele><time>2026-04-18T08:02:31.999Z</time></trkpt><trkpt lat="43.910474548193605" lon="12.282180100706052"><ele>407.5</ele><time>2026-04-18T08:02:32.999Z</time></trkpt><trkpt lat="43.9104057147081" lon="12.282031791662861"><ele>410.25</ele><time>2026-04-18T08:02:33.999Z</time></trkpt><trkpt lat="43.910317581183165" lon="12.281888142602952"><ele>413.0</ele><time>2026-04-18T08:02:34.999Z</time></trkpt><trkpt lat="43.91021967898245" lon="12.281758672461313"><ele>413.0</ele><time>2026-04-18T08:02:35.999Z</time></trkpt><trkpt lat="43.91012453484102" lon="12.281658580890815"><ele>413.0</ele><time>2026-04-18T08:02:37Z</time></trkpt><trkpt lat="43.91002858774524" lon="12.281566283827962"><ele>413.0</ele><time>2026-04-18T08:02:38Z</time></trkpt><trkpt lat="43.90995165276088" lon="12.281487910906915"><ele>413.0</ele><time>2026-04-18T08:02:39Z</time></trkpt><trkpt lat="43.90991117852887" lon="12.281381288029632"><ele>413.0</ele><time>2026-04-18T08:02:40Z</time></trkpt><trkpt lat="43.90986861662992" lon="12.281299563589897"><ele>414.5</ele><time>2026-04-18T08:02:41Z</time></trkpt><trkpt lat="43.90990179132593" lon="12.281171484599803"><ele>416.0</ele><time>2026-04-18T08:02:42Z</time></trkpt><trkpt lat="43.909895295529715" lon="12.281003909189508"><ele>417.5</ele><time>2026-04-18T08:02:43Z</time></trkpt><trkpt lat="43.90987323305756" lon="12.280841640826534"><ele>419.0</ele><time>2026-04-18T08:02:44Z</time></trkpt><trkpt lat="43.90986646397771" lon="12.280674555974237"><ele>421.25</ele><time>2026-04-18T08:02:45Z</time></trkpt><trkpt lat="43.90984439369313" lon="12.280505226774933"><ele>423.5</ele><time>2026-04-18T08:02:46Z</time></trkpt><trkpt lat="43.90982913980691" lon="12.28033170731561"><ele>425.75</ele><time>2026-04-18T08:02:47Z</time></trkpt><trkpt lat="43.909814496473" lon="12.280163928151179"><ele>428.0</ele><time>2026-04-18T08:02:48Z</time></trkpt><trkpt lat="43.90980184149227" lon="12.279991251104798"><ele>428.0</ele><time>2026-04-18T08:02:49Z</time></trkpt><trkpt lat="43.90977907502937" lon="12.279798886937233"><ele>428.0</ele><time>2026-04-18T08:02:50Z</time></trkpt><trkpt lat="43.909754812744744" lon="12.27960674439885"><ele>428.0</ele><time>2026-04-18T08:02:51Z</time></trkpt><trkpt lat="43.90975062994369" lon="12.279480744500631"><ele>428.0</ele><time>2026-04-18T08:02:52Z</time></trkpt><trkpt lat="43.909732989428434" lon="12.279323473069494"><ele>429.2</ele><time>2026-04-18T08:02:53Z</time></trkpt><trkpt lat="43.90971292511248" lon="12.279168804881516"><ele>430.4</ele><time>2026-04-18T08:02:54Z</time></trkpt><trkpt lat="43.909692753333175" lon="12.27901354234469"><ele>431.59999999999997</ele><time>2026-04-18T08:02:55Z</time></trkpt><trkpt lat="43.909670398477836" lon="12.278856662465875"><ele>432.79999999999995</ele><time>2026-04-18T08:02:56Z</time></trkpt><trkpt lat="43.90964410660794" lon="12.278712802146048"><ele>434.0</ele><time>2026-04-18T08:02:57Z</time></trkpt><trkpt lat="43.90962056307093" lon="12.278565919845082"><ele>434.0</ele><time>2026-04-18T08:02:58Z</time></trkpt><trkpt lat="43.90959136673582" lon="12.278424074341284"><ele>434.0</ele><time>2026-04-18T08:02:58.999Z</time></trkpt><trkpt lat="43.90956357283479" lon="12.278288131710417"><ele>434.0</ele><time>2026-04-18T08:02:59.999Z</time></trkpt><trkpt lat="43.909543942570664" lon="12.278164441871507"><ele>434.0</ele><time>2026-04-18T08:03:00.999Z</time></trkpt><trkpt lat="43.90957344565349" lon="12.27806104596001"><ele>434.0</ele><time>2026-04-18T08:03:01.999Z</time></trkpt><trkpt lat="43.90961684481896" lon="12.277971361069092"><ele>432.2</ele><time>2026-04-18T08:03:02.999Z</time></trkpt><trkpt lat="43.90968880743003" lon="12.277898779415988"><ele>430.4</ele><time>2026-04-18T08:03:03.999Z</time></trkpt><trkpt lat="43.90974446277186" lon="12.277779553403667"><ele>428.6</ele><time>2026-04-18T08:03:04.999Z</time></trkpt><trkpt lat="43.90977301517452" lon="12.277641704363171"><ele>426.8</ele><time>2026-04-18T08:03:05.999Z</time></trkpt><trkpt lat="43.909810274472086" lon="12.27749776766725"><ele>425.0</ele><time>2026-04-18T08:03:06.999Z</time></trkpt><trkpt lat="43.909816628708406" lon="12.277329103936887"><ele>422.25</ele><time>2026-04-18T08:03:07.999Z</time></trkpt><trkpt lat="43.909837838773434" lon="12.277152422516586"><ele>419.5</ele><time>2026-04-18T08:03:08.999Z</time></trkpt><trkpt lat="43.909848206964625" lon="12.276974510957492"><ele>416.75</ele><time>2026-04-18T08:03:09.999Z</time></trkpt><trkpt lat="43.909839585054" lon="12.276810956254542"><ele>414.0</ele><time>2026-04-18T08:03:10.999Z</time></trkpt><trkpt lat="43.909856222488045" lon="12.276648546927108"><ele>414.0</ele><time>2026-04-18T08:03:11.999Z</time></trkpt><trkpt lat="43.90985607789579" lon="12.276489614527685"><ele>414.0</ele><time>2026-04-18T08:03:12.999Z</time></trkpt><trkpt lat="43.90984823019501" lon="12.27635097313945"><ele>414.0</ele><time>2026-04-18T08:03:13.999Z</time></trkpt><trkpt lat="43.909833339452945" lon="12.276242645081457"><ele>414.0</ele><time>2026-04-18T08:03:14.999Z</time></trkpt><trkpt lat="43.909780935396775" lon="12.276140996848172"><ele>414.0</ele><time>2026-04-18T08:03:15.999Z</time></trkpt><trkpt lat="43.90968643913362" lon="12.276057966093289"><ele>413.4</ele><time>2026-04-18T08:03:16.999Z</time></trkpt><trkpt lat="43.90956840181146" lon="12.275976032704243"><ele>412.79999999999995</ele><time>2026-04-18T08:03:17.999Z</time></trkpt><trkpt lat="43.90948986736713" lon="12.275835818615366"><ele>412.20000000000005</ele><time>2026-04-18T08:03:18.999Z</time></trkpt><trkpt lat="43.90943165515675" lon="12.275725181867783"><ele>411.6</ele><time>2026-04-18T08:03:19.999Z</time></trkpt><trkpt lat="43.909387622788906" lon="12.275646107970164"><ele>411.0</ele><time>2026-04-18T08:03:20.999Z</time></trkpt><trkpt lat="43.909343884865415" lon="12.275555111443275"><ele>411.0</ele><time>2026-04-18T08:03:21.999Z</time></trkpt><trkpt lat="43.90930604233933" lon="12.275444415472212"><ele>411.0</ele><time>2026-04-18T08:03:22.999Z</time></trkpt><trkpt lat="43.90923979656323" lon="12.275330138187247"><ele>411.0</ele><time>2026-04-18T08:03:23.999Z</time></trkpt><trkpt lat="43.90920409786171" lon="12.275181633798077"><ele>411.0</ele><time>2026-04-18T08:03:24.999Z</time></trkpt><trkpt lat="43.90920321768719" lon="12.275063766231218"><ele>411.0</ele><time>2026-04-18T08:03:25.999Z</time></trkpt><trkpt lat="43.90926141354846" lon="12.274966766808229"><ele>411.0</ele><time>2026-04-18T08:03:26.999Z</time></trkpt><trkpt lat="43.909346064191524" lon="12.27489257204047"><ele>411.0</ele><time>2026-04-18T08:03:27.999Z</time></trkpt><trkpt lat="43.90945046053464" lon="12.27478841240692"><ele>411.0</ele><time>2026-04-18T08:03:28.999Z</time></trkpt><trkpt lat="43.90956588367542" lon="12.27471724271045"><ele>411.0</ele><time>2026-04-18T08:03:29.999Z</time></trkpt><trkpt lat="43.909689125820066" lon="12.274703222553999"><ele>415.20000000000005</ele><time>2026-04-18T08:03:30.999Z</time></trkpt><trkpt lat="43.90978545553821" lon="12.274634921566978"><ele>419.40000000000003</ele><time>2026-04-18T08:03:31.999Z</time></trkpt><trkpt lat="43.909878483666326" lon="12.2746204826061"><ele>423.6</ele><time>2026-04-18T08:03:32.999Z</time></trkpt><trkpt lat="43.909939565706516" lon="12.274536911297883"><ele>427.8</ele><time>2026-04-18T08:03:33.999Z</time></trkpt><trkpt lat="43.909975790782084" lon="12.274439539821362"><ele>432.0</ele><time>2026-04-18T08:03:34.999Z</time></trkpt><trkpt lat="43.91000421990257" lon="12.274309096925492"><ele>432.0</ele><time>2026-04-18T08:03:35.999Z</time></trkpt><trkpt lat="43.91003217270412" lon="12.274176828959742"><ele>432.0</ele><time>2026-04-18T08:03:36.999Z</time></trkpt><trkpt lat="43.91006703389535" lon="12.274051197626656"><ele>432.0</ele><time>2026-04-18T08:03:37.999Z</time></trkpt><trkpt lat="43.910112321232354" lon="12.273950548160183"><ele>432.0</ele><time>2026-04-18T08:03:38.999Z</time></trkpt><trkpt lat="43.910142236345564" lon="12.273848262581097"><ele>432.0</ele><time>2026-04-18T08:03:39.999Z</time></trkpt><trkpt lat="43.910153464512405" lon="12.273751561043737"><ele>432.0</ele><time>2026-04-18T08:03:40.999Z</time></trkpt><trkpt lat="43.910183542234385" lon="12.273674528175212"><ele>431.5</ele><time>2026-04-18T08:03:41.999Z</time></trkpt><trkpt lat="43.910207820516625" lon="12.27358765701817"><ele>431.0</ele><time>2026-04-18T08:03:42.999Z</time></trkpt><trkpt lat="43.91020515569515" lon="12.273481776912428"><ele>430.5</ele><time>2026-04-18T08:03:43.999Z</time></trkpt><trkpt lat="43.91019591388392" lon="12.273373622148473"><ele>430.0</ele><time>2026-04-18T08:03:44.999Z</time></trkpt><trkpt lat="43.91017586341113" lon="12.27327423441981"><ele>429.5</ele><time>2026-04-18T08:03:45.999Z</time></trkpt><trkpt lat="43.910136395886326" lon="12.273175449519108"><ele>429.0</ele><time>2026-04-18T08:03:46.999Z</time></trkpt><trkpt lat="43.91007687964822" lon="12.273088738759098"><ele>432.0</ele><time>2026-04-18T08:03:47.999Z</time></trkpt><trkpt lat="43.9100095122967" lon="12.273007559326619"><ele>435.0</ele><time>2026-04-18T08:03:48.999Z</time></trkpt><trkpt lat="43.90995752563857" lon="12.272910937536032"><ele>438.0</ele><time>2026-04-18T08:03:49.999Z</time></trkpt><trkpt lat="43.90992777506667" lon="12.272811366207362"><ele>441.0</ele><time>2026-04-18T08:03:50.999Z</time></trkpt><trkpt lat="43.9099352526491" lon="12.27271143452922"><ele>444.0</ele><time>2026-04-18T08:03:51.999Z</time></trkpt><trkpt lat="43.90997762284609" lon="12.272600081096106"><ele>447.0</ele><time>2026-04-18T08:03:52.999Z</time></trkpt><trkpt lat="43.910033936739076" lon="12.272490397077203"><ele>448.0</ele><time>2026-04-18T08:03:53.999Z</time></trkpt><trkpt lat="43.91008229808069" lon="12.272372039713646"><ele>449.00000000000006</ele><time>2026-04-18T08:03:54.999Z</time></trkpt><trkpt lat="43.91013702193976" lon="12.272241352906185"><ele>450.00000000000006</ele><time>2026-04-18T08:03:55.999Z</time></trkpt><trkpt lat="43.910188355723534" lon="12.272097902764488"><ele>451.0</ele><time>2026-04-18T08:03:56.999Z</time></trkpt><trkpt lat="43.91026184819228" lon="12.271959270604096"><ele>452.0</ele><time>2026-04-18T08:03:57.999Z</time></trkpt><trkpt lat="43.91036295658097" lon="12.271837238843585"><ele>452.0</ele><time>2026-04-18T08:03:58.999Z</time></trkpt><trkpt lat="43.91047359874098" lon="12.271762587406375"><ele>452.0</ele><time>2026-04-18T08:03:59.999Z</time></trkpt><trkpt lat="43.91060993049503" lon="12.271744386336174"><ele>452.0</ele><time>2026-04-18T08:04:00.999Z</time></trkpt><trkpt lat="43.91075756873339" lon="12.271756189112343"><ele>452.0</ele><time>2026-04-18T08:04:01.999Z</time></trkpt><trkpt lat="43.91089045627102" lon="12.271824014388635"><ele>449.6</ele><time>2026-04-18T08:04:02.999Z</time></trkpt><trkpt lat="43.91099419883672" lon="12.271915203993027"><ele>447.20000000000005</ele><time>2026-04-18T08:04:03.999Z</time></trkpt><trkpt lat="43.91108557162708" lon="12.271932268095178"><ele>444.8</ele><time>2026-04-18T08:04:04.999Z</time></trkpt><trkpt lat="43.911162728993425" lon="12.2718617337019"><ele>442.4</ele><time>2026-04-18T08:04:05.998Z</time></trkpt><trkpt lat="43.911221288278995" lon="12.271728391691395"><ele>440.0</ele><time>2026-04-18T08:04:06.998Z</time></trkpt><trkpt lat="43.911287984299" lon="12.271593685984255"><ele>440.0</ele><time>2026-04-18T08:04:07.998Z</time></trkpt><trkpt lat="43.911355583238496" lon="12.27145257559028"><ele>440.0</ele><time>2026-04-18T08:04:08.998Z</time></trkpt><trkpt lat="43.91142739273489" lon="12.271302391090295"><ele>440.0</ele><time>2026-04-18T08:04:09.998Z</time></trkpt><trkpt lat="43.911494003735676" lon="12.271149647037884"><ele>440.0</ele><time>2026-04-18T08:04:10.998Z</time></trkpt><trkpt lat="43.91155449311381" lon="12.270990373132689"><ele>443.75</ele><time>2026-04-18T08:04:11.998Z</time></trkpt><trkpt lat="43.91162781531195" lon="12.270840135117012"><ele>447.5</ele><time>2026-04-18T08:04:12.998Z</time></trkpt><trkpt lat="43.9117130958168" lon="12.270697757009879"><ele>451.25</ele><time>2026-04-18T08:04:13.998Z</time></trkpt><trkpt lat="43.911796676840645" lon="12.270563148597123"><ele>455.0</ele><time>2026-04-18T08:04:14.998Z</time></trkpt><trkpt lat="43.91187162459057" lon="12.27043174716575"><ele>456.0</ele><time>2026-04-18T08:04:15.998Z</time></trkpt><trkpt lat="43.9119276647136" lon="12.27029432844105"><ele>457.0</ele><time>2026-04-18T08:04:16.998Z</time></trkpt><trkpt lat="43.911960071752496" lon="12.270161181716343"><ele>458.0</ele><time>2026-04-18T08:04:17.998Z</time></trkpt><trkpt lat="43.91198673886696" lon="12.27006413748307"><ele>459.0</ele><time>2026-04-18T08:04:18.998Z</time></trkpt><trkpt lat="43.91206212440155" lon="12.269979481232319"><ele>460.0</ele><time>2026-04-18T08:04:20.998Z</time></trkpt><trkpt lat="43.91215405327356" lon="12.27012882818029"><ele>460.0</ele><time>2026-04-18T08:04:21.998Z</time></trkpt><trkpt lat="43.912218534982244" lon="12.270216633078219"><ele>460.0</ele><time>2026-04-18T08:04:22.998Z</time></trkpt><trkpt lat="43.91226095277859" lon="12.27033324876922"><ele>460.0</ele><time>2026-04-18T08:04:23.998Z</time></trkpt><trkpt lat="43.91232138373101" lon="12.270447915795307"><ele>460.0</ele><time>2026-04-18T08:04:24.998Z</time></trkpt><trkpt lat="43.91239350144554" lon="12.270593340774282"><ele>460.0</ele><time>2026-04-18T08:04:25.998Z</time></trkpt><trkpt lat="43.912464728814264" lon="12.270742940283274"><ele>461.2</ele><time>2026-04-18T08:04:26.998Z</time></trkpt><trkpt lat="43.91253629322584" lon="12.27087638573543"><ele>462.4</ele><time>2026-04-18T08:04:27.998Z</time></trkpt><trkpt lat="43.91260354050502" lon="12.27099501433217"><ele>463.6</ele><time>2026-04-18T08:04:28.998Z</time></trkpt><trkpt lat="43.91267388931782" lon="12.27111151268798"><ele>464.8</ele><time>2026-04-18T08:04:29.998Z</time></trkpt><trkpt lat="43.91275519664701" lon="12.27121359309526"><ele>466.0</ele><time>2026-04-18T08:04:30.998Z</time></trkpt><trkpt lat="43.912852478010755" lon="12.271266741186947"><ele>466.00000000000006</ele><time>2026-04-18T08:04:31.998Z</time></trkpt><trkpt lat="43.91294732953848" lon="12.271287573861006"><ele>466.0</ele><time>2026-04-18T08:04:32.998Z</time></trkpt><trkpt lat="43.913027085468954" lon="12.271280186023466"><ele>466.0</ele><time>2026-04-18T08:04:33.998Z</time></trkpt><trkpt lat="43.91309675360069" lon="12.271269424479804"><ele>466.0</ele><time>2026-04-18T08:04:34.998Z</time></trkpt><trkpt lat="43.913172071347425" lon="12.271264337086278"><ele>466.00000000000006</ele><time>2026-04-18T08:04:35.998Z</time></trkpt><trkpt lat="43.913251961418" lon="12.271262948058533"><ele>466.0</ele><time>2026-04-18T08:04:36.998Z</time></trkpt><trkpt lat="43.91333246167501" lon="12.27125918397818"><ele>466.83333333333337</ele><time>2026-04-18T08:04:37.998Z</time></trkpt><trkpt lat="43.91341359320655" lon="12.271262214258579"><ele>467.6666666666667</ele><time>2026-04-18T08:04:38.998Z</time></trkpt><trkpt lat="43.91350280112675" lon="12.271258267416831"><ele>468.5</ele><time>2026-04-18T08:04:39.998Z</time></trkpt><trkpt lat="43.91358385721139" lon="12.271277925413555"><ele>469.33333333333337</ele><time>2026-04-18T08:04:40.998Z</time></trkpt><trkpt lat="43.91370884975432" lon="12.271271240780486"><ele>470.1666666666667</ele><time>2026-04-18T08:04:42.999Z</time></trkpt><trkpt lat="43.91377420524473" lon="12.271261771640786"><ele>471.0</ele><time>2026-04-18T08:04:43.999Z</time></trkpt><trkpt lat="43.91384354884401" lon="12.271233499799688"><ele>471.0</ele><time>2026-04-18T08:04:44.999Z</time></trkpt><trkpt lat="43.91392425378089" lon="12.271134187841232"><ele>471.0</ele><time>2026-04-18T08:04:46.999Z</time></trkpt><trkpt lat="43.913962809932514" lon="12.271048404057312"><ele>471.0</ele><time>2026-04-18T08:04:48.999Z</time></trkpt><trkpt lat="43.913960641189135" lon="12.270909020364927"><ele>471.0</ele><time>2026-04-18T08:04:50.999Z</time></trkpt><trkpt lat="43.91391885037943" lon="12.270842809617406"><ele>471.0</ele><time>2026-04-18T08:04:52Z</time></trkpt><trkpt lat="43.913838177362436" lon="12.270712323417401"><ele>471.0</ele><time>2026-04-18T08:04:54Z</time></trkpt><trkpt lat="43.91378558205494" lon="12.270629534378488"><ele>471.0</ele><time>2026-04-18T08:04:55Z</time></trkpt><trkpt lat="43.91372600835065" lon="12.270532504055248"><ele>471.0</ele><time>2026-04-18T08:04:56Z</time></trkpt><trkpt lat="43.91366877495393" lon="12.270415460788863"><ele>471.0</ele><time>2026-04-18T08:04:57Z</time></trkpt><trkpt lat="43.913583878038125" lon="12.270288908329068"><ele>471.0</ele><time>2026-04-18T08:04:58Z</time></trkpt><trkpt lat="43.9135079846487" lon="12.270160822304657"><ele>471.5</ele><time>2026-04-18T08:04:59Z</time></trkpt><trkpt lat="43.91342520911254" lon="12.270019252029048"><ele>472.0</ele><time>2026-04-18T08:05:00Z</time></trkpt><trkpt lat="43.91335343955867" lon="12.26988573469129"><ele>472.5</ele><time>2026-04-18T08:05:01Z</time></trkpt><trkpt lat="43.91328589052159" lon="12.26975795008279"><ele>473.0</ele><time>2026-04-18T08:05:02Z</time></trkpt><trkpt lat="43.91321935691706" lon="12.26962448121217"><ele>475.5</ele><time>2026-04-18T08:05:03Z</time></trkpt><trkpt lat="43.91316631609593" lon="12.26948543135783"><ele>478.0</ele><time>2026-04-18T08:05:04Z</time></trkpt><trkpt lat="43.91313337369114" lon="12.269341163979806"><ele>480.5</ele><time>2026-04-18T08:05:05Z</time></trkpt><trkpt lat="43.91313561007712" lon="12.269183588223825"><ele>483.0</ele><time>2026-04-18T08:05:06Z</time></trkpt><trkpt lat="43.91311729672039" lon="12.269026195272692"><ele>485.25</ele><time>2026-04-18T08:05:07Z</time></trkpt><trkpt lat="43.91311500963139" lon="12.26886499415611"><ele>487.5</ele><time>2026-04-18T08:05:08Z</time></trkpt><trkpt lat="43.913117426921715" lon="12.268688761907487"><ele>489.75</ele><time>2026-04-18T08:05:09Z</time></trkpt><trkpt lat="43.91310612866319" lon="12.268526879588244"><ele>492.0</ele><time>2026-04-18T08:05:10Z</time></trkpt><trkpt lat="43.91311087020271" lon="12.26835958492845"><ele>492.0</ele><time>2026-04-18T08:05:11Z</time></trkpt><trkpt lat="43.9130787646763" lon="12.268202619596128"><ele>492.0</ele><time>2026-04-18T08:05:12Z</time></trkpt><trkpt lat="43.91304872838102" lon="12.268051063392777"><ele>492.0</ele><time>2026-04-18T08:05:13Z</time></trkpt><trkpt lat="43.91301975431417" lon="12.26790257209179"><ele>492.0</ele><time>2026-04-18T08:05:14Z</time></trkpt><trkpt lat="43.91297357050514" lon="12.267756954388627"><ele>494.75</ele><time>2026-04-18T08:05:15Z</time></trkpt><trkpt lat="43.91292291536937" lon="12.267606544426453"><ele>497.5</ele><time>2026-04-18T08:05:16Z</time></trkpt><trkpt lat="43.912866150610654" lon="12.267460124744423"><ele>500.25</ele><time>2026-04-18T08:05:17Z</time></trkpt><trkpt lat="43.91280719077258" lon="12.2673148999267"><ele>503.0</ele><time>2026-04-18T08:05:18Z</time></trkpt><trkpt lat="43.91274818821735" lon="12.267162687482248"><ele>503.0</ele><time>2026-04-18T08:05:19Z</time></trkpt><trkpt lat="43.9126727900261" lon="12.267026354801095"><ele>502.99999999999994</ele><time>2026-04-18T08:05:20Z</time></trkpt><trkpt lat="43.91260082946373" lon="12.266896741669592"><ele>502.99999999999994</ele><time>2026-04-18T08:05:21Z</time></trkpt><trkpt lat="43.912544366102075" lon="12.266775276735537"><ele>503.0</ele><time>2026-04-18T08:05:22Z</time></trkpt><trkpt lat="43.912561366580405" lon="12.266644802647821"><ele>503.0</ele><time>2026-04-18T08:05:23Z</time></trkpt><trkpt lat="43.91260776884295" lon="12.266526594887647"><ele>500.0</ele><time>2026-04-18T08:05:24Z</time></trkpt><trkpt lat="43.91266711479177" lon="12.266417236015531"><ele>496.99999999999994</ele><time>2026-04-18T08:05:25Z</time></trkpt><trkpt lat="43.91277113353841" lon="12.26642755692666"><ele>493.99999999999994</ele><time>2026-04-18T08:05:26Z</time></trkpt><trkpt lat="43.912863059883406" lon="12.266436818799216"><ele>491.0</ele><time>2026-04-18T08:05:28Z</time></trkpt><trkpt lat="43.91279057257089" lon="12.266253061351044"><ele>488.0</ele><time>2026-04-18T08:05:29.999Z</time></trkpt><trkpt lat="43.91266561381217" lon="12.26619126746713"><ele>488.0</ele><time>2026-04-18T08:05:31.999Z</time></trkpt><trkpt lat="43.912578203732856" lon="12.26611485834162"><ele>487.99999999999994</ele><time>2026-04-18T08:05:32.999Z</time></trkpt><trkpt lat="43.912485184350636" lon="12.26602388519593"><ele>487.99999999999994</ele><time>2026-04-18T08:05:33.999Z</time></trkpt><trkpt lat="43.91238399361406" lon="12.26594121976231"><ele>488.0</ele><time>2026-04-18T08:05:34.999Z</time></trkpt><trkpt lat="43.91229747132387" lon="12.265865335874185"><ele>488.0</ele><time>2026-04-18T08:05:35.999Z</time></trkpt><trkpt lat="43.91218405165052" lon="12.265768634983006"><ele>488.75</ele><time>2026-04-18T08:05:36.999Z</time></trkpt><trkpt lat="43.91207973139848" lon="12.265695658523251"><ele>489.5</ele><time>2026-04-18T08:05:37.999Z</time></trkpt><trkpt lat="43.91197010939484" lon="12.265602198056198"><ele>490.25</ele><time>2026-04-18T08:05:38.999Z</time></trkpt><trkpt lat="43.911862054167685" lon="12.265511583338583"><ele>491.0</ele><time>2026-04-18T08:05:39.999Z</time></trkpt><trkpt lat="43.91176398932633" lon="12.265407718038439"><ele>494.25</ele><time>2026-04-18T08:05:40.999Z</time></trkpt><trkpt lat="43.91170980089056" lon="12.265248696228486"><ele>497.5</ele><time>2026-04-18T08:05:41.999Z</time></trkpt><trkpt lat="43.91165280774871" lon="12.265082467979274"><ele>500.75</ele><time>2026-04-18T08:05:42.999Z</time></trkpt><trkpt lat="43.911585995110926" lon="12.264921988608613"><ele>504.0</ele><time>2026-04-18T08:05:43.999Z</time></trkpt><trkpt lat="43.91152506446427" lon="12.26476190477441"><ele>504.0</ele><time>2026-04-18T08:05:44.999Z</time></trkpt><trkpt lat="43.911456312760386" lon="12.264596859724627"><ele>504.0</ele><time>2026-04-18T08:05:45.999Z</time></trkpt><trkpt lat="43.91138412533182" lon="12.264433878487788"><ele>504.0</ele><time>2026-04-18T08:05:46.999Z</time></trkpt><trkpt lat="43.911322656420126" lon="12.264271747304747"><ele>504.0</ele><time>2026-04-18T08:05:47.999Z</time></trkpt><trkpt lat="43.911267652974715" lon="12.264112293036709"><ele>504.0</ele><time>2026-04-18T08:05:48.999Z</time></trkpt><trkpt lat="43.911195887950996" lon="12.263955880094306"><ele>504.0</ele><time>2026-04-18T08:05:49.999Z</time></trkpt><trkpt lat="43.911124446716414" lon="12.26381034664803"><ele>504.0</ele><time>2026-04-18T08:05:50.999Z</time></trkpt><trkpt lat="43.91105438004069" lon="12.263665023807345"><ele>504.0</ele><time>2026-04-18T08:05:51.999Z</time></trkpt><trkpt lat="43.91098990361423" lon="12.263516821372091"><ele>505.79999999999995</ele><time>2026-04-18T08:05:52.999Z</time></trkpt><trkpt lat="43.91093353777476" lon="12.263373063516518"><ele>507.59999999999997</ele><time>2026-04-18T08:05:53.999Z</time></trkpt><trkpt lat="43.91091159660539" lon="12.263229331560972"><ele>509.4</ele><time>2026-04-18T08:05:54.999Z</time></trkpt><trkpt lat="43.91093636975413" lon="12.263093275579811"><ele>511.2</ele><time>2026-04-18T08:05:55.999Z</time></trkpt><trkpt lat="43.91095603798548" lon="12.262937595439176"><ele>513.0</ele><time>2026-04-18T08:05:56.999Z</time></trkpt><trkpt lat="43.91100110058523" lon="12.26277109499772"><ele>514.75</ele><time>2026-04-18T08:05:57.999Z</time></trkpt><trkpt lat="43.911024052101496" lon="12.262591425351498"><ele>516.5</ele><time>2026-04-18T08:05:58.999Z</time></trkpt><trkpt lat="43.91104336341304" lon="12.262410194601141"><ele>518.25</ele><time>2026-04-18T08:05:59.999Z</time></trkpt><trkpt lat="43.91106053755868" lon="12.262266808781856"><ele>520.0</ele><time>2026-04-18T08:06:00.999Z</time></trkpt><trkpt lat="43.91109443826631" lon="12.262090318433293"><ele>521.75</ele><time>2026-04-18T08:06:01.999Z</time></trkpt><trkpt lat="43.911145373152124" lon="12.261923212948515"><ele>523.5</ele><time>2026-04-18T08:06:02.999Z</time></trkpt><trkpt lat="43.91118736182179" lon="12.26176609065308"><ele>525.25</ele><time>2026-04-18T08:06:03.999Z</time></trkpt><trkpt lat="43.91123116314553" lon="12.261607624641188"><ele>527.0</ele><time>2026-04-18T08:06:04.999Z</time></trkpt><trkpt lat="43.91131670863019" lon="12.261488320230468"><ele>529.25</ele><time>2026-04-18T08:06:05.999Z</time></trkpt><trkpt lat="43.91138985633846" lon="12.261350290216223"><ele>531.5</ele><time>2026-04-18T08:06:06.999Z</time></trkpt><trkpt lat="43.911476140762" lon="12.261234065963913"><ele>533.75</ele><time>2026-04-18T08:06:07.999Z</time></trkpt><trkpt lat="43.91155886220004" lon="12.261106726320028"><ele>536.0</ele><time>2026-04-18T08:06:08.999Z</time></trkpt><trkpt lat="43.91163828923346" lon="12.260974915937487"><ele>536.0</ele><time>2026-04-18T08:06:09.999Z</time></trkpt><trkpt lat="43.91171297898693" lon="12.260848179633179"><ele>536.0</ele><time>2026-04-18T08:06:10.999Z</time></trkpt><trkpt lat="43.91179162566818" lon="12.260720437441043"><ele>536.0</ele><time>2026-04-18T08:06:11.999Z</time></trkpt><trkpt lat="43.911878102532725" lon="12.260594969169597"><ele>536.0</ele><time>2026-04-18T08:06:12.999Z</time></trkpt><trkpt lat="43.91196002085759" lon="12.260462170498986"><ele>537.25</ele><time>2026-04-18T08:06:13.999Z</time></trkpt><trkpt lat="43.912040372544645" lon="12.260332040519758"><ele>538.5</ele><time>2026-04-18T08:06:14.999Z</time></trkpt><trkpt lat="43.91212614450616" lon="12.260224198620252"><ele>539.75</ele><time>2026-04-18T08:06:15.999Z</time></trkpt><trkpt lat="43.91220818112438" lon="12.26009777755903"><ele>541.0</ele><time>2026-04-18T08:06:16.999Z</time></trkpt><trkpt lat="43.91228490105329" lon="12.259949895187182"><ele>541.0</ele><time>2026-04-18T08:06:17.999Z</time></trkpt><trkpt lat="43.91237550533545" lon="12.259827176442519"><ele>541.0</ele><time>2026-04-18T08:06:18.999Z</time></trkpt><trkpt lat="43.912464458834464" lon="12.259698276721124"><ele>541.0</ele><time>2026-04-18T08:06:19.999Z</time></trkpt><trkpt lat="43.91255011593968" lon="12.259574427552279"><ele>541.0</ele><time>2026-04-18T08:06:20.999Z</time></trkpt><trkpt lat="43.912634368359846" lon="12.259455306299431"><ele>541.8333333333334</ele><time>2026-04-18T08:06:21.999Z</time></trkpt><trkpt lat="43.91270239173915" lon="12.259343708203838"><ele>542.6666666666667</ele><time>2026-04-18T08:06:22.999Z</time></trkpt><trkpt lat="43.91276108069648" lon="12.259255478675534"><ele>543.5</ele><time>2026-04-18T08:06:23.999Z</time></trkpt><trkpt lat="43.91279539663595" lon="12.259155656908476"><ele>544.3333333333334</ele><time>2026-04-18T08:06:24.999Z</time></trkpt><trkpt lat="43.91278214346178" lon="12.259038365110879"><ele>545.1666666666666</ele><time>2026-04-18T08:06:25.999Z</time></trkpt><trkpt lat="43.91273635546304" lon="12.258933161547668"><ele>546.0</ele><time>2026-04-18T08:06:26.999Z</time></trkpt><trkpt lat="43.91266235923967" lon="12.258855986601713"><ele>549.5</ele><time>2026-04-18T08:06:27.999Z</time></trkpt><trkpt lat="43.91256168375171" lon="12.258814775208041"><ele>553.0</ele><time>2026-04-18T08:06:28.999Z</time></trkpt><trkpt lat="43.91245304546809" lon="12.258791189155394"><ele>556.5</ele><time>2026-04-18T08:06:29.999Z</time></trkpt><trkpt lat="43.91234362527038" lon="12.258731355702682"><ele>560.0</ele><time>2026-04-18T08:06:30.999Z</time></trkpt><trkpt lat="43.912217056236585" lon="12.258678013672434"><ele>560.0</ele><time>2026-04-18T08:06:31.999Z</time></trkpt><trkpt lat="43.9120971337094" lon="12.258627472744136"><ele>560.0</ele><time>2026-04-18T08:06:32.999Z</time></trkpt><trkpt lat="43.912009091872804" lon="12.258590367881691"><ele>560.0</ele><time>2026-04-18T08:06:33.999Z</time></trkpt><trkpt lat="43.91192319179473" lon="12.258554165560565"><ele>560.0</ele><time>2026-04-18T08:06:35.999Z</time></trkpt><trkpt lat="43.91199730279754" lon="12.258605598409016"><ele>560.0</ele><time>2026-04-18T08:07:08Z</time></trkpt><trkpt lat="43.91216551123936" lon="12.25868970322616"><ele>560.0</ele><time>2026-04-18T08:07:10Z</time></trkpt><trkpt lat="43.91226242059889" lon="12.25872363517537"><ele>560.0</ele><time>2026-04-18T08:07:11Z</time></trkpt><trkpt lat="43.91234755018237" lon="12.258753929991215"><ele>560.0</ele><time>2026-04-18T08:07:12Z</time></trkpt><trkpt lat="43.91240908454619" lon="12.258774481013898"><ele>560.0</ele><time>2026-04-18T08:07:13Z</time></trkpt><trkpt lat="43.91247653192645" lon="12.258800491604992"><ele>560.0</ele><time>2026-04-18T08:07:14Z</time></trkpt><trkpt lat="43.91254356637004" lon="12.258825952141661"><ele>560.0</ele><time>2026-04-18T08:07:15Z</time></trkpt><trkpt lat="43.91261092632895" lon="12.258853602214296"><ele>559.6</ele><time>2026-04-18T08:07:16Z</time></trkpt><trkpt lat="43.91268832448839" lon="12.258889837213756"><ele>559.2</ele><time>2026-04-18T08:07:17Z</time></trkpt><trkpt lat="43.912753142069235" lon="12.258940121512104"><ele>558.8</ele><time>2026-04-18T08:07:18Z</time></trkpt><trkpt lat="43.912786289972324" lon="12.25902511622213"><ele>558.4</ele><time>2026-04-18T08:07:19Z</time></trkpt><trkpt lat="43.912757895949376" lon="12.259247463249189"><ele>558.0</ele><time>2026-04-18T08:07:21Z</time></trkpt><trkpt lat="43.912708773605935" lon="12.259346961267545"><ele>558.0</ele><time>2026-04-18T08:07:23Z</time></trkpt><trkpt lat="43.91277287822982" lon="12.25933454686017"><ele>558.0</ele><time>2026-04-18T08:08:00.999Z</time></trkpt><trkpt lat="43.912820229529316" lon="12.259179138966855"><ele>558.0</ele><time>2026-04-18T08:08:02.999Z</time></trkpt><trkpt lat="43.91281113343464" lon="12.25908623164255"><ele>558.0</ele><time>2026-04-18T08:08:03.999Z</time></trkpt><trkpt lat="43.912827663178795" lon="12.258996926894406"><ele>558.0</ele><time>2026-04-18T08:08:05.999Z</time></trkpt><trkpt lat="43.91278260801717" lon="12.258934498963304"><ele>558.0</ele><time>2026-04-18T08:08:08.999Z</time></trkpt><trkpt lat="43.91288809437208" lon="12.258846341508582"><ele>558.0</ele><time>2026-04-18T08:08:19.999Z</time></trkpt><trkpt lat="43.91293891069699" lon="12.258769456902693"><ele>558.0</ele><time>2026-04-18T08:08:28.999Z</time></trkpt><trkpt lat="43.912958391646114" lon="12.258667884723542"><ele>558.0</ele><time>2026-04-18T08:08:32.999Z</time></trkpt><trkpt lat="43.91292006395324" lon="12.25876216569184"><ele>558.0</ele><time>2026-04-18T08:09:01Z</time></trkpt><trkpt lat="43.912893996907954" lon="12.25885730659214"><ele>558.0</ele><time>2026-04-18T08:09:04Z</time></trkpt><trkpt lat="43.91287862203844" lon="12.25895616596799"><ele>558.0</ele><time>2026-04-18T08:09:07Z</time></trkpt><trkpt lat="43.91284977684826" lon="12.25906248242074"><ele>556.0</ele><time>2026-04-18T08:09:10Z</time></trkpt><trkpt lat="43.91282146990305" lon="12.259154257431495"><ele>554.0</ele><time>2026-04-18T08:09:12Z</time></trkpt><trkpt lat="43.912794290855096" lon="12.259254439331388"><ele>552.0</ele><time>2026-04-18T08:09:14Z</time></trkpt><trkpt lat="43.9127554516836" lon="12.259340790432018"><ele>550.0</ele><time>2026-04-18T08:09:17Z</time></trkpt><trkpt lat="43.91271570853675" lon="12.259257543472955"><ele>548.0</ele><time>2026-04-18T08:09:22Z</time></trkpt><trkpt lat="43.912768556182044" lon="12.259162821363766"><ele>546.0</ele><time>2026-04-18T08:09:24Z</time></trkpt><trkpt lat="43.91276563892676" lon="12.259035891932726"><ele>548.0</ele><time>2026-04-18T08:09:26Z</time></trkpt><trkpt lat="43.91271493111466" lon="12.258898501301369"><ele>550.0</ele><time>2026-04-18T08:09:28Z</time></trkpt><trkpt lat="43.91265529725879" lon="12.258843574116677"><ele>552.0</ele><time>2026-04-18T08:09:29Z</time></trkpt><trkpt lat="43.912586892381825" lon="12.258812806016486"><ele>554.0</ele><time>2026-04-18T08:09:30Z</time></trkpt><trkpt lat="43.91251948036789" lon="12.25878825193972"><ele>556.0</ele><time>2026-04-18T08:09:31Z</time></trkpt><trkpt lat="43.91245685974932" lon="12.258770579617629"><ele>558.0</ele><time>2026-04-18T08:09:32Z</time></trkpt><trkpt lat="43.91233807032163" lon="12.258736441486258"><ele>558.3333333333334</ele><time>2026-04-18T08:09:34Z</time></trkpt><trkpt lat="43.912270685070176" lon="12.258709423397047"><ele>558.6666666666666</ele><time>2026-04-18T08:09:35Z</time></trkpt><trkpt lat="43.91220783355208" lon="12.258688468681497"><ele>559.0</ele><time>2026-04-18T08:09:36Z</time></trkpt><trkpt lat="43.912146637872276" lon="12.25866198598468"><ele>559.3333333333333</ele><time>2026-04-18T08:09:37Z</time></trkpt><trkpt lat="43.91202207994974" lon="12.258615547576692"><ele>559.6666666666666</ele><time>2026-04-18T08:09:39Z</time></trkpt><trkpt lat="43.911959312885585" lon="12.258590397669012"><ele>560.0</ele><time>2026-04-18T08:09:40Z</time></trkpt><trkpt lat="43.91189739852382" lon="12.258572458693132"><ele>560.0</ele><time>2026-04-18T08:09:41Z</time></trkpt><trkpt lat="43.91183409995256" lon="12.258549975461763"><ele>560.0</ele><time>2026-04-18T08:09:42Z</time></trkpt><trkpt lat="43.911776241803416" lon="12.258492233925123"><ele>560.0</ele><time>2026-04-18T08:09:43Z</time></trkpt><trkpt lat="43.911709126941666" lon="12.258463948710974"><ele>560.0</ele><time>2026-04-18T08:09:44Z</time></trkpt><trkpt lat="43.91163889895463" lon="12.258434351371093"><ele>560.0</ele><time>2026-04-18T08:09:45Z</time></trkpt><trkpt lat="43.911567335938955" lon="12.258404313553278"><ele>560.0</ele><time>2026-04-18T08:09:46Z</time></trkpt><trkpt lat="43.91149868797699" lon="12.25837609508192"><ele>560.0</ele><time>2026-04-18T08:09:47Z</time></trkpt><trkpt lat="43.91142659209195" lon="12.258346459226837"><ele>561.3333333333333</ele><time>2026-04-18T08:09:48Z</time></trkpt><trkpt lat="43.91135788253269" lon="12.258318215362356"><ele>562.6666666666666</ele><time>2026-04-18T08:09:49Z</time></trkpt><trkpt lat="43.911287919663614" lon="12.258289889368722"><ele>564.0</ele><time>2026-04-18T08:09:50Z</time></trkpt><trkpt lat="43.91122094447295" lon="12.258263596449416"><ele>565.3333333333334</ele><time>2026-04-18T08:09:51Z</time></trkpt><trkpt lat="43.911147337521996" lon="12.258234700136885"><ele>566.6666666666667</ele><time>2026-04-18T08:09:52Z</time></trkpt><trkpt lat="43.91106416424509" lon="12.258202442330523"><ele>568.0</ele><time>2026-04-18T08:09:53Z</time></trkpt><trkpt lat="43.91097641447973" lon="12.258170648251237"><ele>568.8</ele><time>2026-04-18T08:09:54Z</time></trkpt><trkpt lat="43.91088429722305" lon="12.25816415106575"><ele>569.5999999999999</ele><time>2026-04-18T08:09:55Z</time></trkpt><trkpt lat="43.91079823659279" lon="12.258129877171697"><ele>570.4000000000001</ele><time>2026-04-18T08:09:56Z</time></trkpt><trkpt lat="43.910713172422106" lon="12.258102627021492"><ele>571.2</ele><time>2026-04-18T08:09:57Z</time></trkpt><trkpt lat="43.91062306425555" lon="12.258079459001197"><ele>572.0</ele><time>2026-04-18T08:09:58Z</time></trkpt><trkpt lat="43.910536850486494" lon="12.258045430731759"><ele>573.6666666666666</ele><time>2026-04-18T08:09:59Z</time></trkpt><trkpt lat="43.91046142914542" lon="12.257977763757191"><ele>575.3333333333333</ele><time>2026-04-18T08:10:00Z</time></trkpt><trkpt lat="43.910393815088895" lon="12.25789553133306"><ele>577.0</ele><time>2026-04-18T08:10:01Z</time></trkpt><trkpt lat="43.91035132905484" lon="12.25778990641236"><ele>578.6666666666666</ele><time>2026-04-18T08:10:02Z</time></trkpt><trkpt lat="43.910322381409436" lon="12.257673782351839"><ele>580.3333333333334</ele><time>2026-04-18T08:10:02.999Z</time></trkpt><trkpt lat="43.91030456557903" lon="12.257550618574697"><ele>582.0</ele><time>2026-04-18T08:10:03.999Z</time></trkpt><trkpt lat="43.91028192824612" lon="12.257424642974543"><ele>582.0</ele><time>2026-04-18T08:10:04.999Z</time></trkpt><trkpt lat="43.91025610443596" lon="12.257303309382877"><ele>582.0</ele><time>2026-04-18T08:10:05.999Z</time></trkpt><trkpt lat="43.91023085902767" lon="12.257180873979316"><ele>582.0</ele><time>2026-04-18T08:10:06.999Z</time></trkpt><trkpt lat="43.9102026488043" lon="12.257060172819534"><ele>582.0</ele><time>2026-04-18T08:10:07.999Z</time></trkpt><trkpt lat="43.910178858750335" lon="12.256931951799574"><ele>582.0</ele><time>2026-04-18T08:10:08.999Z</time></trkpt><trkpt lat="43.91015953913063" lon="12.256808474759815"><ele>583.6666666666666</ele><time>2026-04-18T08:10:09.999Z</time></trkpt><trkpt lat="43.9101646073284" lon="12.256684990616794"><ele>585.3333333333334</ele><time>2026-04-18T08:10:10.999Z</time></trkpt><trkpt lat="43.91019573766762" lon="12.256582863671666"><ele>587.0</ele><time>2026-04-18T08:10:11.999Z</time></trkpt><trkpt lat="43.91026341401245" lon="12.256515618898753"><ele>588.6666666666667</ele><time>2026-04-18T08:10:12.999Z</time></trkpt><trkpt lat="43.91034955752775" lon="12.256478791823666"><ele>590.3333333333334</ele><time>2026-04-18T08:10:13.999Z</time></trkpt><trkpt lat="43.91044367541218" lon="12.25646189787927"><ele>592.0</ele><time>2026-04-18T08:10:14.999Z</time></trkpt><trkpt lat="43.91054181130645" lon="12.256455277875087"><ele>593.2</ele><time>2026-04-18T08:10:15.999Z</time></trkpt><trkpt lat="43.91064180855586" lon="12.256437474051983"><ele>594.4000000000001</ele><time>2026-04-18T08:10:16.999Z</time></trkpt><trkpt lat="43.910738049933755" lon="12.25640554131821"><ele>595.5999999999999</ele><time>2026-04-18T08:10:17.999Z</time></trkpt><trkpt lat="43.91083271316303" lon="12.256375059683656"><ele>596.8</ele><time>2026-04-18T08:10:18.999Z</time></trkpt><trkpt lat="43.910924576906766" lon="12.25634867858103"><ele>598.0</ele><time>2026-04-18T08:10:19.999Z</time></trkpt><trkpt lat="43.91100799959706" lon="12.256304631996866"><ele>598.0</ele><time>2026-04-18T08:10:20.999Z</time></trkpt><trkpt lat="43.91108872739606" lon="12.256235867867531"><ele>598.0</ele><time>2026-04-18T08:10:21.999Z</time></trkpt><trkpt lat="43.91117428723269" lon="12.256136043953122"><ele>598.0</ele><time>2026-04-18T08:10:22.999Z</time></trkpt><trkpt lat="43.91125834715781" lon="12.256026867958827"><ele>598.0</ele><time>2026-04-18T08:10:23.999Z</time></trkpt><trkpt lat="43.91133936220231" lon="12.255926640977409"><ele>598.0</ele><time>2026-04-18T08:10:24.999Z</time></trkpt><trkpt lat="43.91141504792777" lon="12.255830945852518"><ele>598.0</ele><time>2026-04-18T08:10:25.999Z</time></trkpt><trkpt lat="43.911488257323235" lon="12.255747434200305"><ele>598.0</ele><time>2026-04-18T08:10:26.999Z</time></trkpt><trkpt lat="43.911564026738155" lon="12.255652243344453"><ele>598.0</ele><time>2026-04-18T08:10:27.999Z</time></trkpt><trkpt lat="43.91164833802184" lon="12.255540839464846"><ele>598.0</ele><time>2026-04-18T08:10:28.999Z</time></trkpt><trkpt lat="43.91175847039157" lon="12.25540363201729"><ele>600.25</ele><time>2026-04-18T08:10:29.999Z</time></trkpt><trkpt lat="43.91186795538896" lon="12.255272691659487"><ele>602.5</ele><time>2026-04-18T08:10:30.999Z</time></trkpt><trkpt lat="43.91195035556715" lon="12.25516190942698"><ele>604.75</ele><time>2026-04-18T08:10:31.999Z</time></trkpt><trkpt lat="43.91202663824064" lon="12.255072368203834"><ele>607.0</ele><time>2026-04-18T08:10:32.999Z</time></trkpt><trkpt lat="43.91210710303662" lon="12.254980140466454"><ele>607.0</ele><time>2026-04-18T08:10:33.999Z</time></trkpt><trkpt lat="43.91218875530018" lon="12.254877809859755"><ele>607.0</ele><time>2026-04-18T08:10:34.999Z</time></trkpt><trkpt lat="43.912261651425766" lon="12.25465602517166"><ele>607.0</ele><time>2026-04-18T08:10:36.999Z</time></trkpt><trkpt lat="43.91226867542969" lon="12.254553110703748"><ele>607.0</ele><time>2026-04-18T08:10:37.999Z</time></trkpt><trkpt lat="43.91225810692091" lon="12.254462626021173"><ele>607.0</ele><time>2026-04-18T08:10:38.999Z</time></trkpt><trkpt lat="43.9122435809415" lon="12.254325131591456"><ele>606.6666666666667</ele><time>2026-04-18T08:10:40.999Z</time></trkpt><trkpt lat="43.912247442733005" lon="12.254215983756168"><ele>606.3333333333334</ele><time>2026-04-18T08:10:42.999Z</time></trkpt><trkpt lat="43.912248663880945" lon="12.254120337486066"><ele>606.0</ele><time>2026-04-18T08:10:44.999Z</time></trkpt><trkpt lat="43.91223789559627" lon="12.25400754731943"><ele>605.6666666666666</ele><time>2026-04-18T08:10:47.999Z</time></trkpt><trkpt lat="43.912231062305224" lon="12.253903580280978"><ele>605.3333333333333</ele><time>2026-04-18T08:10:49.999Z</time></trkpt><trkpt lat="43.91222692289885" lon="12.253791131134093"><ele>605.0</ele><time>2026-04-18T08:10:51.999Z</time></trkpt><trkpt lat="43.91226884201761" lon="12.253586879501539"><ele>605.0</ele><time>2026-04-18T08:10:53.999Z</time></trkpt><trkpt lat="43.912318374581304" lon="12.253452358759104"><ele>605.0</ele><time>2026-04-18T08:10:54.999Z</time></trkpt><trkpt lat="43.912411160389354" lon="12.25329304038897"><ele>605.0</ele><time>2026-04-18T08:10:55.999Z</time></trkpt><trkpt lat="43.912519908295096" lon="12.253112864598362"><ele>605.0</ele><time>2026-04-18T08:10:56.999Z</time></trkpt><trkpt lat="43.912623128571084" lon="12.252951848002953"><ele>600.25</ele><time>2026-04-18T08:10:57.999Z</time></trkpt><trkpt lat="43.91271418201195" lon="12.252811485053961"><ele>595.5</ele><time>2026-04-18T08:10:58.999Z</time></trkpt><trkpt lat="43.912799416528564" lon="12.252683147737676"><ele>590.75</ele><time>2026-04-18T08:10:59.999Z</time></trkpt><trkpt lat="43.91286757568289" lon="12.252523538708575"><ele>586.0</ele><time>2026-04-18T08:11:01Z</time></trkpt><trkpt lat="43.91292520569429" lon="12.252331802068392"><ele>587.0</ele><time>2026-04-18T08:11:02Z</time></trkpt><trkpt lat="43.912949607687914" lon="12.252129622062542"><ele>588.0</ele><time>2026-04-18T08:11:03Z</time></trkpt><trkpt lat="43.91295464765889" lon="12.251942394794103"><ele>589.0</ele><time>2026-04-18T08:11:04Z</time></trkpt><trkpt lat="43.9129371036766" lon="12.251708974982932"><ele>589.0</ele><time>2026-04-18T08:11:05Z</time></trkpt><trkpt lat="43.912916818184364" lon="12.251491384112619"><ele>589.0</ele><time>2026-04-18T08:11:06Z</time></trkpt><trkpt lat="43.91292167238019" lon="12.251308963298703"><ele>589.0</ele><time>2026-04-18T08:11:07Z</time></trkpt><trkpt lat="43.91293392080328" lon="12.251143361362674"><ele>589.0</ele><time>2026-04-18T08:11:08Z</time></trkpt><trkpt lat="43.912954581725586" lon="12.250994152318794"><ele>588.4</ele><time>2026-04-18T08:11:09Z</time></trkpt><trkpt lat="43.91298582749638" lon="12.25083819506895"><ele>587.8</ele><time>2026-04-18T08:11:10Z</time></trkpt><trkpt lat="43.913014710180974" lon="12.250701869220197"><ele>587.2</ele><time>2026-04-18T08:11:11Z</time></trkpt><trkpt lat="43.91305369001624" lon="12.250604802788738"><ele>586.6</ele><time>2026-04-18T08:11:12Z</time></trkpt><trkpt lat="43.91311505014888" lon="12.250553442460035"><ele>586.0</ele><time>2026-04-18T08:11:13Z</time></trkpt><trkpt lat="43.91319373944581" lon="12.250603467351253"><ele>586.0</ele><time>2026-04-18T08:11:14Z</time></trkpt><trkpt lat="43.9132549646809" lon="12.250659224282021"><ele>586.0</ele><time>2026-04-18T08:11:15Z</time></trkpt><trkpt lat="43.91330397083042" lon="12.25073651182639"><ele>586.0</ele><time>2026-04-18T08:11:16Z</time></trkpt><trkpt lat="43.913327400816016" lon="12.25082487922404"><ele>586.0</ele><time>2026-04-18T08:11:17Z</time></trkpt><trkpt lat="43.91340558887264" lon="12.250879690440778"><ele>586.0</ele><time>2026-04-18T08:11:18Z</time></trkpt><trkpt lat="43.913502308949894" lon="12.250889911577403"><ele>586.0</ele><time>2026-04-18T08:11:19Z</time></trkpt><trkpt lat="43.91357015913271" lon="12.250828428098517"><ele>585.25</ele><time>2026-04-18T08:11:20Z</time></trkpt><trkpt lat="43.91353288291898" lon="12.250596474192392"><ele>584.5</ele><time>2026-04-18T08:11:22Z</time></trkpt><trkpt lat="43.913500396553005" lon="12.250457607055164"><ele>583.75</ele><time>2026-04-18T08:11:23Z</time></trkpt><trkpt lat="43.91344350641835" lon="12.250299569690528"><ele>583.0</ele><time>2026-04-18T08:11:24Z</time></trkpt><trkpt lat="43.91340497845314" lon="12.250158875464006"><ele>583.0</ele><time>2026-04-18T08:11:25Z</time></trkpt><trkpt lat="43.913394654753326" lon="12.250030218284179"><ele>583.0</ele><time>2026-04-18T08:11:26Z</time></trkpt><trkpt lat="43.913421436070315" lon="12.249929105132477"><ele>583.0</ele><time>2026-04-18T08:11:27Z</time></trkpt><trkpt lat="43.913465405423985" lon="12.249857275857117"><ele>583.0</ele><time>2026-04-18T08:11:28Z</time></trkpt><trkpt lat="43.91359123893374" lon="12.24994135754502"><ele>583.0</ele><time>2026-04-18T08:11:30Z</time></trkpt><trkpt lat="43.91367985125582" lon="12.249989064900491"><ele>579.0</ele><time>2026-04-18T08:11:31Z</time></trkpt><trkpt lat="43.91375767298414" lon="12.250085364874613"><ele>575.0</ele><time>2026-04-18T08:11:32Z</time></trkpt><trkpt lat="43.91383636152295" lon="12.250102472386454"><ele>571.0</ele><time>2026-04-18T08:11:33Z</time></trkpt><trkpt lat="43.91389394611202" lon="12.250035446518375"><ele>567.0</ele><time>2026-04-18T08:11:34Z</time></trkpt><trkpt lat="43.913948473091395" lon="12.249945146573065"><ele>563.0</ele><time>2026-04-18T08:11:35Z</time></trkpt><trkpt lat="43.913926506543284" lon="12.249807051331874"><ele>559.0</ele><time>2026-04-18T08:11:36Z</time></trkpt><trkpt lat="43.91388011811075" lon="12.24965671415264"><ele>557.0</ele><time>2026-04-18T08:11:37Z</time></trkpt><trkpt lat="43.91384269972041" lon="12.249483966132308"><ele>555.0</ele><time>2026-04-18T08:11:38Z</time></trkpt><trkpt lat="43.91378802882999" lon="12.249336440348447"><ele>553.0</ele><time>2026-04-18T08:11:39Z</time></trkpt><trkpt lat="43.913730001967295" lon="12.249160488915749"><ele>551.0</ele><time>2026-04-18T08:11:40Z</time></trkpt><trkpt lat="43.913683839786735" lon="12.248960721853896"><ele>549.0</ele><time>2026-04-18T08:11:41Z</time></trkpt><trkpt lat="43.91362974762885" lon="12.248735300988118"><ele>547.0</ele><time>2026-04-18T08:11:42Z</time></trkpt><trkpt lat="43.913614834339" lon="12.248512975754373"><ele>545.0</ele><time>2026-04-18T08:11:43Z</time></trkpt><trkpt lat="43.913620474736625" lon="12.248302910815884"><ele>545.6666666666666</ele><time>2026-04-18T08:11:44Z</time></trkpt><trkpt lat="43.91362506252405" lon="12.248100604185444"><ele>546.3333333333334</ele><time>2026-04-18T08:11:45Z</time></trkpt><trkpt lat="43.91369477850749" lon="12.24791902298222"><ele>547.0</ele><time>2026-04-18T08:11:46Z</time></trkpt><trkpt lat="43.913752768567605" lon="12.247709066361798"><ele>547.0</ele><time>2026-04-18T08:11:47Z</time></trkpt><trkpt lat="43.913850043829754" lon="12.247506948844705"><ele>547.0</ele><time>2026-04-18T08:11:48Z</time></trkpt><trkpt lat="43.913955761575906" lon="12.247269560282318"><ele>547.0</ele><time>2026-04-18T08:11:49Z</time></trkpt><trkpt lat="43.91405103824982" lon="12.24698544267773"><ele>550.0</ele><time>2026-04-18T08:11:50Z</time></trkpt><trkpt lat="43.914156644872804" lon="12.246670759301908"><ele>553.0</ele><time>2026-04-18T08:11:51Z</time></trkpt><trkpt lat="43.91425529589661" lon="12.246387247449668"><ele>546.3333333333334</ele><time>2026-04-18T08:11:52Z</time></trkpt><trkpt lat="43.914338911239014" lon="12.246140919653422"><ele>539.6666666666666</ele><time>2026-04-18T08:11:53Z</time></trkpt><trkpt lat="43.91443905844641" lon="12.245898871081195"><ele>533.0</ele><time>2026-04-18T08:11:54Z</time></trkpt><trkpt lat="43.91453601563179" lon="12.245682104415831"><ele>536.3333333333333</ele><time>2026-04-18T08:11:55Z</time></trkpt><trkpt lat="43.91464026396247" lon="12.245465556501493"><ele>539.6666666666666</ele><time>2026-04-18T08:11:56Z</time></trkpt><trkpt lat="43.91473710680285" lon="12.24526640596456"><ele>543.0</ele><time>2026-04-18T08:11:57Z</time></trkpt><trkpt lat="43.91480191606098" lon="12.245101612642054"><ele>543.0</ele><time>2026-04-18T08:11:58Z</time></trkpt><trkpt lat="43.914831952512166" lon="12.244939954287164"><ele>543.0</ele><time>2026-04-18T08:11:59Z</time></trkpt><trkpt lat="43.91482702692699" lon="12.244763459234582"><ele>543.0</ele><time>2026-04-18T08:12:00Z</time></trkpt><trkpt lat="43.91481483503781" lon="12.24459586359466"><ele>543.0</ele><time>2026-04-18T08:12:01Z</time></trkpt><trkpt lat="43.91475970262874" lon="12.244397420222157"><ele>544.6666666666666</ele><time>2026-04-18T08:12:02Z</time></trkpt><trkpt lat="43.914687695010656" lon="12.244143936504482"><ele>546.3333333333333</ele><time>2026-04-18T08:12:03Z</time></trkpt><trkpt lat="43.914637038296604" lon="12.24386710102144"><ele>548.0</ele><time>2026-04-18T08:12:04Z</time></trkpt><trkpt lat="43.914622698994954" lon="12.243636659041732"><ele>550.3333333333333</ele><time>2026-04-18T08:12:05Z</time></trkpt><trkpt lat="43.91460922328452" lon="12.243424627514523"><ele>552.6666666666666</ele><time>2026-04-18T08:12:06Z</time></trkpt><trkpt lat="43.914595892674065" lon="12.243195988948466"><ele>555.0</ele><time>2026-04-18T08:12:07Z</time></trkpt><trkpt lat="43.9145695986734" lon="12.242992993682954"><ele>558.6666666666666</ele><time>2026-04-18T08:12:08Z</time></trkpt><trkpt lat="43.91458633619656" lon="12.242802294055538"><ele>562.3333333333333</ele><time>2026-04-18T08:12:08.999Z</time></trkpt><trkpt lat="43.91460056537492" lon="12.242592769529743"><ele>566.0</ele><time>2026-04-18T08:12:09.999Z</time></trkpt><trkpt lat="43.91466608726281" lon="12.242149576293595"><ele>567.25</ele><time>2026-04-18T08:12:11.999Z</time></trkpt><trkpt lat="43.914688791760085" lon="12.241954961247442"><ele>568.5</ele><time>2026-04-18T08:12:12.999Z</time></trkpt><trkpt lat="43.914695708638" lon="12.241791593811364"><ele>569.75</ele><time>2026-04-18T08:12:13.999Z</time></trkpt><trkpt lat="43.914666714682696" lon="12.241659393949215"><ele>571.0</ele><time>2026-04-18T08:12:14.999Z</time></trkpt><trkpt lat="43.9146261142024" lon="12.241536732925528"><ele>573.75</ele><time>2026-04-18T08:12:15.999Z</time></trkpt><trkpt lat="43.9145550026121" lon="12.241396065405656"><ele>576.5</ele><time>2026-04-18T08:12:16.999Z</time></trkpt><trkpt lat="43.91447065018263" lon="12.241241656087011"><ele>579.25</ele><time>2026-04-18T08:12:17.999Z</time></trkpt><trkpt lat="43.91438901884664" lon="12.241056396518731"><ele>582.0</ele><time>2026-04-18T08:12:18.999Z</time></trkpt><trkpt lat="43.91428068671075" lon="12.240900323089528"><ele>584.5</ele><time>2026-04-18T08:12:19.999Z</time></trkpt><trkpt lat="43.91416652657387" lon="12.240750468250548"><ele>587.0</ele><time>2026-04-18T08:12:20.999Z</time></trkpt><trkpt lat="43.91405474459914" lon="12.240649050158092"><ele>589.5</ele><time>2026-04-18T08:12:21.999Z</time></trkpt><trkpt lat="43.91394492486867" lon="12.240554894869051"><ele>592.0</ele><time>2026-04-18T08:12:22.999Z</time></trkpt><trkpt lat="43.91384051503313" lon="12.240495954358929"><ele>592.8333333333334</ele><time>2026-04-18T08:12:23.999Z</time></trkpt><trkpt lat="43.913779101723186" lon="12.240416996446578"><ele>593.6666666666667</ele><time>2026-04-18T08:12:24.999Z</time></trkpt><trkpt lat="43.91373319806115" lon="12.240338910193115"><ele>594.5</ele><time>2026-04-18T08:12:25.999Z</time></trkpt><trkpt lat="43.91369834759041" lon="12.240250506313032"><ele>595.3333333333334</ele><time>2026-04-18T08:12:26.999Z</time></trkpt><trkpt lat="43.91367881696256" lon="12.24011624139147"><ele>596.1666666666666</ele><time>2026-04-18T08:12:27.999Z</time></trkpt><trkpt lat="43.91366227720724" lon="12.239968100831485"><ele>597.0</ele><time>2026-04-18T08:12:28.999Z</time></trkpt><trkpt lat="43.9136411553049" lon="12.23980979522407"><ele>599.4</ele><time>2026-04-18T08:12:29.999Z</time></trkpt><trkpt lat="43.913626642881916" lon="12.23966905560352"><ele>601.8000000000001</ele><time>2026-04-18T08:12:30.999Z</time></trkpt><trkpt lat="43.91361047839109" lon="12.239524946251468"><ele>604.2</ele><time>2026-04-18T08:12:31.999Z</time></trkpt><trkpt lat="43.91359280858653" lon="12.23938056736825"><ele>606.6</ele><time>2026-04-18T08:12:32.999Z</time></trkpt><trkpt lat="43.91358065066353" lon="12.239247632654873"><ele>609.0</ele><time>2026-04-18T08:12:33.999Z</time></trkpt><trkpt lat="43.913569655780925" lon="12.23914996509252"><ele>609.0</ele><time>2026-04-18T08:12:34.999Z</time></trkpt><trkpt lat="43.913551847863275" lon="12.239002304013239"><ele>609.0</ele><time>2026-04-18T08:12:36.999Z</time></trkpt><trkpt lat="43.91348280358266" lon="12.238955552863127"><ele>609.0</ele><time>2026-04-18T08:12:43.999Z</time></trkpt><trkpt lat="43.91343161168792" lon="12.239079543756885"><ele>609.0</ele><time>2026-04-18T08:12:45.999Z</time></trkpt><trkpt lat="43.9133911014941" lon="12.239155893057562"><ele>609.0</ele><time>2026-04-18T08:12:46.999Z</time></trkpt><trkpt lat="43.91333758798032" lon="12.239224838588532"><ele>609.0</ele><time>2026-04-18T08:12:47.999Z</time></trkpt><trkpt lat="43.913284603488236" lon="12.23929675756326"><ele>608.8</ele><time>2026-04-18T08:12:48.999Z</time></trkpt><trkpt lat="43.9132201810458" lon="12.239375291650816"><ele>608.5999999999999</ele><time>2026-04-18T08:12:49.999Z</time></trkpt><trkpt lat="43.913138076048796" lon="12.239460224149756"><ele>608.4</ele><time>2026-04-18T08:12:50.999Z</time></trkpt><trkpt lat="43.91304015270085" lon="12.239539034127624"><ele>608.1999999999999</ele><time>2026-04-18T08:12:51.999Z</time></trkpt><trkpt lat="43.912932868157995" lon="12.239597420777157"><ele>608.0</ele><time>2026-04-18T08:12:52.999Z</time></trkpt><trkpt lat="43.912816718803015" lon="12.239608656183579"><ele>608.0</ele><time>2026-04-18T08:12:53.999Z</time></trkpt><trkpt lat="43.91269502284869" lon="12.239566243405399"><ele>608.0</ele><time>2026-04-18T08:12:54.999Z</time></trkpt><trkpt lat="43.912594373025605" lon="12.239512133146482"><ele>608.0</ele><time>2026-04-18T08:12:55.999Z</time></trkpt><trkpt lat="43.91249795891069" lon="12.239436490515494"><ele>608.0</ele><time>2026-04-18T08:12:56.999Z</time></trkpt><trkpt lat="43.91240477474647" lon="12.239403088553155"><ele>608.0</ele><time>2026-04-18T08:12:57.999Z</time></trkpt><trkpt lat="43.91230251051001" lon="12.23944097542141"><ele>609.1999999999999</ele><time>2026-04-18T08:12:58.999Z</time></trkpt><trkpt lat="43.91220410658013" lon="12.23952360361318"><ele>610.4</ele><time>2026-04-18T08:12:59.999Z</time></trkpt><trkpt lat="43.91212048408397" lon="12.23961608248793"><ele>611.5999999999999</ele><time>2026-04-18T08:13:00.999Z</time></trkpt><trkpt lat="43.91204239731352" lon="12.239701531818977"><ele>612.8</ele><time>2026-04-18T08:13:01.999Z</time></trkpt><trkpt lat="43.91196159485264" lon="12.23978504230906"><ele>614.0</ele><time>2026-04-18T08:13:02.999Z</time></trkpt><trkpt lat="43.91186795077133" lon="12.23983641940187"><ele>613.5</ele><time>2026-04-18T08:13:03.999Z</time></trkpt><trkpt lat="43.91176249083627" lon="12.2398455583576"><ele>613.0</ele><time>2026-04-18T08:13:04.999Z</time></trkpt><trkpt lat="43.91164753067613" lon="12.239808773417375"><ele>612.5</ele><time>2026-04-18T08:13:06Z</time></trkpt><trkpt lat="43.91155413229051" lon="12.239770939861938"><ele>612.0</ele><time>2026-04-18T08:13:07Z</time></trkpt><trkpt lat="43.91142566390923" lon="12.239762886356804"><ele>612.0</ele><time>2026-04-18T08:13:08Z</time></trkpt><trkpt lat="43.91131087403914" lon="12.23978875525778"><ele>612.0</ele><time>2026-04-18T08:13:09Z</time></trkpt><trkpt lat="43.91119991043189" lon="12.239811648237644"><ele>612.0</ele><time>2026-04-18T08:13:10Z</time></trkpt><trkpt lat="43.91108789044466" lon="12.23981432938228"><ele>612.0</ele><time>2026-04-18T08:13:11Z</time></trkpt><trkpt lat="43.91098613408572" lon="12.239790329617572"><ele>612.0</ele><time>2026-04-18T08:13:12Z</time></trkpt><trkpt lat="43.91087737334107" lon="12.239709773776136"><ele>613.75</ele><time>2026-04-18T08:13:13Z</time></trkpt><trkpt lat="43.91078998798247" lon="12.23961622201335"><ele>615.5</ele><time>2026-04-18T08:13:14Z</time></trkpt><trkpt lat="43.91068873990163" lon="12.239580507194145"><ele>617.25</ele><time>2026-04-18T08:13:15Z</time></trkpt><trkpt lat="43.910556915010154" lon="12.239560992333766"><ele>619.0</ele><time>2026-04-18T08:13:16Z</time></trkpt><trkpt lat="43.91043017359005" lon="12.239560047430263"><ele>619.0</ele><time>2026-04-18T08:13:17Z</time></trkpt><trkpt lat="43.91031186290365" lon="12.23957994770453"><ele>619.0</ele><time>2026-04-18T08:13:18Z</time></trkpt><trkpt lat="43.91019410633574" lon="12.239601018381684"><ele>619.0</ele><time>2026-04-18T08:13:19Z</time></trkpt><trkpt lat="43.910073958058376" lon="12.239610757860223"><ele>619.0</ele><time>2026-04-18T08:13:20Z</time></trkpt><trkpt lat="43.90995519862194" lon="12.239619164375561"><ele>621.25</ele><time>2026-04-18T08:13:21Z</time></trkpt><trkpt lat="43.90983536309933" lon="12.239622761141572"><ele>623.5</ele><time>2026-04-18T08:13:22Z</time></trkpt><trkpt lat="43.90971376463256" lon="12.239604601642808"><ele>625.75</ele><time>2026-04-18T08:13:23Z</time></trkpt><trkpt lat="43.90960571201875" lon="12.239591241397884"><ele>628.0</ele><time>2026-04-18T08:13:24Z</time></trkpt><trkpt lat="43.90948888440068" lon="12.239584286137989"><ele>628.0</ele><time>2026-04-18T08:13:25Z</time></trkpt><trkpt lat="43.909380435110606" lon="12.239576077177867"><ele>628.0</ele><time>2026-04-18T08:13:26Z</time></trkpt><trkpt lat="43.90926816749068" lon="12.239583780217185"><ele>628.0</ele><time>2026-04-18T08:13:27Z</time></trkpt><trkpt lat="43.90915239395292" lon="12.239598881439594"><ele>628.0</ele><time>2026-04-18T08:13:28Z</time></trkpt><trkpt lat="43.90903941675876" lon="12.239627839909986"><ele>629.25</ele><time>2026-04-18T08:13:29Z</time></trkpt><trkpt lat="43.90893217907611" lon="12.239669893494893"><ele>630.5</ele><time>2026-04-18T08:13:30Z</time></trkpt><trkpt lat="43.908828606051934" lon="12.239736643094673"><ele>631.75</ele><time>2026-04-18T08:13:31Z</time></trkpt><trkpt lat="43.9087282690721" lon="12.239809453144948"><ele>633.0</ele><time>2026-04-18T08:13:32Z</time></trkpt><trkpt lat="43.90862098469506" lon="12.239867929665579"><ele>635.4</ele><time>2026-04-18T08:13:33Z</time></trkpt><trkpt lat="43.908505724682094" lon="12.239920601347926"><ele>637.8</ele><time>2026-04-18T08:13:34Z</time></trkpt><trkpt lat="43.9083984367601" lon="12.239980520433193"><ele>640.2</ele><time>2026-04-18T08:13:35Z</time></trkpt><trkpt lat="43.90830391043496" lon="12.240048586561256"><ele>642.6</ele><time>2026-04-18T08:13:36Z</time></trkpt><trkpt lat="43.90822593615111" lon="12.240142756714812"><ele>645.0</ele><time>2026-04-18T08:13:37Z</time></trkpt><trkpt lat="43.908165165013955" lon="12.240256965785475"><ele>645.0</ele><time>2026-04-18T08:13:38Z</time></trkpt><trkpt lat="43.90808938170909" lon="12.240368338292352"><ele>645.0</ele><time>2026-04-18T08:13:39Z</time></trkpt><trkpt lat="43.908026862258104" lon="12.240485024966306"><ele>645.0</ele><time>2026-04-18T08:13:40Z</time></trkpt><trkpt lat="43.907974876848556" lon="12.240608723512942"><ele>645.0</ele><time>2026-04-18T08:13:41Z</time></trkpt><trkpt lat="43.9079008360599" lon="12.240706443482262"><ele>645.0</ele><time>2026-04-18T08:13:42Z</time></trkpt><trkpt lat="43.90783978075902" lon="12.240799459104995"><ele>646.0</ele><time>2026-04-18T08:13:43Z</time></trkpt><trkpt lat="43.90778295351236" lon="12.240881764856425"><ele>647.0</ele><time>2026-04-18T08:13:44Z</time></trkpt><trkpt lat="43.90773112375908" lon="12.240958701541764"><ele>648.0</ele><time>2026-04-18T08:13:45Z</time></trkpt><trkpt lat="43.9076854609855" lon="12.241036544491084"><ele>649.0</ele><time>2026-04-18T08:13:46Z</time></trkpt><trkpt lat="43.90764409913934" lon="12.241109995897489"><ele>650.0</ele><time>2026-04-18T08:13:47Z</time></trkpt><trkpt lat="43.90754999998288" lon="12.241217574419938"><ele>651.0</ele><time>2026-04-18T08:13:49Z</time></trkpt><trkpt lat="43.90748525357342" lon="12.24124886151683"><ele>651.0</ele><time>2026-04-18T08:13:50Z</time></trkpt><trkpt lat="43.90742541827273" lon="12.241277412076384"><ele>651.0</ele><time>2026-04-18T08:13:51Z</time></trkpt><trkpt lat="43.907359460949195" lon="12.241287971186491"><ele>651.0</ele><time>2026-04-18T08:13:52Z</time></trkpt><trkpt lat="43.907255720934685" lon="12.241234165119756"><ele>651.0</ele><time>2026-04-18T08:13:54Z</time></trkpt><trkpt lat="43.90718544694627" lon="12.241167752526652"><ele>651.0</ele><time>2026-04-18T08:13:56Z</time></trkpt><trkpt lat="43.90711403199344" lon="12.241109414388125"><ele>651.0</ele><time>2026-04-18T08:14:40.999Z</time></trkpt><trkpt lat="43.907201494356855" lon="12.241208635611805"><ele>651.0</ele><time>2026-04-18T08:14:45.999Z</time></trkpt><trkpt lat="43.90725896243702" lon="12.241261788730718"><ele>651.0</ele><time>2026-04-18T08:14:46.999Z</time></trkpt><trkpt lat="43.90733569857622" lon="12.241274045479122"><ele>651.0</ele><time>2026-04-18T08:14:47.999Z</time></trkpt><trkpt lat="43.90739383548397" lon="12.241370996235622"><ele>651.0</ele><time>2026-04-18T08:14:48.999Z</time></trkpt><trkpt lat="43.90755943750582" lon="12.241191590754585"><ele>651.0</ele><time>2026-04-18T08:14:50.999Z</time></trkpt><trkpt lat="43.9076553876353" lon="12.24106473242577"><ele>650.0</ele><time>2026-04-18T08:14:52.999Z</time></trkpt><trkpt lat="43.90770393720579" lon="12.240985190179712"><ele>649.0</ele><time>2026-04-18T08:14:53.999Z</time></trkpt><trkpt lat="43.90776071980219" lon="12.240903570844246"><ele>648.0</ele><time>2026-04-18T08:14:54.999Z</time></trkpt><trkpt lat="43.907810666795704" lon="12.240832614644598"><ele>647.0</ele><time>2026-04-18T08:14:55.999Z</time></trkpt><trkpt lat="43.90786120177765" lon="12.240769405183858"><ele>646.0</ele><time>2026-04-18T08:14:56.999Z</time></trkpt><trkpt lat="43.90791321411837" lon="12.240645029190059"><ele>645.0</ele><time>2026-04-18T08:14:58.999Z</time></trkpt><trkpt lat="43.907900838485816" lon="12.240557261635427"><ele>645.0</ele><time>2026-04-18T08:14:59.999Z</time></trkpt><trkpt lat="43.90787392529516" lon="12.24044487377612"><ele>645.0</ele><time>2026-04-18T08:15:00.999Z</time></trkpt><trkpt lat="43.90784447666252" lon="12.24029917630341"><ele>645.0</ele><time>2026-04-18T08:15:01.999Z</time></trkpt><trkpt lat="43.9078224016853" lon="12.240143310322365"><ele>645.0</ele><time>2026-04-18T08:15:02.999Z</time></trkpt><trkpt lat="43.90781835433221" lon="12.240007868600653"><ele>645.0</ele><time>2026-04-18T08:15:03.999Z</time></trkpt><trkpt lat="43.90784708141759" lon="12.239872970933444"><ele>642.0</ele><time>2026-04-18T08:15:04.999Z</time></trkpt><trkpt lat="43.90786995994914" lon="12.239720837645008"><ele>639.0</ele><time>2026-04-18T08:15:05.999Z</time></trkpt><trkpt lat="43.907899841325545" lon="12.239567780987262"><ele>636.0</ele><time>2026-04-18T08:15:06.999Z</time></trkpt><trkpt lat="43.90793454484013" lon="12.23942218379815"><ele>633.0</ele><time>2026-04-18T08:15:07.999Z</time></trkpt><trkpt lat="43.90795137537438" lon="12.239287562908585"><ele>630.0</ele><time>2026-04-18T08:15:08.999Z</time></trkpt><trkpt lat="43.907992006677695" lon="12.239195231106702"><ele>630.0</ele><time>2026-04-18T08:15:09.999Z</time></trkpt><trkpt lat="43.90802707609495" lon="12.23903057715805"><ele>630.0</ele><time>2026-04-18T08:15:12Z</time></trkpt><trkpt lat="43.90804636871566" lon="12.23893395395166"><ele>630.0</ele><time>2026-04-18T08:15:13Z</time></trkpt><trkpt lat="43.90806155759838" lon="12.238848416766517"><ele>630.0</ele><time>2026-04-18T08:15:14Z</time></trkpt><trkpt lat="43.908078154988495" lon="12.238747009867474"><ele>630.0</ele><time>2026-04-18T08:15:16Z</time></trkpt><trkpt lat="43.90809201907145" lon="12.23864434111039"><ele>630.0</ele><time>2026-04-18T08:15:19Z</time></trkpt><trkpt lat="43.908072183862146" lon="12.238735813684107"><ele>630.0</ele><time>2026-04-18T08:15:56Z</time></trkpt><trkpt lat="43.90815839262709" lon="12.239001972439674"><ele>630.0</ele><time>2026-04-18T08:15:57Z</time></trkpt><trkpt lat="43.908019549048014" lon="12.239070582278828"><ele>630.0</ele><time>2026-04-18T08:15:58Z</time></trkpt><trkpt lat="43.907978579084244" lon="12.239239684810341"><ele>630.0</ele><time>2026-04-18T08:15:59Z</time></trkpt><trkpt lat="43.90792928901046" lon="12.239428861026925"><ele>630.0</ele><time>2026-04-18T08:16:00Z</time></trkpt><trkpt lat="43.907880138929364" lon="12.239635452114696"><ele>630.0</ele><time>2026-04-18T08:16:01Z</time></trkpt><trkpt lat="43.90784821747789" lon="12.239834180406108"><ele>630.0</ele><time>2026-04-18T08:16:02Z</time></trkpt><trkpt lat="43.9078370518923" lon="12.24001174805589"><ele>633.0</ele><time>2026-04-18T08:16:03Z</time></trkpt><trkpt lat="43.90783647475091" lon="12.240179855589929"><ele>636.0</ele><time>2026-04-18T08:16:04Z</time></trkpt><trkpt lat="43.9078588784319" lon="12.240338075173867"><ele>639.0</ele><time>2026-04-18T08:16:05Z</time></trkpt><trkpt lat="43.90788077900283" lon="12.240474158082634"><ele>642.0</ele><time>2026-04-18T08:16:06Z</time></trkpt><trkpt lat="43.90790272657909" lon="12.240572820403214"><ele>645.0</ele><time>2026-04-18T08:16:07Z</time></trkpt><trkpt lat="43.90791131596827" lon="12.240677534687519"><ele>647.8</ele><time>2026-04-18T08:16:09Z</time></trkpt><trkpt lat="43.9078469953572" lon="12.24078812426134"><ele>650.6</ele><time>2026-04-18T08:16:11Z</time></trkpt><trkpt lat="43.90775106559114" lon="12.240909840988403"><ele>653.4000000000001</ele><time>2026-04-18T08:16:13Z</time></trkpt><trkpt lat="43.90770724838544" lon="12.240982369688686"><ele>656.2</ele><time>2026-04-18T08:16:14Z</time></trkpt><trkpt lat="43.90765916173603" lon="12.241064103232612"><ele>659.0</ele><time>2026-04-18T08:16:15Z</time></trkpt><trkpt lat="43.907606065072855" lon="12.24113629504948"><ele>657.6666666666666</ele><time>2026-04-18T08:16:16Z</time></trkpt><trkpt lat="43.90754221178573" lon="12.241197369326933"><ele>656.3333333333333</ele><time>2026-04-18T08:16:17Z</time></trkpt><trkpt lat="43.90747719168527" lon="12.241250612641847"><ele>655.0</ele><time>2026-04-18T08:16:18Z</time></trkpt><trkpt lat="43.907403117588025" lon="12.241277217363244"><ele>653.6666666666666</ele><time>2026-04-18T08:16:19Z</time></trkpt><trkpt lat="43.90732745675031" lon="12.241273817060007"><ele>652.3333333333334</ele><time>2026-04-18T08:16:20Z</time></trkpt><trkpt lat="43.907242651488005" lon="12.24123346880403"><ele>651.0</ele><time>2026-04-18T08:16:21Z</time></trkpt><trkpt lat="43.90717023095277" lon="12.241170107413996"><ele>651.0</ele><time>2026-04-18T08:16:22Z</time></trkpt><trkpt lat="43.90710460339224" lon="12.241103887760637"><ele>651.0</ele><time>2026-04-18T08:16:23Z</time></trkpt><trkpt lat="43.907048392601936" lon="12.24103352246434"><ele>651.0</ele><time>2026-04-18T08:16:24Z</time></trkpt><trkpt lat="43.90698550286967" lon="12.240958159428464"><ele>651.0</ele><time>2026-04-18T08:16:25Z</time></trkpt><trkpt lat="43.906915853603685" lon="12.240875906883819"><ele>651.0</ele><time>2026-04-18T08:16:26Z</time></trkpt><trkpt lat="43.90684219132811" lon="12.240793241786784"><ele>651.0</ele><time>2026-04-18T08:16:27Z</time></trkpt><trkpt lat="43.906763806512174" lon="12.24070520822803"><ele>649.3333333333334</ele><time>2026-04-18T08:16:28Z</time></trkpt><trkpt lat="43.906680751817184" lon="12.240629995961486"><ele>647.6666666666666</ele><time>2026-04-18T08:16:29Z</time></trkpt><trkpt lat="43.906604325111644" lon="12.240569540380356"><ele>646.0</ele><time>2026-04-18T08:16:30Z</time></trkpt><trkpt lat="43.906533280895225" lon="12.240516346500664"><ele>644.3333333333333</ele><time>2026-04-18T08:16:30.999Z</time></trkpt><trkpt lat="43.906464926284784" lon="12.24048464546964"><ele>642.6666666666666</ele><time>2026-04-18T08:16:31.999Z</time></trkpt><trkpt lat="43.90639751552518" lon="12.240480834380353"><ele>641.0</ele><time>2026-04-18T08:16:32.999Z</time></trkpt><trkpt lat="43.90630405647686" lon="12.240522484038562"><ele>643.4</ele><time>2026-04-18T08:16:34.999Z</time></trkpt><trkpt lat="43.906316283627234" lon="12.240659325886353"><ele>645.8</ele><time>2026-04-18T08:16:35.999Z</time></trkpt><trkpt lat="43.90632532159114" lon="12.240774212053855"><ele>648.1999999999999</ele><time>2026-04-18T08:16:36.999Z</time></trkpt><trkpt lat="43.90639090020826" lon="12.240899692459879"><ele>650.5999999999999</ele><time>2026-04-18T08:16:37.999Z</time></trkpt><trkpt lat="43.90642468319625" lon="12.241050711363338"><ele>653.0</ele><time>2026-04-18T08:16:38.999Z</time></trkpt><trkpt lat="43.906469179763434" lon="12.241224103803727"><ele>653.0</ele><time>2026-04-18T08:16:39.999Z</time></trkpt><trkpt lat="43.90651970228626" lon="12.24141286499526"><ele>653.0</ele><time>2026-04-18T08:16:40.999Z</time></trkpt><trkpt lat="43.90652325230497" lon="12.241623674128608"><ele>653.0</ele><time>2026-04-18T08:16:41.999Z</time></trkpt><trkpt lat="43.906582672120116" lon="12.24177259931645"><ele>653.0</ele><time>2026-04-18T08:16:42.999Z</time></trkpt><trkpt lat="43.906636044107415" lon="12.241900731061769"><ele>653.5714285714287</ele><time>2026-04-18T08:16:43.999Z</time></trkpt><trkpt lat="43.9066714731691" lon="12.241985725162987"><ele>654.1428571428571</ele><time>2026-04-18T08:16:44.999Z</time></trkpt><trkpt lat="43.90670824819717" lon="12.242079935043662"><ele>654.7142857142858</ele><time>2026-04-18T08:16:45.999Z</time></trkpt><trkpt lat="43.90674258390023" lon="12.242156526032128"><ele>655.2857142857143</ele><time>2026-04-18T08:16:57.999Z</time></trkpt><trkpt lat="43.90674189114139" lon="12.242254100963265"><ele>655.8571428571429</ele><time>2026-04-18T08:16:58.999Z</time></trkpt><trkpt lat="43.90674799344376" lon="12.242360694732207"><ele>656.4285714285714</ele><time>2026-04-18T08:16:59.999Z</time></trkpt><trkpt lat="43.90673439683432" lon="12.2424809001567"><ele>657.0</ele><time>2026-04-18T08:17:00.999Z</time></trkpt><trkpt lat="43.906694064989146" lon="12.242598418724771"><ele>657.8</ele><time>2026-04-18T08:17:01.999Z</time></trkpt><trkpt lat="43.9066409540868" lon="12.242732751754277"><ele>658.6</ele><time>2026-04-18T08:17:02.999Z</time></trkpt><trkpt lat="43.906584339188406" lon="12.242865403129064"><ele>659.4</ele><time>2026-04-18T08:17:03.999Z</time></trkpt><trkpt lat="43.90652567646511" lon="12.242994925427126"><ele>660.1999999999999</ele><time>2026-04-18T08:17:04.999Z</time></trkpt><trkpt lat="43.90646386608942" lon="12.243125811447909"><ele>661.0</ele><time>2026-04-18T08:17:05.999Z</time></trkpt><trkpt lat="43.90640586586603" lon="12.243251556752394"><ele>661.8</ele><time>2026-04-18T08:17:06.999Z</time></trkpt><trkpt lat="43.90634583837986" lon="12.243374270399585"><ele>662.5999999999999</ele><time>2026-04-18T08:17:07.999Z</time></trkpt><trkpt lat="43.906279057025614" lon="12.24349345689345"><ele>663.4</ele><time>2026-04-18T08:17:08.999Z</time></trkpt><trkpt lat="43.906218947133354" lon="12.243598078155163"><ele>664.2</ele><time>2026-04-18T08:17:09.999Z</time></trkpt><trkpt lat="43.906178465028425" lon="12.24371127803842"><ele>665.0</ele><time>2026-04-18T08:17:10.999Z</time></trkpt><trkpt lat="43.90612371370254" lon="12.243811033508337"><ele>665.0</ele><time>2026-04-18T08:17:11.999Z</time></trkpt><trkpt lat="43.906074730656" lon="12.2439261764923"><ele>665.0</ele><time>2026-04-18T08:17:12.999Z</time></trkpt><trkpt lat="43.906043437398324" lon="12.244054565570169"><ele>665.0</ele><time>2026-04-18T08:17:13.999Z</time></trkpt><trkpt lat="43.90601216293928" lon="12.244195463807861"><ele>665.0</ele><time>2026-04-18T08:17:14.999Z</time></trkpt><trkpt lat="43.90598738223764" lon="12.244338464526612"><ele>665.0</ele><time>2026-04-18T08:17:15.999Z</time></trkpt><trkpt lat="43.90595360126167" lon="12.244475831461957"><ele>665.2</ele><time>2026-04-18T08:17:16.999Z</time></trkpt><trkpt lat="43.90590660680524" lon="12.24459692671035"><ele>665.4</ele><time>2026-04-18T08:17:18Z</time></trkpt><trkpt lat="43.90582511133855" lon="12.244670559921243"><ele>665.5999999999999</ele><time>2026-04-18T08:17:19Z</time></trkpt><trkpt lat="43.905745969127985" lon="12.24475263715703"><ele>665.8</ele><time>2026-04-18T08:17:20Z</time></trkpt><trkpt lat="43.905671189807634" lon="12.244838627463189"><ele>666.0</ele><time>2026-04-18T08:17:21Z</time></trkpt><trkpt lat="43.90559168681838" lon="12.24493148962409"><ele>667.1999999999999</ele><time>2026-04-18T08:17:22Z</time></trkpt><trkpt lat="43.905509389794894" lon="12.24502934305765"><ele>668.4</ele><time>2026-04-18T08:17:23Z</time></trkpt><trkpt lat="43.90542016246348" lon="12.245109756210011"><ele>669.6</ele><time>2026-04-18T08:17:24Z</time></trkpt><trkpt lat="43.90532569345586" lon="12.245162644336297"><ele>670.8</ele><time>2026-04-18T08:17:25Z</time></trkpt><trkpt lat="43.90523562794667" lon="12.245171559982547"><ele>672.0</ele><time>2026-04-18T08:17:26Z</time></trkpt><trkpt lat="43.9051515851729" lon="12.245167932217782"><ele>672.0</ele><time>2026-04-18T08:17:27Z</time></trkpt><trkpt lat="43.905084207949855" lon="12.245166479736206"><ele>672.0</ele><time>2026-04-18T08:17:28Z</time></trkpt><trkpt lat="43.905015976175385" lon="12.245163328684054"><ele>672.0</ele><time>2026-04-18T08:17:29Z</time></trkpt><trkpt lat="43.904948140798865" lon="12.24516035530751"><ele>672.0</ele><time>2026-04-18T08:17:30Z</time></trkpt><trkpt lat="43.904883684137594" lon="12.245158031156658"><ele>672.0</ele><time>2026-04-18T08:17:31Z</time></trkpt><trkpt lat="43.90481397489465" lon="12.245153433600276"><ele>672.0</ele><time>2026-04-18T08:17:32Z</time></trkpt><trkpt lat="43.90474230649196" lon="12.245140480223775"><ele>672.0</ele><time>2026-04-18T08:17:33Z</time></trkpt><trkpt lat="43.90466397756791" lon="12.245121813728913"><ele>671.4000000000001</ele><time>2026-04-18T08:17:34Z</time></trkpt><trkpt lat="43.90456941312666" lon="12.245095408425888"><ele>670.8000000000001</ele><time>2026-04-18T08:17:35Z</time></trkpt><trkpt lat="43.90446711796629" lon="12.245059340667716"><ele>670.2</ele><time>2026-04-18T08:17:36Z</time></trkpt><trkpt lat="43.904368087656096" lon="12.245027373395414"><ele>669.6</ele><time>2026-04-18T08:17:37Z</time></trkpt><trkpt lat="43.904260300705594" lon="12.245010683165292"><ele>669.0</ele><time>2026-04-18T08:17:38Z</time></trkpt><trkpt lat="43.90415038467088" lon="12.245016677894096"><ele>669.0</ele><time>2026-04-18T08:17:39Z</time></trkpt><trkpt lat="43.90404650577209" lon="12.245058724553228"><ele>669.0</ele><time>2026-04-18T08:17:40Z</time></trkpt><trkpt lat="43.90394337387042" lon="12.245137786223948"><ele>669.0</ele><time>2026-04-18T08:17:41Z</time></trkpt><trkpt lat="43.9038284763351" lon="12.245180443732467"><ele>669.0</ele><time>2026-04-18T08:17:42Z</time></trkpt><trkpt lat="43.90371363782325" lon="12.245214663117027"><ele>669.0</ele><time>2026-04-18T08:17:43Z</time></trkpt><trkpt lat="43.903614381120654" lon="12.245261153902694"><ele>669.0</ele><time>2026-04-18T08:17:44Z</time></trkpt><trkpt lat="43.90350284265254" lon="12.24527162957605"><ele>669.0</ele><time>2026-04-18T08:17:45Z</time></trkpt><trkpt lat="43.90340173136045" lon="12.245338230872484"><ele>669.0</ele><time>2026-04-18T08:17:46Z</time></trkpt><trkpt lat="43.90330385108359" lon="12.245393164788952"><ele>669.0</ele><time>2026-04-18T08:17:47Z</time></trkpt><trkpt lat="43.90320267093756" lon="12.245459001901967"><ele>667.75</ele><time>2026-04-18T08:17:48Z</time></trkpt><trkpt lat="43.903092635561684" lon="12.245520503065965"><ele>666.5</ele><time>2026-04-18T08:17:49Z</time></trkpt><trkpt lat="43.90298769992129" lon="12.24561844991182"><ele>665.25</ele><time>2026-04-18T08:17:50Z</time></trkpt><trkpt lat="43.90287384929662" lon="12.245685456965656"><ele>664.0</ele><time>2026-04-18T08:17:51Z</time></trkpt><trkpt lat="43.902757790715626" lon="12.245748141814586"><ele>665.0</ele><time>2026-04-18T08:17:52Z</time></trkpt><trkpt lat="43.902645060773665" lon="12.245797164412147"><ele>666.0</ele><time>2026-04-18T08:17:53Z</time></trkpt><trkpt lat="43.902531664213164" lon="12.245829224577994"><ele>667.0</ele><time>2026-04-18T08:17:54Z</time></trkpt><trkpt lat="43.902416723685704" lon="12.245847610946543"><ele>668.0</ele><time>2026-04-18T08:17:55Z</time></trkpt><trkpt lat="43.90231163979811" lon="12.245848967992966"><ele>668.0</ele><time>2026-04-18T08:17:56Z</time></trkpt><trkpt lat="43.90221696527498" lon="12.245837259985953"><ele>668.0</ele><time>2026-04-18T08:17:57Z</time></trkpt><trkpt lat="43.90212871541218" lon="12.245830863261283"><ele>668.0</ele><time>2026-04-18T08:17:58Z</time></trkpt><trkpt lat="43.90204846863565" lon="12.245830486492048"><ele>668.0</ele><time>2026-04-18T08:17:59Z</time></trkpt><trkpt lat="43.901965313691484" lon="12.24583064431066"><ele>668.0</ele><time>2026-04-18T08:18:00Z</time></trkpt><trkpt lat="43.90187755322455" lon="12.245834719396086"><ele>668.0</ele><time>2026-04-18T08:18:01Z</time></trkpt><trkpt lat="43.901791506723434" lon="12.245830835747539"><ele>666.4</ele><time>2026-04-18T08:18:02Z</time></trkpt><trkpt lat="43.901696814426685" lon="12.245821984236443"><ele>664.8</ele><time>2026-04-18T08:18:03Z</time></trkpt><trkpt lat="43.901595693267225" lon="12.245819814521653"><ele>663.2</ele><time>2026-04-18T08:18:04Z</time></trkpt><trkpt lat="43.90149086454683" lon="12.245835851806682"><ele>661.6</ele><time>2026-04-18T08:18:05Z</time></trkpt><trkpt lat="43.9013910215351" lon="12.245865002907653"><ele>660.0</ele><time>2026-04-18T08:18:06Z</time></trkpt><trkpt lat="43.90131317545153" lon="12.245914027516505"><ele>660.0</ele><time>2026-04-18T08:18:07Z</time></trkpt><trkpt lat="43.901252293813954" lon="12.245959211276906"><ele>660.0</ele><time>2026-04-18T08:18:08Z</time></trkpt><trkpt lat="43.901159294785245" lon="12.246009951670995"><ele>660.0</ele><time>2026-04-18T08:18:10Z</time></trkpt><trkpt lat="43.90109345810719" lon="12.246048754543322"><ele>660.0</ele><time>2026-04-18T08:18:14Z</time></trkpt><trkpt lat="43.90109938989845" lon="12.24594952011391"><ele>660.0</ele><time>2026-04-18T08:18:48.999Z</time></trkpt><trkpt lat="43.9011404660092" lon="12.245859813503898"><ele>660.0</ele><time>2026-04-18T08:18:49.999Z</time></trkpt><trkpt lat="43.90118668392162" lon="12.245776307517373"><ele>660.0</ele><time>2026-04-18T08:19:07.999Z</time></trkpt><trkpt lat="43.90113656215805" lon="12.246015684625654"><ele>660.0</ele><time>2026-04-18T08:19:13.999Z</time></trkpt><trkpt lat="43.90101718622707" lon="12.24606413210926"><ele>660.0</ele><time>2026-04-18T08:19:15.999Z</time></trkpt><trkpt lat="43.90097613013026" lon="12.246134610493867"><ele>660.0</ele><time>2026-04-18T08:19:16.999Z</time></trkpt><trkpt lat="43.900929135340824" lon="12.24620905702698"><ele>660.0</ele><time>2026-04-18T08:19:17.999Z</time></trkpt><trkpt lat="43.90085244502149" lon="12.246277378392929"><ele>658.25</ele><time>2026-04-18T08:19:18.999Z</time></trkpt><trkpt lat="43.900737384391086" lon="12.246342268120888"><ele>656.5</ele><time>2026-04-18T08:19:19.999Z</time></trkpt><trkpt lat="43.90060206110873" lon="12.24639638069463"><ele>654.75</ele><time>2026-04-18T08:19:20.999Z</time></trkpt><trkpt lat="43.9004734103553" lon="12.246442908010438"><ele>653.0</ele><time>2026-04-18T08:19:21.999Z</time></trkpt><trkpt lat="43.90033952856509" lon="12.246481665853253"><ele>653.0</ele><time>2026-04-18T08:19:22.999Z</time></trkpt><trkpt lat="43.900201229290964" lon="12.24649681095587"><ele>653.0</ele><time>2026-04-18T08:19:24Z</time></trkpt><trkpt lat="43.90006517115307" lon="12.246490521801437"><ele>653.0</ele><time>2026-04-18T08:19:25Z</time></trkpt><trkpt lat="43.89992820656259" lon="12.246465686976808"><ele>653.0</ele><time>2026-04-18T08:19:26Z</time></trkpt><trkpt lat="43.89980420758323" lon="12.246432178890052"><ele>651.6666666666666</ele><time>2026-04-18T08:19:27Z</time></trkpt><trkpt lat="43.89969043075467" lon="12.246407286126207"><ele>650.3333333333333</ele><time>2026-04-18T08:19:28Z</time></trkpt><trkpt lat="43.899609970668756" lon="12.246390780653673"><ele>649.0</ele><time>2026-04-18T08:19:29Z</time></trkpt><trkpt lat="43.899543199336236" lon="12.246390662411129"><ele>647.6666666666666</ele><time>2026-04-18T08:19:30Z</time></trkpt><trkpt lat="43.89943866595462" lon="12.246409286535904"><ele>646.3333333333334</ele><time>2026-04-18T08:19:32Z</time></trkpt><trkpt lat="43.89937397989033" lon="12.246419920394088"><ele>645.0</ele><time>2026-04-18T08:19:34Z</time></trkpt><trkpt lat="43.89930906101567" lon="12.24646067272973"><ele>648.0</ele><time>2026-04-18T08:19:49Z</time></trkpt><trkpt lat="43.899200435991354" lon="12.246523208886638"><ele>651.0</ele><time>2026-04-18T08:19:51Z</time></trkpt><trkpt lat="43.89911161532357" lon="12.24656938554938"><ele>654.0</ele><time>2026-04-18T08:19:52Z</time></trkpt><trkpt lat="43.898996134713826" lon="12.2466229656067"><ele>657.0</ele><time>2026-04-18T08:19:53Z</time></trkpt><trkpt lat="43.89885211644756" lon="12.24667951642336"><ele>657.0</ele><time>2026-04-18T08:19:54Z</time></trkpt><trkpt lat="43.8987022149471" lon="12.246732175203887"><ele>657.0</ele><time>2026-04-18T08:19:55Z</time></trkpt><trkpt lat="43.89856861368621" lon="12.246768313247824"><ele>657.0</ele><time>2026-04-18T08:19:56Z</time></trkpt><trkpt lat="43.89845487346836" lon="12.246796148834035"><ele>657.0</ele><time>2026-04-18T08:19:57Z</time></trkpt><trkpt lat="43.8983519178775" lon="12.246821977945505"><ele>656.8</ele><time>2026-04-18T08:19:58Z</time></trkpt><trkpt lat="43.89824998500802" lon="12.246844954143784"><ele>656.6</ele><time>2026-04-18T08:19:59Z</time></trkpt><trkpt lat="43.89815016861973" lon="12.246882971707121"><ele>656.4</ele><time>2026-04-18T08:20:00Z</time></trkpt><trkpt lat="43.89803711423933" lon="12.246917630280414"><ele>656.1999999999999</ele><time>2026-04-18T08:20:01Z</time></trkpt><trkpt lat="43.89792091160391" lon="12.246975419497037"><ele>656.0</ele><time>2026-04-18T08:20:02Z</time></trkpt><trkpt lat="43.89775129425636" lon="12.246860731547683"><ele>656.0</ele><time>2026-04-18T08:20:03Z</time></trkpt><trkpt lat="43.89762714558176" lon="12.246817137649261"><ele>656.0</ele><time>2026-04-18T08:20:04Z</time></trkpt><trkpt lat="43.89749945845389" lon="12.246772082615326"><ele>656.0</ele><time>2026-04-18T08:20:05Z</time></trkpt><trkpt lat="43.89737160420324" lon="12.246725660023143"><ele>656.0</ele><time>2026-04-18T08:20:06Z</time></trkpt><trkpt lat="43.89727098651739" lon="12.246685806617059"><ele>655.8</ele><time>2026-04-18T08:20:07Z</time></trkpt><trkpt lat="43.89718313787529" lon="12.246620976384618"><ele>655.5999999999999</ele><time>2026-04-18T08:20:10Z</time></trkpt><trkpt lat="43.89709362742693" lon="12.246608806289995"><ele>655.4</ele><time>2026-04-18T08:20:52.999Z</time></trkpt><trkpt lat="43.89700505459051" lon="12.246582634360943"><ele>655.2</ele><time>2026-04-18T08:20:54.999Z</time></trkpt><trkpt lat="43.89687695626178" lon="12.246543833010573"><ele>655.0</ele><time>2026-04-18T08:20:56.999Z</time></trkpt><trkpt lat="43.89680597560761" lon="12.246510675922266"><ele>656.0</ele><time>2026-04-18T08:20:57.999Z</time></trkpt><trkpt lat="43.896715731524935" lon="12.24646057684496"><ele>657.0</ele><time>2026-04-18T08:20:58.999Z</time></trkpt><trkpt lat="43.89661258539748" lon="12.24640843067076"><ele>658.0</ele><time>2026-04-18T08:20:59.999Z</time></trkpt><trkpt lat="43.89650709671705" lon="12.246354913423845"><ele>659.0</ele><time>2026-04-18T08:21:00.999Z</time></trkpt><trkpt lat="43.89639718527632" lon="12.246292551648754"><ele>660.0</ele><time>2026-04-18T08:21:01.999Z</time></trkpt><trkpt lat="43.89628782125713" lon="12.246222502800046"><ele>660.0</ele><time>2026-04-18T08:21:02.999Z</time></trkpt><trkpt lat="43.89617738832682" lon="12.246144777793214"><ele>660.0</ele><time>2026-04-18T08:21:03.999Z</time></trkpt><trkpt lat="43.89606089604409" lon="12.246059271386121"><ele>660.0</ele><time>2026-04-18T08:21:04.999Z</time></trkpt><trkpt lat="43.89594104077413" lon="12.245975178266171"><ele>660.0</ele><time>2026-04-18T08:21:05.999Z</time></trkpt><trkpt lat="43.89581632489978" lon="12.245896860193819"><ele>662.0</ele><time>2026-04-18T08:21:06.999Z</time></trkpt><trkpt lat="43.89568539127183" lon="12.245823509204534"><ele>664.0</ele><time>2026-04-18T08:21:07.999Z</time></trkpt><trkpt lat="43.89555734870432" lon="12.245759064486627"><ele>666.0</ele><time>2026-04-18T08:21:08.999Z</time></trkpt><trkpt lat="43.895424617933834" lon="12.245699210809107"><ele>668.0</ele><time>2026-04-18T08:21:09.999Z</time></trkpt><trkpt lat="43.89529016851678" lon="12.245642447235454"><ele>667.0</ele><time>2026-04-18T08:21:10.999Z</time></trkpt><trkpt lat="43.89516192980199" lon="12.245591025151674"><ele>666.0</ele><time>2026-04-18T08:21:11.999Z</time></trkpt><trkpt lat="43.89503476985865" lon="12.245544052098596"><ele>665.0</ele><time>2026-04-18T08:21:12.999Z</time></trkpt><trkpt lat="43.8949101910125" lon="12.245499066676876"><ele>664.0</ele><time>2026-04-18T08:21:13.999Z</time></trkpt><trkpt lat="43.89479014228644" lon="12.245454327115299"><ele>668.75</ele><time>2026-04-18T08:21:14.999Z</time></trkpt><trkpt lat="43.89467002523406" lon="12.245417323357582"><ele>673.5</ele><time>2026-04-18T08:21:15.999Z</time></trkpt><trkpt lat="43.894551460183806" lon="12.245383408692259"><ele>678.25</ele><time>2026-04-18T08:21:16.999Z</time></trkpt><trkpt lat="43.89442767187371" lon="12.245354532376762"><ele>683.0</ele><time>2026-04-18T08:21:17.999Z</time></trkpt><trkpt lat="43.89430664626648" lon="12.24533235097048"><ele>684.5</ele><time>2026-04-18T08:21:18.999Z</time></trkpt><trkpt lat="43.8941837395939" lon="12.245312153621548"><ele>686.0</ele><time>2026-04-18T08:21:19.999Z</time></trkpt><trkpt lat="43.89406257082171" lon="12.245316580759336"><ele>687.5</ele><time>2026-04-18T08:21:20.999Z</time></trkpt><trkpt lat="43.89394470331129" lon="12.245330772792494"><ele>689.0</ele><time>2026-04-18T08:21:21.999Z</time></trkpt><trkpt lat="43.89382431411537" lon="12.2453539470831"><ele>689.0</ele><time>2026-04-18T08:21:22.999Z</time></trkpt><trkpt lat="43.8937046819787" lon="12.245371582979086"><ele>689.0</ele><time>2026-04-18T08:21:23.999Z</time></trkpt><trkpt lat="43.893584391775605" lon="12.245386229043122"><ele>689.0</ele><time>2026-04-18T08:21:24.999Z</time></trkpt><trkpt lat="43.893465129164746" lon="12.245394209563365"><ele>689.0</ele><time>2026-04-18T08:21:25.999Z</time></trkpt><trkpt lat="43.893344592046944" lon="12.24540382941475"><ele>690.2</ele><time>2026-04-18T08:21:26.999Z</time></trkpt><trkpt lat="43.89323783035357" lon="12.245410269674478"><ele>691.4000000000001</ele><time>2026-04-18T08:21:27.999Z</time></trkpt><trkpt lat="43.893135270079554" lon="12.245412245516619"><ele>692.6</ele><time>2026-04-18T08:21:29Z</time></trkpt><trkpt lat="43.893042149855276" lon="12.245410077320072"><ele>693.8</ele><time>2026-04-18T08:21:30Z</time></trkpt><trkpt lat="43.89293737518673" lon="12.245393444714557"><ele>695.0</ele><time>2026-04-18T08:21:31Z</time></trkpt><trkpt lat="43.8928255684897" lon="12.245356324928961"><ele>695.0</ele><time>2026-04-18T08:21:32Z</time></trkpt><trkpt lat="43.892724685752086" lon="12.245323138682574"><ele>695.0</ele><time>2026-04-18T08:21:33Z</time></trkpt><trkpt lat="43.89262335731844" lon="12.245309734536294"><ele>695.0</ele><time>2026-04-18T08:21:34Z</time></trkpt><trkpt lat="43.892515900100605" lon="12.245301159445063"><ele>695.0</ele><time>2026-04-18T08:21:35Z</time></trkpt><trkpt lat="43.892410698138775" lon="12.24534152409185"><ele>695.0</ele><time>2026-04-18T08:21:36Z</time></trkpt><trkpt lat="43.89233891439424" lon="12.24538460688918"><ele>696.4</ele><time>2026-04-18T08:21:37Z</time></trkpt><trkpt lat="43.89226739330211" lon="12.245427191601857"><ele>697.8</ele><time>2026-04-18T08:21:38Z</time></trkpt><trkpt lat="43.892192617433274" lon="12.245480146214254"><ele>699.2</ele><time>2026-04-18T08:21:39Z</time></trkpt><trkpt lat="43.89210921095351" lon="12.24550753989919"><ele>700.6</ele><time>2026-04-18T08:21:40Z</time></trkpt><trkpt lat="43.892013426672214" lon="12.245528767617657"><ele>702.0</ele><time>2026-04-18T08:21:41Z</time></trkpt><trkpt lat="43.89189997631943" lon="12.245550010898436"><ele>702.0</ele><time>2026-04-18T08:21:42Z</time></trkpt><trkpt lat="43.891788535718575" lon="12.245566378155143"><ele>702.0</ele><time>2026-04-18T08:21:43Z</time></trkpt><trkpt lat="43.891694033366115" lon="12.245572433526666"><ele>702.0</ele><time>2026-04-18T08:21:44Z</time></trkpt><trkpt lat="43.89160046314789" lon="12.245564970733401"><ele>702.0</ele><time>2026-04-18T08:21:45Z</time></trkpt><trkpt lat="43.891507240561815" lon="12.245534566267828"><ele>702.0</ele><time>2026-04-18T08:21:46Z</time></trkpt><trkpt lat="43.89141358034013" lon="12.245480884099747"><ele>704.0</ele><time>2026-04-18T08:21:47Z</time></trkpt><trkpt lat="43.89132437019065" lon="12.245411971529183"><ele>706.0</ele><time>2026-04-18T08:21:48Z</time></trkpt><trkpt lat="43.891204985494845" lon="12.245323042462608"><ele>708.0</ele><time>2026-04-18T08:21:49Z</time></trkpt><trkpt lat="43.891068500680646" lon="12.245220190534125"><ele>710.0</ele><time>2026-04-18T08:21:50Z</time></trkpt><trkpt lat="43.89090023540507" lon="12.245185069122316"><ele>710.75</ele><time>2026-04-18T08:21:51Z</time></trkpt><trkpt lat="43.89076253342495" lon="12.245183939291977"><ele>711.5</ele><time>2026-04-18T08:21:52Z</time></trkpt><trkpt lat="43.89064567712474" lon="12.245231709755982"><ele>712.25</ele><time>2026-04-18T08:21:53Z</time></trkpt><trkpt lat="43.890560686918064" lon="12.245350259469888"><ele>713.0</ele><time>2026-04-18T08:21:54Z</time></trkpt><trkpt lat="43.89048572246144" lon="12.245498314500846"><ele>713.5</ele><time>2026-04-18T08:21:55Z</time></trkpt><trkpt lat="43.89038407811714" lon="12.245641419480435"><ele>714.0</ele><time>2026-04-18T08:21:56Z</time></trkpt><trkpt lat="43.89029857772651" lon="12.24579660453184"><ele>714.5</ele><time>2026-04-18T08:21:57Z</time></trkpt><trkpt lat="43.89018561457628" lon="12.245908579943755"><ele>715.0</ele><time>2026-04-18T08:21:58Z</time></trkpt><trkpt lat="43.890069813311385" lon="12.246006998855188"><ele>715.0</ele><time>2026-04-18T08:21:59Z</time></trkpt><trkpt lat="43.88994405477649" lon="12.246104473216567"><ele>715.0</ele><time>2026-04-18T08:22:00Z</time></trkpt><trkpt lat="43.889807802213134" lon="12.246195087042869"><ele>715.0</ele><time>2026-04-18T08:22:01Z</time></trkpt><trkpt lat="43.88966395278703" lon="12.246290225288666"><ele>715.0</ele><time>2026-04-18T08:22:02Z</time></trkpt><trkpt lat="43.88952317822417" lon="12.246378874867823"><ele>715.0</ele><time>2026-04-18T08:22:03Z</time></trkpt><trkpt lat="43.88939091616538" lon="12.246460724304475"><ele>715.0</ele><time>2026-04-18T08:22:04Z</time></trkpt><trkpt lat="43.88925922669971" lon="12.246515446206635"><ele>715.0</ele><time>2026-04-18T08:22:05Z</time></trkpt><trkpt lat="43.88912626392237" lon="12.246613413499647"><ele>716.6666666666667</ele><time>2026-04-18T08:22:06Z</time></trkpt><trkpt lat="43.88898018147439" lon="12.246673849791934"><ele>718.3333333333334</ele><time>2026-04-18T08:22:07Z</time></trkpt><trkpt lat="43.888832608393244" lon="12.246715096767723"><ele>720.0</ele><time>2026-04-18T08:22:08Z</time></trkpt><trkpt lat="43.88867810877679" lon="12.246751077376256"><ele>720.0</ele><time>2026-04-18T08:22:09Z</time></trkpt><trkpt lat="43.8885250127816" lon="12.246788937824258"><ele>720.0</ele><time>2026-04-18T08:22:10Z</time></trkpt><trkpt lat="43.88836300341995" lon="12.246815404196385"><ele>720.0</ele><time>2026-04-18T08:22:11Z</time></trkpt><trkpt lat="43.88821220919261" lon="12.246836105598431"><ele>722.75</ele><time>2026-04-18T08:22:12Z</time></trkpt><trkpt lat="43.888066961424805" lon="12.246847822163812"><ele>725.5</ele><time>2026-04-18T08:22:13Z</time></trkpt><trkpt lat="43.887913116215344" lon="12.246867994915199"><ele>728.25</ele><time>2026-04-18T08:22:14Z</time></trkpt><trkpt lat="43.8877697528072" lon="12.24691748046139"><ele>731.0</ele><time>2026-04-18T08:22:15Z</time></trkpt><trkpt lat="43.887625749686244" lon="12.246988138084737"><ele>729.75</ele><time>2026-04-18T08:22:16Z</time></trkpt><trkpt lat="43.887490904094115" lon="12.247070373235168"><ele>728.5</ele><time>2026-04-18T08:22:17Z</time></trkpt><trkpt lat="43.88735899925695" lon="12.247145052368484"><ele>727.25</ele><time>2026-04-18T08:22:18Z</time></trkpt><trkpt lat="43.88722162710256" lon="12.24722033386457"><ele>726.0</ele><time>2026-04-18T08:22:19Z</time></trkpt><trkpt lat="43.88708846633168" lon="12.247295019198857"><ele>725.75</ele><time>2026-04-18T08:22:20Z</time></trkpt><trkpt lat="43.88695860843694" lon="12.247365571681007"><ele>725.5</ele><time>2026-04-18T08:22:21Z</time></trkpt><trkpt lat="43.8868271477108" lon="12.24743737942642"><ele>725.25</ele><time>2026-04-18T08:22:22Z</time></trkpt><trkpt lat="43.88669226216672" lon="12.247498049928973"><ele>725.0</ele><time>2026-04-18T08:22:23Z</time></trkpt><trkpt lat="43.886554732839" lon="12.247541068207092"><ele>725.0</ele><time>2026-04-18T08:22:24Z</time></trkpt><trkpt lat="43.8864198253066" lon="12.247570778690058"><ele>725.0</ele><time>2026-04-18T08:22:25Z</time></trkpt><trkpt lat="43.88628721165108" lon="12.247591630965225"><ele>725.0</ele><time>2026-04-18T08:22:26Z</time></trkpt><trkpt lat="43.886151216702274" lon="12.247619057558012"><ele>725.0</ele><time>2026-04-18T08:22:27Z</time></trkpt><trkpt lat="43.88601260636438" lon="12.24764451852258"><ele>727.25</ele><time>2026-04-18T08:22:28Z</time></trkpt><trkpt lat="43.885884065495844" lon="12.247690385221944"><ele>729.5</ele><time>2026-04-18T08:22:29Z</time></trkpt><trkpt lat="43.88575880989128" lon="12.247773879786244"><ele>731.75</ele><time>2026-04-18T08:22:30Z</time></trkpt><trkpt lat="43.885654093841325" lon="12.247902694201604"><ele>734.0</ele><time>2026-04-18T08:22:31Z</time></trkpt><trkpt lat="43.88556443359545" lon="12.248049581272632"><ele>734.5</ele><time>2026-04-18T08:22:32Z</time></trkpt><trkpt lat="43.88547016615228" lon="12.248189472542457"><ele>735.0</ele><time>2026-04-18T08:22:33Z</time></trkpt><trkpt lat="43.88535924419735" lon="12.24827478027552"><ele>735.5</ele><time>2026-04-18T08:22:34Z</time></trkpt><trkpt lat="43.88523156265376" lon="12.248312021220444"><ele>736.0</ele><time>2026-04-18T08:22:35Z</time></trkpt><trkpt lat="43.8850986982801" lon="12.24827779216088"><ele>737.5</ele><time>2026-04-18T08:22:36Z</time></trkpt><trkpt lat="43.88498212817399" lon="12.248226476146687"><ele>739.0</ele><time>2026-04-18T08:22:37Z</time></trkpt><trkpt lat="43.884880568771756" lon="12.248121093325791"><ele>740.5</ele><time>2026-04-18T08:22:38Z</time></trkpt><trkpt lat="43.88478995357874" lon="12.247995155580973"><ele>742.0</ele><time>2026-04-18T08:22:39Z</time></trkpt><trkpt lat="43.88470831896749" lon="12.247855569360654"><ele>743.0</ele><time>2026-04-18T08:22:40Z</time></trkpt><trkpt lat="43.884624392040664" lon="12.2477188696886"><ele>744.0</ele><time>2026-04-18T08:22:41Z</time></trkpt><trkpt lat="43.884538379900356" lon="12.247592585302767"><ele>745.0</ele><time>2026-04-18T08:22:42Z</time></trkpt><trkpt lat="43.8844530380291" lon="12.247461262695312"><ele>746.0</ele><time>2026-04-18T08:22:43Z</time></trkpt><trkpt lat="43.88436662027255" lon="12.247350044398187"><ele>746.8</ele><time>2026-04-18T08:22:43.999Z</time></trkpt><trkpt lat="43.88429435785197" lon="12.247287607840665"><ele>747.5999999999999</ele><time>2026-04-18T08:22:44.999Z</time></trkpt><trkpt lat="43.88420257252068" lon="12.247240572755432"><ele>748.4</ele><time>2026-04-18T08:22:46.999Z</time></trkpt><trkpt lat="43.88413628556477" lon="12.247246274105574"><ele>749.2</ele><time>2026-04-18T08:22:47.999Z</time></trkpt><trkpt lat="43.88404633056335" lon="12.247291134913246"><ele>750.0</ele><time>2026-04-18T08:22:48.999Z</time></trkpt><trkpt lat="43.883944685611176" lon="12.247370313128021"><ele>751.0</ele><time>2026-04-18T08:22:49.999Z</time></trkpt><trkpt lat="43.88384945576134" lon="12.247472765842971"><ele>752.0</ele><time>2026-04-18T08:22:50.999Z</time></trkpt><trkpt lat="43.88375672916468" lon="12.247569325051622"><ele>753.0</ele><time>2026-04-18T08:22:51.999Z</time></trkpt><trkpt lat="43.88365747356965" lon="12.247651234016784"><ele>754.0</ele><time>2026-04-18T08:22:52.999Z</time></trkpt><trkpt lat="43.88354952993917" lon="12.247721242441115"><ele>754.0</ele><time>2026-04-18T08:22:53.999Z</time></trkpt><trkpt lat="43.88344653557924" lon="12.247776955439004"><ele>754.0</ele><time>2026-04-18T08:22:54.999Z</time></trkpt><trkpt lat="43.883354909713916" lon="12.247823975841882"><ele>754.0</ele><time>2026-04-18T08:22:55.999Z</time></trkpt><trkpt lat="43.88327224484039" lon="12.247868730385195"><ele>754.0</ele><time>2026-04-18T08:22:56.999Z</time></trkpt><trkpt lat="43.883206788318326" lon="12.247896355413305"><ele>754.0</ele><time>2026-04-18T08:22:57.999Z</time></trkpt><trkpt lat="43.88309424988679" lon="12.247879293661454"><ele>756.4000000000001</ele><time>2026-04-18T08:22:59.999Z</time></trkpt><trkpt lat="43.883024991775514" lon="12.247818747588399"><ele>758.8</ele><time>2026-04-18T08:23:00.999Z</time></trkpt><trkpt lat="43.88295416858836" lon="12.247728744130894"><ele>761.2</ele><time>2026-04-18T08:23:01.999Z</time></trkpt><trkpt lat="43.88289300577845" lon="12.247619666102871"><ele>763.5999999999999</ele><time>2026-04-18T08:23:02.999Z</time></trkpt><trkpt lat="43.882843367133745" lon="12.24748858146162"><ele>766.0</ele><time>2026-04-18T08:23:03.999Z</time></trkpt><trkpt lat="43.882782739103554" lon="12.247341912873315"><ele>764.75</ele><time>2026-04-18T08:23:04.999Z</time></trkpt><trkpt lat="43.88270851795665" lon="12.24719139371285"><ele>763.5</ele><time>2026-04-18T08:23:05.999Z</time></trkpt><trkpt lat="43.882630274539515" lon="12.24703321601888"><ele>762.25</ele><time>2026-04-18T08:23:06.999Z</time></trkpt><trkpt lat="43.88255980526068" lon="12.246888635082161"><ele>761.0</ele><time>2026-04-18T08:23:07.999Z</time></trkpt><trkpt lat="43.88247060457225" lon="12.246761961851853"><ele>761.0</ele><time>2026-04-18T08:23:08.999Z</time></trkpt><trkpt lat="43.88236827834735" lon="12.246659615599194"><ele>761.0</ele><time>2026-04-18T08:23:09.999Z</time></trkpt><trkpt lat="43.88225193544525" lon="12.24659361274099"><ele>761.0</ele><time>2026-04-18T08:23:10.999Z</time></trkpt><trkpt lat="43.88213205570875" lon="12.246557427457786"><ele>761.0</ele><time>2026-04-18T08:23:11.999Z</time></trkpt><trkpt lat="43.882008649273466" lon="12.246533710331628"><ele>761.0</ele><time>2026-04-18T08:23:12.999Z</time></trkpt><trkpt lat="43.881894317401155" lon="12.246522434214215"><ele>761.0</ele><time>2026-04-18T08:23:13.999Z</time></trkpt><trkpt lat="43.8817827191836" lon="12.246514313947259"><ele>761.0</ele><time>2026-04-18T08:23:14.999Z</time></trkpt><trkpt lat="43.881677762649296" lon="12.246503927872507"><ele>761.0</ele><time>2026-04-18T08:23:15.999Z</time></trkpt><trkpt lat="43.88157268645394" lon="12.246485760664115"><ele>761.0</ele><time>2026-04-18T08:23:16.999Z</time></trkpt><trkpt lat="43.881469380390634" lon="12.246456229369029"><ele>759.8</ele><time>2026-04-18T08:23:17.999Z</time></trkpt><trkpt lat="43.88136909302444" lon="12.246419775419115"><ele>758.5999999999999</ele><time>2026-04-18T08:23:18.999Z</time></trkpt><trkpt lat="43.8812694808076" lon="12.24637399469006"><ele>757.4</ele><time>2026-04-18T08:23:19.999Z</time></trkpt><trkpt lat="43.8811799314757" lon="12.246318301878581"><ele>756.2</ele><time>2026-04-18T08:23:20.999Z</time></trkpt><trkpt lat="43.881097912410254" lon="12.246260600109803"><ele>755.0</ele><time>2026-04-18T08:23:21.999Z</time></trkpt><trkpt lat="43.881020282767935" lon="12.246195887587936"><ele>755.0</ele><time>2026-04-18T08:23:22.999Z</time></trkpt><trkpt lat="43.880943842775864" lon="12.246116861535294"><ele>755.0</ele><time>2026-04-18T08:23:23.999Z</time></trkpt><trkpt lat="43.880860712164264" lon="12.246036703542671"><ele>755.0</ele><time>2026-04-18T08:23:24.999Z</time></trkpt><trkpt lat="43.880768556109544" lon="12.245955137505375"><ele>755.0</ele><time>2026-04-18T08:23:25.999Z</time></trkpt><trkpt lat="43.88067341386363" lon="12.245878882304357"><ele>755.0</ele><time>2026-04-18T08:23:26.999Z</time></trkpt><trkpt lat="43.880576869921946" lon="12.245798921616666"><ele>754.5</ele><time>2026-04-18T08:23:27.999Z</time></trkpt><trkpt lat="43.880477636615616" lon="12.245715201162355"><ele>754.0</ele><time>2026-04-18T08:23:28.999Z</time></trkpt><trkpt lat="43.880378621749095" lon="12.245629126967598"><ele>753.5</ele><time>2026-04-18T08:23:29.999Z</time></trkpt><trkpt lat="43.880277854639544" lon="12.245537800639203"><ele>753.0</ele><time>2026-04-18T08:23:30.999Z</time></trkpt><trkpt lat="43.880174891430634" lon="12.245449794915857"><ele>752.75</ele><time>2026-04-18T08:23:31.999Z</time></trkpt><trkpt lat="43.880073865538996" lon="12.245360804754567"><ele>752.5</ele><time>2026-04-18T08:23:32.999Z</time></trkpt><trkpt lat="43.879969453908664" lon="12.245268590164958"><ele>752.25</ele><time>2026-04-18T08:23:33.999Z</time></trkpt><trkpt lat="43.87986358477892" lon="12.245179775662017"><ele>752.0</ele><time>2026-04-18T08:23:35Z</time></trkpt><trkpt lat="43.8797541772272" lon="12.245093441905773"><ele>752.0</ele><time>2026-04-18T08:23:36Z</time></trkpt><trkpt lat="43.87964477248601" lon="12.24501042020382"><ele>752.0</ele><time>2026-04-18T08:23:37Z</time></trkpt><trkpt lat="43.87954726627399" lon="12.244915826581854"><ele>752.0</ele><time>2026-04-18T08:23:38Z</time></trkpt><trkpt lat="43.879445379186706" lon="12.24482477527422"><ele>752.0</ele><time>2026-04-18T08:23:39Z</time></trkpt><trkpt lat="43.87933327011838" lon="12.244719804880464"><ele>751.25</ele><time>2026-04-18T08:23:40Z</time></trkpt><trkpt lat="43.87922226687715" lon="12.244618110214464"><ele>750.5</ele><time>2026-04-18T08:23:41Z</time></trkpt><trkpt lat="43.87911251280389" lon="12.244520572408469"><ele>749.75</ele><time>2026-04-18T08:23:42Z</time></trkpt><trkpt lat="43.879003032443805" lon="12.244428167741766"><ele>749.0</ele><time>2026-04-18T08:23:43Z</time></trkpt><trkpt lat="43.87889359512998" lon="12.244330778197511"><ele>749.0</ele><time>2026-04-18T08:23:44Z</time></trkpt><trkpt lat="43.87878746666146" lon="12.24424110737659"><ele>749.0</ele><time>2026-04-18T08:23:45Z</time></trkpt><trkpt lat="43.878682349550544" lon="12.244154207418912"><ele>749.0</ele><time>2026-04-18T08:23:46Z</time></trkpt><trkpt lat="43.878582204758665" lon="12.244068666997615"><ele>749.0</ele><time>2026-04-18T08:23:47Z</time></trkpt><trkpt lat="43.87848396730194" lon="12.243982034520352"><ele>747.75</ele><time>2026-04-18T08:23:48Z</time></trkpt><trkpt lat="43.878379591853765" lon="12.243911294712005"><ele>746.5</ele><time>2026-04-18T08:23:49Z</time></trkpt><trkpt lat="43.87827013288287" lon="12.243857837782521"><ele>745.25</ele><time>2026-04-18T08:23:50Z</time></trkpt><trkpt lat="43.87814713852196" lon="12.243826754168444"><ele>744.0</ele><time>2026-04-18T08:23:51Z</time></trkpt><trkpt lat="43.878015541854886" lon="12.243805960506199"><ele>744.0</ele><time>2026-04-18T08:23:52Z</time></trkpt><trkpt lat="43.877887036829826" lon="12.243797035558963"><ele>744.0</ele><time>2026-04-18T08:23:53Z</time></trkpt><trkpt lat="43.877749326452935" lon="12.243808850282491"><ele>744.0</ele><time>2026-04-18T08:23:54Z</time></trkpt><trkpt lat="43.87761514839099" lon="12.243833890693757"><ele>744.0</ele><time>2026-04-18T08:23:55Z</time></trkpt><trkpt lat="43.87747755159852" lon="12.243858199103764"><ele>743.0</ele><time>2026-04-18T08:23:56Z</time></trkpt><trkpt lat="43.87734242822384" lon="12.243874309331142"><ele>742.0</ele><time>2026-04-18T08:23:57Z</time></trkpt><trkpt lat="43.87720085698793" lon="12.243863265144693"><ele>741.0</ele><time>2026-04-18T08:23:58Z</time></trkpt><trkpt lat="43.8770768089422" lon="12.243829788761007"><ele>740.0</ele><time>2026-04-18T08:23:59Z</time></trkpt><trkpt lat="43.87694668403478" lon="12.243783318793527"><ele>740.0</ele><time>2026-04-18T08:23:59.999Z</time></trkpt><trkpt lat="43.87682322443377" lon="12.243731263156858"><ele>740.0</ele><time>2026-04-18T08:24:00.999Z</time></trkpt><trkpt lat="43.87670390381843" lon="12.243665574307263"><ele>740.0</ele><time>2026-04-18T08:24:01.999Z</time></trkpt><trkpt lat="43.87658360655948" lon="12.243587229541825"><ele>740.0</ele><time>2026-04-18T08:24:02.999Z</time></trkpt><trkpt lat="43.87647102990142" lon="12.243501901819872"><ele>740.25</ele><time>2026-04-18T08:24:03.999Z</time></trkpt><trkpt lat="43.87636079649617" lon="12.243400047380858"><ele>740.5</ele><time>2026-04-18T08:24:04.999Z</time></trkpt><trkpt lat="43.87625112821336" lon="12.243287153136768"><ele>740.75</ele><time>2026-04-18T08:24:05.999Z</time></trkpt><trkpt lat="43.87615019982907" lon="12.243171240925744"><ele>741.0</ele><time>2026-04-18T08:24:06.999Z</time></trkpt><trkpt lat="43.87604319787249" lon="12.2430455909831"><ele>741.0</ele><time>2026-04-18T08:24:07.999Z</time></trkpt><trkpt lat="43.875944997228935" lon="12.242916740903732"><ele>741.0</ele><time>2026-04-18T08:24:08.999Z</time></trkpt><trkpt lat="43.87585254385159" lon="12.24277627173558"><ele>741.0</ele><time>2026-04-18T08:24:09.999Z</time></trkpt><trkpt lat="43.875772897507574" lon="12.242630856309118"><ele>741.0</ele><time>2026-04-18T08:24:10.999Z</time></trkpt><trkpt lat="43.87570021865585" lon="12.242464253432678"><ele>743.25</ele><time>2026-04-18T08:24:11.999Z</time></trkpt><trkpt lat="43.875639533502365" lon="12.242297254236648"><ele>745.5</ele><time>2026-04-18T08:24:12.999Z</time></trkpt><trkpt lat="43.87558300761503" lon="12.24212286045805"><ele>747.75</ele><time>2026-04-18T08:24:13.999Z</time></trkpt><trkpt lat="43.875525587519334" lon="12.24194498058745"><ele>750.0</ele><time>2026-04-18T08:24:14.999Z</time></trkpt><trkpt lat="43.875469980743844" lon="12.241765435829064"><ele>750.0</ele><time>2026-04-18T08:24:15.999Z</time></trkpt><trkpt lat="43.875418671025585" lon="12.241587921594963"><ele>750.0</ele><time>2026-04-18T08:24:16.999Z</time></trkpt><trkpt lat="43.87537152380714" lon="12.241410137894617"><ele>750.0</ele><time>2026-04-18T08:24:17.999Z</time></trkpt><trkpt lat="43.87532395624869" lon="12.24123139673033"><ele>750.0</ele><time>2026-04-18T08:24:18.999Z</time></trkpt><trkpt lat="43.87527405115937" lon="12.241054961085867"><ele>749.75</ele><time>2026-04-18T08:24:19.999Z</time></trkpt><trkpt lat="43.875223903795785" lon="12.240877574447545"><ele>749.5</ele><time>2026-04-18T08:24:20.999Z</time></trkpt><trkpt lat="43.87518656624214" lon="12.24070583975878"><ele>749.25</ele><time>2026-04-18T08:24:21.999Z</time></trkpt><trkpt lat="43.87514381608946" lon="12.240531043183013"><ele>749.0</ele><time>2026-04-18T08:24:22.999Z</time></trkpt><trkpt lat="43.875097071727026" lon="12.24036364824451"><ele>751.75</ele><time>2026-04-18T08:24:23.999Z</time></trkpt><trkpt lat="43.87504189354034" lon="12.240202134066411"><ele>754.5</ele><time>2026-04-18T08:24:24.999Z</time></trkpt><trkpt lat="43.87497215518791" lon="12.240048414004534"><ele>757.25</ele><time>2026-04-18T08:24:25.999Z</time></trkpt><trkpt lat="43.874895430685164" lon="12.239902034010468"><ele>760.0</ele><time>2026-04-18T08:24:26.999Z</time></trkpt><trkpt lat="43.87481990705169" lon="12.239760900559435"><ele>760.0</ele><time>2026-04-18T08:24:27.999Z</time></trkpt><trkpt lat="43.874743283204175" lon="12.239623904011363"><ele>760.0</ele><time>2026-04-18T08:24:28.999Z</time></trkpt><trkpt lat="43.87466128785141" lon="12.23947997805204"><ele>760.0</ele><time>2026-04-18T08:24:29.999Z</time></trkpt><trkpt lat="43.87458245903612" lon="12.239334575381932"><ele>760.0</ele><time>2026-04-18T08:24:30.999Z</time></trkpt><trkpt lat="43.87450583486442" lon="12.239191933124761"><ele>760.0</ele><time>2026-04-18T08:24:31.999Z</time></trkpt><trkpt lat="43.8744164895344" lon="12.239044143211515"><ele>760.0</ele><time>2026-04-18T08:24:32.999Z</time></trkpt><trkpt lat="43.87432512761267" lon="12.238907863316264"><ele>760.0</ele><time>2026-04-18T08:24:33.999Z</time></trkpt><trkpt lat="43.874222965841355" lon="12.238781848033819"><ele>760.0</ele><time>2026-04-18T08:24:34.999Z</time></trkpt><trkpt lat="43.874116488500064" lon="12.238658250755922"><ele>762.0</ele><time>2026-04-18T08:24:35.999Z</time></trkpt><trkpt lat="43.874011324210684" lon="12.238553688424158"><ele>764.0</ele><time>2026-04-18T08:24:36.998Z</time></trkpt><trkpt lat="43.87390947838535" lon="12.238456208873352"><ele>766.0</ele><time>2026-04-18T08:24:37.998Z</time></trkpt><trkpt lat="43.87381120014274" lon="12.238367447091152"><ele>768.0</ele><time>2026-04-18T08:24:38.998Z</time></trkpt><trkpt lat="43.873718508636365" lon="12.238283302880124"><ele>768.0</ele><time>2026-04-18T08:24:39.998Z</time></trkpt><trkpt lat="43.873627669935246" lon="12.23820023100552"><ele>768.0</ele><time>2026-04-18T08:24:40.998Z</time></trkpt><trkpt lat="43.873546486987614" lon="12.238124087962523"><ele>768.0</ele><time>2026-04-18T08:24:41.998Z</time></trkpt><trkpt lat="43.873463834230954" lon="12.238038218675715"><ele>768.0</ele><time>2026-04-18T08:24:42.998Z</time></trkpt><trkpt lat="43.87337242553618" lon="12.23793384280856"><ele>768.0</ele><time>2026-04-18T08:24:43.998Z</time></trkpt><trkpt lat="43.873273481190054" lon="12.237816425811443"><ele>767.0</ele><time>2026-04-18T08:24:44.998Z</time></trkpt><trkpt lat="43.87317356134322" lon="12.23768948156293"><ele>766.0</ele><time>2026-04-18T08:24:45.998Z</time></trkpt><trkpt lat="43.87308090277027" lon="12.237564835526666"><ele>765.0</ele><time>2026-04-18T08:24:46.998Z</time></trkpt><trkpt lat="43.872990897433745" lon="12.237428648171651"><ele>764.0</ele><time>2026-04-18T08:24:47.998Z</time></trkpt><trkpt lat="43.8729039632096" lon="12.237293242516914"><ele>764.0</ele><time>2026-04-18T08:24:48.998Z</time></trkpt><trkpt lat="43.872821026042395" lon="12.237169246288177"><ele>764.0</ele><time>2026-04-18T08:24:49.998Z</time></trkpt><trkpt lat="43.87274454437771" lon="12.237074618907283"><ele>764.0</ele><time>2026-04-18T08:24:50.998Z</time></trkpt><trkpt lat="43.872687571953875" lon="12.237012246778498"><ele>764.0</ele><time>2026-04-18T08:24:51.998Z</time></trkpt><trkpt lat="43.872615500208916" lon="12.23693797374897"><ele>764.0</ele><time>2026-04-18T08:24:53.998Z</time></trkpt><trkpt lat="43.87254912997173" lon="12.236962605650707"><ele>767.0</ele><time>2026-04-18T08:24:55.998Z</time></trkpt><trkpt lat="43.872501951551314" lon="12.237100906893211"><ele>770.0</ele><time>2026-04-18T08:24:57.998Z</time></trkpt><trkpt lat="43.872471756462225" lon="12.237190943013484"><ele>773.0</ele><time>2026-04-18T08:24:58.998Z</time></trkpt><trkpt lat="43.87235129317939" lon="12.237276880629128"><ele>776.0</ele><time>2026-04-18T08:25:00.998Z</time></trkpt><trkpt lat="43.87227050440224" lon="12.237313394101603"><ele>779.0</ele><time>2026-04-18T08:25:01.998Z</time></trkpt><trkpt lat="43.87220123264219" lon="12.237327373245448"><ele>779.0000000000001</ele><time>2026-04-18T08:25:02.998Z</time></trkpt><trkpt lat="43.87213811650182" lon="12.23732870620005"><ele>779.0</ele><time>2026-04-18T08:25:03.998Z</time></trkpt><trkpt lat="43.872070665802354" lon="12.237285561691074"><ele>779.0</ele><time>2026-04-18T08:25:04.998Z</time></trkpt><trkpt lat="43.87197447624654" lon="12.237249013035303"><ele>779.0</ele><time>2026-04-18T08:25:05.998Z</time></trkpt><trkpt lat="43.8718899017448" lon="12.23727066059179"><ele>779.0000000000001</ele><time>2026-04-18T08:25:06.998Z</time></trkpt><trkpt lat="43.87182098047106" lon="12.237282319127369"><ele>779.0</ele><time>2026-04-18T08:25:07.998Z</time></trkpt><trkpt lat="43.87175716840648" lon="12.237306921539478"><ele>777.7142857142858</ele><time>2026-04-18T08:25:08.998Z</time></trkpt><trkpt lat="43.871712741658584" lon="12.237369100467848"><ele>776.4285714285714</ele><time>2026-04-18T08:25:09.998Z</time></trkpt><trkpt lat="43.871687776069955" lon="12.237467398511331"><ele>775.1428571428571</ele><time>2026-04-18T08:25:10.998Z</time></trkpt><trkpt lat="43.87168006216584" lon="12.237565542617789"><ele>773.8571428571429</ele><time>2026-04-18T08:25:11.998Z</time></trkpt><trkpt lat="43.871659799443826" lon="12.237675009464068"><ele>772.5714285714286</ele><time>2026-04-18T08:25:13.998Z</time></trkpt><trkpt lat="43.87165468792399" lon="12.237772762688774"><ele>771.2857142857143</ele><time>2026-04-18T08:25:15.998Z</time></trkpt><trkpt lat="43.87162171674998" lon="12.237691231510158"><ele>770.0</ele><time>2026-04-18T08:25:29.998Z</time></trkpt><trkpt lat="43.871544428596195" lon="12.237642583371516"><ele>770.0000000000001</ele><time>2026-04-18T08:25:30.998Z</time></trkpt><trkpt lat="43.87147573473441" lon="12.23761893455647"><ele>770.0</ele><time>2026-04-18T08:25:31.998Z</time></trkpt><trkpt lat="43.87140322080727" lon="12.237589644484286"><ele>770.0</ele><time>2026-04-18T08:25:32.998Z</time></trkpt><trkpt lat="43.87132160387914" lon="12.237552300354883"><ele>770.0</ele><time>2026-04-18T08:25:33.998Z</time></trkpt><trkpt lat="43.871231818222334" lon="12.237496236635426"><ele>770.0000000000001</ele><time>2026-04-18T08:25:34.998Z</time></trkpt><trkpt lat="43.87114563822773" lon="12.237436174704838"><ele>770.0</ele><time>2026-04-18T08:25:35.998Z</time></trkpt><trkpt lat="43.87105674431965" lon="12.237383543769724"><ele>770.0</ele><time>2026-04-18T08:25:36.998Z</time></trkpt><trkpt lat="43.87096103575471" lon="12.237337035789901"><ele>770.0</ele><time>2026-04-18T08:25:37.998Z</time></trkpt><trkpt lat="43.87086170339338" lon="12.237323662465629"><ele>770.0</ele><time>2026-04-18T08:25:38.998Z</time></trkpt><trkpt lat="43.8707627527787" lon="12.237333512692087"><ele>770.0</ele><time>2026-04-18T08:25:39.998Z</time></trkpt><trkpt lat="43.87067057647842" lon="12.237358148726495"><ele>770.0</ele><time>2026-04-18T08:25:40.999Z</time></trkpt><trkpt lat="43.87058588780528" lon="12.237398022066861"><ele>768.0000000000001</ele><time>2026-04-18T08:25:41.999Z</time></trkpt><trkpt lat="43.870509089743045" lon="12.237457357817002"><ele>766.0</ele><time>2026-04-18T08:25:42.999Z</time></trkpt><trkpt lat="43.87045627224005" lon="12.237523708026874"><ele>764.0</ele><time>2026-04-18T08:25:43.999Z</time></trkpt><trkpt lat="43.870416857061734" lon="12.237606477056053"><ele>762.0</ele><time>2026-04-18T08:25:44.999Z</time></trkpt><trkpt lat="43.87037958081582" lon="12.23769506662784"><ele>760.0</ele><time>2026-04-18T08:25:45.999Z</time></trkpt><trkpt lat="43.870340671682754" lon="12.2377835953713"><ele>758.0</ele><time>2026-04-18T08:25:46.999Z</time></trkpt><trkpt lat="43.87029518668601" lon="12.237871912058461"><ele>758.0</ele><time>2026-04-18T08:25:47.999Z</time></trkpt><trkpt lat="43.8702452642838" lon="12.237960875254556"><ele>758.0</ele><time>2026-04-18T08:25:49Z</time></trkpt><trkpt lat="43.8701958133754" lon="12.238034936193605"><ele>758.0</ele><time>2026-04-18T08:25:50Z</time></trkpt><trkpt lat="43.87013231425658" lon="12.238103684734913"><ele>758.0</ele><time>2026-04-18T08:25:51Z</time></trkpt><trkpt lat="43.870072281024875" lon="12.238182824441274"><ele>758.0</ele><time>2026-04-18T08:25:52Z</time></trkpt><trkpt lat="43.87001008482582" lon="12.238297515095"><ele>758.0</ele><time>2026-04-18T08:25:53Z</time></trkpt><trkpt lat="43.869969261131644" lon="12.238413825992309"><ele>757.6666666666666</ele><time>2026-04-18T08:25:54Z</time></trkpt><trkpt lat="43.8699297809548" lon="12.238516427050747"><ele>757.3333333333333</ele><time>2026-04-18T08:25:55Z</time></trkpt><trkpt lat="43.86988284895049" lon="12.238611623003681"><ele>757.0</ele><time>2026-04-18T08:25:56Z</time></trkpt><trkpt lat="43.869832481979365" lon="12.23870364037846"><ele>756.6666666666666</ele><time>2026-04-18T08:25:57Z</time></trkpt><trkpt lat="43.869782345242974" lon="12.238799952287737"><ele>756.3333333333334</ele><time>2026-04-18T08:25:58Z</time></trkpt><trkpt lat="43.8697545296858" lon="12.238896574363208"><ele>756.0</ele><time>2026-04-18T08:25:59Z</time></trkpt><trkpt lat="43.86973791627313" lon="12.239009653178488"><ele>753.5</ele><time>2026-04-18T08:26:00Z</time></trkpt><trkpt lat="43.86970980410488" lon="12.239100800178422"><ele>751.0</ele><time>2026-04-18T08:26:01Z</time></trkpt><trkpt lat="43.869666053716024" lon="12.239164731169458"><ele>748.5</ele><time>2026-04-18T08:26:02Z</time></trkpt><trkpt lat="43.869597127379755" lon="12.239215739803969"><ele>746.0</ele><time>2026-04-18T08:26:03Z</time></trkpt><trkpt lat="43.869516002139456" lon="12.239228646182168"><ele>743.5</ele><time>2026-04-18T08:26:04Z</time></trkpt><trkpt lat="43.869416752111306" lon="12.239220100564586"><ele>741.0</ele><time>2026-04-18T08:26:05Z</time></trkpt><trkpt lat="43.869332801318336" lon="12.239198845114549"><ele>742.8333333333334</ele><time>2026-04-18T08:26:06Z</time></trkpt><trkpt lat="43.86924158084482" lon="12.239183966501827"><ele>744.6666666666666</ele><time>2026-04-18T08:26:07Z</time></trkpt><trkpt lat="43.86916345001679" lon="12.23920557940868"><ele>746.5</ele><time>2026-04-18T08:26:08Z</time></trkpt><trkpt lat="43.86907406626909" lon="12.239223431900875"><ele>748.3333333333333</ele><time>2026-04-18T08:26:09Z</time></trkpt><trkpt lat="43.868986066417285" lon="12.239226899546466"><ele>750.1666666666666</ele><time>2026-04-18T08:26:10Z</time></trkpt><trkpt lat="43.86891102965807" lon="12.239221008006442"><ele>752.0</ele><time>2026-04-18T08:26:11Z</time></trkpt><trkpt lat="43.868837000495986" lon="12.239214726278771"><ele>752.0</ele><time>2026-04-18T08:26:12Z</time></trkpt><trkpt lat="43.86875568498515" lon="12.239217967958064"><ele>752.0</ele><time>2026-04-18T08:26:13Z</time></trkpt><trkpt lat="43.86867559079168" lon="12.239237396623402"><ele>752.0</ele><time>2026-04-18T08:26:14Z</time></trkpt><trkpt lat="43.86860057299936" lon="12.239297405994256"><ele>752.0</ele><time>2026-04-18T08:26:15Z</time></trkpt><trkpt lat="43.86855112029454" lon="12.239395984766379"><ele>752.0</ele><time>2026-04-18T08:26:16Z</time></trkpt><trkpt lat="43.868517406406966" lon="12.239522379777812"><ele>752.0</ele><time>2026-04-18T08:26:17Z</time></trkpt><trkpt lat="43.868488352713655" lon="12.239658892356003"><ele>751.8</ele><time>2026-04-18T08:26:18Z</time></trkpt><trkpt lat="43.868460874998895" lon="12.239813568433574"><ele>751.6</ele><time>2026-04-18T08:26:19Z</time></trkpt><trkpt lat="43.86844658210068" lon="12.23996499785552"><ele>751.4</ele><time>2026-04-18T08:26:20Z</time></trkpt><trkpt lat="43.86843337245133" lon="12.240093259901595"><ele>751.1999999999999</ele><time>2026-04-18T08:26:21Z</time></trkpt><trkpt lat="43.868426175902606" lon="12.240217603965075"><ele>751.0</ele><time>2026-04-18T08:26:23Z</time></trkpt><trkpt lat="43.86839498854086" lon="12.240294052498985"><ele>751.0</ele><time>2026-04-18T08:26:33Z</time></trkpt><trkpt lat="43.868331680308586" lon="12.240277309605695"><ele>751.0</ele><time>2026-04-18T08:26:45Z</time></trkpt><trkpt lat="43.86826558156028" lon="12.240252382601334"><ele>751.0</ele><time>2026-04-18T08:26:46Z</time></trkpt><trkpt lat="43.86818210464777" lon="12.240234565167011"><ele>751.0</ele><time>2026-04-18T08:26:47Z</time></trkpt><trkpt lat="43.868088672838546" lon="12.240227058058188"><ele>751.0</ele><time>2026-04-18T08:26:48Z</time></trkpt><trkpt lat="43.86799438522506" lon="12.240234644743515"><ele>751.0</ele><time>2026-04-18T08:26:49Z</time></trkpt><trkpt lat="43.867900558805374" lon="12.240244514179578"><ele>751.0</ele><time>2026-04-18T08:26:50Z</time></trkpt><trkpt lat="43.867808885288355" lon="12.24025225835825"><ele>751.0</ele><time>2026-04-18T08:26:51Z</time></trkpt><trkpt lat="43.86773270903617" lon="12.240228345177062"><ele>751.0</ele><time>2026-04-18T08:26:52Z</time></trkpt><trkpt lat="43.86762540827491" lon="12.240205765392709"><ele>751.0</ele><time>2026-04-18T08:26:54Z</time></trkpt><trkpt lat="43.867561693228616" lon="12.240245209588034"><ele>751.0</ele><time>2026-04-18T08:26:55Z</time></trkpt><trkpt lat="43.8674972394284" lon="12.240305017782909"><ele>751.0</ele><time>2026-04-18T08:26:56Z</time></trkpt><trkpt lat="43.86743704560656" lon="12.240354993121414"><ele>752.0</ele><time>2026-04-18T08:26:57Z</time></trkpt><trkpt lat="43.8673726822626" lon="12.240384369590767"><ele>753.0</ele><time>2026-04-18T08:26:58Z</time></trkpt><trkpt lat="43.86730523454835" lon="12.240417052205036"><ele>754.0</ele><time>2026-04-18T08:26:59Z</time></trkpt><trkpt lat="43.867232204339544" lon="12.240490913138704"><ele>755.0</ele><time>2026-04-18T08:27:00Z</time></trkpt><trkpt lat="43.86715884898618" lon="12.240594641671342"><ele>756.0</ele><time>2026-04-18T08:27:01Z</time></trkpt><trkpt lat="43.86708663101491" lon="12.240711730182749"><ele>757.0</ele><time>2026-04-18T08:27:02Z</time></trkpt><trkpt lat="43.867023063858085" lon="12.240790000644942"><ele>755.2</ele><time>2026-04-18T08:27:03Z</time></trkpt><trkpt lat="43.86690154976819" lon="12.240770021132793"><ele>753.4000000000001</ele><time>2026-04-18T08:27:04.999Z</time></trkpt><trkpt lat="43.86680108493369" lon="12.240718086678413"><ele>751.5999999999999</ele><time>2026-04-18T08:27:05.999Z</time></trkpt><trkpt lat="43.86669153305816" lon="12.240720400763522"><ele>749.8</ele><time>2026-04-18T08:27:06.999Z</time></trkpt><trkpt lat="43.866594667157976" lon="12.240719792362237"><ele>748.0</ele><time>2026-04-18T08:27:07.999Z</time></trkpt><trkpt lat="43.86649966773053" lon="12.240732215415282"><ele>748.0</ele><time>2026-04-18T08:27:08.999Z</time></trkpt><trkpt lat="43.86642150610304" lon="12.24077238360959"><ele>748.0</ele><time>2026-04-18T08:27:09.999Z</time></trkpt><trkpt lat="43.86635199245475" lon="12.24082105729777"><ele>748.0</ele><time>2026-04-18T08:27:10.999Z</time></trkpt><trkpt lat="43.86628474145337" lon="12.24095305223878"><ele>748.0</ele><time>2026-04-18T08:27:12.999Z</time></trkpt><trkpt lat="43.86626128646199" lon="12.241102638119887"><ele>748.0</ele><time>2026-04-18T08:27:13.999Z</time></trkpt><trkpt lat="43.866262444723304" lon="12.241249513928246"><ele>748.0</ele><time>2026-04-18T08:27:14.999Z</time></trkpt><trkpt lat="43.8662455371094" lon="12.241343919602581"><ele>748.0</ele><time>2026-04-18T08:27:15.999Z</time></trkpt><trkpt lat="43.86619494752289" lon="12.241403756879885"><ele>748.0</ele><time>2026-04-18T08:27:16.999Z</time></trkpt><trkpt lat="43.86613331630562" lon="12.241457315900094"><ele>748.0</ele><time>2026-04-18T08:27:17.999Z</time></trkpt><trkpt lat="43.86601980431449" lon="12.241508879059769"><ele>748.0</ele><time>2026-04-18T08:27:19.999Z</time></trkpt><trkpt lat="43.86597389031395" lon="12.241584723765346"><ele>748.0</ele><time>2026-04-18T08:27:20.999Z</time></trkpt><trkpt lat="43.865928387652964" lon="12.241707846313211"><ele>748.0</ele><time>2026-04-18T08:27:21.999Z</time></trkpt><trkpt lat="43.86589611366395" lon="12.24185293461452"><ele>748.0</ele><time>2026-04-18T08:27:22.999Z</time></trkpt><trkpt lat="43.86583947982562" lon="12.241993636434472"><ele>748.0</ele><time>2026-04-18T08:27:23.999Z</time></trkpt><trkpt lat="43.86577157763953" lon="12.242080328737444"><ele>748.0</ele><time>2026-04-18T08:27:24.999Z</time></trkpt><trkpt lat="43.865709948300925" lon="12.242171248523954"><ele>748.0</ele><time>2026-04-18T08:27:25.999Z</time></trkpt><trkpt lat="43.86568749637489" lon="12.242296897078877"><ele>744.1666666666667</ele><time>2026-04-18T08:27:26.999Z</time></trkpt><trkpt lat="43.86565325824769" lon="12.242418831936712"><ele>740.3333333333334</ele><time>2026-04-18T08:27:27.999Z</time></trkpt><trkpt lat="43.865596416577816" lon="12.242479042195168"><ele>736.5</ele><time>2026-04-18T08:27:28.999Z</time></trkpt><trkpt lat="43.86553283393387" lon="12.242498870385848"><ele>732.6666666666666</ele><time>2026-04-18T08:27:29.999Z</time></trkpt><trkpt lat="43.86544766278092" lon="12.242478637975621"><ele>728.8333333333333</ele><time>2026-04-18T08:27:31.999Z</time></trkpt><trkpt lat="43.865346243704394" lon="12.242454426879737"><ele>725.0</ele><time>2026-04-18T08:27:33.999Z</time></trkpt><trkpt lat="43.865246376704675" lon="12.24248333064638"><ele>725.0</ele><time>2026-04-18T08:27:35.999Z</time></trkpt><trkpt lat="43.86516731830803" lon="12.242528454294623"><ele>725.0</ele><time>2026-04-18T08:27:37.999Z</time></trkpt><trkpt lat="43.865116882262456" lon="12.24260613463424"><ele>725.0</ele><time>2026-04-18T08:27:38.999Z</time></trkpt><trkpt lat="43.865075803646064" lon="12.24275345953934"><ele>725.0</ele><time>2026-04-18T08:27:39.999Z</time></trkpt><trkpt lat="43.86504732975965" lon="12.242854153946952"><ele>725.0</ele><time>2026-04-18T08:27:40.999Z</time></trkpt><trkpt lat="43.86500601915978" lon="12.242965814544203"><ele>725.0</ele><time>2026-04-18T08:27:41.999Z</time></trkpt><trkpt lat="43.864961426088534" lon="12.2430488475324"><ele>723.8333333333333</ele><time>2026-04-18T08:27:42.999Z</time></trkpt><trkpt lat="43.86491241481055" lon="12.243144196148574"><ele>722.6666666666666</ele><time>2026-04-18T08:27:43.999Z</time></trkpt><trkpt lat="43.86484447641378" lon="12.243253060849488"><ele>721.5</ele><time>2026-04-18T08:27:44.999Z</time></trkpt><trkpt lat="43.86477358884721" lon="12.243320497118576"><ele>720.3333333333334</ele><time>2026-04-18T08:27:45.999Z</time></trkpt><trkpt lat="43.86471250739978" lon="12.243415058059343"><ele>719.1666666666667</ele><time>2026-04-18T08:27:48Z</time></trkpt><trkpt lat="43.86468335088079" lon="12.243494381272614"><ele>718.0</ele><time>2026-04-18T08:27:50Z</time></trkpt><trkpt lat="43.86474644617685" lon="12.243543077777039"><ele>718.0</ele><time>2026-04-18T08:27:56Z</time></trkpt><trkpt lat="43.86480306699349" lon="12.243607995188366"><ele>718.0</ele><time>2026-04-18T08:27:58Z</time></trkpt><trkpt lat="43.864880688217184" lon="12.243735510869682"><ele>718.0</ele><time>2026-04-18T08:28:00Z</time></trkpt><trkpt lat="43.86495280234064" lon="12.243849690601296"><ele>718.0</ele><time>2026-04-18T08:28:02Z</time></trkpt><trkpt lat="43.8649370881619" lon="12.243957531154278"><ele>718.0</ele><time>2026-04-18T08:28:04Z</time></trkpt><trkpt lat="43.86484410813177" lon="12.244073845050297"><ele>715.4</ele><time>2026-04-18T08:28:06Z</time></trkpt><trkpt lat="43.86475915701197" lon="12.244159686735749"><ele>712.8</ele><time>2026-04-18T08:28:08Z</time></trkpt><trkpt lat="43.864756210772406" lon="12.244282858904583"><ele>710.2</ele><time>2026-04-18T08:28:10Z</time></trkpt><trkpt lat="43.864793094631786" lon="12.244360511149383"><ele>707.6</ele><time>2026-04-18T08:28:11Z</time></trkpt><trkpt lat="43.86485522543559" lon="12.24446016194674"><ele>705.0</ele><time>2026-04-18T08:28:12Z</time></trkpt><trkpt lat="43.864932168707" lon="12.24454416908712"><ele>705.0</ele><time>2026-04-18T08:28:13Z</time></trkpt><trkpt lat="43.864998284238624" lon="12.244612181988058"><ele>705.0</ele><time>2026-04-18T08:28:14Z</time></trkpt><trkpt lat="43.86503092424223" lon="12.24471211586606"><ele>705.0</ele><time>2026-04-18T08:28:16Z</time></trkpt><trkpt lat="43.86497448960622" lon="12.244755954670895"><ele>705.0</ele><time>2026-04-18T08:28:17Z</time></trkpt><trkpt lat="43.86488435176039" lon="12.244801598834666"><ele>705.0</ele><time>2026-04-18T08:28:18Z</time></trkpt><trkpt lat="43.86476591752346" lon="12.24484074151995"><ele>705.0</ele><time>2026-04-18T08:28:19Z</time></trkpt><trkpt lat="43.8646351728714" lon="12.24487094220088"><ele>704.2</ele><time>2026-04-18T08:28:20Z</time></trkpt><trkpt lat="43.86453262907288" lon="12.244904164282952"><ele>703.4</ele><time>2026-04-18T08:28:21Z</time></trkpt><trkpt lat="43.8644331422002" lon="12.2449012585145"><ele>702.5999999999999</ele><time>2026-04-18T08:28:22Z</time></trkpt><trkpt lat="43.86435168759993" lon="12.244868573581542"><ele>701.8</ele><time>2026-04-18T08:28:23Z</time></trkpt><trkpt lat="43.86427672045285" lon="12.244834023156827"><ele>701.0</ele><time>2026-04-18T08:28:24Z</time></trkpt><trkpt lat="43.86417237883821" lon="12.244795133042107"><ele>701.0</ele><time>2026-04-18T08:28:26Z</time></trkpt><trkpt lat="43.86403794434235" lon="12.244786500625978"><ele>701.0</ele><time>2026-04-18T08:28:28Z</time></trkpt><trkpt lat="43.863971662168716" lon="12.24481795288886"><ele>701.0</ele><time>2026-04-18T08:28:29Z</time></trkpt><trkpt lat="43.86391125833315" lon="12.244847352443305"><ele>701.0</ele><time>2026-04-18T08:28:30Z</time></trkpt><trkpt lat="43.86382384134265" lon="12.244959226834174"><ele>701.0</ele><time>2026-04-18T08:28:32Z</time></trkpt><trkpt lat="43.863818238282924" lon="12.245067579874204"><ele>698.0</ele><time>2026-04-18T08:28:34Z</time></trkpt><trkpt lat="43.86372303716982" lon="12.245275908199686"><ele>695.0</ele><time>2026-04-18T08:28:36Z</time></trkpt><trkpt lat="43.86362949382049" lon="12.245388651495164"><ele>692.0</ele><time>2026-04-18T08:28:37Z</time></trkpt><trkpt lat="43.86354335184603" lon="12.245464149912783"><ele>689.0</ele><time>2026-04-18T08:28:38Z</time></trkpt><trkpt lat="43.86348336478773" lon="12.245588706487972"><ele>687.2</ele><time>2026-04-18T08:28:40Z</time></trkpt><trkpt lat="43.86339041523974" lon="12.24571458035356"><ele>685.4000000000001</ele><time>2026-04-18T08:28:42Z</time></trkpt><trkpt lat="43.863304839996346" lon="12.245759680574492"><ele>683.6</ele><time>2026-04-18T08:28:43Z</time></trkpt><trkpt lat="43.86322140621837" lon="12.24581069832276"><ele>681.8</ele><time>2026-04-18T08:28:44Z</time></trkpt><trkpt lat="43.863165744341046" lon="12.245877533653102"><ele>680.0</ele><time>2026-04-18T08:28:45Z</time></trkpt><trkpt lat="43.86313244376329" lon="12.245973143614153"><ele>680.0</ele><time>2026-04-18T08:28:46Z</time></trkpt><trkpt lat="43.863094201247605" lon="12.246071520639168"><ele>680.0</ele><time>2026-04-18T08:28:47Z</time></trkpt><trkpt lat="43.86304725505308" lon="12.246160292169431"><ele>680.0</ele><time>2026-04-18T08:28:48Z</time></trkpt><trkpt lat="43.86299055797314" lon="12.246253905091606"><ele>680.0</ele><time>2026-04-18T08:28:49Z</time></trkpt><trkpt lat="43.862953761790415" lon="12.246337931285755"><ele>680.0</ele><time>2026-04-18T08:28:50Z</time></trkpt><trkpt lat="43.86293725420269" lon="12.246428631715995"><ele>680.0</ele><time>2026-04-18T08:28:52Z</time></trkpt><trkpt lat="43.862913395559595" lon="12.246522728262963"><ele>678.4</ele><time>2026-04-18T08:28:54Z</time></trkpt><trkpt lat="43.86285883866882" lon="12.246578289139503"><ele>676.8</ele><time>2026-04-18T08:28:55Z</time></trkpt><trkpt lat="43.862800046417775" lon="12.246655905806136"><ele>675.2</ele><time>2026-04-18T08:28:56Z</time></trkpt><trkpt lat="43.862749756527" lon="12.246755007536954"><ele>673.6</ele><time>2026-04-18T08:28:57Z</time></trkpt><trkpt lat="43.86269229634698" lon="12.246908011488907"><ele>672.0</ele><time>2026-04-18T08:28:58Z</time></trkpt><trkpt lat="43.862636040136785" lon="12.247052448661622"><ele>672.0</ele><time>2026-04-18T08:28:59Z</time></trkpt><trkpt lat="43.86261719870337" lon="12.247176059280141"><ele>672.0</ele><time>2026-04-18T08:29:00Z</time></trkpt><trkpt lat="43.862650608693244" lon="12.247261801003463"><ele>672.0</ele><time>2026-04-18T08:29:01Z</time></trkpt><trkpt lat="43.86266026214925" lon="12.2473768332057"><ele>672.0</ele><time>2026-04-18T08:29:02Z</time></trkpt><trkpt lat="43.86263836802457" lon="12.247486181541284"><ele>672.0</ele><time>2026-04-18T08:29:03Z</time></trkpt><trkpt lat="43.8626083504572" lon="12.24759338455064"><ele>672.0</ele><time>2026-04-18T08:29:04Z</time></trkpt><trkpt lat="43.862587203285095" lon="12.24774086237507"><ele>672.4000000000001</ele><time>2026-04-18T08:29:06Z</time></trkpt><trkpt lat="43.8625802709361" lon="12.247875298756504"><ele>672.8000000000001</ele><time>2026-04-18T08:29:06.999Z</time></trkpt><trkpt lat="43.86258181551162" lon="12.248015598485486"><ele>673.2</ele><time>2026-04-18T08:29:07.999Z</time></trkpt><trkpt lat="43.862579235333925" lon="12.248180042847784"><ele>673.6</ele><time>2026-04-18T08:29:08.999Z</time></trkpt><trkpt lat="43.86258361744648" lon="12.248328423360556"><ele>674.0</ele><time>2026-04-18T08:29:09.999Z</time></trkpt><trkpt lat="43.86258276332287" lon="12.248431994885289"><ele>671.0</ele><time>2026-04-18T08:29:10.999Z</time></trkpt><trkpt lat="43.862633454799735" lon="12.24859965360207"><ele>668.0</ele><time>2026-04-18T08:29:12.999Z</time></trkpt><trkpt lat="43.86266445317315" lon="12.248729070183504"><ele>665.0</ele><time>2026-04-18T08:29:13.999Z</time></trkpt><trkpt lat="43.862688988726035" lon="12.248837948831355"><ele>662.0</ele><time>2026-04-18T08:29:14.999Z</time></trkpt><trkpt lat="43.86272172078994" lon="12.248939007312343"><ele>659.0</ele><time>2026-04-18T08:29:15.999Z</time></trkpt><trkpt lat="43.862781526557235" lon="12.248985041159989"><ele>658.0</ele><time>2026-04-18T08:29:16.999Z</time></trkpt><trkpt lat="43.86285890419964" lon="12.249088256645608"><ele>657.0</ele><time>2026-04-18T08:29:18.999Z</time></trkpt><trkpt lat="43.86283879002396" lon="12.249187698970289"><ele>656.0</ele><time>2026-04-18T08:29:19.999Z</time></trkpt><trkpt lat="43.86278870699979" lon="12.249310780077987"><ele>655.0</ele><time>2026-04-18T08:29:20.999Z</time></trkpt><trkpt lat="43.86273339205269" lon="12.249444010936081"><ele>654.0</ele><time>2026-04-18T08:29:21.999Z</time></trkpt><trkpt lat="43.86268379189275" lon="12.249598048143923"><ele>654.0</ele><time>2026-04-18T08:29:22.999Z</time></trkpt><trkpt lat="43.86262952611968" lon="12.249772903085825"><ele>654.0</ele><time>2026-04-18T08:29:23.999Z</time></trkpt><trkpt lat="43.86257397682875" lon="12.249959224485462"><ele>654.0</ele><time>2026-04-18T08:29:24.999Z</time></trkpt><trkpt lat="43.86252461193977" lon="12.2501273627001"><ele>654.0</ele><time>2026-04-18T08:29:25.999Z</time></trkpt><trkpt lat="43.86248182604426" lon="12.250295966343216"><ele>653.75</ele><time>2026-04-18T08:29:26.999Z</time></trkpt><trkpt lat="43.862444523661864" lon="12.250452177610377"><ele>653.5</ele><time>2026-04-18T08:29:27.999Z</time></trkpt><trkpt lat="43.86240745705473" lon="12.250613263671584"><ele>653.25</ele><time>2026-04-18T08:29:28.999Z</time></trkpt><trkpt lat="43.86237393962657" lon="12.250759376518474"><ele>653.0</ele><time>2026-04-18T08:29:29.999Z</time></trkpt><trkpt lat="43.86235356171591" lon="12.25092131510112"><ele>651.25</ele><time>2026-04-18T08:29:30.999Z</time></trkpt><trkpt lat="43.86233185342838" lon="12.251095497844727"><ele>649.5</ele><time>2026-04-18T08:29:31.999Z</time></trkpt><trkpt lat="43.86231944183711" lon="12.251279997398566"><ele>647.75</ele><time>2026-04-18T08:29:32.999Z</time></trkpt><trkpt lat="43.8623028565931" lon="12.251449917341324"><ele>646.0</ele><time>2026-04-18T08:29:33.999Z</time></trkpt><trkpt lat="43.862283574499344" lon="12.25162043324429"><ele>642.6666666666667</ele><time>2026-04-18T08:29:34.999Z</time></trkpt><trkpt lat="43.86225997153664" lon="12.251828439889932"><ele>639.3333333333334</ele><time>2026-04-18T08:29:35.999Z</time></trkpt><trkpt lat="43.86223278723511" lon="12.252065603235716"><ele>636.0</ele><time>2026-04-18T08:29:36.999Z</time></trkpt><trkpt lat="43.862200398241335" lon="12.25230312426802"><ele>635.3333333333334</ele><time>2026-04-18T08:29:37.999Z</time></trkpt><trkpt lat="43.862163101724434" lon="12.252524238728009"><ele>634.6666666666667</ele><time>2026-04-18T08:29:38.999Z</time></trkpt><trkpt lat="43.862121592398445" lon="12.25271785667143"><ele>634.0</ele><time>2026-04-18T08:29:39.999Z</time></trkpt><trkpt lat="43.862082449676564" lon="12.252908025216847"><ele>634.0</ele><time>2026-04-18T08:29:40.999Z</time></trkpt><trkpt lat="43.86204204689602" lon="12.253071568064632"><ele>634.0</ele><time>2026-04-18T08:29:41.999Z</time></trkpt><trkpt lat="43.86202150796239" lon="12.253214032374812"><ele>634.0</ele><time>2026-04-18T08:29:42.999Z</time></trkpt><trkpt lat="43.86203331631223" lon="12.25333716985373"><ele>634.0</ele><time>2026-04-18T08:29:43.999Z</time></trkpt><trkpt lat="43.86202910907634" lon="12.253507529009322"><ele>634.0</ele><time>2026-04-18T08:29:44.999Z</time></trkpt><trkpt lat="43.86201777175864" lon="12.253666137362154"><ele>634.2</ele><time>2026-04-18T08:29:45.999Z</time></trkpt><trkpt lat="43.8619952061942" lon="12.25381382905863"><ele>634.4</ele><time>2026-04-18T08:29:46.999Z</time></trkpt><trkpt lat="43.861954556670916" lon="12.253920918855595"><ele>634.6</ele><time>2026-04-18T08:29:47.999Z</time></trkpt><trkpt lat="43.861895527394225" lon="12.254002089025827"><ele>634.8</ele><time>2026-04-18T08:29:48.999Z</time></trkpt><trkpt lat="43.86182627589063" lon="12.254070549085695"><ele>635.0</ele><time>2026-04-18T08:29:49.999Z</time></trkpt><trkpt lat="43.861725597644615" lon="12.254173718074247"><ele>635.6666666666666</ele><time>2026-04-18T08:29:50.999Z</time></trkpt><trkpt lat="43.86163135306874" lon="12.254249959517864"><ele>636.3333333333333</ele><time>2026-04-18T08:29:51.999Z</time></trkpt><trkpt lat="43.86154632133956" lon="12.254320945049109"><ele>637.0</ele><time>2026-04-18T08:29:53Z</time></trkpt><trkpt lat="43.861473071987334" lon="12.254360336135782"><ele>637.6666666666666</ele><time>2026-04-18T08:29:54Z</time></trkpt><trkpt lat="43.86139325216303" lon="12.254387237031667"><ele>638.3333333333334</ele><time>2026-04-18T08:29:55Z</time></trkpt><trkpt lat="43.86133967985127" lon="12.25444229781533"><ele>639.0</ele><time>2026-04-18T08:29:56Z</time></trkpt><trkpt lat="43.86132291588448" lon="12.254537687101323"><ele>639.0</ele><time>2026-04-18T08:29:57Z</time></trkpt><trkpt lat="43.86133557794145" lon="12.254673159831913"><ele>639.0</ele><time>2026-04-18T08:29:58Z</time></trkpt><trkpt lat="43.86135620669794" lon="12.254810744622432"><ele>639.0</ele><time>2026-04-18T08:29:59Z</time></trkpt><trkpt lat="43.86137453113419" lon="12.2549320479311"><ele>639.0</ele><time>2026-04-18T08:30:00Z</time></trkpt><trkpt lat="43.861381419653014" lon="12.255031400558739"><ele>639.0</ele><time>2026-04-18T08:30:01Z</time></trkpt><trkpt lat="43.861378003262594" lon="12.255123753520202"><ele>639.0</ele><time>2026-04-18T08:30:02Z</time></trkpt><trkpt lat="43.8613563938913" lon="12.255242013148347"><ele>638.0</ele><time>2026-04-18T08:30:03Z</time></trkpt><trkpt lat="43.8612937573559" lon="12.255382466681267"><ele>637.0</ele><time>2026-04-18T08:30:04Z</time></trkpt><trkpt lat="43.86119501129021" lon="12.255514968820812"><ele>636.0</ele><time>2026-04-18T08:30:05Z</time></trkpt><trkpt lat="43.8610977648665" lon="12.255612492528442"><ele>635.0</ele><time>2026-04-18T08:30:06Z</time></trkpt><trkpt lat="43.86104026799045" lon="12.255711104099824"><ele>632.8333333333333</ele><time>2026-04-18T08:30:07Z</time></trkpt><trkpt lat="43.861019222838834" lon="12.255844492027116"><ele>630.6666666666666</ele><time>2026-04-18T08:30:08Z</time></trkpt><trkpt lat="43.86100277562966" lon="12.25598701055242"><ele>628.5</ele><time>2026-04-18T08:30:09Z</time></trkpt><trkpt lat="43.86097370606134" lon="12.256094741897567"><ele>626.3333333333334</ele><time>2026-04-18T08:30:10Z</time></trkpt><trkpt lat="43.8609164258988" lon="12.256142141543817"><ele>624.1666666666667</ele><time>2026-04-18T08:30:11Z</time></trkpt><trkpt lat="43.86082631198553" lon="12.256162577854914"><ele>622.0</ele><time>2026-04-18T08:30:12Z</time></trkpt><trkpt lat="43.86071061609824" lon="12.256163258113505"><ele>622.0</ele><time>2026-04-18T08:30:13Z</time></trkpt><trkpt lat="43.860601937513515" lon="12.25616756514805"><ele>622.0</ele><time>2026-04-18T08:30:14Z</time></trkpt><trkpt lat="43.86050961348484" lon="12.25621506871568"><ele>622.0</ele><time>2026-04-18T08:30:15Z</time></trkpt><trkpt lat="43.860431721394676" lon="12.256323232798103"><ele>622.0</ele><time>2026-04-18T08:30:16Z</time></trkpt><trkpt lat="43.86033936483286" lon="12.256436183350031"><ele>622.0</ele><time>2026-04-18T08:30:17Z</time></trkpt><trkpt lat="43.86022817674099" lon="12.256504890812044"><ele>619.2</ele><time>2026-04-18T08:30:18Z</time></trkpt><trkpt lat="43.86012194571629" lon="12.256533499033218"><ele>616.4000000000001</ele><time>2026-04-18T08:30:19Z</time></trkpt><trkpt lat="43.86002010308145" lon="12.256520067379284"><ele>613.5999999999999</ele><time>2026-04-18T08:30:20Z</time></trkpt><trkpt lat="43.85992476488541" lon="12.25650968608273"><ele>610.8</ele><time>2026-04-18T08:30:21Z</time></trkpt><trkpt lat="43.85983771083346" lon="12.256568871470657"><ele>608.0</ele><time>2026-04-18T08:30:22Z</time></trkpt><trkpt lat="43.859763975582545" lon="12.25668889406532"><ele>607.75</ele><time>2026-04-18T08:30:23Z</time></trkpt><trkpt lat="43.85969356292892" lon="12.256828353040463"><ele>607.5</ele><time>2026-04-18T08:30:24Z</time></trkpt><trkpt lat="43.85962412747899" lon="12.256913303956713"><ele>607.25</ele><time>2026-04-18T08:30:25Z</time></trkpt><trkpt lat="43.85952478367498" lon="12.256970714612166"><ele>607.0</ele><time>2026-04-18T08:30:26Z</time></trkpt><trkpt lat="43.85941349971002" lon="12.257064619493413"><ele>607.0</ele><time>2026-04-18T08:30:27Z</time></trkpt><trkpt lat="43.85932838857871" lon="12.257193251390213"><ele>607.0</ele><time>2026-04-18T08:30:28Z</time></trkpt><trkpt lat="43.859290462785644" lon="12.25736017185682"><ele>607.0</ele><time>2026-04-18T08:30:29Z</time></trkpt><trkpt lat="43.85923878303946" lon="12.25754285033846"><ele>607.0</ele><time>2026-04-18T08:30:30Z</time></trkpt><trkpt lat="43.859182846316976" lon="12.257695210946698"><ele>605.0</ele><time>2026-04-18T08:30:31Z</time></trkpt><trkpt lat="43.859145286352025" lon="12.257804588753006"><ele>603.0</ele><time>2026-04-18T08:30:32Z</time></trkpt><trkpt lat="43.8590915525284" lon="12.257894543393935"><ele>601.0</ele><time>2026-04-18T08:30:33Z</time></trkpt><trkpt lat="43.85901462939725" lon="12.257951959625814"><ele>599.0</ele><time>2026-04-18T08:30:34Z</time></trkpt><trkpt lat="43.858903990907" lon="12.257943579395988"><ele>597.0</ele><time>2026-04-18T08:30:35Z</time></trkpt><trkpt lat="43.8587935789198" lon="12.257927896941096"><ele>597.0</ele><time>2026-04-18T08:30:36Z</time></trkpt><trkpt lat="43.858684330558006" lon="12.257947675845891"><ele>597.0</ele><time>2026-04-18T08:30:37Z</time></trkpt><trkpt lat="43.85860538398063" lon="12.258024706115656"><ele>597.0</ele><time>2026-04-18T08:30:38Z</time></trkpt><trkpt lat="43.8585448066757" lon="12.258113687416735"><ele>597.0</ele><time>2026-04-18T08:30:39Z</time></trkpt><trkpt lat="43.858467535168025" lon="12.258204507470365"><ele>597.0</ele><time>2026-04-18T08:30:40Z</time></trkpt><trkpt lat="43.85837569579608" lon="12.258311355783759"><ele>592.25</ele><time>2026-04-18T08:30:41Z</time></trkpt><trkpt lat="43.85826060739291" lon="12.25838939650104"><ele>587.5</ele><time>2026-04-18T08:30:42Z</time></trkpt><trkpt lat="43.8581494487233" lon="12.25846634054257"><ele>582.75</ele><time>2026-04-18T08:30:43Z</time></trkpt><trkpt lat="43.858071616232614" lon="12.258560629951491"><ele>578.0</ele><time>2026-04-18T08:30:44Z</time></trkpt><trkpt lat="43.8580048354966" lon="12.258654569398233"><ele>578.0</ele><time>2026-04-18T08:30:45Z</time></trkpt><trkpt lat="43.85792543411159" lon="12.258695473764975"><ele>578.0</ele><time>2026-04-18T08:30:46Z</time></trkpt><trkpt lat="43.85784347805161" lon="12.258668861297329"><ele>578.0</ele><time>2026-04-18T08:30:47Z</time></trkpt><trkpt lat="43.857778314727746" lon="12.258621635018208"><ele>578.0</ele><time>2026-04-18T08:30:48Z</time></trkpt><trkpt lat="43.85773780673913" lon="12.258726203822912"><ele>578.0</ele><time>2026-04-18T08:30:50Z</time></trkpt><trkpt lat="43.857764560308794" lon="12.258817379490216"><ele>578.0</ele><time>2026-04-18T08:30:51Z</time></trkpt><trkpt lat="43.85782310530061" lon="12.2589117631515"><ele>576.8333333333333</ele><time>2026-04-18T08:30:52Z</time></trkpt><trkpt lat="43.85789581315816" lon="12.259036358354079"><ele>575.6666666666666</ele><time>2026-04-18T08:30:53Z</time></trkpt><trkpt lat="43.857933104297594" lon="12.2591559236862"><ele>574.5</ele><time>2026-04-18T08:30:54Z</time></trkpt><trkpt lat="43.85797087546652" lon="12.25924705172952"><ele>573.3333333333334</ele><time>2026-04-18T08:30:55Z</time></trkpt><trkpt lat="43.858009422824466" lon="12.259320739601185"><ele>572.1666666666667</ele><time>2026-04-18T08:30:56Z</time></trkpt><trkpt lat="43.85805515643396" lon="12.259391530209673"><ele>571.0</ele><time>2026-04-18T08:30:57Z</time></trkpt><trkpt lat="43.858094677426585" lon="12.259461585044573"><ele>571.0</ele><time>2026-04-18T08:30:58Z</time></trkpt><trkpt lat="43.858140086296814" lon="12.259535378592357"><ele>571.0</ele><time>2026-04-18T08:30:59Z</time></trkpt><trkpt lat="43.85817644956163" lon="12.259606881242446"><ele>571.0</ele><time>2026-04-18T08:31:00Z</time></trkpt><trkpt lat="43.85820818589398" lon="12.25969295352961"><ele>571.0</ele><time>2026-04-18T08:31:01Z</time></trkpt><trkpt lat="43.85818279808995" lon="12.259814244871302"><ele>571.0</ele><time>2026-04-18T08:31:02Z</time></trkpt><trkpt lat="43.85820775749034" lon="12.259937208479421"><ele>571.0</ele><time>2026-04-18T08:31:03Z</time></trkpt><trkpt lat="43.858229601071905" lon="12.260049502588513"><ele>568.0</ele><time>2026-04-18T08:31:04Z</time></trkpt><trkpt lat="43.85824657464115" lon="12.260154696177649"><ele>565.0</ele><time>2026-04-18T08:31:05Z</time></trkpt><trkpt lat="43.85825788638185" lon="12.260258214254957"><ele>562.0</ele><time>2026-04-18T08:31:06Z</time></trkpt><trkpt lat="43.8582602486013" lon="12.260351818912948"><ele>559.0</ele><time>2026-04-18T08:31:07Z</time></trkpt><trkpt lat="43.85825000717498" lon="12.260518279487098"><ele>556.0</ele><time>2026-04-18T08:31:09Z</time></trkpt><trkpt lat="43.858233086448465" lon="12.260671407853511"><ele>554.2</ele><time>2026-04-18T08:31:11Z</time></trkpt><trkpt lat="43.858219664873666" lon="12.260807196793692"><ele>552.4000000000001</ele><time>2026-04-18T08:31:13Z</time></trkpt><trkpt lat="43.85821520632075" lon="12.260956019796607"><ele>550.6</ele><time>2026-04-18T08:31:15Z</time></trkpt><trkpt lat="43.85821199708303" lon="12.261055985633341"><ele>548.8000000000001</ele><time>2026-04-18T08:31:16Z</time></trkpt><trkpt lat="43.85819659094553" lon="12.261228128178937"><ele>547.0</ele><time>2026-04-18T08:31:18Z</time></trkpt><trkpt lat="43.85817681845576" lon="12.261362187759149"><ele>546.0</ele><time>2026-04-18T08:31:19.999Z</time></trkpt><trkpt lat="43.85815477192882" lon="12.26158076575688"><ele>545.0</ele><time>2026-04-18T08:32:01Z</time></trkpt><trkpt lat="43.85810513399116" lon="12.261668051810595"><ele>544.0</ele><time>2026-04-18T08:32:02Z</time></trkpt><trkpt lat="43.85801526289733" lon="12.26168652414958"><ele>543.0</ele><time>2026-04-18T08:32:03Z</time></trkpt><trkpt lat="43.85796533810877" lon="12.261750278073729"><ele>542.0</ele><time>2026-04-18T08:32:04Z</time></trkpt><trkpt lat="43.85788013224634" lon="12.261858440825394"><ele>542.0</ele><time>2026-04-18T08:32:06Z</time></trkpt><trkpt lat="43.85787360550718" lon="12.261962035014133"><ele>542.0</ele><time>2026-04-18T08:32:07Z</time></trkpt><trkpt lat="43.85792231846292" lon="12.262070290422942"><ele>542.0</ele><time>2026-04-18T08:32:08Z</time></trkpt><trkpt lat="43.85802099896661" lon="12.262105304345104"><ele>542.0</ele><time>2026-04-18T08:32:09Z</time></trkpt><trkpt lat="43.85814356677073" lon="12.262015096833787"><ele>542.0</ele><time>2026-04-18T08:32:10Z</time></trkpt><trkpt lat="43.85825655999948" lon="12.26197358493284"><ele>542.0</ele><time>2026-04-18T08:32:11Z</time></trkpt><trkpt lat="43.858354368445475" lon="12.261954257592338"><ele>542.0</ele><time>2026-04-18T08:32:12Z</time></trkpt><trkpt lat="43.85845969362089" lon="12.261986884945463"><ele>542.0</ele><time>2026-04-18T08:32:14Z</time></trkpt><trkpt lat="43.85846686403642" lon="12.262081160565696"><ele>542.0</ele><time>2026-04-18T08:32:16Z</time></trkpt><trkpt lat="43.85843369894692" lon="12.262202824746192"><ele>542.0</ele><time>2026-04-18T08:32:18Z</time></trkpt><trkpt lat="43.858349044710025" lon="12.262275984194973"><ele>540.0</ele><time>2026-04-18T08:32:19Z</time></trkpt><trkpt lat="43.85827896208484" lon="12.26240303526718"><ele>538.0</ele><time>2026-04-18T08:32:20Z</time></trkpt><trkpt lat="43.858208618612146" lon="12.262540925242586"><ele>536.0</ele><time>2026-04-18T08:32:21Z</time></trkpt><trkpt lat="43.85814882942225" lon="12.26266378442749"><ele>534.0</ele><time>2026-04-18T08:32:22Z</time></trkpt><trkpt lat="43.858106244161846" lon="12.26276362704091"><ele>532.0</ele><time>2026-04-18T08:32:23Z</time></trkpt><trkpt lat="43.85807497552622" lon="12.262859740695013"><ele>532.0</ele><time>2026-04-18T08:32:24Z</time></trkpt><trkpt lat="43.858070116379764" lon="12.262974160202981"><ele>532.0</ele><time>2026-04-18T08:32:25Z</time></trkpt><trkpt lat="43.858123812476116" lon="12.263063288239271"><ele>532.0</ele><time>2026-04-18T08:32:26Z</time></trkpt><trkpt lat="43.85816608172661" lon="12.263143334352124"><ele>532.0</ele><time>2026-04-18T08:32:27Z</time></trkpt><trkpt lat="43.858263244281225" lon="12.263185809935603"><ele>532.0</ele><time>2026-04-18T08:32:28Z</time></trkpt><trkpt lat="43.85829909472588" lon="12.263294426174431"><ele>532.0</ele><time>2026-04-18T08:32:29Z</time></trkpt><trkpt lat="43.85830196823922" lon="12.263415585664507"><ele>529.6</ele><time>2026-04-18T08:32:30Z</time></trkpt><trkpt lat="43.85831323905346" lon="12.263537130949867"><ele>527.2</ele><time>2026-04-18T08:32:31Z</time></trkpt><trkpt lat="43.85824066918084" lon="12.263658855842063"><ele>524.8</ele><time>2026-04-18T08:32:32Z</time></trkpt><trkpt lat="43.858192082192716" lon="12.263781143358782"><ele>522.4</ele><time>2026-04-18T08:32:33Z</time></trkpt><trkpt lat="43.85813891566988" lon="12.26390015051299"><ele>520.0</ele><time>2026-04-18T08:32:34Z</time></trkpt><trkpt lat="43.858077435106324" lon="12.263991984379585"><ele>518.0</ele><time>2026-04-18T08:32:35Z</time></trkpt><trkpt lat="43.858002942015545" lon="12.264044548219584"><ele>516.0</ele><time>2026-04-18T08:32:36Z</time></trkpt><trkpt lat="43.85790352498188" lon="12.264067248060467"><ele>514.0</ele><time>2026-04-18T08:32:37Z</time></trkpt><trkpt lat="43.857805822655976" lon="12.264072267076854"><ele>512.0</ele><time>2026-04-18T08:32:38Z</time></trkpt><trkpt lat="43.85768433856628" lon="12.264066391584029"><ele>510.0</ele><time>2026-04-18T08:32:39Z</time></trkpt><trkpt lat="43.8575579112132" lon="12.264051140331656"><ele>509.5</ele><time>2026-04-18T08:32:40Z</time></trkpt><trkpt lat="43.85745507902833" lon="12.26403210177034"><ele>509.0</ele><time>2026-04-18T08:32:41Z</time></trkpt><trkpt lat="43.857341158088204" lon="12.263965846373642"><ele>508.5</ele><time>2026-04-18T08:32:42Z</time></trkpt><trkpt lat="43.857210401679424" lon="12.263901552554238"><ele>508.0</ele><time>2026-04-18T08:32:43Z</time></trkpt><trkpt lat="43.857074810148596" lon="12.263853770292425"><ele>509.0</ele><time>2026-04-18T08:32:44Z</time></trkpt><trkpt lat="43.856945905459185" lon="12.26379102090747"><ele>510.0</ele><time>2026-04-18T08:32:45Z</time></trkpt><trkpt lat="43.8568175453847" lon="12.263730832771682"><ele>511.0</ele><time>2026-04-18T08:32:46Z</time></trkpt><trkpt lat="43.85669218559228" lon="12.263673409908344"><ele>512.0</ele><time>2026-04-18T08:32:47Z</time></trkpt><trkpt lat="43.856575704435336" lon="12.2636158919658"><ele>512.0</ele><time>2026-04-18T08:32:48Z</time></trkpt><trkpt lat="43.85645960268428" lon="12.263561824808509"><ele>512.0</ele><time>2026-04-18T08:32:49Z</time></trkpt><trkpt lat="43.85635186255027" lon="12.26351008972145"><ele>512.0</ele><time>2026-04-18T08:32:50Z</time></trkpt><trkpt lat="43.8562567014166" lon="12.263458604350152"><ele>512.0</ele><time>2026-04-18T08:32:51Z</time></trkpt><trkpt lat="43.85617215951138" lon="12.263424771777094"><ele>512.0</ele><time>2026-04-18T08:32:52Z</time></trkpt><trkpt lat="43.85608563829707" lon="12.263429653700152"><ele>511.99999999999994</ele><time>2026-04-18T08:32:53Z</time></trkpt><trkpt lat="43.85599468990441" lon="12.26347008919116"><ele>512.0</ele><time>2026-04-18T08:32:54Z</time></trkpt><trkpt lat="43.855913426513794" lon="12.263541752698645"><ele>512.0</ele><time>2026-04-18T08:32:55Z</time></trkpt><trkpt lat="43.85584387236715" lon="12.263635223294541"><ele>512.0</ele><time>2026-04-18T08:32:56Z</time></trkpt><trkpt lat="43.85577994395285" lon="12.263691097442893"><ele>511.99999999999994</ele><time>2026-04-18T08:32:57Z</time></trkpt><trkpt lat="43.855731568816836" lon="12.263751653512553"><ele>512.0</ele><time>2026-04-18T08:33:00Z</time></trkpt><trkpt lat="43.85579820274212" lon="12.263672166411187"><ele>511.99999999999994</ele><time>2026-04-18T08:33:08Z</time></trkpt><trkpt lat="43.85587048956538" lon="12.26362457895826"><ele>512.0</ele><time>2026-04-18T08:33:09Z</time></trkpt><trkpt lat="43.85593292828698" lon="12.263546328142507"><ele>512.0</ele><time>2026-04-18T08:33:10Z</time></trkpt><trkpt lat="43.856014205609796" lon="12.263464935373035"><ele>512.0</ele><time>2026-04-18T08:33:11Z</time></trkpt><trkpt lat="43.85609725616602" lon="12.263428891537139"><ele>511.99999999999994</ele><time>2026-04-18T08:33:12Z</time></trkpt><trkpt lat="43.85618857491884" lon="12.263429731026523"><ele>512.0</ele><time>2026-04-18T08:33:13Z</time></trkpt><trkpt lat="43.8562835051844" lon="12.263457536135508"><ele>512.0</ele><time>2026-04-18T08:33:14Z</time></trkpt><trkpt lat="43.85636893417837" lon="12.263514754260044"><ele>512.0</ele><time>2026-04-18T08:33:15Z</time></trkpt><trkpt lat="43.856428087757" lon="12.26356447658486"><ele>512.0</ele><time>2026-04-18T08:33:16Z</time></trkpt><trkpt lat="43.856352357234734" lon="12.263403756221592"><ele>512.0</ele><time>2026-04-18T08:33:21Z</time></trkpt><trkpt lat="43.85627943881736" lon="12.263291388063939"><ele>512.0</ele><time>2026-04-18T08:33:22Z</time></trkpt><trkpt lat="43.85625916779258" lon="12.263176526780203"><ele>513.5</ele><time>2026-04-18T08:33:23Z</time></trkpt><trkpt lat="43.856250693996415" lon="12.263017116932883"><ele>515.0</ele><time>2026-04-18T08:33:24Z</time></trkpt><trkpt lat="43.85625173600131" lon="12.262825891198597"><ele>516.5</ele><time>2026-04-18T08:33:25Z</time></trkpt><trkpt lat="43.85626160935625" lon="12.262654994808715"><ele>518.0</ele><time>2026-04-18T08:33:26Z</time></trkpt><trkpt lat="43.85627645156424" lon="12.262489321894082"><ele>518.0</ele><time>2026-04-18T08:33:27Z</time></trkpt><trkpt lat="43.8562892281353" lon="12.26233947144498"><ele>518.0</ele><time>2026-04-18T08:33:28Z</time></trkpt><trkpt lat="43.85632219239881" lon="12.262200724252631"><ele>518.0</ele><time>2026-04-18T08:33:28.999Z</time></trkpt><trkpt lat="43.85637976273041" lon="12.262081787036786"><ele>518.0</ele><time>2026-04-18T08:33:29.999Z</time></trkpt><trkpt lat="43.856459138750985" lon="12.261916250823308"><ele>518.5</ele><time>2026-04-18T08:33:30.999Z</time></trkpt><trkpt lat="43.856518155012154" lon="12.26175445880868"><ele>519.0</ele><time>2026-04-18T08:33:31.999Z</time></trkpt><trkpt lat="43.85653385448878" lon="12.261615260206934"><ele>519.5</ele><time>2026-04-18T08:33:32.999Z</time></trkpt><trkpt lat="43.856502242599454" lon="12.261453704046113"><ele>520.0</ele><time>2026-04-18T08:33:33.999Z</time></trkpt><trkpt lat="43.856429202015796" lon="12.261315931725171"><ele>520.0</ele><time>2026-04-18T08:33:34.999Z</time></trkpt><trkpt lat="43.85633036753297" lon="12.261216938680782"><ele>520.0</ele><time>2026-04-18T08:33:35.999Z</time></trkpt><trkpt lat="43.856228221350165" lon="12.261173156977883"><ele>520.0</ele><time>2026-04-18T08:33:36.999Z</time></trkpt><trkpt lat="43.85612548763279" lon="12.261139648321677"><ele>520.0</ele><time>2026-04-18T08:33:37.999Z</time></trkpt><trkpt lat="43.85601780800625" lon="12.261023854811977"><ele>519.0</ele><time>2026-04-18T08:33:38.999Z</time></trkpt><trkpt lat="43.8559060111045" lon="12.260886663111007"><ele>518.0</ele><time>2026-04-18T08:33:39.999Z</time></trkpt><trkpt lat="43.855830177938394" lon="12.260760484920516"><ele>517.0</ele><time>2026-04-18T08:33:40.999Z</time></trkpt><trkpt lat="43.855782804499015" lon="12.260656645125485"><ele>516.0</ele><time>2026-04-18T08:33:41.999Z</time></trkpt><trkpt lat="43.855762114716285" lon="12.260551292934043"><ele>515.0</ele><time>2026-04-18T08:33:42.999Z</time></trkpt><trkpt lat="43.855759923168236" lon="12.26041028281983"><ele>515.0</ele><time>2026-04-18T08:33:43.999Z</time></trkpt><trkpt lat="43.85574793561484" lon="12.260254889228976"><ele>515.0</ele><time>2026-04-18T08:33:44.999Z</time></trkpt><trkpt lat="43.85571559849176" lon="12.26011692726184"><ele>515.0</ele><time>2026-04-18T08:33:45.999Z</time></trkpt><trkpt lat="43.8556514878744" lon="12.260009060972958"><ele>515.0</ele><time>2026-04-18T08:33:46.999Z</time></trkpt><trkpt lat="43.855578601133885" lon="12.25992561103602"><ele>515.0</ele><time>2026-04-18T08:33:47.999Z</time></trkpt><trkpt lat="43.85550606208017" lon="12.259826354208455"><ele>515.5</ele><time>2026-04-18T08:33:48.999Z</time></trkpt><trkpt lat="43.855443409599594" lon="12.259727777650513"><ele>516.0</ele><time>2026-04-18T08:33:49.999Z</time></trkpt><trkpt lat="43.85538405094092" lon="12.25959966823821"><ele>516.5</ele><time>2026-04-18T08:33:50.999Z</time></trkpt><trkpt lat="43.8553116170197" lon="12.25942867529904"><ele>517.0</ele><time>2026-04-18T08:33:51.999Z</time></trkpt><trkpt lat="43.85523918083942" lon="12.259265564777749"><ele>517.0</ele><time>2026-04-18T08:33:52.999Z</time></trkpt><trkpt lat="43.85517634243651" lon="12.25916236215362"><ele>517.0</ele><time>2026-04-18T08:33:53.999Z</time></trkpt><trkpt lat="43.85516875161601" lon="12.259069214499842"><ele>517.0</ele><time>2026-04-18T08:33:54.999Z</time></trkpt><trkpt lat="43.85513908614935" lon="12.258949146079171"><ele>517.0</ele><time>2026-04-18T08:33:55.999Z</time></trkpt><trkpt lat="43.85508657173498" lon="12.258832422577001"><ele>517.0</ele><time>2026-04-18T08:33:56.999Z</time></trkpt><trkpt lat="43.85499962803311" lon="12.25880512952236"><ele>517.0</ele><time>2026-04-18T08:33:57.999Z</time></trkpt><trkpt lat="43.854926106617235" lon="12.258836113259074"><ele>512.0</ele><time>2026-04-18T08:33:58.999Z</time></trkpt><trkpt lat="43.85484552984834" lon="12.258830953705097"><ele>507.0</ele><time>2026-04-18T08:33:59.999Z</time></trkpt><trkpt lat="43.85476247262014" lon="12.258858430889072"><ele>502.0</ele><time>2026-04-18T08:34:00.999Z</time></trkpt><trkpt lat="43.85440662139676" lon="12.25899685377087"><ele>502.0</ele><time>2026-04-18T08:34:04.999Z</time></trkpt><trkpt lat="43.854296137045196" lon="12.258982276570583"><ele>502.00000000000006</ele><time>2026-04-18T08:34:05.999Z</time></trkpt><trkpt lat="43.85419580452761" lon="12.258954258819289"><ele>502.00000000000006</ele><time>2026-04-18T08:34:06.999Z</time></trkpt><trkpt lat="43.85409407663412" lon="12.25894570821387"><ele>502.0</ele><time>2026-04-18T08:34:08Z</time></trkpt><trkpt lat="43.85399288983966" lon="12.258947820969206"><ele>502.0</ele><time>2026-04-18T08:34:09Z</time></trkpt><trkpt lat="43.853877723225615" lon="12.258957663356373"><ele>500.6</ele><time>2026-04-18T08:34:10Z</time></trkpt><trkpt lat="43.85377371415775" lon="12.258973694636751"><ele>499.20000000000005</ele><time>2026-04-18T08:34:11Z</time></trkpt><trkpt lat="43.853684864356836" lon="12.25899104474286"><ele>497.8</ele><time>2026-04-18T08:34:12Z</time></trkpt><trkpt lat="43.85358384672279" lon="12.259073097313173"><ele>496.4</ele><time>2026-04-18T08:34:14Z</time></trkpt><trkpt lat="43.85354212533748" lon="12.259199697859142"><ele>495.0</ele><time>2026-04-18T08:34:15Z</time></trkpt><trkpt lat="43.85348789822341" lon="12.259316958933772"><ele>492.5</ele><time>2026-04-18T08:34:16Z</time></trkpt><trkpt lat="43.85342648123739" lon="12.259403525977163"><ele>490.0</ele><time>2026-04-18T08:34:17Z</time></trkpt><trkpt lat="43.85335444429448" lon="12.259462203903825"><ele>487.5</ele><time>2026-04-18T08:34:19Z</time></trkpt><trkpt lat="43.85329303014546" lon="12.25941290781228"><ele>485.0</ele><time>2026-04-18T08:34:20Z</time></trkpt><trkpt lat="43.85324477424367" lon="12.259314498029102"><ele>482.5</ele><time>2026-04-18T08:34:21Z</time></trkpt><trkpt lat="43.853190055168234" lon="12.25919034088773"><ele>480.0</ele><time>2026-04-18T08:34:22Z</time></trkpt><trkpt lat="43.85313256771224" lon="12.259082684488645"><ele>480.0</ele><time>2026-04-18T08:34:23Z</time></trkpt><trkpt lat="43.853049237330666" lon="12.259083758791247"><ele>480.0</ele><time>2026-04-18T08:34:25Z</time></trkpt><trkpt lat="43.85299449753022" lon="12.259232240970347"><ele>480.0</ele><time>2026-04-18T08:34:28Z</time></trkpt><trkpt lat="43.85294959437837" lon="12.259309239596996"><ele>480.0</ele><time>2026-04-18T08:34:29Z</time></trkpt><trkpt lat="43.85284895565432" lon="12.259350732627333"><ele>480.0</ele><time>2026-04-18T08:34:31Z</time></trkpt><trkpt lat="43.852758819248685" lon="12.259249384295858"><ele>480.0</ele><time>2026-04-18T08:34:33Z</time></trkpt><trkpt lat="43.85272454670896" lon="12.259155110494243"><ele>480.0</ele><time>2026-04-18T08:34:34Z</time></trkpt><trkpt lat="43.85270561340261" lon="12.259045778479775"><ele>480.0</ele><time>2026-04-18T08:34:35Z</time></trkpt><trkpt lat="43.85267870711472" lon="12.258937584961597"><ele>480.0</ele><time>2026-04-18T08:34:36Z</time></trkpt><trkpt lat="43.85263839556993" lon="12.258834567997276"><ele>480.0</ele><time>2026-04-18T08:34:37Z</time></trkpt><trkpt lat="43.85260081149554" lon="12.258758772111731"><ele>480.0</ele><time>2026-04-18T08:34:38Z</time></trkpt><trkpt lat="43.85247696063246" lon="12.258727281011378"><ele>475.8</ele><time>2026-04-18T08:34:40Z</time></trkpt><trkpt lat="43.85241479653049" lon="12.258774997988644"><ele>471.6</ele><time>2026-04-18T08:34:41Z</time></trkpt><trkpt lat="43.85230515572645" lon="12.258811822567953"><ele>467.4</ele><time>2026-04-18T08:34:42Z</time></trkpt><trkpt lat="43.85220942465867" lon="12.25885040796774"><ele>463.2</ele><time>2026-04-18T08:34:43Z</time></trkpt><trkpt lat="43.852110618221005" lon="12.258882985782819"><ele>459.0</ele><time>2026-04-18T08:34:44Z</time></trkpt><trkpt lat="43.852007346756075" lon="12.258913328633504"><ele>459.79999999999995</ele><time>2026-04-18T08:34:45Z</time></trkpt><trkpt lat="43.85191191966337" lon="12.25895695221872"><ele>460.59999999999997</ele><time>2026-04-18T08:34:46Z</time></trkpt><trkpt lat="43.851807264466906" lon="12.258990800646265"><ele>461.4</ele><time>2026-04-18T08:34:47Z</time></trkpt><trkpt lat="43.85172180781629" lon="12.259041596706897"><ele>462.2</ele><time>2026-04-18T08:34:48Z</time></trkpt><trkpt lat="43.85162634263689" lon="12.25909415203553"><ele>463.0</ele><time>2026-04-18T08:34:49Z</time></trkpt><trkpt lat="43.851528735705955" lon="12.25911946230068"><ele>460.59999999999997</ele><time>2026-04-18T08:34:50Z</time></trkpt><trkpt lat="43.851426268858354" lon="12.259169031405122"><ele>458.19999999999993</ele><time>2026-04-18T08:34:51Z</time></trkpt><trkpt lat="43.85133788895161" lon="12.259207087659947"><ele>455.8</ele><time>2026-04-18T08:34:52Z</time></trkpt><trkpt lat="43.85123749011541" lon="12.259246672966961"><ele>453.4</ele><time>2026-04-18T08:34:53Z</time></trkpt><trkpt lat="43.85114307161244" lon="12.259293370732903"><ele>451.0</ele><time>2026-04-18T08:34:54Z</time></trkpt><trkpt lat="43.851033395140334" lon="12.259296695918517"><ele>448.4</ele><time>2026-04-18T08:34:55Z</time></trkpt><trkpt lat="43.85095055306916" lon="12.259314756136716"><ele>445.8</ele><time>2026-04-18T08:34:56Z</time></trkpt><trkpt lat="43.85084152641525" lon="12.25934337323409"><ele>443.19999999999993</ele><time>2026-04-18T08:34:57Z</time></trkpt><trkpt lat="43.85073888054102" lon="12.259369794762641"><ele>440.59999999999997</ele><time>2026-04-18T08:34:58Z</time></trkpt><trkpt lat="43.850647116904256" lon="12.259408953233706"><ele>438.0</ele><time>2026-04-18T08:34:59Z</time></trkpt><trkpt lat="43.8505502100105" lon="12.259425561270147"><ele>438.0</ele><time>2026-04-18T08:35:00Z</time></trkpt><trkpt lat="43.850453876112454" lon="12.259447027563468"><ele>437.99999999999994</ele><time>2026-04-18T08:35:01Z</time></trkpt><trkpt lat="43.85036393957147" lon="12.259443690470013"><ele>437.99999999999994</ele><time>2026-04-18T08:35:02Z</time></trkpt><trkpt lat="43.850271484761755" lon="12.259420077766688"><ele>438.0</ele><time>2026-04-18T08:35:03Z</time></trkpt><trkpt lat="43.850182981261725" lon="12.259365489075513"><ele>438.0</ele><time>2026-04-18T08:35:04Z</time></trkpt><trkpt lat="43.85009600909588" lon="12.25933213967769"><ele>435.79999999999995</ele><time>2026-04-18T08:35:05Z</time></trkpt><trkpt lat="43.84999350675713" lon="12.259266718302719"><ele>433.59999999999997</ele><time>2026-04-18T08:35:07Z</time></trkpt><trkpt lat="43.8499089062637" lon="12.259364647896726"><ele>431.40000000000003</ele><time>2026-04-18T08:35:09Z</time></trkpt><trkpt lat="43.8498021440107" lon="12.259470917150692"><ele>429.20000000000005</ele><time>2026-04-18T08:35:11Z</time></trkpt><trkpt lat="43.84976284210525" lon="12.259550635459812"><ele>427.0</ele><time>2026-04-18T08:35:12Z</time></trkpt><trkpt lat="43.84969076815848" lon="12.259634684216667"><ele>427.00000000000006</ele><time>2026-04-18T08:35:13Z</time></trkpt><trkpt lat="43.849631623055146" lon="12.25970037856882"><ele>427.0</ele><time>2026-04-18T08:35:14Z</time></trkpt><trkpt lat="43.849565706760096" lon="12.259793139604046"><ele>427.0</ele><time>2026-04-18T08:35:15Z</time></trkpt><trkpt lat="43.849509206425346" lon="12.25987661945198"><ele>427.0</ele><time>2026-04-18T08:35:16Z</time></trkpt><trkpt lat="43.84943349070103" lon="12.259943407696976"><ele>427.00000000000006</ele><time>2026-04-18T08:35:17Z</time></trkpt><trkpt lat="43.84935750762351" lon="12.259998894572497"><ele>427.0</ele><time>2026-04-18T08:35:18Z</time></trkpt><trkpt lat="43.84928900594204" lon="12.260044050933764"><ele>424.6</ele><time>2026-04-18T08:35:19Z</time></trkpt><trkpt lat="43.84923001693299" lon="12.260078444640746"><ele>422.20000000000005</ele><time>2026-04-18T08:35:20Z</time></trkpt><trkpt lat="43.84911983686358" lon="12.260139668826193"><ele>419.8</ele><time>2026-04-18T08:35:22Z</time></trkpt><trkpt lat="43.8490365664287" lon="12.26017442871122"><ele>417.4</ele><time>2026-04-18T08:35:23Z</time></trkpt><trkpt lat="43.84893235521896" lon="12.260244898066663"><ele>415.0</ele><time>2026-04-18T08:35:24Z</time></trkpt><trkpt lat="43.8488549300732" lon="12.260316070855593"><ele>415.00000000000006</ele><time>2026-04-18T08:35:25Z</time></trkpt><trkpt lat="43.8487877146735" lon="12.260361135135357"><ele>415.0</ele><time>2026-04-18T08:35:26Z</time></trkpt><trkpt lat="43.84871437902541" lon="12.260392152432155"><ele>415.0</ele><time>2026-04-18T08:35:27Z</time></trkpt><trkpt lat="43.84864315342913" lon="12.260433535940468"><ele>415.0</ele><time>2026-04-18T08:35:28Z</time></trkpt><trkpt lat="43.848575312518534" lon="12.260487167779722"><ele>415.00000000000006</ele><time>2026-04-18T08:35:29Z</time></trkpt><trkpt lat="43.848504577280266" lon="12.260562986346013"><ele>415.0</ele><time>2026-04-18T08:35:30Z</time></trkpt><trkpt lat="43.84844751550914" lon="12.260647694940698"><ele>411.83333333333337</ele><time>2026-04-18T08:35:31Z</time></trkpt><trkpt lat="43.84842475042599" lon="12.260736447239895"><ele>408.6666666666667</ele><time>2026-04-18T08:35:32Z</time></trkpt><trkpt lat="43.848433711130994" lon="12.26082998917691"><ele>405.5</ele><time>2026-04-18T08:35:33Z</time></trkpt><trkpt lat="43.84843040529758" lon="12.26094763841946"><ele>402.33333333333337</ele><time>2026-04-18T08:35:34Z</time></trkpt><trkpt lat="43.84841744696998" lon="12.261055781075171"><ele>399.1666666666667</ele><time>2026-04-18T08:35:35Z</time></trkpt><trkpt lat="43.84840289166079" lon="12.26123891429557"><ele>396.0</ele><time>2026-04-18T08:35:37Z</time></trkpt><trkpt lat="43.84839702185827" lon="12.261360035845437"><ele>395.3333333333333</ele><time>2026-04-18T08:35:38Z</time></trkpt><trkpt lat="43.84839251265777" lon="12.261484672917483"><ele>394.66666666666663</ele><time>2026-04-18T08:35:39Z</time></trkpt><trkpt lat="43.84838520361429" lon="12.261594343765282"><ele>394.0</ele><time>2026-04-18T08:35:40Z</time></trkpt><trkpt lat="43.848381293548734" lon="12.261729974433377"><ele>393.3333333333333</ele><time>2026-04-18T08:35:40.999Z</time></trkpt><trkpt lat="43.84837038748109" lon="12.261816567193923"><ele>392.66666666666663</ele><time>2026-04-18T08:35:41.999Z</time></trkpt><trkpt lat="43.84837378931861" lon="12.26194066282121"><ele>392.0</ele><time>2026-04-18T08:35:42.999Z</time></trkpt><trkpt lat="43.84837310736473" lon="12.262040902618272"><ele>391.99999999999994</ele><time>2026-04-18T08:35:43.999Z</time></trkpt><trkpt lat="43.8483707610131" lon="12.262171076570858"><ele>392.0</ele><time>2026-04-18T08:35:44.999Z</time></trkpt><trkpt lat="43.848374048521926" lon="12.26227366436465"><ele>392.0</ele><time>2026-04-18T08:35:45.999Z</time></trkpt><trkpt lat="43.848372390623794" lon="12.26240777130416"><ele>392.0</ele><time>2026-04-18T08:35:46.999Z</time></trkpt><trkpt lat="43.84836454095635" lon="12.262525550250997"><ele>391.99999999999994</ele><time>2026-04-18T08:35:47.999Z</time></trkpt><trkpt lat="43.84835561743199" lon="12.26263539641837"><ele>392.0</ele><time>2026-04-18T08:35:48.999Z</time></trkpt><trkpt lat="43.84834595109117" lon="12.26274605054197"><ele>391.16666666666663</ele><time>2026-04-18T08:35:49.999Z</time></trkpt><trkpt lat="43.848344682740176" lon="12.262843733762786"><ele>390.3333333333333</ele><time>2026-04-18T08:35:50.999Z</time></trkpt><trkpt lat="43.84834857455551" lon="12.262987954090098"><ele>389.5</ele><time>2026-04-18T08:35:52.999Z</time></trkpt><trkpt lat="43.84835140351938" lon="12.263077279322646"><ele>388.66666666666663</ele><time>2026-04-18T08:35:53.999Z</time></trkpt><trkpt lat="43.84835252583619" lon="12.263197510211171"><ele>387.8333333333333</ele><time>2026-04-18T08:35:54.999Z</time></trkpt><trkpt lat="43.848353541864086" lon="12.263297866099448"><ele>387.0</ele><time>2026-04-18T08:35:55.999Z</time></trkpt><trkpt lat="43.848338782869305" lon="12.263410512009361"><ele>386.3333333333333</ele><time>2026-04-18T08:35:56.999Z</time></trkpt><trkpt lat="43.84832648656613" lon="12.263519792841176"><ele>385.6666666666667</ele><time>2026-04-18T08:35:57.999Z</time></trkpt><trkpt lat="43.84828546136914" lon="12.263594125958573"><ele>385.0</ele><time>2026-04-18T08:35:58.999Z</time></trkpt><trkpt lat="43.84823328780817" lon="12.263644287688491"><ele>384.33333333333337</ele><time>2026-04-18T08:35:59.999Z</time></trkpt><trkpt lat="43.8481442506392" lon="12.263697243174427"><ele>383.6666666666667</ele><time>2026-04-18T08:36:00.999Z</time></trkpt><trkpt lat="43.848055317269406" lon="12.26375724974623"><ele>383.0</ele><time>2026-04-18T08:36:01.999Z</time></trkpt><trkpt lat="43.84799577814406" lon="12.263808683607506"><ele>383.0</ele><time>2026-04-18T08:36:02.999Z</time></trkpt><trkpt lat="43.84788783829374" lon="12.263882146750452"><ele>383.0</ele><time>2026-04-18T08:36:04.999Z</time></trkpt><trkpt lat="43.84774330563431" lon="12.263926273086858"><ele>383.0</ele><time>2026-04-18T08:36:06.999Z</time></trkpt><trkpt lat="43.847666479916874" lon="12.263938405998038"><ele>383.0</ele><time>2026-04-18T08:36:07.999Z</time></trkpt><trkpt lat="43.84760240156604" lon="12.263924685002678"><ele>383.0</ele><time>2026-04-18T08:36:08.999Z</time></trkpt><trkpt lat="43.84753094123284" lon="12.26391881323721"><ele>380.83333333333337</ele><time>2026-04-18T08:36:09.999Z</time></trkpt><trkpt lat="43.84744591174865" lon="12.263906797318443"><ele>378.6666666666667</ele><time>2026-04-18T08:36:10.999Z</time></trkpt><trkpt lat="43.84737586264447" lon="12.263899070739605"><ele>376.5</ele><time>2026-04-18T08:36:11.999Z</time></trkpt><trkpt lat="43.84730967463692" lon="12.26395427330972"><ele>374.3333333333333</ele><time>2026-04-18T08:36:14Z</time></trkpt><trkpt lat="43.84722498245837" lon="12.26402136785346"><ele>372.16666666666663</ele><time>2026-04-18T08:36:16Z</time></trkpt><trkpt lat="43.84717250420719" lon="12.264078482276778"><ele>370.0</ele><time>2026-04-18T08:36:17Z</time></trkpt><trkpt lat="43.84715594586097" lon="12.264233021851163"><ele>368.3333333333333</ele><time>2026-04-18T08:36:19Z</time></trkpt><trkpt lat="43.84716868492381" lon="12.264334254551454"><ele>366.66666666666663</ele><time>2026-04-18T08:36:20Z</time></trkpt><trkpt lat="43.84717901757273" lon="12.264474602795548"><ele>365.0</ele><time>2026-04-18T08:36:21Z</time></trkpt><trkpt lat="43.84718724733764" lon="12.264584358179349"><ele>363.3333333333333</ele><time>2026-04-18T08:36:22Z</time></trkpt><trkpt lat="43.84716471533688" lon="12.264678497513243"><ele>361.6666666666667</ele><time>2026-04-18T08:36:23Z</time></trkpt><trkpt lat="43.84711045544805" lon="12.264790774266057"><ele>360.0</ele><time>2026-04-18T08:36:24Z</time></trkpt><trkpt lat="43.847081433140566" lon="12.264888504299607"><ele>358.8</ele><time>2026-04-18T08:36:25Z</time></trkpt><trkpt lat="43.847054379709576" lon="12.264995210290055"><ele>357.6</ele><time>2026-04-18T08:36:26Z</time></trkpt><trkpt lat="43.8470461415209" lon="12.265111941524953"><ele>356.4</ele><time>2026-04-18T08:36:27Z</time></trkpt><trkpt lat="43.84704434326256" lon="12.26523882944248"><ele>355.2</ele><time>2026-04-18T08:36:28Z</time></trkpt><trkpt lat="43.84705989378923" lon="12.265380554340448"><ele>354.0</ele><time>2026-04-18T08:36:29Z</time></trkpt><trkpt lat="43.84707427635776" lon="12.26552472676613"><ele>353.0</ele><time>2026-04-18T08:36:30Z</time></trkpt><trkpt lat="43.847085545920905" lon="12.265692831730142"><ele>352.0</ele><time>2026-04-18T08:36:31Z</time></trkpt><trkpt lat="43.84708547035125" lon="12.2658286320148"><ele>351.0</ele><time>2026-04-18T08:36:32Z</time></trkpt><trkpt lat="43.84708446614013" lon="12.265981923402443"><ele>350.0</ele><time>2026-04-18T08:36:33Z</time></trkpt><trkpt lat="43.847087628379505" lon="12.266130977782652"><ele>349.0</ele><time>2026-04-18T08:36:34Z</time></trkpt><trkpt lat="43.84710324248408" lon="12.266291125857869"><ele>349.0</ele><time>2026-04-18T08:36:35Z</time></trkpt><trkpt lat="43.847105692219834" lon="12.266436962801892"><ele>349.0</ele><time>2026-04-18T08:36:36Z</time></trkpt><trkpt lat="43.847082425706" lon="12.266548963747995"><ele>349.0</ele><time>2026-04-18T08:36:37Z</time></trkpt><trkpt lat="43.847046496061424" lon="12.266628499984726"><ele>349.0</ele><time>2026-04-18T08:36:38Z</time></trkpt><trkpt lat="43.8469560777441" lon="12.266633694636294"><ele>349.0</ele><time>2026-04-18T08:36:40Z</time></trkpt><trkpt lat="43.846891585589916" lon="12.266642499671583"><ele>349.0</ele><time>2026-04-18T08:36:42Z</time></trkpt><trkpt lat="43.84677107809519" lon="12.266678249099805"><ele>348.6</ele><time>2026-04-18T08:36:44Z</time></trkpt><trkpt lat="43.84668516213565" lon="12.266689873526559"><ele>348.2</ele><time>2026-04-18T08:36:45Z</time></trkpt><trkpt lat="43.84656551093098" lon="12.266725985137933"><ele>347.8</ele><time>2026-04-18T08:36:46Z</time></trkpt><trkpt lat="43.8464498068393" lon="12.266743789052962"><ele>347.40000000000003</ele><time>2026-04-18T08:36:48Z</time></trkpt><trkpt lat="43.846373554098655" lon="12.266806649119253"><ele>347.0</ele><time>2026-04-18T08:36:49Z</time></trkpt><trkpt lat="43.84630968845663" lon="12.266885894623332"><ele>347.0</ele><time>2026-04-18T08:36:50Z</time></trkpt><trkpt lat="43.8462790682821" lon="12.266962659529097"><ele>347.0</ele><time>2026-04-18T08:36:51Z</time></trkpt><trkpt lat="43.84623682625987" lon="12.26703478737356"><ele>347.0</ele><time>2026-04-18T08:36:52Z</time></trkpt><trkpt lat="43.84615868292377" lon="12.26714714518567"><ele>347.0</ele><time>2026-04-18T08:36:54Z</time></trkpt><trkpt lat="43.84609614045687" lon="12.267266622003476"><ele>347.0</ele><time>2026-04-18T08:36:56Z</time></trkpt><trkpt lat="43.84602850461253" lon="12.267411805367033"><ele>346.40000000000003</ele><time>2026-04-18T08:36:58Z</time></trkpt><trkpt lat="43.845963666900225" lon="12.267516325610687"><ele>345.8</ele><time>2026-04-18T08:37:00Z</time></trkpt><trkpt lat="43.84591891979645" lon="12.267601805980638"><ele>345.2</ele><time>2026-04-18T08:37:02Z</time></trkpt><trkpt lat="43.84587654132889" lon="12.267685306419835"><ele>344.6</ele><time>2026-04-18T08:37:04Z</time></trkpt><trkpt lat="43.845833113111865" lon="12.267820469693644"><ele>344.0</ele><time>2026-04-18T08:37:06Z</time></trkpt><trkpt lat="43.845794194528025" lon="12.267955655072601"><ele>340.0</ele><time>2026-04-18T08:37:08Z</time></trkpt><trkpt lat="43.84575508487677" lon="12.268103858243506"><ele>336.0</ele><time>2026-04-18T08:37:10Z</time></trkpt><trkpt lat="43.84570683614491" lon="12.268244513449524"><ele>332.0</ele><time>2026-04-18T08:37:12Z</time></trkpt><trkpt lat="43.84564259552006" lon="12.268363126314945"><ele>328.0</ele><time>2026-04-18T08:37:14Z</time></trkpt><trkpt lat="43.84552547103288" lon="12.268394574459437"><ele>327.0</ele><time>2026-04-18T08:37:16Z</time></trkpt><trkpt lat="43.845435781871984" lon="12.268331405768404"><ele>326.0</ele><time>2026-04-18T08:37:18Z</time></trkpt><trkpt lat="43.84537868400753" lon="12.268284413433584"><ele>325.0</ele><time>2026-04-18T08:37:19Z</time></trkpt><trkpt lat="43.845314330830035" lon="12.268242616196108"><ele>324.0</ele><time>2026-04-18T08:37:20Z</time></trkpt><trkpt lat="43.845252800046055" lon="12.268206251239047"><ele>323.0</ele><time>2026-04-18T08:37:21Z</time></trkpt><trkpt lat="43.845152560406206" lon="12.26814148482671"><ele>322.0</ele><time>2026-04-18T08:37:23Z</time></trkpt><trkpt lat="43.84503958508655" lon="12.26807889494525"><ele>320.6</ele><time>2026-04-18T08:37:25Z</time></trkpt><trkpt lat="43.844943013261485" lon="12.268080601676633"><ele>319.20000000000005</ele><time>2026-04-18T08:37:27Z</time></trkpt><trkpt lat="43.84484605571698" lon="12.268157730933543"><ele>317.8</ele><time>2026-04-18T08:37:29Z</time></trkpt><trkpt lat="43.84477941904077" lon="12.268232319378596"><ele>316.4</ele><time>2026-04-18T08:37:31Z</time></trkpt><trkpt lat="43.84470415427812" lon="12.268297882127513"><ele>315.0</ele><time>2026-04-18T08:37:34Z</time></trkpt><trkpt lat="43.84464335064173" lon="12.268411439869602"><ele>314.1666666666667</ele><time>2026-04-18T08:37:36Z</time></trkpt><trkpt lat="43.84460585547684" lon="12.268484525304592"><ele>313.3333333333333</ele><time>2026-04-18T08:37:37Z</time></trkpt><trkpt lat="43.8445564291973" lon="12.268624729154459"><ele>312.5</ele><time>2026-04-18T08:37:39Z</time></trkpt><trkpt lat="43.84454220155631" lon="12.26873042005706"><ele>311.66666666666663</ele><time>2026-04-18T08:37:40Z</time></trkpt><trkpt lat="43.84449239127566" lon="12.268872081139921"><ele>310.8333333333333</ele><time>2026-04-18T08:37:42Z</time></trkpt><trkpt lat="43.84446379318065" lon="12.2689676791697"><ele>310.0</ele><time>2026-04-18T08:37:43.999Z</time></trkpt><trkpt lat="43.84444090676304" lon="12.269052297468996"><ele>310.0</ele><time>2026-04-18T08:37:46.999Z</time></trkpt><trkpt lat="43.844465518039875" lon="12.268944885852076"><ele>310.0</ele><time>2026-04-18T08:39:11Z</time></trkpt><trkpt lat="43.844524663376546" lon="12.268893299240837"><ele>310.0</ele><time>2026-04-18T08:39:17Z</time></trkpt><trkpt lat="43.84458766901399" lon="12.268926558612309"><ele>310.0</ele><time>2026-04-18T08:39:18Z</time></trkpt><trkpt lat="43.844674293873396" lon="12.268964016748727"><ele>310.0</ele><time>2026-04-18T08:39:20Z</time></trkpt><trkpt lat="43.84472702272437" lon="12.269054483154319"><ele>310.0</ele><time>2026-04-18T08:39:22Z</time></trkpt><trkpt lat="43.84475468998033" lon="12.269194981237957"><ele>309.5</ele><time>2026-04-18T08:39:24Z</time></trkpt><trkpt lat="43.844802439750524" lon="12.269310097604206"><ele>309.0</ele><time>2026-04-18T08:39:26Z</time></trkpt><trkpt lat="43.84486428969926" lon="12.269412714837445"><ele>308.5</ele><time>2026-04-18T08:39:28Z</time></trkpt><trkpt lat="43.84489617805634" lon="12.269504220822368"><ele>308.0</ele><time>2026-04-18T08:39:30Z</time></trkpt><trkpt lat="43.8449464987272" lon="12.269612997913185"><ele>307.5</ele><time>2026-04-18T08:39:33Z</time></trkpt><trkpt lat="43.84498970158382" lon="12.269688243597802"><ele>307.0</ele><time>2026-04-18T08:39:36Z</time></trkpt><trkpt lat="43.84492546804816" lon="12.269587621912876"><ele>307.0</ele><time>2026-04-18T08:49:40.999Z</time></trkpt><trkpt lat="43.84488905459857" lon="12.269509257486614"><ele>307.0</ele><time>2026-04-18T08:49:42.999Z</time></trkpt><trkpt lat="43.844859007759375" lon="12.269428201951047"><ele>307.0</ele><time>2026-04-18T08:49:44.999Z</time></trkpt><trkpt lat="43.84480946412569" lon="12.269283696556247"><ele>307.0</ele><time>2026-04-18T08:49:47.999Z</time></trkpt><trkpt lat="43.84474067831835" lon="12.269148890194316"><ele>307.0</ele><time>2026-04-18T08:49:49.999Z</time></trkpt><trkpt lat="43.84471053128607" lon="12.269064516070914"><ele>307.0</ele><time>2026-04-18T08:49:50.999Z</time></trkpt><trkpt lat="43.844662438188216" lon="12.268898244380553"><ele>307.6</ele><time>2026-04-18T08:49:52.999Z</time></trkpt><trkpt lat="43.84460566237912" lon="12.268763012759576"><ele>308.2</ele><time>2026-04-18T08:49:54.999Z</time></trkpt><trkpt lat="43.84457272640791" lon="12.268634490132115"><ele>308.8</ele><time>2026-04-18T08:49:56.999Z</time></trkpt><trkpt lat="43.84457396445919" lon="12.268538655269877"><ele>309.4</ele><time>2026-04-18T08:49:57.999Z</time></trkpt><trkpt lat="43.844616224881" lon="12.268430495987669"><ele>310.0</ele><time>2026-04-18T08:49:59.999Z</time></trkpt><trkpt lat="43.84467466942767" lon="12.268343574087723"><ele>310.0</ele><time>2026-04-18T08:50:01.999Z</time></trkpt><trkpt lat="43.844744133934" lon="12.268233934056147"><ele>310.0</ele><time>2026-04-18T08:50:03.999Z</time></trkpt><trkpt lat="43.844810210995895" lon="12.268182822911516"><ele>310.0</ele><time>2026-04-18T08:50:05.999Z</time></trkpt><trkpt lat="43.8448998189778" lon="12.268117801020644"><ele>310.0</ele><time>2026-04-18T08:50:07.999Z</time></trkpt><trkpt lat="43.84497507238248" lon="12.26809083064943"><ele>310.0</ele><time>2026-04-18T08:50:09.999Z</time></trkpt><trkpt lat="43.845089657052476" lon="12.268092616533359"><ele>311.7142857142857</ele><time>2026-04-18T08:50:11.999Z</time></trkpt><trkpt lat="43.84515326511493" lon="12.268125691397657"><ele>313.42857142857144</ele><time>2026-04-18T08:50:12.999Z</time></trkpt><trkpt lat="43.84520788910118" lon="12.268184370243837"><ele>315.1428571428571</ele><time>2026-04-18T08:50:13.999Z</time></trkpt><trkpt lat="43.84528464945132" lon="12.268240622450769"><ele>316.8571428571429</ele><time>2026-04-18T08:50:14.999Z</time></trkpt><trkpt lat="43.84534447127985" lon="12.2682823757798"><ele>318.57142857142856</ele><time>2026-04-18T08:50:15.999Z</time></trkpt><trkpt lat="43.84540288484444" lon="12.268331870327327"><ele>320.2857142857143</ele><time>2026-04-18T08:50:16.999Z</time></trkpt><trkpt lat="43.84548347798486" lon="12.268370067719149"><ele>322.0</ele><time>2026-04-18T08:50:17.999Z</time></trkpt><trkpt lat="43.84554976606223" lon="12.268419636177436"><ele>322.0</ele><time>2026-04-18T08:50:18.999Z</time></trkpt><trkpt lat="43.845611083726936" lon="12.268441939755666"><ele>322.0</ele><time>2026-04-18T08:50:19.999Z</time></trkpt><trkpt lat="43.84569925344071" lon="12.268332844020279"><ele>322.0</ele><time>2026-04-18T08:50:21.999Z</time></trkpt><trkpt lat="43.84573283347505" lon="12.268234039151432"><ele>322.0</ele><time>2026-04-18T08:50:22.999Z</time></trkpt><trkpt lat="43.84576564111964" lon="12.268132385892265"><ele>322.0</ele><time>2026-04-18T08:50:23.999Z</time></trkpt><trkpt lat="43.84578098175979" lon="12.268027798354783"><ele>322.0</ele><time>2026-04-18T08:50:24.998Z</time></trkpt><trkpt lat="43.845811440302285" lon="12.26786787312765"><ele>323.0</ele><time>2026-04-18T08:50:26.998Z</time></trkpt><trkpt lat="43.84585252033357" lon="12.26773740752313"><ele>324.0</ele><time>2026-04-18T08:50:28.998Z</time></trkpt><trkpt lat="43.84588810374188" lon="12.267661026756917"><ele>325.0</ele><time>2026-04-18T08:50:29.998Z</time></trkpt><trkpt lat="43.84592356225263" lon="12.267585910178985"><ele>326.0</ele><time>2026-04-18T08:50:30.998Z</time></trkpt><trkpt lat="43.84599991567014" lon="12.267464566621877"><ele>327.0</ele><time>2026-04-18T08:50:32.998Z</time></trkpt><trkpt lat="43.84606051465651" lon="12.267362584971005"><ele>328.0</ele><time>2026-04-18T08:50:34.998Z</time></trkpt><trkpt lat="43.846100732277414" lon="12.26729197781991"><ele>331.79999999999995</ele><time>2026-04-18T08:50:35.998Z</time></trkpt><trkpt lat="43.846145891119875" lon="12.267201447112063"><ele>335.6</ele><time>2026-04-18T08:50:36.998Z</time></trkpt><trkpt lat="43.84619456968003" lon="12.267099144269384"><ele>339.4</ele><time>2026-04-18T08:50:37.998Z</time></trkpt><trkpt lat="43.84624429485291" lon="12.267018221985554"><ele>343.20000000000005</ele><time>2026-04-18T08:50:38.998Z</time></trkpt><trkpt lat="43.84630807548088" lon="12.266908927482344"><ele>347.0</ele><time>2026-04-18T08:50:40.998Z</time></trkpt><trkpt lat="43.846407179316635" lon="12.266802934002188"><ele>347.0</ele><time>2026-04-18T08:50:42.998Z</time></trkpt><trkpt lat="43.846518952986536" lon="12.266772903435186"><ele>347.0</ele><time>2026-04-18T08:50:44.998Z</time></trkpt><trkpt lat="43.84659010093088" lon="12.266774426415726"><ele>347.0</ele><time>2026-04-18T08:50:45.998Z</time></trkpt><trkpt lat="43.846654974484174" lon="12.266744853629701"><ele>347.0</ele><time>2026-04-18T08:50:46.998Z</time></trkpt><trkpt lat="43.846747110252856" lon="12.266724590297867"><ele>347.0</ele><time>2026-04-18T08:50:47.998Z</time></trkpt><trkpt lat="43.84683790615205" lon="12.26671907723641"><ele>347.0</ele><time>2026-04-18T08:50:48.998Z</time></trkpt><trkpt lat="43.84696404168777" lon="12.266674436385568"><ele>346.20000000000005</ele><time>2026-04-18T08:50:49.998Z</time></trkpt><trkpt lat="43.847038093481004" lon="12.26663498027846"><ele>345.4</ele><time>2026-04-18T08:50:50.998Z</time></trkpt><trkpt lat="43.84703073033301" lon="12.266774408620197"><ele>344.6</ele><time>2026-04-18T08:50:56.999Z</time></trkpt><trkpt lat="43.84704384226832" lon="12.266921669113291"><ele>343.79999999999995</ele><time>2026-04-18T08:50:58.999Z</time></trkpt><trkpt lat="43.847029146011835" lon="12.267044709842684"><ele>343.0</ele><time>2026-04-18T08:51:00.999Z</time></trkpt><trkpt lat="43.84700380624395" lon="12.267162721555499"><ele>342.2</ele><time>2026-04-18T08:51:02.999Z</time></trkpt><trkpt lat="43.84696734044968" lon="12.267318688624766"><ele>341.4</ele><time>2026-04-18T08:51:04.999Z</time></trkpt><trkpt lat="43.84694760948605" lon="12.267438387330605"><ele>340.59999999999997</ele><time>2026-04-18T08:51:06.999Z</time></trkpt><trkpt lat="43.84692388968945" lon="12.26752515783064"><ele>339.79999999999995</ele><time>2026-04-18T08:51:07.999Z</time></trkpt><trkpt lat="43.84687979450042" lon="12.26763426812772"><ele>339.0</ele><time>2026-04-18T08:51:08.999Z</time></trkpt><trkpt lat="43.8468598631033" lon="12.26775264639676"><ele>339.0</ele><time>2026-04-18T08:51:09.999Z</time></trkpt><trkpt lat="43.846867435904805" lon="12.267862209411643"><ele>339.0</ele><time>2026-04-18T08:51:10.999Z</time></trkpt><trkpt lat="43.846882929053294" lon="12.267995809778686"><ele>339.0</ele><time>2026-04-18T08:51:11.999Z</time></trkpt><trkpt lat="43.84690703213247" lon="12.268105655158335"><ele>339.0</ele><time>2026-04-18T08:51:12.999Z</time></trkpt><trkpt lat="43.84692342061879" lon="12.268201938086525"><ele>339.0</ele><time>2026-04-18T08:51:13.999Z</time></trkpt><trkpt lat="43.84691688042388" lon="12.26829628571081"><ele>339.0</ele><time>2026-04-18T08:51:16.999Z</time></trkpt><trkpt lat="43.84684355685895" lon="12.268364064102911"><ele>338.5</ele><time>2026-04-18T08:51:19.999Z</time></trkpt><trkpt lat="43.84680934950491" lon="12.268477488229694"><ele>338.0</ele><time>2026-04-18T08:51:21.999Z</time></trkpt><trkpt lat="43.846834198789125" lon="12.268638450062964"><ele>337.5</ele><time>2026-04-18T08:51:23.999Z</time></trkpt><trkpt lat="43.84689646021101" lon="12.268739263875965"><ele>337.0</ele><time>2026-04-18T08:51:25.999Z</time></trkpt><trkpt lat="43.846947396464145" lon="12.268806240368441"><ele>336.5</ele><time>2026-04-18T08:51:26.999Z</time></trkpt><trkpt lat="43.846958322294036" lon="12.268908625746855"><ele>336.0</ele><time>2026-04-18T08:51:28.999Z</time></trkpt><trkpt lat="43.8469811020795" lon="12.269033678823739"><ele>335.8333333333333</ele><time>2026-04-18T08:51:30.999Z</time></trkpt><trkpt lat="43.84702878622055" lon="12.269108833435839"><ele>335.6666666666667</ele><time>2026-04-18T08:51:31.999Z</time></trkpt><trkpt lat="43.84706861454361" lon="12.269177913562814"><ele>335.5</ele><time>2026-04-18T08:51:32.999Z</time></trkpt><trkpt lat="43.84711511003425" lon="12.269313495173703"><ele>335.33333333333337</ele><time>2026-04-18T08:51:34.999Z</time></trkpt><trkpt lat="43.84713266574524" lon="12.269399744010085"><ele>335.1666666666667</ele><time>2026-04-18T08:51:35.999Z</time></trkpt><trkpt lat="43.8471399888654" lon="12.26953702971784"><ele>335.0</ele><time>2026-04-18T08:51:37.999Z</time></trkpt><trkpt lat="43.84718199365049" lon="12.269675739957773"><ele>334.4</ele><time>2026-04-18T08:51:39.999Z</time></trkpt><trkpt lat="43.8472293162887" lon="12.269860821068296"><ele>333.8</ele><time>2026-04-18T08:51:41.999Z</time></trkpt><trkpt lat="43.8472585427704" lon="12.269974137488783"><ele>333.20000000000005</ele><time>2026-04-18T08:51:42.999Z</time></trkpt><trkpt lat="43.84728799892712" lon="12.270085297684252"><ele>332.6</ele><time>2026-04-18T08:51:43.999Z</time></trkpt><trkpt lat="43.84732499363707" lon="12.270191542077768"><ele>332.0</ele><time>2026-04-18T08:51:44.999Z</time></trkpt><trkpt lat="43.84738175385469" lon="12.27028614574663"><ele>332.0</ele><time>2026-04-18T08:51:46.999Z</time></trkpt><trkpt lat="43.84739599086595" lon="12.27040647501071"><ele>332.0</ele><time>2026-04-18T08:51:49.999Z</time></trkpt><trkpt lat="43.847425753834855" lon="12.270499453413594"><ele>332.0</ele><time>2026-04-18T08:51:50.999Z</time></trkpt><trkpt lat="43.84746766484978" lon="12.270611482545474"><ele>332.0</ele><time>2026-04-18T08:51:51.999Z</time></trkpt><trkpt lat="43.84751139159677" lon="12.270723346396853"><ele>332.0</ele><time>2026-04-18T08:51:52.999Z</time></trkpt><trkpt lat="43.84754910527543" lon="12.270814077123859"><ele>332.0</ele><time>2026-04-18T08:51:53.999Z</time></trkpt><trkpt lat="43.84759870168457" lon="12.270872977010566"><ele>331.0</ele><time>2026-04-18T08:51:54.999Z</time></trkpt><trkpt lat="43.84766536501595" lon="12.270936155970158"><ele>330.0</ele><time>2026-04-18T08:51:55.999Z</time></trkpt><trkpt lat="43.847751318297625" lon="12.2710073574879"><ele>329.0</ele><time>2026-04-18T08:51:56.999Z</time></trkpt><trkpt lat="43.84781849604036" lon="12.271075021309763"><ele>328.0</ele><time>2026-04-18T08:51:57.999Z</time></trkpt><trkpt lat="43.84786897208448" lon="12.271173035691508"><ele>327.0</ele><time>2026-04-18T08:51:59.999Z</time></trkpt><trkpt lat="43.84790085706374" lon="12.271252938452852"><ele>326.0</ele><time>2026-04-18T08:52:00.999Z</time></trkpt><trkpt lat="43.84792741428368" lon="12.271347397667354"><ele>325.6666666666667</ele><time>2026-04-18T08:52:01.999Z</time></trkpt><trkpt lat="43.84794703521193" lon="12.271443321768531"><ele>325.33333333333337</ele><time>2026-04-18T08:52:02.999Z</time></trkpt><trkpt lat="43.84799349096998" lon="12.271510612053723"><ele>325.0</ele><time>2026-04-18T08:52:03.999Z</time></trkpt><trkpt lat="43.84805120659026" lon="12.271583648129605"><ele>324.6666666666667</ele><time>2026-04-18T08:52:04.999Z</time></trkpt><trkpt lat="43.848136522831666" lon="12.271655861876539"><ele>324.3333333333333</ele><time>2026-04-18T08:52:06.999Z</time></trkpt><trkpt lat="43.848196997569296" lon="12.271695237842907"><ele>324.0</ele><time>2026-04-18T08:52:07.999Z</time></trkpt><trkpt lat="43.84827900764843" lon="12.271718180984768"><ele>324.0</ele><time>2026-04-18T08:52:08.999Z</time></trkpt><trkpt lat="43.84834797504546" lon="12.271768623819135"><ele>324.0</ele><time>2026-04-18T08:52:09.999Z</time></trkpt><trkpt lat="43.84841217942652" lon="12.271788540117145"><ele>324.0</ele><time>2026-04-18T08:52:10.999Z</time></trkpt><trkpt lat="43.848477622297516" lon="12.271818305384043"><ele>324.0</ele><time>2026-04-18T08:52:11.999Z</time></trkpt><trkpt lat="43.84856027482597" lon="12.271851643172491"><ele>324.0</ele><time>2026-04-18T08:52:12.999Z</time></trkpt><trkpt lat="43.84864714117723" lon="12.27189112185575"><ele>324.0</ele><time>2026-04-18T08:52:13.999Z</time></trkpt><trkpt lat="43.8487212039242" lon="12.271924468313204"><ele>323.0</ele><time>2026-04-18T08:52:14.999Z</time></trkpt><trkpt lat="43.84879363028187" lon="12.271947134993964"><ele>322.0</ele><time>2026-04-18T08:52:15.999Z</time></trkpt><trkpt lat="43.848860827300015" lon="12.271979765823556"><ele>321.0</ele><time>2026-04-18T08:52:16.999Z</time></trkpt><trkpt lat="43.84894669067724" lon="12.27198845987765"><ele>320.0</ele><time>2026-04-18T08:52:17.999Z</time></trkpt><trkpt lat="43.84902314842461" lon="12.271991370696865"><ele>319.0</ele><time>2026-04-18T08:52:18.999Z</time></trkpt><trkpt lat="43.84914340890947" lon="12.272047493153835"><ele>318.0</ele><time>2026-04-18T08:52:20.999Z</time></trkpt><trkpt lat="43.8492114582179" lon="12.272091372777636"><ele>316.8333333333333</ele><time>2026-04-18T08:52:21.999Z</time></trkpt><trkpt lat="43.849319653557785" lon="12.272118103397371"><ele>315.6666666666667</ele><time>2026-04-18T08:52:23.999Z</time></trkpt><trkpt lat="43.84937496061863" lon="12.272067200441242"><ele>314.5</ele><time>2026-04-18T08:52:24.999Z</time></trkpt><trkpt lat="43.84943916380763" lon="12.272019165265787"><ele>313.33333333333337</ele><time>2026-04-18T08:52:25.999Z</time></trkpt><trkpt lat="43.84949694047771" lon="12.27196353071309"><ele>312.1666666666667</ele><time>2026-04-18T08:52:26.999Z</time></trkpt><trkpt lat="43.849541753282004" lon="12.2718375470004"><ele>311.0</ele><time>2026-04-18T08:52:28.999Z</time></trkpt><trkpt lat="43.84953357280682" lon="12.271716178357758"><ele>311.0</ele><time>2026-04-18T08:52:29.999Z</time></trkpt><trkpt lat="43.849519569342" lon="12.27161945218859"><ele>311.0</ele><time>2026-04-18T08:52:30.999Z</time></trkpt><trkpt lat="43.849552082305976" lon="12.271505971849209"><ele>311.0</ele><time>2026-04-18T08:52:33.999Z</time></trkpt><trkpt lat="43.849623981935416" lon="12.271470872713474"><ele>311.0</ele><time>2026-04-18T08:52:35.999Z</time></trkpt><trkpt lat="43.84970723346405" lon="12.271502557352203"><ele>311.0</ele><time>2026-04-18T08:52:38.999Z</time></trkpt><trkpt lat="43.84977312908434" lon="12.271517980079512"><ele>311.0</ele><time>2026-04-18T08:52:39.998Z</time></trkpt><trkpt lat="43.84983541569398" lon="12.271550471644545"><ele>311.0</ele><time>2026-04-18T08:52:40.998Z</time></trkpt><trkpt lat="43.849911388873565" lon="12.271580212638444"><ele>311.0</ele><time>2026-04-18T08:52:41.998Z</time></trkpt><trkpt lat="43.84998320529371" lon="12.271621812026991"><ele>311.0</ele><time>2026-04-18T08:52:42.998Z</time></trkpt><trkpt lat="43.85004854435338" lon="12.271729444464427"><ele>311.0</ele><time>2026-04-18T08:52:44.998Z</time></trkpt><trkpt lat="43.85007221304518" lon="12.271848957479762"><ele>311.0</ele><time>2026-04-18T08:52:45.998Z</time></trkpt><trkpt lat="43.850124266605405" lon="12.271971538198613"><ele>311.0</ele><time>2026-04-18T08:52:46.998Z</time></trkpt><trkpt lat="43.85018007185822" lon="12.272075680888772"><ele>311.0</ele><time>2026-04-18T08:52:47.998Z</time></trkpt><trkpt lat="43.85023325165514" lon="12.272149413341442"><ele>311.0</ele><time>2026-04-18T08:52:48.998Z</time></trkpt><trkpt lat="43.85029737630106" lon="12.272207452371807"><ele>311.0</ele><time>2026-04-18T08:52:49.998Z</time></trkpt><trkpt lat="43.85036352223987" lon="12.272283809103788"><ele>311.0</ele><time>2026-04-18T08:52:50.998Z</time></trkpt><trkpt lat="43.85042267565227" lon="12.272330519150593"><ele>311.0</ele><time>2026-04-18T08:52:52.998Z</time></trkpt><trkpt lat="43.850498085821734" lon="12.272261604308389"><ele>311.0</ele><time>2026-04-18T08:52:54.998Z</time></trkpt><trkpt lat="43.85060696187397" lon="12.272221540383738"><ele>311.0</ele><time>2026-04-18T08:52:55.998Z</time></trkpt><trkpt lat="43.850707506223706" lon="12.272200017315546"><ele>311.0</ele><time>2026-04-18T08:52:56.998Z</time></trkpt><trkpt lat="43.85078863000071" lon="12.27216261780782"><ele>311.0</ele><time>2026-04-18T08:52:57.998Z</time></trkpt><trkpt lat="43.850853453605225" lon="12.272118111045991"><ele>311.0</ele><time>2026-04-18T08:52:58.998Z</time></trkpt><trkpt lat="43.85095254137817" lon="12.272112336327755"><ele>311.6</ele><time>2026-04-18T08:53:01Z</time></trkpt><trkpt lat="43.851082179749085" lon="12.272115920270293"><ele>312.20000000000005</ele><time>2026-04-18T08:53:03Z</time></trkpt><trkpt lat="43.85119689132414" lon="12.272097846904735"><ele>312.79999999999995</ele><time>2026-04-18T08:53:05Z</time></trkpt><trkpt lat="43.85126782877612" lon="12.272128616539245"><ele>313.4</ele><time>2026-04-18T08:53:09Z</time></trkpt><trkpt lat="43.851360468998074" lon="12.272160163867843"><ele>314.0</ele><time>2026-04-18T08:53:12Z</time></trkpt><trkpt lat="43.85144787197511" lon="12.272149436101724"><ele>314.0</ele><time>2026-04-18T08:53:15Z</time></trkpt><trkpt lat="43.85151570507714" lon="12.27211545267416"><ele>314.0</ele><time>2026-04-18T08:53:17Z</time></trkpt><trkpt lat="43.85158056400526" lon="12.272032191921204"><ele>314.0</ele><time>2026-04-18T08:53:19Z</time></trkpt><trkpt lat="43.85165986129498" lon="12.27195104823085"><ele>314.0</ele><time>2026-04-18T08:53:21Z</time></trkpt><trkpt lat="43.851781912467416" lon="12.27185715767638"><ele>314.0</ele><time>2026-04-18T08:53:23Z</time></trkpt><trkpt lat="43.85185776640122" lon="12.271805134687018"><ele>314.33333333333337</ele><time>2026-04-18T08:53:24Z</time></trkpt><trkpt lat="43.85192696098401" lon="12.271781893164468"><ele>314.6666666666667</ele><time>2026-04-18T08:53:25Z</time></trkpt><trkpt lat="43.85198812071775" lon="12.271727865458974"><ele>315.0</ele><time>2026-04-18T08:53:25.999Z</time></trkpt><trkpt lat="43.85205004340421" lon="12.271631265317616"><ele>315.3333333333333</ele><time>2026-04-18T08:53:26.999Z</time></trkpt><trkpt lat="43.85210612822097" lon="12.271535735947177"><ele>315.66666666666663</ele><time>2026-04-18T08:53:27.999Z</time></trkpt><trkpt lat="43.85215169197495" lon="12.271452700384089"><ele>316.0</ele><time>2026-04-18T08:53:28.999Z</time></trkpt><trkpt lat="43.85227162496055" lon="12.271417811907629"><ele>316.0</ele><time>2026-04-18T08:53:30.999Z</time></trkpt><trkpt lat="43.852343846882825" lon="12.271450925303613"><ele>316.0</ele><time>2026-04-18T08:53:31.999Z</time></trkpt><trkpt lat="43.85239093312981" lon="12.271509448019614"><ele>316.0</ele><time>2026-04-18T08:53:32.999Z</time></trkpt><trkpt lat="43.85243542331231" lon="12.271646825727977"><ele>316.0</ele><time>2026-04-18T08:53:34.999Z</time></trkpt><trkpt lat="43.85256803515016" lon="12.271686887530462"><ele>316.0</ele><time>2026-04-18T08:53:36.999Z</time></trkpt><trkpt lat="43.85265032779679" lon="12.27171548007623"><ele>317.0</ele><time>2026-04-18T08:53:37.999Z</time></trkpt><trkpt lat="43.852732544751085" lon="12.271742847167788"><ele>318.0</ele><time>2026-04-18T08:53:38.999Z</time></trkpt><trkpt lat="43.85281315850782" lon="12.271765054329551"><ele>319.0</ele><time>2026-04-18T08:53:39.999Z</time></trkpt><trkpt lat="43.85289181063143" lon="12.27178856866372"><ele>320.0</ele><time>2026-04-18T08:53:40.999Z</time></trkpt><trkpt lat="43.852960936923694" lon="12.271825003116238"><ele>321.0</ele><time>2026-04-18T08:53:41.999Z</time></trkpt><trkpt lat="43.85303969788678" lon="12.271889436011913"><ele>322.0</ele><time>2026-04-18T08:53:42.999Z</time></trkpt><trkpt lat="43.853113955298475" lon="12.271953486208089"><ele>322.0</ele><time>2026-04-18T08:53:43.999Z</time></trkpt><trkpt lat="43.853184993992954" lon="12.272017124157491"><ele>322.0</ele><time>2026-04-18T08:53:44.999Z</time></trkpt><trkpt lat="43.853258031988716" lon="12.272148101189785"><ele>322.0</ele><time>2026-04-18T08:53:46.999Z</time></trkpt><trkpt lat="43.85330414678846" lon="12.272211146958984"><ele>322.0</ele><time>2026-04-18T08:53:47.999Z</time></trkpt><trkpt lat="43.85336604230999" lon="12.272241163256828"><ele>322.0</ele><time>2026-04-18T08:53:48.999Z</time></trkpt><trkpt lat="43.85343135564669" lon="12.272245367939322"><ele>322.0</ele><time>2026-04-18T08:53:49.999Z</time></trkpt><trkpt lat="43.85349343719164" lon="12.272264641816387"><ele>320.16666666666663</ele><time>2026-04-18T08:53:50.999Z</time></trkpt><trkpt lat="43.85359504205436" lon="12.272315475536404"><ele>318.3333333333333</ele><time>2026-04-18T08:53:52.999Z</time></trkpt><trkpt lat="43.85364981857325" lon="12.272374323034462"><ele>316.5</ele><time>2026-04-18T08:53:54.999Z</time></trkpt><trkpt lat="43.85372228719791" lon="12.272453521376896"><ele>314.6666666666667</ele><time>2026-04-18T08:53:55.999Z</time></trkpt><trkpt lat="43.85378268054502" lon="12.272542732413987"><ele>312.83333333333337</ele><time>2026-04-18T08:53:56.999Z</time></trkpt><trkpt lat="43.85382463786773" lon="12.272620807006115"><ele>311.0</ele><time>2026-04-18T08:53:57.999Z</time></trkpt><trkpt lat="43.85391831964615" lon="12.272745025768483"><ele>311.0</ele><time>2026-04-18T08:53:59.999Z</time></trkpt><trkpt lat="43.85398292187349" lon="12.27277326735058"><ele>311.0</ele><time>2026-04-18T08:54:00.999Z</time></trkpt><trkpt lat="43.854055372456514" lon="12.272814241093883"><ele>311.0</ele><time>2026-04-18T08:54:01.999Z</time></trkpt><trkpt lat="43.854133955162716" lon="12.272841021518595"><ele>311.0</ele><time>2026-04-18T08:54:02.999Z</time></trkpt><trkpt lat="43.85421307022307" lon="12.27284590575584"><ele>311.0</ele><time>2026-04-18T08:54:03.999Z</time></trkpt><trkpt lat="43.85429350596091" lon="12.272795633859964"><ele>311.0</ele><time>2026-04-18T08:54:05.999Z</time></trkpt><trkpt lat="43.85440856751332" lon="12.272858963223037"><ele>311.0</ele><time>2026-04-18T08:54:07.999Z</time></trkpt><trkpt lat="43.85449055450873" lon="12.272970130543204"><ele>311.0</ele><time>2026-04-18T08:54:08.999Z</time></trkpt><trkpt lat="43.85455452366938" lon="12.273115498136635"><ele>311.0</ele><time>2026-04-18T08:54:09.999Z</time></trkpt><trkpt lat="43.85459788189397" lon="12.27323061208499"><ele>311.0</ele><time>2026-04-18T08:54:10.999Z</time></trkpt><trkpt lat="43.854636728652224" lon="12.273326162200751"><ele>311.0</ele><time>2026-04-18T08:54:11.999Z</time></trkpt><trkpt lat="43.85470211854933" lon="12.273399743683635"><ele>311.0</ele><time>2026-04-18T08:54:12.999Z</time></trkpt><trkpt lat="43.85477110409103" lon="12.273406022979051"><ele>311.0</ele><time>2026-04-18T08:54:13.999Z</time></trkpt><trkpt lat="43.85485923326139" lon="12.273401919709078"><ele>311.0</ele><time>2026-04-18T08:54:14.999Z</time></trkpt><trkpt lat="43.854918161284175" lon="12.273330111165489"><ele>311.0</ele><time>2026-04-18T08:54:15.999Z</time></trkpt><trkpt lat="43.855001307694565" lon="12.273250307111915"><ele>311.0</ele><time>2026-04-18T08:54:16.999Z</time></trkpt><trkpt lat="43.85509013804988" lon="12.27338136593403"><ele>310.40000000000003</ele><time>2026-04-18T08:54:18.999Z</time></trkpt><trkpt lat="43.85512680108149" lon="12.273474000341071"><ele>309.8</ele><time>2026-04-18T08:54:19.999Z</time></trkpt><trkpt lat="43.85515027127662" lon="12.273601731410062"><ele>309.20000000000005</ele><time>2026-04-18T08:54:20.999Z</time></trkpt><trkpt lat="43.855133413427545" lon="12.273811443786485"><ele>308.6</ele><time>2026-04-18T08:54:22.999Z</time></trkpt><trkpt lat="43.855160857507386" lon="12.27394439790034"><ele>308.0</ele><time>2026-04-18T08:54:23.999Z</time></trkpt><trkpt lat="43.855199703342" lon="12.274038422727807"><ele>308.0</ele><time>2026-04-18T08:54:24.999Z</time></trkpt><trkpt lat="43.85525473608796" lon="12.274119245570235"><ele>308.0</ele><time>2026-04-18T08:54:25.999Z</time></trkpt><trkpt lat="43.855334609140556" lon="12.274161072756758"><ele>308.0</ele><time>2026-04-18T08:54:26.999Z</time></trkpt><trkpt lat="43.85540011487209" lon="12.274239813574615"><ele>308.0</ele><time>2026-04-18T08:54:27.999Z</time></trkpt><trkpt lat="43.85544935841074" lon="12.274315865730477"><ele>308.0</ele><time>2026-04-18T08:54:28.999Z</time></trkpt><trkpt lat="43.85549208121459" lon="12.274397333662852"><ele>308.0</ele><time>2026-04-18T08:54:29.999Z</time></trkpt><trkpt lat="43.855524591780956" lon="12.274496136749557"><ele>308.0</ele><time>2026-04-18T08:54:30.999Z</time></trkpt><trkpt lat="43.85555339139905" lon="12.274573901476153"><ele>308.0</ele><time>2026-04-18T08:54:31.999Z</time></trkpt><trkpt lat="43.85560139947534" lon="12.274668665309342"><ele>308.0</ele><time>2026-04-18T08:54:32.999Z</time></trkpt><trkpt lat="43.8556556537032" lon="12.274731295181208"><ele>308.0</ele><time>2026-04-18T08:54:33.999Z</time></trkpt><trkpt lat="43.85572591365679" lon="12.27477033903878"><ele>308.0</ele><time>2026-04-18T08:54:34.999Z</time></trkpt><trkpt lat="43.85583984280462" lon="12.274777582225587"><ele>308.0</ele><time>2026-04-18T08:54:36.999Z</time></trkpt><trkpt lat="43.85590752666908" lon="12.274968438928408"><ele>306.6</ele><time>2026-04-18T08:54:38.999Z</time></trkpt><trkpt lat="43.85600264656055" lon="12.275062554784581"><ele>305.20000000000005</ele><time>2026-04-18T08:54:40.999Z</time></trkpt><trkpt lat="43.85609362177762" lon="12.275066334873653"><ele>303.8</ele><time>2026-04-18T08:54:41.999Z</time></trkpt><trkpt lat="43.856149483216186" lon="12.275002782006325"><ele>302.40000000000003</ele><time>2026-04-18T08:54:43.999Z</time></trkpt><trkpt lat="43.85622258977947" lon="12.275007906926827"><ele>301.0</ele><time>2026-04-18T08:54:46.999Z</time></trkpt><trkpt lat="43.85645758753662" lon="12.275031189450683"><ele>301.0</ele><time>2026-04-18T08:54:48.999Z</time></trkpt><trkpt lat="43.85659916442532" lon="12.275054383423058"><ele>301.0</ele><time>2026-04-18T08:54:56.999Z</time></trkpt><trkpt lat="43.8566897758493" lon="12.275079262989491"><ele>301.0</ele><time>2026-04-18T08:54:57.999Z</time></trkpt><trkpt lat="43.85680484838212" lon="12.275093411396723"><ele>301.0</ele><time>2026-04-18T08:54:58.999Z</time></trkpt><trkpt lat="43.856902180559366" lon="12.275113082470781"><ele>301.0</ele><time>2026-04-18T08:54:59.999Z</time></trkpt><trkpt lat="43.85699188258897" lon="12.275142748059263"><ele>301.66666666666663</ele><time>2026-04-18T08:55:00.999Z</time></trkpt><trkpt lat="43.85709372431872" lon="12.275188713807959"><ele>302.3333333333333</ele><time>2026-04-18T08:55:01.999Z</time></trkpt><trkpt lat="43.85718477267038" lon="12.275225516288192"><ele>303.0</ele><time>2026-04-18T08:55:02.999Z</time></trkpt><trkpt lat="43.857272466479" lon="12.275223585715935"><ele>303.6666666666667</ele><time>2026-04-18T08:55:03.999Z</time></trkpt><trkpt lat="43.8573350240252" lon="12.275160021585489"><ele>304.33333333333337</ele><time>2026-04-18T08:55:04.999Z</time></trkpt><trkpt lat="43.85740706114537" lon="12.275107927328609"><ele>305.0</ele><time>2026-04-18T08:55:06Z</time></trkpt><trkpt lat="43.85748533215451" lon="12.275057388264779"><ele>305.0</ele><time>2026-04-18T08:55:07Z</time></trkpt><trkpt lat="43.857561563082974" lon="12.275013364707288"><ele>305.0</ele><time>2026-04-18T08:55:08Z</time></trkpt><trkpt lat="43.857661393429815" lon="12.275012537280334"><ele>305.0</ele><time>2026-04-18T08:55:20Z</time></trkpt><trkpt lat="43.85772707818663" lon="12.274999203185459"><ele>305.0</ele><time>2026-04-18T08:55:21Z</time></trkpt><trkpt lat="43.85785358560768" lon="12.275031999829412"><ele>305.0</ele><time>2026-04-18T08:55:23Z</time></trkpt><trkpt lat="43.857939246262646" lon="12.275058868808038"><ele>305.8</ele><time>2026-04-18T08:55:24Z</time></trkpt><trkpt lat="43.85804026084566" lon="12.275076080851127"><ele>306.6</ele><time>2026-04-18T08:55:25Z</time></trkpt><trkpt lat="43.85811851409002" lon="12.27507315558609"><ele>307.4</ele><time>2026-04-18T08:55:26Z</time></trkpt><trkpt lat="43.858177949122314" lon="12.275108694256115"><ele>308.2</ele><time>2026-04-18T08:55:28Z</time></trkpt><trkpt lat="43.85824869116008" lon="12.275140935931878"><ele>309.0</ele><time>2026-04-18T08:55:30Z</time></trkpt><trkpt lat="43.85838999958036" lon="12.275168429975134"><ele>309.8</ele><time>2026-04-18T08:55:32Z</time></trkpt><trkpt lat="43.85847648533702" lon="12.275143682028729"><ele>310.59999999999997</ele><time>2026-04-18T08:55:34Z</time></trkpt><trkpt lat="43.85858749829771" lon="12.275054742478291"><ele>311.4</ele><time>2026-04-18T08:55:36Z</time></trkpt><trkpt lat="43.85867966469687" lon="12.275022374339503"><ele>312.2</ele><time>2026-04-18T08:55:37Z</time></trkpt><trkpt lat="43.858775097154655" lon="12.274989686311843"><ele>313.0</ele><time>2026-04-18T08:55:38Z</time></trkpt><trkpt lat="43.85885177473798" lon="12.274969496808424"><ele>313.0</ele><time>2026-04-18T08:55:39Z</time></trkpt><trkpt lat="43.85895942765041" lon="12.2748820712993"><ele>313.0</ele><time>2026-04-18T08:55:40.999Z</time></trkpt><trkpt lat="43.859019986618584" lon="12.27479961322402"><ele>313.0</ele><time>2026-04-18T08:55:41.999Z</time></trkpt><trkpt lat="43.85906083855392" lon="12.274707867502928"><ele>313.0</ele><time>2026-04-18T08:55:42.999Z</time></trkpt><trkpt lat="43.85909068903705" lon="12.27460373716701"><ele>313.0</ele><time>2026-04-18T08:55:43.999Z</time></trkpt><trkpt lat="43.85912316869733" lon="12.27448092506418"><ele>314.5</ele><time>2026-04-18T08:55:44.999Z</time></trkpt><trkpt lat="43.85915872618156" lon="12.274364929161045"><ele>316.0</ele><time>2026-04-18T08:55:45.999Z</time></trkpt><trkpt lat="43.859218970249024" lon="12.274279940270421"><ele>317.5</ele><time>2026-04-18T08:55:46.999Z</time></trkpt><trkpt lat="43.85929111802497" lon="12.274245770574737"><ele>319.0</ele><time>2026-04-18T08:55:48.999Z</time></trkpt><trkpt lat="43.85934949602493" lon="12.27430331043971"><ele>320.5</ele><time>2026-04-18T08:55:50.999Z</time></trkpt><trkpt lat="43.85941605494052" lon="12.274362147354559"><ele>322.0</ele><time>2026-04-18T08:55:51.999Z</time></trkpt><trkpt lat="43.85950890900827" lon="12.274441838423543"><ele>322.75</ele><time>2026-04-18T08:55:52.999Z</time></trkpt><trkpt lat="43.859619023461164" lon="12.274512264144555"><ele>323.5</ele><time>2026-04-18T08:55:53.999Z</time></trkpt><trkpt lat="43.85971829250916" lon="12.274600921355358"><ele>324.25</ele><time>2026-04-18T08:55:54.999Z</time></trkpt><trkpt lat="43.85981417112842" lon="12.274683083007643"><ele>325.0</ele><time>2026-04-18T08:55:55.999Z</time></trkpt><trkpt lat="43.85992407241227" lon="12.274759092838604"><ele>325.2</ele><time>2026-04-18T08:55:56.999Z</time></trkpt><trkpt lat="43.860030011531734" lon="12.274813526657931"><ele>325.4</ele><time>2026-04-18T08:55:57.999Z</time></trkpt><trkpt lat="43.86013566289579" lon="12.274860437381719"><ele>325.6</ele><time>2026-04-18T08:55:58.999Z</time></trkpt><trkpt lat="43.86023310751043" lon="12.274898232850246"><ele>325.8</ele><time>2026-04-18T08:55:59.999Z</time></trkpt><trkpt lat="43.860342139316124" lon="12.274952266169857"><ele>326.0</ele><time>2026-04-18T08:56:00.999Z</time></trkpt><trkpt lat="43.86044539099794" lon="12.275003740992119"><ele>326.0</ele><time>2026-04-18T08:56:01.999Z</time></trkpt><trkpt lat="43.86053769689439" lon="12.27505683147706"><ele>326.0</ele><time>2026-04-18T08:56:02.999Z</time></trkpt><trkpt lat="43.86061212437054" lon="12.275147185000074"><ele>326.0</ele><time>2026-04-18T08:56:03.999Z</time></trkpt><trkpt lat="43.86071765231102" lon="12.275250502540148"><ele>326.0</ele><time>2026-04-18T08:56:04.999Z</time></trkpt><trkpt lat="43.860807872504225" lon="12.275329554867525"><ele>326.0</ele><time>2026-04-18T08:56:05.999Z</time></trkpt><trkpt lat="43.86089329356629" lon="12.275419111441684"><ele>326.0</ele><time>2026-04-18T08:56:06.999Z</time></trkpt><trkpt lat="43.86094259736556" lon="12.275489422302673"><ele>326.0</ele><time>2026-04-18T08:56:07.999Z</time></trkpt><trkpt lat="43.8610383954532" lon="12.27551165564296"><ele>326.0</ele><time>2026-04-18T08:56:09.999Z</time></trkpt><trkpt lat="43.861106781977796" lon="12.275516113678112"><ele>326.0</ele><time>2026-04-18T08:56:10.999Z</time></trkpt><trkpt lat="43.86117776868989" lon="12.275497280984503"><ele>326.0</ele><time>2026-04-18T08:56:11.999Z</time></trkpt><trkpt lat="43.86123798615286" lon="12.275359354355691"><ele>326.0</ele><time>2026-04-18T08:56:13.999Z</time></trkpt><trkpt lat="43.86128023218801" lon="12.27524252647894"><ele>331.0</ele><time>2026-04-18T08:56:14.999Z</time></trkpt><trkpt lat="43.86137409628061" lon="12.275065926984658"><ele>336.0</ele><time>2026-04-18T08:56:15.999Z</time></trkpt><trkpt lat="43.861488610329616" lon="12.274909020472656"><ele>341.0</ele><time>2026-04-18T08:56:16.999Z</time></trkpt><trkpt lat="43.86159374386234" lon="12.27480123799754"><ele>343.0</ele><time>2026-04-18T08:56:17.999Z</time></trkpt><trkpt lat="43.861675764339644" lon="12.274685983711546"><ele>345.0</ele><time>2026-04-18T08:56:18.999Z</time></trkpt><trkpt lat="43.86175717444475" lon="12.274574754370843"><ele>347.0</ele><time>2026-04-18T08:56:19.999Z</time></trkpt><trkpt lat="43.861824464576685" lon="12.274485087863628"><ele>349.0</ele><time>2026-04-18T08:56:20.999Z</time></trkpt><trkpt lat="43.86183214212533" lon="12.274378818826072"><ele>351.0</ele><time>2026-04-18T08:56:22.999Z</time></trkpt><trkpt lat="43.86191659193004" lon="12.2743449532948"><ele>351.3333333333333</ele><time>2026-04-18T08:56:26.999Z</time></trkpt><trkpt lat="43.862010281931056" lon="12.274456172570547"><ele>351.6666666666667</ele><time>2026-04-18T08:56:28.999Z</time></trkpt><trkpt lat="43.86207498505869" lon="12.274541410575155"><ele>352.0</ele><time>2026-04-18T08:56:29.999Z</time></trkpt><trkpt lat="43.862109469102926" lon="12.274634034270523"><ele>352.33333333333337</ele><time>2026-04-18T08:56:30.999Z</time></trkpt><trkpt lat="43.862155486502054" lon="12.274695655163745"><ele>352.6666666666667</ele><time>2026-04-18T08:56:31.999Z</time></trkpt><trkpt lat="43.86221006370459" lon="12.27474320251486"><ele>353.0</ele><time>2026-04-18T08:56:32.999Z</time></trkpt><trkpt lat="43.862276297019804" lon="12.27486813914966"><ele>350.75</ele><time>2026-04-18T08:56:34.999Z</time></trkpt><trkpt lat="43.86234697579754" lon="12.274974339797568"><ele>348.5</ele><time>2026-04-18T08:56:36.999Z</time></trkpt><trkpt lat="43.86245722844169" lon="12.275089019853962"><ele>346.25</ele><time>2026-04-18T08:56:38.999Z</time></trkpt><trkpt lat="43.8625624563132" lon="12.275140735746943"><ele>344.0</ele><time>2026-04-18T08:56:40.999Z</time></trkpt><trkpt lat="43.86267700627571" lon="12.27514852010643"><ele>342.83333333333337</ele><time>2026-04-18T08:56:42.999Z</time></trkpt><trkpt lat="43.86274787507285" lon="12.275134897111327"><ele>341.6666666666667</ele><time>2026-04-18T08:56:43.999Z</time></trkpt><trkpt lat="43.862821857362675" lon="12.27511578553962"><ele>340.5</ele><time>2026-04-18T08:56:44.999Z</time></trkpt><trkpt lat="43.86288372712155" lon="12.275082605365359"><ele>339.3333333333333</ele><time>2026-04-18T08:56:45.999Z</time></trkpt><trkpt lat="43.8629421993324" lon="12.275014399789649"><ele>338.16666666666663</ele><time>2026-04-18T08:56:46.999Z</time></trkpt><trkpt lat="43.86301142410311" lon="12.274938253524404"><ele>337.0</ele><time>2026-04-18T08:56:47.999Z</time></trkpt><trkpt lat="43.863068205509485" lon="12.274850118648176"><ele>337.8333333333333</ele><time>2026-04-18T08:56:48.999Z</time></trkpt><trkpt lat="43.86312441727681" lon="12.274760888525146"><ele>338.66666666666663</ele><time>2026-04-18T08:56:49.999Z</time></trkpt><trkpt lat="43.86317945505101" lon="12.274661717488577"><ele>339.5</ele><time>2026-04-18T08:56:50.999Z</time></trkpt><trkpt lat="43.863231820308926" lon="12.274576728213415"><ele>340.3333333333333</ele><time>2026-04-18T08:56:51.999Z</time></trkpt><trkpt lat="43.863255456760946" lon="12.274469696696976"><ele>341.1666666666667</ele><time>2026-04-18T08:56:52.999Z</time></trkpt><trkpt lat="43.86323224417928" lon="12.2743722640916"><ele>342.0</ele><time>2026-04-18T08:56:53.999Z</time></trkpt><trkpt lat="43.86322919184824" lon="12.274279985132848"><ele>342.0</ele><time>2026-04-18T08:56:54.999Z</time></trkpt><trkpt lat="43.863197124367154" lon="12.274129228912189"><ele>342.0</ele><time>2026-04-18T08:56:56.999Z</time></trkpt><trkpt lat="43.86320496920758" lon="12.27398405651545"><ele>342.0</ele><time>2026-04-18T08:56:58.999Z</time></trkpt><trkpt lat="43.86333744336195" lon="12.273961286924852"><ele>342.0</ele><time>2026-04-18T08:57:00.999Z</time></trkpt><trkpt lat="43.86341489779961" lon="12.273940019194292"><ele>342.0</ele><time>2026-04-18T08:57:01.999Z</time></trkpt><trkpt lat="43.86350117086265" lon="12.273920967026758"><ele>343.40000000000003</ele><time>2026-04-18T08:57:02.999Z</time></trkpt><trkpt lat="43.863595473169745" lon="12.273903447548427"><ele>344.8</ele><time>2026-04-18T08:57:03.999Z</time></trkpt><trkpt lat="43.863683175668456" lon="12.273890460904333"><ele>346.2</ele><time>2026-04-18T08:57:04.999Z</time></trkpt><trkpt lat="43.86378576337056" lon="12.273864557158007"><ele>347.6</ele><time>2026-04-18T08:57:05.999Z</time></trkpt><trkpt lat="43.8638918266286" lon="12.273908143429512"><ele>349.0</ele><time>2026-04-18T08:57:06.999Z</time></trkpt><trkpt lat="43.86397401652644" lon="12.273953388174084"><ele>349.0</ele><time>2026-04-18T08:57:07.999Z</time></trkpt><trkpt lat="43.86404569783857" lon="12.274022093189663"><ele>349.0</ele><time>2026-04-18T08:57:08.999Z</time></trkpt><trkpt lat="43.86412241711391" lon="12.274108839992492"><ele>349.0</ele><time>2026-04-18T08:57:09.999Z</time></trkpt><trkpt lat="43.864185458827585" lon="12.274226960715836"><ele>349.0</ele><time>2026-04-18T08:57:10.999Z</time></trkpt><trkpt lat="43.86426267985307" lon="12.274350061272896"><ele>349.0</ele><time>2026-04-18T08:57:12Z</time></trkpt><trkpt lat="43.86433179194027" lon="12.27446367997435"><ele>350.6</ele><time>2026-04-18T08:57:13Z</time></trkpt><trkpt lat="43.864385187938915" lon="12.27458262782127"><ele>352.2</ele><time>2026-04-18T08:57:14Z</time></trkpt><trkpt lat="43.86442503508812" lon="12.27474059681089"><ele>353.8</ele><time>2026-04-18T08:57:15Z</time></trkpt><trkpt lat="43.86446390732263" lon="12.274894072890302"><ele>355.40000000000003</ele><time>2026-04-18T08:57:16Z</time></trkpt><trkpt lat="43.86452978952122" lon="12.275005258378162"><ele>357.0</ele><time>2026-04-18T08:57:17Z</time></trkpt><trkpt lat="43.864595313519104" lon="12.2750978385336"><ele>357.0</ele><time>2026-04-18T08:57:18Z</time></trkpt><trkpt lat="43.86465864516535" lon="12.275181544327918"><ele>357.0</ele><time>2026-04-18T08:57:19Z</time></trkpt><trkpt lat="43.86473552858532" lon="12.275193405236756"><ele>357.0</ele><time>2026-04-18T08:57:20Z</time></trkpt><trkpt lat="43.864777269798076" lon="12.27527695556755"><ele>357.0</ele><time>2026-04-18T08:57:22Z</time></trkpt><trkpt lat="43.864760211547356" lon="12.275184918161973"><ele>357.0</ele><time>2026-04-18T08:57:24Z</time></trkpt><trkpt lat="43.864815394968616" lon="12.27513079941329"><ele>357.0</ele><time>2026-04-18T08:57:42Z</time></trkpt><trkpt lat="43.86482941324598" lon="12.275026953083556"><ele>357.0</ele><time>2026-04-18T08:57:43Z</time></trkpt><trkpt lat="43.86484150407111" lon="12.274879546893134"><ele>357.0</ele><time>2026-04-18T08:57:44Z</time></trkpt><trkpt lat="43.864857849520035" lon="12.274703702288084"><ele>357.0</ele><time>2026-04-18T08:57:45Z</time></trkpt><trkpt lat="43.86487200391788" lon="12.274538795798188"><ele>357.0</ele><time>2026-04-18T08:57:46Z</time></trkpt><trkpt lat="43.86490265606828" lon="12.274397417157232"><ele>357.3333333333333</ele><time>2026-04-18T08:57:47Z</time></trkpt><trkpt lat="43.864950179153006" lon="12.274277040464073"><ele>357.6666666666667</ele><time>2026-04-18T08:57:48Z</time></trkpt><trkpt lat="43.865009896666926" lon="12.27420708782527"><ele>358.0</ele><time>2026-04-18T08:57:49Z</time></trkpt><trkpt lat="43.865078031488075" lon="12.274194401359358"><ele>358.33333333333337</ele><time>2026-04-18T08:57:50Z</time></trkpt><trkpt lat="43.865142353771105" lon="12.274227962165481"><ele>358.6666666666667</ele><time>2026-04-18T08:57:51Z</time></trkpt><trkpt lat="43.86520762710368" lon="12.274338048011037"><ele>359.0</ele><time>2026-04-18T08:57:52Z</time></trkpt><trkpt lat="43.86527990809473" lon="12.274450663970079"><ele>361.6</ele><time>2026-04-18T08:57:53Z</time></trkpt><trkpt lat="43.86538110630987" lon="12.274547839457538"><ele>364.2</ele><time>2026-04-18T08:57:54Z</time></trkpt><trkpt lat="43.86546512518401" lon="12.2746372995951"><ele>366.8</ele><time>2026-04-18T08:57:55Z</time></trkpt><trkpt lat="43.86556476269029" lon="12.274667921504028"><ele>369.40000000000003</ele><time>2026-04-18T08:57:56Z</time></trkpt><trkpt lat="43.86564611056495" lon="12.274681798460293"><ele>372.0</ele><time>2026-04-18T08:57:57Z</time></trkpt><trkpt lat="43.865701508144674" lon="12.27463072126843"><ele>370.0</ele><time>2026-04-18T08:57:58Z</time></trkpt><trkpt lat="43.865649512228124" lon="12.274989101811046"><ele>368.0</ele><time>2026-04-18T08:58:02.999Z</time></trkpt><trkpt lat="43.86571365420647" lon="12.274986685748116"><ele>366.0</ele><time>2026-04-18T08:58:03.999Z</time></trkpt><trkpt lat="43.86579196156855" lon="12.27510640236526"><ele>364.0</ele><time>2026-04-18T08:58:05.999Z</time></trkpt><trkpt lat="43.86585453386564" lon="12.275123043387188"><ele>364.25</ele><time>2026-04-18T08:58:06.999Z</time></trkpt><trkpt lat="43.86598207821307" lon="12.275172223441986"><ele>364.5</ele><time>2026-04-18T08:58:08.999Z</time></trkpt><trkpt lat="43.86609509413553" lon="12.275231235826688"><ele>364.75</ele><time>2026-04-18T08:58:10.999Z</time></trkpt><trkpt lat="43.866183641107725" lon="12.27519534724142"><ele>365.0</ele><time>2026-04-18T08:58:11.999Z</time></trkpt><trkpt lat="43.86629323889458" lon="12.275153704285957"><ele>365.0</ele><time>2026-04-18T08:58:12.999Z</time></trkpt><trkpt lat="43.866404998937305" lon="12.275116182513734"><ele>365.0</ele><time>2026-04-18T08:58:13.999Z</time></trkpt><trkpt lat="43.86652876937926" lon="12.275089765714306"><ele>365.0</ele><time>2026-04-18T08:58:14.999Z</time></trkpt><trkpt lat="43.86661063356451" lon="12.27508503812741"><ele>365.0</ele><time>2026-04-18T08:58:15.999Z</time></trkpt><trkpt lat="43.86668938428861" lon="12.275091927950804"><ele>365.0</ele><time>2026-04-18T08:58:16.999Z</time></trkpt><trkpt lat="43.866787017181544" lon="12.2751102250253"><ele>363.8</ele><time>2026-04-18T08:58:17.999Z</time></trkpt><trkpt lat="43.86687323695264" lon="12.275123818954683"><ele>362.6</ele><time>2026-04-18T08:58:18.999Z</time></trkpt><trkpt lat="43.86699218986286" lon="12.275130567348917"><ele>361.4</ele><time>2026-04-18T08:58:20.999Z</time></trkpt><trkpt lat="43.867076680331856" lon="12.275182932011319"><ele>360.2</ele><time>2026-04-18T08:58:21.999Z</time></trkpt><trkpt lat="43.8671571642198" lon="12.275248942590402"><ele>359.0</ele><time>2026-04-18T08:58:22.999Z</time></trkpt><trkpt lat="43.86723704590156" lon="12.275288332144221"><ele>359.0</ele><time>2026-04-18T08:58:23.999Z</time></trkpt><trkpt lat="43.86731884773071" lon="12.275304050349396"><ele>359.0</ele><time>2026-04-18T08:58:24.999Z</time></trkpt><trkpt lat="43.8674049206429" lon="12.27532011898765"><ele>359.0</ele><time>2026-04-18T08:58:25.999Z</time></trkpt><trkpt lat="43.867490398828174" lon="12.275347045696435"><ele>359.0</ele><time>2026-04-18T08:58:26.999Z</time></trkpt><trkpt lat="43.867565440595826" lon="12.275356340830506"><ele>359.0</ele><time>2026-04-18T08:58:27.999Z</time></trkpt><trkpt lat="43.867636486292675" lon="12.275366622646084"><ele>359.0</ele><time>2026-04-18T08:58:28.999Z</time></trkpt><trkpt lat="43.86771417212024" lon="12.275408742260788"><ele>358.1666666666667</ele><time>2026-04-18T08:58:30.999Z</time></trkpt><trkpt lat="43.867720747377525" lon="12.275503228921224"><ele>357.33333333333337</ele><time>2026-04-18T08:59:07.999Z</time></trkpt><trkpt lat="43.86769313580731" lon="12.275637755285036"><ele>356.5</ele><time>2026-04-18T08:59:09.999Z</time></trkpt><trkpt lat="43.86767460037307" lon="12.27573992617553"><ele>355.6666666666667</ele><time>2026-04-18T08:59:10.999Z</time></trkpt><trkpt lat="43.86764932133773" lon="12.27583467103396"><ele>354.8333333333333</ele><time>2026-04-18T08:59:11.999Z</time></trkpt><trkpt lat="43.867621465254594" lon="12.27595155206864"><ele>354.0</ele><time>2026-04-18T08:59:12.999Z</time></trkpt><trkpt lat="43.867570740623094" lon="12.276118133467676"><ele>354.0</ele><time>2026-04-18T08:59:14.999Z</time></trkpt><trkpt lat="43.86751993276333" lon="12.276213106402793"><ele>354.0</ele><time>2026-04-18T08:59:15.999Z</time></trkpt><trkpt lat="43.86746421748793" lon="12.276299923326642"><ele>354.0</ele><time>2026-04-18T08:59:16.999Z</time></trkpt><trkpt lat="43.86740662967258" lon="12.276381740225926"><ele>354.0</ele><time>2026-04-18T08:59:18Z</time></trkpt><trkpt lat="43.867361521777774" lon="12.276484730885567"><ele>354.0</ele><time>2026-04-18T08:59:19Z</time></trkpt><trkpt lat="43.867345312831674" lon="12.276589020917278"><ele>354.0</ele><time>2026-04-18T08:59:20Z</time></trkpt><trkpt lat="43.86735896884336" lon="12.276704671929204"><ele>352.4</ele><time>2026-04-18T08:59:21Z</time></trkpt><trkpt lat="43.867387143005566" lon="12.27686536494943"><ele>350.79999999999995</ele><time>2026-04-18T08:59:22Z</time></trkpt><trkpt lat="43.86740361591611" lon="12.277043955465501"><ele>349.20000000000005</ele><time>2026-04-18T08:59:23Z</time></trkpt><trkpt lat="43.86740618442741" lon="12.277191775685191"><ele>347.6</ele><time>2026-04-18T08:59:24Z</time></trkpt><trkpt lat="43.86737857340162" lon="12.277314193396771"><ele>346.0</ele><time>2026-04-18T08:59:25Z</time></trkpt><trkpt lat="43.867337516372984" lon="12.277397692400553"><ele>345.20000000000005</ele><time>2026-04-18T08:59:26Z</time></trkpt><trkpt lat="43.86728092734734" lon="12.27743625413805"><ele>344.40000000000003</ele><time>2026-04-18T08:59:27Z</time></trkpt><trkpt lat="43.8672017973271" lon="12.277446866461684"><ele>343.6</ele><time>2026-04-18T08:59:28Z</time></trkpt><trkpt lat="43.86711463094777" lon="12.277435876813993"><ele>342.8</ele><time>2026-04-18T08:59:29Z</time></trkpt><trkpt lat="43.86698721329984" lon="12.277445309554672"><ele>342.0</ele><time>2026-04-18T08:59:30Z</time></trkpt><trkpt lat="43.866872801051336" lon="12.277434100851005"><ele>342.1666666666667</ele><time>2026-04-18T08:59:31Z</time></trkpt><trkpt lat="43.86676205423771" lon="12.277408293380585"><ele>342.3333333333333</ele><time>2026-04-18T08:59:32Z</time></trkpt><trkpt lat="43.86667827610861" lon="12.277374221826584"><ele>342.5</ele><time>2026-04-18T08:59:33Z</time></trkpt><trkpt lat="43.866607098151896" lon="12.27736117487842"><ele>342.66666666666663</ele><time>2026-04-18T08:59:34Z</time></trkpt><trkpt lat="43.86654414049192" lon="12.277368978124692"><ele>342.8333333333333</ele><time>2026-04-18T08:59:35Z</time></trkpt><trkpt lat="43.86646897213313" lon="12.277389575761815"><ele>343.0</ele><time>2026-04-18T08:59:36Z</time></trkpt><trkpt lat="43.86638041910817" lon="12.277434399283592"><ele>343.0</ele><time>2026-04-18T08:59:37Z</time></trkpt><trkpt lat="43.86630158258999" lon="12.277448867084175"><ele>343.0</ele><time>2026-04-18T08:59:38Z</time></trkpt><trkpt lat="43.866236707349145" lon="12.277449578083713"><ele>343.0</ele><time>2026-04-18T08:59:39Z</time></trkpt><trkpt lat="43.866105651137126" lon="12.277427023732777"><ele>343.0</ele><time>2026-04-18T08:59:41Z</time></trkpt><trkpt lat="43.86604290034397" lon="12.277488803732512"><ele>343.0</ele><time>2026-04-18T08:59:42Z</time></trkpt><trkpt lat="43.86603009949459" lon="12.277671035270043"><ele>343.0</ele><time>2026-04-18T08:59:44Z</time></trkpt><trkpt lat="43.866007948152436" lon="12.27779028758723"><ele>343.0</ele><time>2026-04-18T08:59:45Z</time></trkpt><trkpt lat="43.86597468135524" lon="12.277892149456083"><ele>343.0</ele><time>2026-04-18T08:59:46Z</time></trkpt><trkpt lat="43.86594345806233" lon="12.27799479169582"><ele>343.0</ele><time>2026-04-18T08:59:47Z</time></trkpt><trkpt lat="43.86590804362219" lon="12.278115037956105"><ele>343.0</ele><time>2026-04-18T08:59:48Z</time></trkpt><trkpt lat="43.865868981710015" lon="12.27823731959638"><ele>343.0</ele><time>2026-04-18T08:59:49Z</time></trkpt><trkpt lat="43.86582522457288" lon="12.2783546453109"><ele>339.66666666666663</ele><time>2026-04-18T08:59:50Z</time></trkpt><trkpt lat="43.865778464483164" lon="12.2784760479309"><ele>336.3333333333333</ele><time>2026-04-18T08:59:51Z</time></trkpt><trkpt lat="43.865731528855" lon="12.278584114833066"><ele>333.0</ele><time>2026-04-18T08:59:52Z</time></trkpt><trkpt lat="43.86569636969782" lon="12.278683046595045"><ele>329.6666666666667</ele><time>2026-04-18T08:59:53Z</time></trkpt><trkpt lat="43.8656694849159" lon="12.278770719638091"><ele>326.33333333333337</ele><time>2026-04-18T08:59:54Z</time></trkpt><trkpt lat="43.86563630044035" lon="12.278882682338628"><ele>323.0</ele><time>2026-04-18T08:59:55Z</time></trkpt><trkpt lat="43.86561053352894" lon="12.278989141706212"><ele>321.4</ele><time>2026-04-18T08:59:56Z</time></trkpt><trkpt lat="43.86558214833573" lon="12.279119434460416"><ele>319.79999999999995</ele><time>2026-04-18T08:59:57Z</time></trkpt><trkpt lat="43.865567347603715" lon="12.279242006143122"><ele>318.2</ele><time>2026-04-18T08:59:58Z</time></trkpt><trkpt lat="43.865532325492474" lon="12.279411349414831"><ele>316.6</ele><time>2026-04-18T09:00:00Z</time></trkpt><trkpt lat="43.865516715529274" lon="12.279500047896118"><ele>315.0</ele><time>2026-04-18T09:00:01Z</time></trkpt><trkpt lat="43.8655270077392" lon="12.279654560121314"><ele>315.0</ele><time>2026-04-18T09:00:03Z</time></trkpt><trkpt lat="43.86556490624237" lon="12.279754452007541"><ele>315.0</ele><time>2026-04-18T09:00:05Z</time></trkpt><trkpt lat="43.86553051591896" lon="12.279921199730271"><ele>315.0</ele><time>2026-04-18T09:00:07Z</time></trkpt><trkpt lat="43.865506327381816" lon="12.280012524835291"><ele>315.0</ele><time>2026-04-18T09:00:07.999Z</time></trkpt><trkpt lat="43.86548317959989" lon="12.280104236022652"><ele>315.0</ele><time>2026-04-18T09:00:08.999Z</time></trkpt><trkpt lat="43.865473331112476" lon="12.280199834674018"><ele>315.0</ele><time>2026-04-18T09:00:09.999Z</time></trkpt><trkpt lat="43.86545504168462" lon="12.280302772281557"><ele>313.1666666666667</ele><time>2026-04-18T09:00:10.999Z</time></trkpt><trkpt lat="43.8654361783067" lon="12.280395955854303"><ele>311.3333333333333</ele><time>2026-04-18T09:00:11.999Z</time></trkpt><trkpt lat="43.86542265556564" lon="12.280487749081574"><ele>309.5</ele><time>2026-04-18T09:00:12.999Z</time></trkpt><trkpt lat="43.86540402123752" lon="12.28062802549562"><ele>307.66666666666663</ele><time>2026-04-18T09:00:14.999Z</time></trkpt><trkpt lat="43.865395700186724" lon="12.280729515487577"><ele>305.8333333333333</ele><time>2026-04-18T09:00:16.999Z</time></trkpt><trkpt lat="43.865456081262046" lon="12.280791445866967"><ele>304.0</ele><time>2026-04-18T09:00:18.999Z</time></trkpt><trkpt lat="43.86551374650489" lon="12.280828537994134"><ele>301.8</ele><time>2026-04-18T09:00:19.999Z</time></trkpt><trkpt lat="43.865569700967825" lon="12.280874624672107"><ele>299.59999999999997</ele><time>2026-04-18T09:00:20.999Z</time></trkpt><trkpt lat="43.86566880489904" lon="12.280951094792753"><ele>297.4</ele><time>2026-04-18T09:00:22.999Z</time></trkpt><trkpt lat="43.86575568630845" lon="12.281111887188656"><ele>295.2</ele><time>2026-04-18T09:00:24.999Z</time></trkpt><trkpt lat="43.86577186863599" lon="12.281230381643242"><ele>293.0</ele><time>2026-04-18T09:00:25.999Z</time></trkpt><trkpt lat="43.86575568794969" lon="12.281357310508417"><ele>293.1666666666667</ele><time>2026-04-18T09:00:26.999Z</time></trkpt><trkpt lat="43.865771173573584" lon="12.28144447329588"><ele>293.33333333333337</ele><time>2026-04-18T09:00:27.999Z</time></trkpt><trkpt lat="43.86580280105774" lon="12.281536238167416"><ele>293.5</ele><time>2026-04-18T09:00:28.999Z</time></trkpt><trkpt lat="43.865844675605594" lon="12.28167904998062"><ele>293.6666666666667</ele><time>2026-04-18T09:00:30.999Z</time></trkpt><trkpt lat="43.86591658269544" lon="12.281775811731316"><ele>293.8333333333333</ele><time>2026-04-18T09:00:32.999Z</time></trkpt><trkpt lat="43.86597427457678" lon="12.281821999930534"><ele>294.0</ele><time>2026-04-18T09:00:33.999Z</time></trkpt><trkpt lat="43.86605336203444" lon="12.28184299610011"><ele>294.0</ele><time>2026-04-18T09:00:34.999Z</time></trkpt><trkpt lat="43.86613308871423" lon="12.28185475254262"><ele>294.0</ele><time>2026-04-18T09:00:35.999Z</time></trkpt><trkpt lat="43.86620867187195" lon="12.281856745506591"><ele>294.0</ele><time>2026-04-18T09:00:36.999Z</time></trkpt><trkpt lat="43.86629707004091" lon="12.281850649106927"><ele>294.0</ele><time>2026-04-18T09:00:37.999Z</time></trkpt><trkpt lat="43.86634024432861" lon="12.28192034803551"><ele>294.0</ele><time>2026-04-18T09:00:38.999Z</time></trkpt><trkpt lat="43.866405713474684" lon="12.281958729498633"><ele>294.0</ele><time>2026-04-18T09:00:39.999Z</time></trkpt><trkpt lat="43.86647220652104" lon="12.281990926264868"><ele>294.0</ele><time>2026-04-18T09:00:40.999Z</time></trkpt><trkpt lat="43.866543131868475" lon="12.282091716304516"><ele>294.0</ele><time>2026-04-18T09:00:41.999Z</time></trkpt><trkpt lat="43.866633834605125" lon="12.28217435978138"><ele>294.0</ele><time>2026-04-18T09:00:42.999Z</time></trkpt><trkpt lat="43.866728951112364" lon="12.282249796594028"><ele>294.0</ele><time>2026-04-18T09:00:43.999Z</time></trkpt><trkpt lat="43.866807473800456" lon="12.282308639536526"><ele>294.0</ele><time>2026-04-18T09:00:44.999Z</time></trkpt><trkpt lat="43.86686631560496" lon="12.282344112567923"><ele>292.59999999999997</ele><time>2026-04-18T09:00:45.999Z</time></trkpt><trkpt lat="43.86698620370633" lon="12.282429500752311"><ele>291.2</ele><time>2026-04-18T09:00:47.999Z</time></trkpt><trkpt lat="43.8670436522414" lon="12.282480144105415"><ele>289.79999999999995</ele><time>2026-04-18T09:00:48.999Z</time></trkpt><trkpt lat="43.867106779982194" lon="12.282528887711342"><ele>288.4</ele><time>2026-04-18T09:00:49.999Z</time></trkpt><trkpt lat="43.86720542826282" lon="12.282613544321993"><ele>287.0</ele><time>2026-04-18T09:00:51.999Z</time></trkpt><trkpt lat="43.86724843005367" lon="12.282703456116597"><ele>287.0</ele><time>2026-04-18T09:00:52.999Z</time></trkpt><trkpt lat="43.86729836298444" lon="12.282759168174092"><ele>287.0</ele><time>2026-04-18T09:00:53.999Z</time></trkpt><trkpt lat="43.86739260774233" lon="12.282833799632428"><ele>287.0</ele><time>2026-04-18T09:00:55.999Z</time></trkpt><trkpt lat="43.86746357145353" lon="12.28287363328714"><ele>287.0</ele><time>2026-04-18T09:00:57.999Z</time></trkpt><trkpt lat="43.86753594281229" lon="12.282877563607178"><ele>287.0</ele><time>2026-04-18T09:01:34Z</time></trkpt><trkpt lat="43.8676171457039" lon="12.282909967273717"><ele>287.0</ele><time>2026-04-18T09:01:35Z</time></trkpt><trkpt lat="43.867734937529924" lon="12.28295147613196"><ele>286.25</ele><time>2026-04-18T09:01:36Z</time></trkpt><trkpt lat="43.8678400966816" lon="12.283025645149467"><ele>285.5</ele><time>2026-04-18T09:01:37Z</time></trkpt><trkpt lat="43.86793109205708" lon="12.28316015343988"><ele>284.75</ele><time>2026-04-18T09:01:38Z</time></trkpt><trkpt lat="43.86804777713316" lon="12.28325465681114"><ele>284.0</ele><time>2026-04-18T09:01:39Z</time></trkpt><trkpt lat="43.868143714379414" lon="12.283319141204393"><ele>284.0</ele><time>2026-04-18T09:01:40Z</time></trkpt><trkpt lat="43.86821254519547" lon="12.283333222960527"><ele>284.0</ele><time>2026-04-18T09:01:41Z</time></trkpt><trkpt lat="43.86825772308784" lon="12.28339992345934"><ele>284.0</ele><time>2026-04-18T09:01:42Z</time></trkpt><trkpt lat="43.86828047988853" lon="12.283546563180893"><ele>284.0</ele><time>2026-04-18T09:01:43Z</time></trkpt><trkpt lat="43.86842413877259" lon="12.28363679805074"><ele>284.0</ele><time>2026-04-18T09:01:44Z</time></trkpt><trkpt lat="43.86857073667196" lon="12.283775035061476"><ele>284.4</ele><time>2026-04-18T09:01:45Z</time></trkpt><trkpt lat="43.86865683102457" lon="12.283923536007027"><ele>284.79999999999995</ele><time>2026-04-18T09:01:46Z</time></trkpt><trkpt lat="43.86869801592654" lon="12.284014723111822"><ele>285.20000000000005</ele><time>2026-04-18T09:01:47Z</time></trkpt><trkpt lat="43.86871254567497" lon="12.284143704452912"><ele>285.6</ele><time>2026-04-18T09:01:49Z</time></trkpt><trkpt lat="43.86877266179014" lon="12.28428409231713"><ele>286.0</ele><time>2026-04-18T09:01:51Z</time></trkpt><trkpt lat="43.868596299278934" lon="12.284429728685557"><ele>286.0</ele><time>2026-04-18T09:01:55Z</time></trkpt><trkpt lat="43.868481530247706" lon="12.284498078675771"><ele>286.0</ele><time>2026-04-18T09:01:56Z</time></trkpt><trkpt lat="43.868355742558066" lon="12.284580685979815"><ele>286.0</ele><time>2026-04-18T09:01:57Z</time></trkpt><trkpt lat="43.868220642724054" lon="12.28467761237204"><ele>286.0</ele><time>2026-04-18T09:01:58Z</time></trkpt><trkpt lat="43.86808101348182" lon="12.284784568897118"><ele>285.8</ele><time>2026-04-18T09:01:59Z</time></trkpt><trkpt lat="43.86795583242313" lon="12.284877945312024"><ele>285.6</ele><time>2026-04-18T09:02:00Z</time></trkpt><trkpt lat="43.86784771280544" lon="12.284951794572946"><ele>285.4</ele><time>2026-04-18T09:02:01Z</time></trkpt><trkpt lat="43.86776468009418" lon="12.285004543520943"><ele>285.2</ele><time>2026-04-18T09:02:02Z</time></trkpt><trkpt lat="43.86770494486122" lon="12.28503879164885"><ele>285.0</ele><time>2026-04-18T09:02:03Z</time></trkpt><trkpt lat="43.867600206595384" lon="12.285119360514202"><ele>285.0</ele><time>2026-04-18T09:02:05Z</time></trkpt><trkpt lat="43.867495211021954" lon="12.285164002604018"><ele>285.0</ele><time>2026-04-18T09:02:07Z</time></trkpt><trkpt lat="43.86737965391067" lon="12.285202419962667"><ele>285.0</ele><time>2026-04-18T09:02:09Z</time></trkpt><trkpt lat="43.86741828476669" lon="12.28548943219498"><ele>285.0</ele><time>2026-04-18T09:02:12Z</time></trkpt><trkpt lat="43.86746361164162" lon="12.28555620741919"><ele>285.8</ele><time>2026-04-18T09:02:13Z</time></trkpt><trkpt lat="43.86750452078024" lon="12.285623872322901"><ele>286.6</ele><time>2026-04-18T09:02:14Z</time></trkpt><trkpt lat="43.867526024873406" lon="12.28579380615083"><ele>287.4</ele><time>2026-04-18T09:02:16Z</time></trkpt><trkpt lat="43.86744608861889" lon="12.285859710494515"><ele>288.2</ele><time>2026-04-18T09:02:16.999Z</time></trkpt><trkpt lat="43.86742652503476" lon="12.285975749778707"><ele>289.0</ele><time>2026-04-18T09:02:17.999Z</time></trkpt><trkpt lat="43.867396118609406" lon="12.286086664979699"><ele>289.0</ele><time>2026-04-18T09:02:18.999Z</time></trkpt><trkpt lat="43.86740297732065" lon="12.286211353771185"><ele>289.0</ele><time>2026-04-18T09:02:19.999Z</time></trkpt><trkpt lat="43.86744568170359" lon="12.286335582801705"><ele>289.0</ele><time>2026-04-18T09:02:20.999Z</time></trkpt><trkpt lat="43.86750906150516" lon="12.286452414728846"><ele>289.0</ele><time>2026-04-18T09:02:21.999Z</time></trkpt><trkpt lat="43.86757916610668" lon="12.286571230478213"><ele>289.0</ele><time>2026-04-18T09:02:22.999Z</time></trkpt><trkpt lat="43.867654536672205" lon="12.286690218197611"><ele>288.59999999999997</ele><time>2026-04-18T09:02:23.999Z</time></trkpt><trkpt lat="43.86772072893392" lon="12.286816671102388"><ele>288.2</ele><time>2026-04-18T09:02:24.999Z</time></trkpt><trkpt lat="43.86777363086008" lon="12.286934703695431"><ele>287.79999999999995</ele><time>2026-04-18T09:02:25.999Z</time></trkpt><trkpt lat="43.867808205202465" lon="12.287053720679609"><ele>287.4</ele><time>2026-04-18T09:02:26.999Z</time></trkpt><trkpt lat="43.86783123008129" lon="12.287173071067908"><ele>287.0</ele><time>2026-04-18T09:02:27.999Z</time></trkpt><trkpt lat="43.867851409241105" lon="12.287280365567508"><ele>288.33333333333337</ele><time>2026-04-18T09:02:28.999Z</time></trkpt><trkpt lat="43.867867091093565" lon="12.287387741645038"><ele>289.6666666666667</ele><time>2026-04-18T09:02:29.999Z</time></trkpt><trkpt lat="43.867881519897836" lon="12.287497093876471"><ele>291.0</ele><time>2026-04-18T09:02:30.999Z</time></trkpt><trkpt lat="43.86788159884704" lon="12.28760880464953"><ele>292.3333333333333</ele><time>2026-04-18T09:02:31.999Z</time></trkpt><trkpt lat="43.867863794566986" lon="12.28773441262523"><ele>293.66666666666663</ele><time>2026-04-18T09:02:32.999Z</time></trkpt><trkpt lat="43.86784457971962" lon="12.287879295565133"><ele>295.0</ele><time>2026-04-18T09:02:33.999Z</time></trkpt><trkpt lat="43.86782659894291" lon="12.288043257813994"><ele>296.25</ele><time>2026-04-18T09:02:34.999Z</time></trkpt><trkpt lat="43.867810863450146" lon="12.288222651658783"><ele>297.5</ele><time>2026-04-18T09:02:35.999Z</time></trkpt><trkpt lat="43.86779754798166" lon="12.28841564482274"><ele>298.75</ele><time>2026-04-18T09:02:36.999Z</time></trkpt><trkpt lat="43.86778379432354" lon="12.288612841701447"><ele>300.0</ele><time>2026-04-18T09:02:37.999Z</time></trkpt><trkpt lat="43.86777327298707" lon="12.28880296788565"><ele>303.0</ele><time>2026-04-18T09:02:38.999Z</time></trkpt><trkpt lat="43.86776644036095" lon="12.288982465677238"><ele>306.0</ele><time>2026-04-18T09:02:39.999Z</time></trkpt><trkpt lat="43.86776671557312" lon="12.28915939629338"><ele>309.0</ele><time>2026-04-18T09:02:40.999Z</time></trkpt><trkpt lat="43.867785428843604" lon="12.289331422840752"><ele>312.0</ele><time>2026-04-18T09:02:41.999Z</time></trkpt><trkpt lat="43.86783313568189" lon="12.289493900451602"><ele>312.0</ele><time>2026-04-18T09:02:42.999Z</time></trkpt><trkpt lat="43.86789789194408" lon="12.289636911334016"><ele>312.0</ele><time>2026-04-18T09:02:43.999Z</time></trkpt><trkpt lat="43.867970838088645" lon="12.28977192224997"><ele>312.0</ele><time>2026-04-18T09:02:44.999Z</time></trkpt><trkpt lat="43.86805075239862" lon="12.289897092632495"><ele>312.0</ele><time>2026-04-18T09:02:45.999Z</time></trkpt><trkpt lat="43.86812740663061" lon="12.290012646018834"><ele>314.75</ele><time>2026-04-18T09:02:46.999Z</time></trkpt><trkpt lat="43.868191748984586" lon="12.29015106535225"><ele>317.5</ele><time>2026-04-18T09:02:47.999Z</time></trkpt><trkpt lat="43.86824957393571" lon="12.290283622152241"><ele>320.25</ele><time>2026-04-18T09:02:48.999Z</time></trkpt><trkpt lat="43.86831181186119" lon="12.290423349877749"><ele>323.0</ele><time>2026-04-18T09:02:49.999Z</time></trkpt><trkpt lat="43.86837527342845" lon="12.29055670621369"><ele>322.2</ele><time>2026-04-18T09:02:50.999Z</time></trkpt><trkpt lat="43.86842122692345" lon="12.290702251381369"><ele>321.4</ele><time>2026-04-18T09:02:51.999Z</time></trkpt><trkpt lat="43.86847060007252" lon="12.290831424301787"><ele>320.59999999999997</ele><time>2026-04-18T09:02:52.999Z</time></trkpt><trkpt lat="43.86850714182069" lon="12.29096292782498"><ele>319.79999999999995</ele><time>2026-04-18T09:02:53.999Z</time></trkpt><trkpt lat="43.86854099924554" lon="12.291115758972742"><ele>319.0</ele><time>2026-04-18T09:02:54.999Z</time></trkpt><trkpt lat="43.86857604450016" lon="12.291261549545935"><ele>319.0</ele><time>2026-04-18T09:02:55.999Z</time></trkpt><trkpt lat="43.86860151130879" lon="12.291410215174922"><ele>319.0</ele><time>2026-04-18T09:02:56.999Z</time></trkpt><trkpt lat="43.868636316603435" lon="12.291557249135073"><ele>319.0</ele><time>2026-04-18T09:02:57.999Z</time></trkpt><trkpt lat="43.86867943134897" lon="12.291697853093575"><ele>319.0</ele><time>2026-04-18T09:02:58.999Z</time></trkpt><trkpt lat="43.86873822640705" lon="12.291833748898801"><ele>319.0</ele><time>2026-04-18T09:02:59.999Z</time></trkpt><trkpt lat="43.86880446947876" lon="12.291959948508865"><ele>320.4</ele><time>2026-04-18T09:03:00.999Z</time></trkpt><trkpt lat="43.868875273901445" lon="12.292080793756604"><ele>321.79999999999995</ele><time>2026-04-18T09:03:01.999Z</time></trkpt><trkpt lat="43.8689439923015" lon="12.292204017549906"><ele>323.20000000000005</ele><time>2026-04-18T09:03:02.999Z</time></trkpt><trkpt lat="43.86900580833894" lon="12.292329144950214"><ele>324.6</ele><time>2026-04-18T09:03:03.999Z</time></trkpt><trkpt lat="43.869077720060965" lon="12.292453413042855"><ele>326.0</ele><time>2026-04-18T09:03:04.999Z</time></trkpt><trkpt lat="43.86913945039562" lon="12.292579069922914"><ele>327.5</ele><time>2026-04-18T09:03:05.999Z</time></trkpt><trkpt lat="43.869209368020975" lon="12.292703353133929"><ele>329.0</ele><time>2026-04-18T09:03:06.999Z</time></trkpt><trkpt lat="43.869281882516056" lon="12.29282858038855"><ele>330.5</ele><time>2026-04-18T09:03:07.999Z</time></trkpt><trkpt lat="43.86934840397275" lon="12.292957961090973"><ele>332.0</ele><time>2026-04-18T09:03:08.999Z</time></trkpt><trkpt lat="43.869415153663255" lon="12.293078023021522"><ele>335.5</ele><time>2026-04-18T09:03:09.999Z</time></trkpt><trkpt lat="43.8694699100257" lon="12.293180010005072"><ele>339.0</ele><time>2026-04-18T09:03:10.999Z</time></trkpt><trkpt lat="43.86952134091511" lon="12.293275333886069"><ele>342.5</ele><time>2026-04-18T09:03:11.999Z</time></trkpt><trkpt lat="43.86957702373114" lon="12.293355567542145"><ele>346.0</ele><time>2026-04-18T09:03:12.999Z</time></trkpt><trkpt lat="43.869640561391996" lon="12.293426774988509"><ele>349.5</ele><time>2026-04-18T09:03:13.999Z</time></trkpt><trkpt lat="43.86974391662849" lon="12.293398114047426"><ele>353.0</ele><time>2026-04-18T09:03:14.999Z</time></trkpt><trkpt lat="43.86983698617113" lon="12.293326776223001"><ele>353.0</ele><time>2026-04-18T09:03:15.999Z</time></trkpt><trkpt lat="43.86992011067618" lon="12.293206875005252"><ele>353.0</ele><time>2026-04-18T09:03:16.999Z</time></trkpt><trkpt lat="43.869996070518795" lon="12.293075345649232"><ele>353.0</ele><time>2026-04-18T09:03:17.999Z</time></trkpt><trkpt lat="43.87005969494238" lon="12.292941000589737"><ele>353.0</ele><time>2026-04-18T09:03:18.999Z</time></trkpt><trkpt lat="43.87010616315189" lon="12.292815315051884"><ele>353.83333333333337</ele><time>2026-04-18T09:03:19.999Z</time></trkpt><trkpt lat="43.870182851688746" lon="12.292751613824626"><ele>354.6666666666667</ele><time>2026-04-18T09:03:20.999Z</time></trkpt><trkpt lat="43.87027226787743" lon="12.292749178772787"><ele>355.5</ele><time>2026-04-18T09:03:21.999Z</time></trkpt><trkpt lat="43.8703518649446" lon="12.292842883157494"><ele>356.3333333333333</ele><time>2026-04-18T09:03:22.999Z</time></trkpt><trkpt lat="43.87036333924744" lon="12.292947513129366"><ele>357.16666666666663</ele><time>2026-04-18T09:03:23.999Z</time></trkpt><trkpt lat="43.870335804795324" lon="12.29306369968196"><ele>358.0</ele><time>2026-04-18T09:03:24.999Z</time></trkpt><trkpt lat="43.87032619783444" lon="12.293174956970613"><ele>358.0</ele><time>2026-04-18T09:03:25.999Z</time></trkpt><trkpt lat="43.870295702217156" lon="12.293309862341694"><ele>358.0</ele><time>2026-04-18T09:03:26.999Z</time></trkpt><trkpt lat="43.870273032864084" lon="12.293440493419597"><ele>358.0</ele><time>2026-04-18T09:03:27.999Z</time></trkpt><trkpt lat="43.87025606426601" lon="12.29352831199203"><ele>358.0</ele><time>2026-04-18T09:03:29Z</time></trkpt><trkpt lat="43.87017465520641" lon="12.293605123806188"><ele>358.0</ele><time>2026-04-18T09:03:30Z</time></trkpt><trkpt lat="43.870081895670495" lon="12.293666541483459"><ele>358.59999999999997</ele><time>2026-04-18T09:03:31Z</time></trkpt><trkpt lat="43.86998392382556" lon="12.293731846907102"><ele>359.2</ele><time>2026-04-18T09:03:32Z</time></trkpt><trkpt lat="43.86989233158124" lon="12.293828485655444"><ele>359.8</ele><time>2026-04-18T09:03:33Z</time></trkpt><trkpt lat="43.86980733553622" lon="12.293910503312828"><ele>360.4</ele><time>2026-04-18T09:03:34Z</time></trkpt><trkpt lat="43.8697433679229" lon="12.294023548282793"><ele>361.0</ele><time>2026-04-18T09:03:35Z</time></trkpt><trkpt lat="43.86970886480543" lon="12.29417906510636"><ele>361.0</ele><time>2026-04-18T09:03:36Z</time></trkpt><trkpt lat="43.86970572600317" lon="12.29436216048449"><ele>361.0</ele><time>2026-04-18T09:03:37Z</time></trkpt><trkpt lat="43.86972353961467" lon="12.294553476083122"><ele>361.0</ele><time>2026-04-18T09:03:38Z</time></trkpt><trkpt lat="43.86976484924871" lon="12.294737343031011"><ele>361.0</ele><time>2026-04-18T09:03:39Z</time></trkpt><trkpt lat="43.86980825789083" lon="12.294921806639072"><ele>363.0</ele><time>2026-04-18T09:03:40Z</time></trkpt><trkpt lat="43.8698510683351" lon="12.295103409991993"><ele>365.0</ele><time>2026-04-18T09:03:41Z</time></trkpt><trkpt lat="43.86984392080145" lon="12.295288738312887"><ele>367.0</ele><time>2026-04-18T09:03:42Z</time></trkpt><trkpt lat="43.86983582725359" lon="12.295461180869884"><ele>369.0</ele><time>2026-04-18T09:03:43Z</time></trkpt><trkpt lat="43.86981649377532" lon="12.295633626271602"><ele>371.4</ele><time>2026-04-18T09:03:44Z</time></trkpt><trkpt lat="43.869788300849116" lon="12.295787892591406"><ele>373.79999999999995</ele><time>2026-04-18T09:03:45Z</time></trkpt><trkpt lat="43.869742793230685" lon="12.295916335425682"><ele>376.20000000000005</ele><time>2026-04-18T09:03:46Z</time></trkpt><trkpt lat="43.86967571695712" lon="12.296012902725783"><ele>378.6</ele><time>2026-04-18T09:03:47Z</time></trkpt><trkpt lat="43.869568985895725" lon="12.296091848949185"><ele>381.0</ele><time>2026-04-18T09:03:48Z</time></trkpt><trkpt lat="43.86942779102479" lon="12.296142932636217"><ele>381.0</ele><time>2026-04-18T09:03:49Z</time></trkpt><trkpt lat="43.86927936444188" lon="12.296179983003613"><ele>381.0</ele><time>2026-04-18T09:03:50Z</time></trkpt><trkpt lat="43.86913938344065" lon="12.296207194221926"><ele>381.0</ele><time>2026-04-18T09:03:51Z</time></trkpt><trkpt lat="43.86903263947019" lon="12.296246069145646"><ele>381.0</ele><time>2026-04-18T09:03:52Z</time></trkpt><trkpt lat="43.868965018556096" lon="12.296291893213526"><ele>382.75</ele><time>2026-04-18T09:03:53Z</time></trkpt><trkpt lat="43.86893446804245" lon="12.296437697246182"><ele>384.5</ele><time>2026-04-18T09:03:55Z</time></trkpt><trkpt lat="43.86883228818435" lon="12.29635514053631"><ele>386.25</ele><time>2026-04-18T09:08:56.999Z</time></trkpt><trkpt lat="43.868702499208865" lon="12.296453599807396"><ele>388.0</ele><time>2026-04-18T09:08:58.999Z</time></trkpt><trkpt lat="43.86863719180574" lon="12.296569130359034"><ele>388.0</ele><time>2026-04-18T09:09:00.999Z</time></trkpt><trkpt lat="43.8685561096605" lon="12.29661855010151"><ele>388.0</ele><time>2026-04-18T09:09:02.999Z</time></trkpt><trkpt lat="43.868377805107826" lon="12.296343643369529"><ele>388.0</ele><time>2026-04-18T09:09:03.999Z</time></trkpt><trkpt lat="43.868271133554416" lon="12.296378747399881"><ele>385.75</ele><time>2026-04-18T09:09:05.999Z</time></trkpt><trkpt lat="43.86817670850003" lon="12.296419968452831"><ele>383.5</ele><time>2026-04-18T09:09:07.999Z</time></trkpt><trkpt lat="43.86807108423283" lon="12.2964973357215"><ele>381.25</ele><time>2026-04-18T09:09:09.999Z</time></trkpt><trkpt lat="43.8679847751278" lon="12.296648452237852"><ele>379.0</ele><time>2026-04-18T09:09:11.999Z</time></trkpt><trkpt lat="43.86789323494677" lon="12.296757550498873"><ele>379.0</ele><time>2026-04-18T09:09:13.999Z</time></trkpt><trkpt lat="43.867805359943844" lon="12.296834489226622"><ele>379.0</ele><time>2026-04-18T09:09:15.999Z</time></trkpt><trkpt lat="43.867757484726745" lon="12.296928874988442"><ele>379.0</ele><time>2026-04-18T09:09:17.999Z</time></trkpt><trkpt lat="43.86771838830323" lon="12.297021259622554"><ele>379.0</ele><time>2026-04-18T09:09:19.999Z</time></trkpt><trkpt lat="43.86764560407803" lon="12.297130641898413"><ele>379.0</ele><time>2026-04-18T09:09:21.999Z</time></trkpt><trkpt lat="43.86756264452606" lon="12.297145415038313"><ele>378.66666666666663</ele><time>2026-04-18T09:09:24.999Z</time></trkpt><trkpt lat="43.867495211181016" lon="12.29719265384054"><ele>378.3333333333333</ele><time>2026-04-18T09:09:27.999Z</time></trkpt><trkpt lat="43.867440296080794" lon="12.297251617353538"><ele>378.0</ele><time>2026-04-18T09:09:30.999Z</time></trkpt><trkpt lat="43.867388167239625" lon="12.297337067653343"><ele>377.6666666666667</ele><time>2026-04-18T09:09:33.999Z</time></trkpt><trkpt lat="43.86731895082266" lon="12.297420606344192"><ele>377.33333333333337</ele><time>2026-04-18T09:09:35.999Z</time></trkpt><trkpt lat="43.867255353409185" lon="12.2974872486845"><ele>377.0</ele><time>2026-04-18T09:09:37.999Z</time></trkpt><trkpt lat="43.86720337317142" lon="12.297543551815586"><ele>378.20000000000005</ele><time>2026-04-18T09:09:39.999Z</time></trkpt><trkpt lat="43.867138823775285" lon="12.297634188183391"><ele>379.4</ele><time>2026-04-18T09:09:43.998Z</time></trkpt><trkpt lat="43.86715146832766" lon="12.297758105835465"><ele>380.6</ele><time>2026-04-18T09:10:11Z</time></trkpt><trkpt lat="43.86719610777817" lon="12.29785474135626"><ele>381.79999999999995</ele><time>2026-04-18T09:10:13Z</time></trkpt><trkpt lat="43.86724897337709" lon="12.297967760571053"><ele>383.0</ele><time>2026-04-18T09:10:15Z</time></trkpt><trkpt lat="43.86727576355771" lon="12.29808726294088"><ele>385.6666666666667</ele><time>2026-04-18T09:10:17Z</time></trkpt><trkpt lat="43.86728590477034" lon="12.298206472522521"><ele>388.33333333333337</ele><time>2026-04-18T09:10:19Z</time></trkpt><trkpt lat="43.867311538517335" lon="12.298314833111814"><ele>391.0</ele><time>2026-04-18T09:10:22Z</time></trkpt><trkpt lat="43.86733621249584" lon="12.29842910306923"><ele>393.6666666666667</ele><time>2026-04-18T09:10:25Z</time></trkpt><trkpt lat="43.86738603942631" lon="12.298511639801085"><ele>396.3333333333333</ele><time>2026-04-18T09:10:27Z</time></trkpt><trkpt lat="43.86741345257533" lon="12.298590917087536"><ele>399.0</ele><time>2026-04-18T09:10:28Z</time></trkpt><trkpt lat="43.86745501506564" lon="12.298708962324712"><ele>399.0</ele><time>2026-04-18T09:10:30Z</time></trkpt><trkpt lat="43.867486695737824" lon="12.298825307723826"><ele>399.0</ele><time>2026-04-18T09:10:33Z</time></trkpt><trkpt lat="43.86753540337828" lon="12.298921719688451"><ele>399.0</ele><time>2026-04-18T09:10:35Z</time></trkpt><trkpt lat="43.86756554749621" lon="12.29901752765449"><ele>399.0</ele><time>2026-04-18T09:10:36.999Z</time></trkpt><trkpt lat="43.86759079159427" lon="12.299126031409058"><ele>399.0</ele><time>2026-04-18T09:10:38.999Z</time></trkpt><trkpt lat="43.867642559850935" lon="12.299208253188953"><ele>399.0</ele><time>2026-04-18T09:10:40.999Z</time></trkpt><trkpt lat="43.867682162945144" lon="12.299285848363219"><ele>401.8333333333333</ele><time>2026-04-18T09:10:42.999Z</time></trkpt><trkpt lat="43.86771305135033" lon="12.299388920353419"><ele>404.66666666666663</ele><time>2026-04-18T09:10:45.999Z</time></trkpt><trkpt lat="43.867674672792" lon="12.299464149962033"><ele>407.5</ele><time>2026-04-18T09:10:47.999Z</time></trkpt><trkpt lat="43.86762148897652" lon="12.299562539194868"><ele>410.3333333333333</ele><time>2026-04-18T09:10:49.999Z</time></trkpt><trkpt lat="43.86760464692943" lon="12.299666198231863"><ele>413.16666666666663</ele><time>2026-04-18T09:10:51.999Z</time></trkpt><trkpt lat="43.86761521447345" lon="12.299776674840428"><ele>416.0</ele><time>2026-04-18T09:10:54.999Z</time></trkpt><trkpt lat="43.867620887961365" lon="12.299877787693475"><ele>417.85714285714283</ele><time>2026-04-18T09:10:57.999Z</time></trkpt><trkpt lat="43.86762011551548" lon="12.299976995292141"><ele>419.7142857142857</ele><time>2026-04-18T09:10:59.999Z</time></trkpt><trkpt lat="43.8676072437895" lon="12.300089759367781"><ele>421.57142857142856</ele><time>2026-04-18T09:11:28.999Z</time></trkpt><trkpt lat="43.86760215580053" lon="12.30018253333831"><ele>423.42857142857144</ele><time>2026-04-18T09:11:31.999Z</time></trkpt><trkpt lat="43.86761622943687" lon="12.300272574601076"><ele>425.28571428571433</ele><time>2026-04-18T09:11:35.999Z</time></trkpt><trkpt lat="43.86762903674648" lon="12.300361135209787"><ele>427.14285714285717</ele><time>2026-04-18T09:11:37.999Z</time></trkpt><trkpt lat="43.86769281131264" lon="12.30045085424856"><ele>429.0</ele><time>2026-04-18T09:11:40.999Z</time></trkpt><trkpt lat="43.86775673717092" lon="12.300528717182821"><ele>431.5</ele><time>2026-04-18T09:11:42.999Z</time></trkpt><trkpt lat="43.86780529085442" lon="12.300627871985766"><ele>434.0</ele><time>2026-04-18T09:11:44.999Z</time></trkpt><trkpt lat="43.86784583913901" lon="12.3007096446608"><ele>436.5</ele><time>2026-04-18T09:11:46.999Z</time></trkpt><trkpt lat="43.86790502034856" lon="12.300784467192369"><ele>439.0</ele><time>2026-04-18T09:11:48.999Z</time></trkpt><trkpt lat="43.86798895326307" lon="12.300868107409604"><ele>441.5</ele><time>2026-04-18T09:11:51.999Z</time></trkpt><trkpt lat="43.86806662045455" lon="12.300937876201559"><ele>444.0</ele><time>2026-04-18T09:11:54Z</time></trkpt><trkpt lat="43.8681321641554" lon="12.300980362358537"><ele>444.0</ele><time>2026-04-18T09:11:55Z</time></trkpt><trkpt lat="43.8682011219487" lon="12.301019131295705"><ele>444.0</ele><time>2026-04-18T09:11:56Z</time></trkpt><trkpt lat="43.86828118900842" lon="12.301064914345325"><ele>444.0</ele><time>2026-04-18T09:11:57Z</time></trkpt><trkpt lat="43.868372110781586" lon="12.30110676066163"><ele>444.0</ele><time>2026-04-18T09:11:59Z</time></trkpt><trkpt lat="43.86827249054624" lon="12.3010698825099"><ele>444.0</ele><time>2026-04-18T09:12:23Z</time></trkpt><trkpt lat="43.868207866816704" lon="12.301090520889021"><ele>444.0</ele><time>2026-04-18T09:12:25Z</time></trkpt><trkpt lat="43.86818984002589" lon="12.301178002600295"><ele>444.0</ele><time>2026-04-18T09:12:27Z</time></trkpt><trkpt lat="43.86816598026744" lon="12.301305545056302"><ele>444.0</ele><time>2026-04-18T09:12:29Z</time></trkpt><trkpt lat="43.86813921154797" lon="12.301460853555714"><ele>444.0</ele><time>2026-04-18T09:12:31Z</time></trkpt><trkpt lat="43.86809277850574" lon="12.301577590475263"><ele>444.0</ele><time>2026-04-18T09:12:33Z</time></trkpt><trkpt lat="43.86804271005912" lon="12.30171566879642"><ele>444.0</ele><time>2026-04-18T09:12:35Z</time></trkpt><trkpt lat="43.86796009363311" lon="12.301789351293916"><ele>446.79999999999995</ele><time>2026-04-18T09:12:37Z</time></trkpt><trkpt lat="43.867890222467345" lon="12.30190890218962"><ele>449.59999999999997</ele><time>2026-04-18T09:12:39Z</time></trkpt><trkpt lat="43.86780293461351" lon="12.302006890941199"><ele>452.4</ele><time>2026-04-18T09:12:41Z</time></trkpt><trkpt lat="43.86774636051754" lon="12.302144520507381"><ele>455.2</ele><time>2026-04-18T09:12:43Z</time></trkpt><trkpt lat="43.86771219751902" lon="12.302264267514985"><ele>458.0</ele><time>2026-04-18T09:12:45Z</time></trkpt><trkpt lat="43.86766566125404" lon="12.302385053121116"><ele>460.2</ele><time>2026-04-18T09:12:47Z</time></trkpt><trkpt lat="43.86764143308966" lon="12.302470216249205"><ele>462.4</ele><time>2026-04-18T09:12:48Z</time></trkpt><trkpt lat="43.867624654846686" lon="12.302557775939515"><ele>464.59999999999997</ele><time>2026-04-18T09:12:49Z</time></trkpt><trkpt lat="43.867602009499926" lon="12.302720504337014"><ele>466.79999999999995</ele><time>2026-04-18T09:12:51Z</time></trkpt><trkpt lat="43.86759294635529" lon="12.30287799035368"><ele>469.0</ele><time>2026-04-18T09:12:53Z</time></trkpt><trkpt lat="43.86759179197995" lon="12.303007208725809"><ele>471.00000000000006</ele><time>2026-04-18T09:12:55Z</time></trkpt><trkpt lat="43.86759983965693" lon="12.30310435768775"><ele>473.0</ele><time>2026-04-18T09:12:57Z</time></trkpt><trkpt lat="43.86753354016365" lon="12.303152010290596"><ele>475.0</ele><time>2026-04-18T09:12:59Z</time></trkpt><trkpt lat="43.86745723197627" lon="12.303161685802458"><ele>477.0</ele><time>2026-04-18T09:13:00Z</time></trkpt><trkpt lat="43.86737483430174" lon="12.303161009032547"><ele>479.00000000000006</ele><time>2026-04-18T09:13:01Z</time></trkpt><trkpt lat="43.86728914892205" lon="12.303198004796034"><ele>481.0</ele><time>2026-04-18T09:13:02Z</time></trkpt><trkpt lat="43.867201585058254" lon="12.303262428722359"><ele>480.99999999999994</ele><time>2026-04-18T09:13:03Z</time></trkpt><trkpt lat="43.86712687765031" lon="12.303311438355063"><ele>481.0</ele><time>2026-04-18T09:13:04Z</time></trkpt><trkpt lat="43.8670639370916" lon="12.303353247642804"><ele>480.99999999999994</ele><time>2026-04-18T09:13:05Z</time></trkpt><trkpt lat="43.86700099330142" lon="12.303407055922305"><ele>480.99999999999994</ele><time>2026-04-18T09:13:06Z</time></trkpt><trkpt lat="43.86695083651445" lon="12.30345991753247"><ele>481.0</ele><time>2026-04-18T09:13:07Z</time></trkpt><trkpt lat="43.86690477334639" lon="12.303531482962716"><ele>480.99999999999994</ele><time>2026-04-18T09:13:08Z</time></trkpt><trkpt lat="43.866868834983045" lon="12.30361903891422"><ele>480.99999999999994</ele><time>2026-04-18T09:13:09Z</time></trkpt><trkpt lat="43.86684369662022" lon="12.30370986468495"><ele>481.00000000000006</ele><time>2026-04-18T09:13:09.999Z</time></trkpt><trkpt lat="43.866828817321085" lon="12.303804593017368"><ele>481.0</ele><time>2026-04-18T09:13:10.999Z</time></trkpt><trkpt lat="43.86681369311079" lon="12.303902276697466"><ele>481.0</ele><time>2026-04-18T09:13:11.999Z</time></trkpt><trkpt lat="43.86680221117235" lon="12.303994190090844"><ele>481.0</ele><time>2026-04-18T09:13:12.999Z</time></trkpt><trkpt lat="43.86677250393918" lon="12.30414010054121"><ele>481.00000000000006</ele><time>2026-04-18T09:13:14.999Z</time></trkpt><trkpt lat="43.8667412660063" lon="12.304276390353133"><ele>481.0</ele><time>2026-04-18T09:13:15.999Z</time></trkpt><trkpt lat="43.866677860384726" lon="12.304380481612606"><ele>482.1666666666667</ele><time>2026-04-18T09:13:16.999Z</time></trkpt><trkpt lat="43.86662574988348" lon="12.304477886667733"><ele>483.33333333333337</ele><time>2026-04-18T09:13:17.999Z</time></trkpt><trkpt lat="43.86658628276858" lon="12.304558200552044"><ele>484.5</ele><time>2026-04-18T09:13:18.999Z</time></trkpt><trkpt lat="43.86649018390406" lon="12.304677720246726"><ele>485.66666666666663</ele><time>2026-04-18T09:13:20.999Z</time></trkpt><trkpt lat="43.86641656745415" lon="12.304722600500643"><ele>486.8333333333333</ele><time>2026-04-18T09:13:21.999Z</time></trkpt><trkpt lat="43.866339604262315" lon="12.304757071408433"><ele>488.0</ele><time>2026-04-18T09:13:22.999Z</time></trkpt><trkpt lat="43.866267565474374" lon="12.304794860453104"><ele>490.49999999999994</ele><time>2026-04-18T09:13:23.999Z</time></trkpt><trkpt lat="43.866203885659594" lon="12.304843604468457"><ele>493.0</ele><time>2026-04-18T09:13:24.999Z</time></trkpt><trkpt lat="43.866145528947285" lon="12.304889503917144"><ele>495.5</ele><time>2026-04-18T09:13:25.999Z</time></trkpt><trkpt lat="43.86609813806663" lon="12.304964777420228"><ele>498.0</ele><time>2026-04-18T09:13:27.999Z</time></trkpt><trkpt lat="43.866048769706175" lon="12.305069432322242"><ele>500.49999999999994</ele><time>2026-04-18T09:13:55.999Z</time></trkpt><trkpt lat="43.866030047868676" lon="12.305177564567977"><ele>503.0</ele><time>2026-04-18T09:13:56.999Z</time></trkpt><trkpt lat="43.86599782817159" lon="12.305268693307521"><ele>500.2</ele><time>2026-04-18T09:13:57.999Z</time></trkpt><trkpt lat="43.865933340138824" lon="12.305351941987741"><ele>497.4</ele><time>2026-04-18T09:13:59Z</time></trkpt><trkpt lat="43.86591701527203" lon="12.305454852631248"><ele>494.59999999999997</ele><time>2026-04-18T09:14:01Z</time></trkpt><trkpt lat="43.86596382465607" lon="12.305581661209875"><ele>491.79999999999995</ele><time>2026-04-18T09:14:03Z</time></trkpt><trkpt lat="43.86600806150489" lon="12.305689516942984"><ele>489.0</ele><time>2026-04-18T09:14:05Z</time></trkpt><trkpt lat="43.86607805127744" lon="12.305808018723518"><ele>493.6666666666667</ele><time>2026-04-18T09:14:07Z</time></trkpt><trkpt lat="43.86615458055831" lon="12.305854917151077"><ele>498.33333333333337</ele><time>2026-04-18T09:14:08Z</time></trkpt><trkpt lat="43.86620848154333" lon="12.305908309349107"><ele>503.0</ele><time>2026-04-18T09:14:09Z</time></trkpt><trkpt lat="43.86627245926641" lon="12.306041333291436"><ele>507.6666666666667</ele><time>2026-04-18T09:14:11Z</time></trkpt><trkpt lat="43.86629403337302" lon="12.306130595270938"><ele>512.3333333333334</ele><time>2026-04-18T09:14:12Z</time></trkpt><trkpt lat="43.86633857740975" lon="12.306225971767676"><ele>517.0</ele><time>2026-04-18T09:14:13Z</time></trkpt><trkpt lat="43.86637706039591" lon="12.306319299064365"><ele>517.0</ele><time>2026-04-18T09:14:14Z</time></trkpt><trkpt lat="43.86638972841909" lon="12.306407018197397"><ele>517.0</ele><time>2026-04-18T09:14:15Z</time></trkpt><trkpt lat="43.86635343763996" lon="12.306506477576535"><ele>517.0</ele><time>2026-04-18T09:14:17Z</time></trkpt><trkpt lat="43.866268739807545" lon="12.3066082598193"><ele>517.0</ele><time>2026-04-18T09:14:19Z</time></trkpt><trkpt lat="43.8661952457208" lon="12.306670852801"><ele>517.0</ele><time>2026-04-18T09:14:20Z</time></trkpt><trkpt lat="43.86613512427929" lon="12.306733745036608"><ele>517.0</ele><time>2026-04-18T09:14:21Z</time></trkpt><trkpt lat="43.86613629160827" lon="12.30684049630697"><ele>518.6666666666667</ele><time>2026-04-18T09:14:23Z</time></trkpt><trkpt lat="43.866078255361735" lon="12.306906309701326"><ele>520.3333333333334</ele><time>2026-04-18T09:14:26Z</time></trkpt><trkpt lat="43.866013313169816" lon="12.306932754534929"><ele>522.0</ele><time>2026-04-18T09:14:27Z</time></trkpt><trkpt lat="43.865942436876736" lon="12.306965928649115"><ele>523.6666666666666</ele><time>2026-04-18T09:14:28Z</time></trkpt><trkpt lat="43.8659421452728" lon="12.307097675785794"><ele>525.3333333333333</ele><time>2026-04-18T09:14:30Z</time></trkpt><trkpt lat="43.86598740603992" lon="12.307179546463027"><ele>527.0</ele><time>2026-04-18T09:14:31Z</time></trkpt><trkpt lat="43.866039530864306" lon="12.307276030523957"><ele>529.0</ele><time>2026-04-18T09:14:32Z</time></trkpt><trkpt lat="43.866066256390056" lon="12.307359827429353"><ele>531.0</ele><time>2026-04-18T09:14:33Z</time></trkpt><trkpt lat="43.866090422169336" lon="12.307445190345875"><ele>533.0</ele><time>2026-04-18T09:14:34Z</time></trkpt><trkpt lat="43.86610640597885" lon="12.307539417509513"><ele>535.0</ele><time>2026-04-18T09:14:35Z</time></trkpt><trkpt lat="43.866076739959276" lon="12.307645737942002"><ele>537.0</ele><time>2026-04-18T09:14:36Z</time></trkpt><trkpt lat="43.866078551203884" lon="12.307744643425053"><ele>539.0</ele><time>2026-04-18T09:14:37Z</time></trkpt><trkpt lat="43.86606665600244" lon="12.307904729897722"><ele>539.0</ele><time>2026-04-18T09:14:39Z</time></trkpt><trkpt lat="43.86608394157805" lon="12.30800465546676"><ele>539.0</ele><time>2026-04-18T09:14:40Z</time></trkpt><trkpt lat="43.86611882375978" lon="12.30812276165239"><ele>539.0</ele><time>2026-04-18T09:14:41Z</time></trkpt><trkpt lat="43.8661487527375" lon="12.308216059879381"><ele>539.0</ele><time>2026-04-18T09:14:42Z</time></trkpt><trkpt lat="43.866189493680835" lon="12.308332672817683"><ele>539.0</ele><time>2026-04-18T09:14:43Z</time></trkpt><trkpt lat="43.866257814280644" lon="12.308501586078922"><ele>541.6</ele><time>2026-04-18T09:14:44Z</time></trkpt><trkpt lat="43.866321773845804" lon="12.308671469993484"><ele>544.2</ele><time>2026-04-18T09:14:45Z</time></trkpt><trkpt lat="43.866373260574015" lon="12.308817713145036"><ele>546.8000000000001</ele><time>2026-04-18T09:14:46Z</time></trkpt><trkpt lat="43.866436895961904" lon="12.308934707988142"><ele>549.4</ele><time>2026-04-18T09:14:47Z</time></trkpt><trkpt lat="43.866491336425796" lon="12.30901452950178"><ele>552.0</ele><time>2026-04-18T09:14:48Z</time></trkpt><trkpt lat="43.8665540011372" lon="12.309076698486956"><ele>554.5</ele><time>2026-04-18T09:14:49Z</time></trkpt><trkpt lat="43.86658316842364" lon="12.30916643217761"><ele>557.0</ele><time>2026-04-18T09:14:50Z</time></trkpt><trkpt lat="43.866572291569916" lon="12.309281860512254"><ele>559.5</ele><time>2026-04-18T09:14:51Z</time></trkpt><trkpt lat="43.866518438364004" lon="12.30938867334546"><ele>562.0</ele><time>2026-04-18T09:14:52Z</time></trkpt><trkpt lat="43.866441958982314" lon="12.309472342189482"><ele>564.5</ele><time>2026-04-18T09:14:53Z</time></trkpt><trkpt lat="43.86636374461303" lon="12.309550997497755"><ele>567.0</ele><time>2026-04-18T09:14:54Z</time></trkpt><trkpt lat="43.86626448055121" lon="12.309610671337818"><ele>567.0</ele><time>2026-04-18T09:14:55Z</time></trkpt><trkpt lat="43.86620974464015" lon="12.30970952783392"><ele>567.0</ele><time>2026-04-18T09:14:56Z</time></trkpt><trkpt lat="43.86612185265085" lon="12.309735626555106"><ele>567.0</ele><time>2026-04-18T09:14:57Z</time></trkpt><trkpt lat="43.86602297347132" lon="12.30974289213566"><ele>567.0</ele><time>2026-04-18T09:14:58Z</time></trkpt><trkpt lat="43.86591030746365" lon="12.309695664741279"><ele>567.0</ele><time>2026-04-18T09:14:59Z</time></trkpt><trkpt lat="43.86579735067199" lon="12.309704682771311"><ele>570.0</ele><time>2026-04-18T09:15:00Z</time></trkpt><trkpt lat="43.865737379047474" lon="12.30974941497556"><ele>573.0</ele><time>2026-04-18T09:15:01Z</time></trkpt><trkpt lat="43.865742088726776" lon="12.3099015033846"><ele>576.0</ele><time>2026-04-18T09:15:33.999Z</time></trkpt><trkpt lat="43.86576661011211" lon="12.310016988139374"><ele>579.0</ele><time>2026-04-18T09:15:35.999Z</time></trkpt><trkpt lat="43.86585995430775" lon="12.310125415105043"><ele>582.0</ele><time>2026-04-18T09:15:37.999Z</time></trkpt><trkpt lat="43.865915763051404" lon="12.31020188112571"><ele>582.3333333333334</ele><time>2026-04-18T09:15:38.999Z</time></trkpt><trkpt lat="43.8659830908923" lon="12.310266211727946"><ele>582.6666666666666</ele><time>2026-04-18T09:15:39.999Z</time></trkpt><trkpt lat="43.86606470121907" lon="12.310293442896578"><ele>583.0</ele><time>2026-04-18T09:15:40.999Z</time></trkpt><trkpt lat="43.86614504733585" lon="12.31031070732772"><ele>583.3333333333333</ele><time>2026-04-18T09:15:41.999Z</time></trkpt><trkpt lat="43.86622636432711" lon="12.310317775877706"><ele>583.6666666666666</ele><time>2026-04-18T09:15:42.999Z</time></trkpt><trkpt lat="43.86631960499137" lon="12.31032715133137"><ele>584.0</ele><time>2026-04-18T09:15:43.999Z</time></trkpt><trkpt lat="43.86640474208955" lon="12.310317257920312"><ele>584.0</ele><time>2026-04-18T09:15:44.999Z</time></trkpt><trkpt lat="43.86648019714033" lon="12.310301194959312"><ele>584.0</ele><time>2026-04-18T09:15:45.999Z</time></trkpt><trkpt lat="43.866566357209685" lon="12.310257812479625"><ele>584.0</ele><time>2026-04-18T09:15:46.999Z</time></trkpt><trkpt lat="43.866664744675965" lon="12.310211910068872"><ele>584.0</ele><time>2026-04-18T09:15:47.999Z</time></trkpt><trkpt lat="43.8667521888833" lon="12.310191538951072"><ele>584.0</ele><time>2026-04-18T09:15:48.999Z</time></trkpt><trkpt lat="43.86682238278996" lon="12.310204544755452"><ele>584.0</ele><time>2026-04-18T09:15:49.999Z</time></trkpt><trkpt lat="43.86690456857065" lon="12.310244666362712"><ele>584.0</ele><time>2026-04-18T09:15:51.999Z</time></trkpt><trkpt lat="43.86678150278012" lon="12.310199287806324"><ele>584.0</ele><time>2026-04-18T09:16:06Z</time></trkpt><trkpt lat="43.86667644122953" lon="12.310199095505652"><ele>584.0</ele><time>2026-04-18T09:16:08Z</time></trkpt><trkpt lat="43.86658536682879" lon="12.310212899566375"><ele>584.0</ele><time>2026-04-18T09:16:10Z</time></trkpt><trkpt lat="43.866468790540786" lon="12.310294588048835"><ele>584.0</ele><time>2026-04-18T09:16:12Z</time></trkpt><trkpt lat="43.86640702657542" lon="12.310314804696608"><ele>584.0</ele><time>2026-04-18T09:16:13Z</time></trkpt><trkpt lat="43.86632709124882" lon="12.310327145192007"><ele>584.0</ele><time>2026-04-18T09:16:14Z</time></trkpt><trkpt lat="43.86624199409791" lon="12.31034703634896"><ele>584.0</ele><time>2026-04-18T09:16:15Z</time></trkpt><trkpt lat="43.86616185641645" lon="12.31037527539723"><ele>584.0</ele><time>2026-04-18T09:16:16Z</time></trkpt><trkpt lat="43.86606135933581" lon="12.310445523103581"><ele>584.0</ele><time>2026-04-18T09:16:18Z</time></trkpt><trkpt lat="43.86606753904498" lon="12.31057821314605"><ele>587.6</ele><time>2026-04-18T09:16:21Z</time></trkpt><trkpt lat="43.86607193234459" lon="12.310715648256698"><ele>591.2</ele><time>2026-04-18T09:16:24Z</time></trkpt><trkpt lat="43.866052437885216" lon="12.310865027963686"><ele>594.8000000000001</ele><time>2026-04-18T09:16:26Z</time></trkpt><trkpt lat="43.86609034671946" lon="12.310952559641846"><ele>598.4</ele><time>2026-04-18T09:16:44Z</time></trkpt><trkpt lat="43.86615545413392" lon="12.31103801726857"><ele>602.0</ele><time>2026-04-18T09:16:48Z</time></trkpt><trkpt lat="43.866302968182055" lon="12.31096516198097"><ele>602.0</ele><time>2026-04-18T09:16:52Z</time></trkpt><trkpt lat="43.866338707012886" lon="12.31087613972886"><ele>602.0</ele><time>2026-04-18T09:16:54Z</time></trkpt><trkpt lat="43.866417213460586" lon="12.310993334801598"><ele>602.0</ele><time>2026-04-18T09:16:58Z</time></trkpt><trkpt lat="43.86648572682052" lon="12.311170242639621"><ele>602.0</ele><time>2026-04-18T09:17:00Z</time></trkpt><trkpt lat="43.86651417589161" lon="12.311263288747169"><ele>602.0</ele><time>2026-04-18T09:17:01Z</time></trkpt><trkpt lat="43.866552446611095" lon="12.311337042224022"><ele>604.1666666666666</ele><time>2026-04-18T09:17:02Z</time></trkpt><trkpt lat="43.86661264857486" lon="12.311424972151238"><ele>606.3333333333333</ele><time>2026-04-18T09:17:03Z</time></trkpt><trkpt lat="43.866683548015274" lon="12.311495899799368"><ele>608.5</ele><time>2026-04-18T09:17:04Z</time></trkpt><trkpt lat="43.86675646456581" lon="12.311541414137839"><ele>610.6666666666666</ele><time>2026-04-18T09:17:05Z</time></trkpt><trkpt lat="43.86682525363494" lon="12.31157649709343"><ele>612.8333333333334</ele><time>2026-04-18T09:17:06Z</time></trkpt><trkpt lat="43.86685811313288" lon="12.311653410176126"><ele>615.0</ele><time>2026-04-18T09:17:07Z</time></trkpt><trkpt lat="43.86687391370843" lon="12.311754175084523"><ele>615.0</ele><time>2026-04-18T09:17:08Z</time></trkpt><trkpt lat="43.86691573177534" lon="12.311853021112212"><ele>615.0</ele><time>2026-04-18T09:17:09Z</time></trkpt><trkpt lat="43.86697293764584" lon="12.311929674608425"><ele>615.0</ele><time>2026-04-18T09:17:10Z</time></trkpt><trkpt lat="43.867038429539086" lon="12.311956417217559"><ele>615.0</ele><time>2026-04-18T09:17:11Z</time></trkpt><trkpt lat="43.86713414381292" lon="12.312035088474845"><ele>615.0</ele><time>2026-04-18T09:17:13Z</time></trkpt><trkpt lat="43.867180378141924" lon="12.312111949274435"><ele>615.0</ele><time>2026-04-18T09:17:14Z</time></trkpt><trkpt lat="43.8672383689297" lon="12.312213675172119"><ele>618.2</ele><time>2026-04-18T09:17:15Z</time></trkpt><trkpt lat="43.86729105152376" lon="12.312314570146846"><ele>621.4</ele><time>2026-04-18T09:17:16Z</time></trkpt><trkpt lat="43.867314661278265" lon="12.31243024058617"><ele>624.6</ele><time>2026-04-18T09:17:17Z</time></trkpt><trkpt lat="43.86729130198454" lon="12.312543713533968"><ele>627.8</ele><time>2026-04-18T09:17:18Z</time></trkpt><trkpt lat="43.867232693000254" lon="12.31265259271534"><ele>631.0</ele><time>2026-04-18T09:17:19Z</time></trkpt><trkpt lat="43.86723398802506" lon="12.312821629765645"><ele>631.0</ele><time>2026-04-18T09:17:21Z</time></trkpt><trkpt lat="43.86730016689735" lon="12.312864830209783"><ele>631.0</ele><time>2026-04-18T09:17:22Z</time></trkpt><trkpt lat="43.86736759385686" lon="12.31293924441514"><ele>631.0</ele><time>2026-04-18T09:17:23Z</time></trkpt><trkpt lat="43.86742854842544" lon="12.313026406082088"><ele>631.0</ele><time>2026-04-18T09:17:23.999Z</time></trkpt><trkpt lat="43.86747075939635" lon="12.31316542025038"><ele>631.0</ele><time>2026-04-18T09:17:24.999Z</time></trkpt><trkpt lat="43.86752212344679" lon="12.313342857550397"><ele>633.0</ele><time>2026-04-18T09:17:25.999Z</time></trkpt><trkpt lat="43.867583305172076" lon="12.313496405395723"><ele>635.0</ele><time>2026-04-18T09:17:26.999Z</time></trkpt><trkpt lat="43.867633798625164" lon="12.313582433826648"><ele>637.0</ele><time>2026-04-18T09:17:27.999Z</time></trkpt><trkpt lat="43.86763635007939" lon="12.313703014981897"><ele>639.0</ele><time>2026-04-18T09:17:29.999Z</time></trkpt><trkpt lat="43.86759521271543" lon="12.31380917215489"><ele>641.0</ele><time>2026-04-18T09:17:30.999Z</time></trkpt><trkpt lat="43.86757610977785" lon="12.31397117547258"><ele>645.25</ele><time>2026-04-18T09:17:31.999Z</time></trkpt><trkpt lat="43.86757265785385" lon="12.314141047724103"><ele>649.5</ele><time>2026-04-18T09:17:32.999Z</time></trkpt><trkpt lat="43.867545517229345" lon="12.314300502577709"><ele>653.75</ele><time>2026-04-18T09:17:33.999Z</time></trkpt><trkpt lat="43.867514614219274" lon="12.314387995292034"><ele>658.0</ele><time>2026-04-18T09:17:34.999Z</time></trkpt><trkpt lat="43.86740171488376" lon="12.314517599614055"><ele>658.0</ele><time>2026-04-18T09:17:36.999Z</time></trkpt><trkpt lat="43.867332152666314" lon="12.31459651490452"><ele>658.0</ele><time>2026-04-18T09:17:37.999Z</time></trkpt><trkpt lat="43.867220934854494" lon="12.314646629001167"><ele>658.0</ele><time>2026-04-18T09:17:38.999Z</time></trkpt><trkpt lat="43.867150272451845" lon="12.31457751640277"><ele>658.0</ele><time>2026-04-18T09:17:39.999Z</time></trkpt><trkpt lat="43.86704870974554" lon="12.314565770386263"><ele>658.0</ele><time>2026-04-18T09:17:40.999Z</time></trkpt><trkpt lat="43.86696074658318" lon="12.31454558824994"><ele>658.0</ele><time>2026-04-18T09:17:41.999Z</time></trkpt><trkpt lat="43.86684982975084" lon="12.314563848001004"><ele>658.0</ele><time>2026-04-18T09:17:42.999Z</time></trkpt><trkpt lat="43.86674882677359" lon="12.314607699135934"><ele>658.0</ele><time>2026-04-18T09:17:43.999Z</time></trkpt><trkpt lat="43.86665048564231" lon="12.314657170888053"><ele>658.0</ele><time>2026-04-18T09:17:44.999Z</time></trkpt><trkpt lat="43.866520595320395" lon="12.314729449107604"><ele>663.75</ele><time>2026-04-18T09:17:45.999Z</time></trkpt><trkpt lat="43.86639076394096" lon="12.314810709619874"><ele>669.5</ele><time>2026-04-18T09:17:46.999Z</time></trkpt><trkpt lat="43.86628283813205" lon="12.314905641746241"><ele>675.25</ele><time>2026-04-18T09:17:47.999Z</time></trkpt><trkpt lat="43.86619629210354" lon="12.315004924982677"><ele>681.0</ele><time>2026-04-18T09:17:48.999Z</time></trkpt><trkpt lat="43.866122615174014" lon="12.315133621089123"><ele>681.0</ele><time>2026-04-18T09:17:49.999Z</time></trkpt><trkpt lat="43.86608858628266" lon="12.315276187250618"><ele>681.0</ele><time>2026-04-18T09:17:50.999Z</time></trkpt><trkpt lat="43.86607597428639" lon="12.315437995269212"><ele>681.0</ele><time>2026-04-18T09:17:51.999Z</time></trkpt><trkpt lat="43.866083604958824" lon="12.315626031250169"><ele>681.0</ele><time>2026-04-18T09:17:52.999Z</time></trkpt><trkpt lat="43.866099653780594" lon="12.315808642482638"><ele>680.0</ele><time>2026-04-18T09:17:53.999Z</time></trkpt><trkpt lat="43.86610654128208" lon="12.315965035220202"><ele>679.0</ele><time>2026-04-18T09:17:54.999Z</time></trkpt><trkpt lat="43.866101328520536" lon="12.316102323652185"><ele>678.0</ele><time>2026-04-18T09:17:55.999Z</time></trkpt><trkpt lat="43.86607550336869" lon="12.31622000704009"><ele>677.0</ele><time>2026-04-18T09:17:56.999Z</time></trkpt><trkpt lat="43.8660114246769" lon="12.316343006574302"><ele>676.0</ele><time>2026-04-18T09:17:57.999Z</time></trkpt><trkpt lat="43.865923156253665" lon="12.31649407856096"><ele>676.0</ele><time>2026-04-18T09:17:58.999Z</time></trkpt><trkpt lat="43.865819183546584" lon="12.316645991111816"><ele>676.0</ele><time>2026-04-18T09:17:59.999Z</time></trkpt><trkpt lat="43.86570678434321" lon="12.316766710261989"><ele>676.0</ele><time>2026-04-18T09:18:00.999Z</time></trkpt><trkpt lat="43.8656025421007" lon="12.316890513373247"><ele>676.0</ele><time>2026-04-18T09:18:01.999Z</time></trkpt><trkpt lat="43.8655246780503" lon="12.31699757541472"><ele>676.0</ele><time>2026-04-18T09:18:02.999Z</time></trkpt><trkpt lat="43.865463053102154" lon="12.317107766467366"><ele>676.0</ele><time>2026-04-18T09:18:03.999Z</time></trkpt><trkpt lat="43.8654144360666" lon="12.317225341670103"><ele>676.0</ele><time>2026-04-18T09:18:04.999Z</time></trkpt><trkpt lat="43.865370609904446" lon="12.317351468117673"><ele>676.0</ele><time>2026-04-18T09:18:05.999Z</time></trkpt><trkpt lat="43.86532327290818" lon="12.31752303549005"><ele>676.0</ele><time>2026-04-18T09:18:06.999Z</time></trkpt><trkpt lat="43.86528188270588" lon="12.317708018330695"><ele>678.75</ele><time>2026-04-18T09:18:07.999Z</time></trkpt><trkpt lat="43.86524355756285" lon="12.317887124211712"><ele>681.5</ele><time>2026-04-18T09:18:08.999Z</time></trkpt><trkpt lat="43.86521042490731" lon="12.318052814071805"><ele>684.25</ele><time>2026-04-18T09:18:10Z</time></trkpt><trkpt lat="43.86518640161985" lon="12.31820643281987"><ele>687.0</ele><time>2026-04-18T09:18:11Z</time></trkpt><trkpt lat="43.865165895203816" lon="12.318365533971322"><ele>687.6</ele><time>2026-04-18T09:18:12Z</time></trkpt><trkpt lat="43.86513860541576" lon="12.31849222188841"><ele>688.2</ele><time>2026-04-18T09:18:13Z</time></trkpt><trkpt lat="43.865083751008356" lon="12.31858216738116"><ele>688.8</ele><time>2026-04-18T09:18:14Z</time></trkpt><trkpt lat="43.864996391448344" lon="12.318628739414496"><ele>689.4</ele><time>2026-04-18T09:18:15Z</time></trkpt><trkpt lat="43.86489010507403" lon="12.318688078227808"><ele>690.0</ele><time>2026-04-18T09:18:16Z</time></trkpt><trkpt lat="43.86480153349343" lon="12.318781664912104"><ele>688.6</ele><time>2026-04-18T09:18:17Z</time></trkpt><trkpt lat="43.86472918129201" lon="12.318893889510933"><ele>687.2</ele><time>2026-04-18T09:18:18Z</time></trkpt><trkpt lat="43.864677644602814" lon="12.31900940074178"><ele>685.8</ele><time>2026-04-18T09:18:19Z</time></trkpt><trkpt lat="43.864633969382055" lon="12.319141768739444"><ele>684.4</ele><time>2026-04-18T09:18:20Z</time></trkpt><trkpt lat="43.86460080978647" lon="12.319289654636462"><ele>683.0</ele><time>2026-04-18T09:18:21Z</time></trkpt><trkpt lat="43.86459802310623" lon="12.319463381474238"><ele>683.0</ele><time>2026-04-18T09:18:22Z</time></trkpt><trkpt lat="43.86455126887499" lon="12.31962829142492"><ele>683.0</ele><time>2026-04-18T09:18:23Z</time></trkpt><trkpt lat="43.864513729800315" lon="12.319753587498983"><ele>683.0</ele><time>2026-04-18T09:18:24Z</time></trkpt><trkpt lat="43.86445875022673" lon="12.319841011531853"><ele>683.0</ele><time>2026-04-18T09:18:25Z</time></trkpt><trkpt lat="43.86439493701321" lon="12.319987459861512"><ele>683.0</ele><time>2026-04-18T09:18:27Z</time></trkpt><trkpt lat="43.86442244653914" lon="12.320122293316345"><ele>684.4</ele><time>2026-04-18T09:18:29Z</time></trkpt><trkpt lat="43.864582519715846" lon="12.32014154689418"><ele>685.8</ele><time>2026-04-18T09:18:31Z</time></trkpt><trkpt lat="43.864651978782355" lon="12.32014247171944"><ele>687.2</ele><time>2026-04-18T09:18:32Z</time></trkpt><trkpt lat="43.864737972090225" lon="12.320199243147835"><ele>688.6</ele><time>2026-04-18T09:18:33Z</time></trkpt><trkpt lat="43.864827109628976" lon="12.320279064172025"><ele>690.0</ele><time>2026-04-18T09:18:34Z</time></trkpt><trkpt lat="43.8649193618995" lon="12.320381155206903"><ele>690.0</ele><time>2026-04-18T09:18:35Z</time></trkpt><trkpt lat="43.86501651203459" lon="12.320428649723429"><ele>690.0</ele><time>2026-04-18T09:18:36Z</time></trkpt><trkpt lat="43.8651003854116" lon="12.320438370166638"><ele>690.0</ele><time>2026-04-18T09:18:37Z</time></trkpt><trkpt lat="43.86517789232075" lon="12.32038996403761"><ele>690.0</ele><time>2026-04-18T09:18:38Z</time></trkpt><trkpt lat="43.86528304666785" lon="12.320345741005267"><ele>690.0</ele><time>2026-04-18T09:18:39Z</time></trkpt><trkpt lat="43.865400677733476" lon="12.320342000781762"><ele>691.8</ele><time>2026-04-18T09:18:40Z</time></trkpt><trkpt lat="43.86549518384801" lon="12.320385702435752"><ele>693.6</ele><time>2026-04-18T09:18:41Z</time></trkpt><trkpt lat="43.86559840111575" lon="12.32043042026622"><ele>695.4000000000001</ele><time>2026-04-18T09:18:42Z</time></trkpt><trkpt lat="43.86572466361189" lon="12.320474083985639"><ele>697.2</ele><time>2026-04-18T09:18:43Z</time></trkpt><trkpt lat="43.86582913338307" lon="12.320436189344516"><ele>699.0</ele><time>2026-04-18T09:18:44Z</time></trkpt><trkpt lat="43.86591202554531" lon="12.32037085517609"><ele>702.4000000000001</ele><time>2026-04-18T09:18:45Z</time></trkpt><trkpt lat="43.86599702591367" lon="12.32027358749842"><ele>705.8</ele><time>2026-04-18T09:18:46Z</time></trkpt><trkpt lat="43.866082545907375" lon="12.32024318659786"><ele>709.2</ele><time>2026-04-18T09:18:47Z</time></trkpt><trkpt lat="43.86616142898238" lon="12.320266481100115"><ele>712.5999999999999</ele><time>2026-04-18T09:18:48Z</time></trkpt><trkpt lat="43.86623692695517" lon="12.320326421577098"><ele>716.0</ele><time>2026-04-18T09:18:49Z</time></trkpt><trkpt lat="43.8663060028778" lon="12.320401898926765"><ele>716.0</ele><time>2026-04-18T09:18:50Z</time></trkpt><trkpt lat="43.86636470822564" lon="12.320484626138256"><ele>716.0</ele><time>2026-04-18T09:18:51Z</time></trkpt><trkpt lat="43.86643862686051" lon="12.32059333329757"><ele>716.0</ele><time>2026-04-18T09:18:52Z</time></trkpt><trkpt lat="43.86651706499867" lon="12.32071280434607"><ele>716.0</ele><time>2026-04-18T09:18:53Z</time></trkpt><trkpt lat="43.866605460925854" lon="12.320835285500339"><ele>716.0</ele><time>2026-04-18T09:18:54Z</time></trkpt><trkpt lat="43.8666886431852" lon="12.320969915061255"><ele>720.75</ele><time>2026-04-18T09:18:55Z</time></trkpt><trkpt lat="43.86678603920134" lon="12.321092937350492"><ele>725.5</ele><time>2026-04-18T09:18:56Z</time></trkpt><trkpt lat="43.8668947723271" lon="12.321184393523254"><ele>730.25</ele><time>2026-04-18T09:18:57Z</time></trkpt><trkpt lat="43.86697843456228" lon="12.321296573865142"><ele>735.0</ele><time>2026-04-18T09:18:58Z</time></trkpt><trkpt lat="43.86705600483745" lon="12.321403136100688"><ele>735.0</ele><time>2026-04-18T09:18:59Z</time></trkpt><trkpt lat="43.86713983619455" lon="12.321551137511566"><ele>735.0</ele><time>2026-04-18T09:19:00Z</time></trkpt><trkpt lat="43.86722608799929" lon="12.321722874894906"><ele>735.0</ele><time>2026-04-18T09:19:01Z</time></trkpt><trkpt lat="43.86729790865173" lon="12.321878780935371"><ele>735.0</ele><time>2026-04-18T09:19:02Z</time></trkpt><trkpt lat="43.867363009112815" lon="12.322035279878945"><ele>735.0</ele><time>2026-04-18T09:19:03Z</time></trkpt><trkpt lat="43.867429601886556" lon="12.322139225636334"><ele>735.0</ele><time>2026-04-18T09:19:04Z</time></trkpt><trkpt lat="43.86749176465119" lon="12.322251667438742"><ele>735.0</ele><time>2026-04-18T09:19:05Z</time></trkpt><trkpt lat="43.867515501755896" lon="12.322356791371533"><ele>735.0</ele><time>2026-04-18T09:19:06Z</time></trkpt><trkpt lat="43.867527610299256" lon="12.32248098204308"><ele>735.0</ele><time>2026-04-18T09:19:07Z</time></trkpt><trkpt lat="43.86755804031922" lon="12.322630259039963"><ele>741.75</ele><time>2026-04-18T09:19:08Z</time></trkpt><trkpt lat="43.86761210320974" lon="12.322797560798504"><ele>748.5</ele><time>2026-04-18T09:19:09Z</time></trkpt><trkpt lat="43.86763912827595" lon="12.322946812812473"><ele>755.25</ele><time>2026-04-18T09:19:10Z</time></trkpt><trkpt lat="43.86766577269977" lon="12.323088367103916"><ele>762.0</ele><time>2026-04-18T09:19:11Z</time></trkpt><trkpt lat="43.867692582666784" lon="12.323233122832464"><ele>762.25</ele><time>2026-04-18T09:19:12Z</time></trkpt><trkpt lat="43.86772529177004" lon="12.323368764189894"><ele>762.5</ele><time>2026-04-18T09:19:13Z</time></trkpt><trkpt lat="43.86777750068298" lon="12.323524963403818"><ele>762.75</ele><time>2026-04-18T09:19:14Z</time></trkpt><trkpt lat="43.86784665545399" lon="12.323657000535496"><ele>763.0</ele><time>2026-04-18T09:19:15Z</time></trkpt><trkpt lat="43.86790855548434" lon="12.32391539637558"><ele>763.1666666666667</ele><time>2026-04-18T09:19:17Z</time></trkpt><trkpt lat="43.867884031641594" lon="12.324014982617443"><ele>763.3333333333334</ele><time>2026-04-18T09:19:21Z</time></trkpt><trkpt lat="43.86779403434632" lon="12.324086233126883"><ele>763.5</ele><time>2026-04-18T09:19:23Z</time></trkpt><trkpt lat="43.86773992089058" lon="12.324161679835429"><ele>763.6666666666666</ele><time>2026-04-18T09:19:24Z</time></trkpt><trkpt lat="43.867667326166526" lon="12.324213240112146"><ele>763.8333333333333</ele><time>2026-04-18T09:19:25Z</time></trkpt><trkpt lat="43.867571793846814" lon="12.324265982044196"><ele>764.0</ele><time>2026-04-18T09:19:26Z</time></trkpt><trkpt lat="43.867461025377544" lon="12.324314183110758"><ele>764.0</ele><time>2026-04-18T09:19:27Z</time></trkpt><trkpt lat="43.86735291454785" lon="12.324321986854518"><ele>764.0</ele><time>2026-04-18T09:19:28Z</time></trkpt><trkpt lat="43.86725229678864" lon="12.324295176658335"><ele>764.0</ele><time>2026-04-18T09:19:29Z</time></trkpt><trkpt lat="43.867130097223246" lon="12.324279746165319"><ele>764.0</ele><time>2026-04-18T09:19:30Z</time></trkpt><trkpt lat="43.867012924914384" lon="12.32428701793859"><ele>764.0</ele><time>2026-04-18T09:19:31Z</time></trkpt><trkpt lat="43.86691906749872" lon="12.324330379475594"><ele>764.0</ele><time>2026-04-18T09:19:31.999Z</time></trkpt><trkpt lat="43.8668023273686" lon="12.324416303788631"><ele>764.0</ele><time>2026-04-18T09:19:32.999Z</time></trkpt><trkpt lat="43.86668428114138" lon="12.324510439695526"><ele>764.0</ele><time>2026-04-18T09:19:33.999Z</time></trkpt><trkpt lat="43.866583958923506" lon="12.324593618564215"><ele>766.4000000000001</ele><time>2026-04-18T09:19:34.999Z</time></trkpt><trkpt lat="43.86648603127775" lon="12.32470002758704"><ele>768.8</ele><time>2026-04-18T09:19:35.999Z</time></trkpt><trkpt lat="43.86642047349619" lon="12.324780070623149"><ele>771.2</ele><time>2026-04-18T09:19:36.999Z</time></trkpt><trkpt lat="43.86638638469634" lon="12.324869385519847"><ele>773.5999999999999</ele><time>2026-04-18T09:19:37.999Z</time></trkpt><trkpt lat="43.86637936480906" lon="12.324991232239364"><ele>776.0</ele><time>2026-04-18T09:19:38.999Z</time></trkpt><trkpt lat="43.866369781590414" lon="12.325161956848344"><ele>778.0</ele><time>2026-04-18T09:19:39.999Z</time></trkpt><trkpt lat="43.866334504870984" lon="12.325331494103503"><ele>780.0</ele><time>2026-04-18T09:19:40.999Z</time></trkpt><trkpt lat="43.86630285949727" lon="12.325505576700353"><ele>782.0</ele><time>2026-04-18T09:19:41.999Z</time></trkpt><trkpt lat="43.86627348620483" lon="12.325658381112753"><ele>784.0</ele><time>2026-04-18T09:19:42.999Z</time></trkpt><trkpt lat="43.86624681813924" lon="12.325791375007016"><ele>784.4000000000001</ele><time>2026-04-18T09:19:43.999Z</time></trkpt><trkpt lat="43.86621693009001" lon="12.325915306182997"><ele>784.8</ele><time>2026-04-18T09:19:44.999Z</time></trkpt><trkpt lat="43.86616972848786" lon="12.326041769562423"><ele>785.2</ele><time>2026-04-18T09:19:45.999Z</time></trkpt><trkpt lat="43.86614160116074" lon="12.326182111473425"><ele>785.5999999999999</ele><time>2026-04-18T09:19:46.999Z</time></trkpt><trkpt lat="43.86612585711603" lon="12.326287647035713"><ele>786.0</ele><time>2026-04-18T09:19:47.999Z</time></trkpt><trkpt lat="43.8661016244671" lon="12.326388755009578"><ele>785.5</ele><time>2026-04-18T09:19:48.999Z</time></trkpt><trkpt lat="43.86606207616667" lon="12.326479876059475"><ele>785.0</ele><time>2026-04-18T09:19:49.999Z</time></trkpt><trkpt lat="43.86601298729947" lon="12.326563693599669"><ele>784.5</ele><time>2026-04-18T09:19:50.999Z</time></trkpt><trkpt lat="43.865923612546396" lon="12.326622119012805"><ele>784.0</ele><time>2026-04-18T09:19:51.999Z</time></trkpt><trkpt lat="43.86584904882733" lon="12.326682721743158"><ele>783.5</ele><time>2026-04-18T09:19:52.999Z</time></trkpt><trkpt lat="43.86582047694564" lon="12.326764460094694"><ele>783.0</ele><time>2026-04-18T09:19:53.999Z</time></trkpt><trkpt lat="43.86582631241785" lon="12.326865789536612"><ele>787.0</ele><time>2026-04-18T09:19:54.999Z</time></trkpt><trkpt lat="43.865815096699585" lon="12.326986015863104"><ele>791.0</ele><time>2026-04-18T09:19:55.999Z</time></trkpt><trkpt lat="43.86578819260393" lon="12.327117723975109"><ele>795.0</ele><time>2026-04-18T09:19:56.999Z</time></trkpt><trkpt lat="43.86575881383182" lon="12.327257714721599"><ele>799.0</ele><time>2026-04-18T09:19:57.999Z</time></trkpt><trkpt lat="43.86577519471699" lon="12.327350428337327"><ele>803.0</ele><time>2026-04-18T09:19:58.999Z</time></trkpt><trkpt lat="43.86580687270629" lon="12.327485844016948"><ele>803.6666666666667</ele><time>2026-04-18T09:19:59.999Z</time></trkpt><trkpt lat="43.86582402802158" lon="12.327595543242987"><ele>804.3333333333334</ele><time>2026-04-18T09:20:00.999Z</time></trkpt><trkpt lat="43.865813959907946" lon="12.327726099677745"><ele>805.0</ele><time>2026-04-18T09:20:01.999Z</time></trkpt><trkpt lat="43.86579059937054" lon="12.327843239000792"><ele>805.6666666666667</ele><time>2026-04-18T09:20:02.999Z</time></trkpt><trkpt lat="43.86576057236162" lon="12.32794214385504"><ele>806.3333333333334</ele><time>2026-04-18T09:20:03.999Z</time></trkpt><trkpt lat="43.86574011461693" lon="12.328046841595103"><ele>807.0</ele><time>2026-04-18T09:20:04.999Z</time></trkpt><trkpt lat="43.86573747864794" lon="12.328170137975045"><ele>807.2</ele><time>2026-04-18T09:20:05.999Z</time></trkpt><trkpt lat="43.8657427491938" lon="12.328288442831413"><ele>807.4000000000001</ele><time>2026-04-18T09:20:06.999Z</time></trkpt><trkpt lat="43.86572574565134" lon="12.328415257302106"><ele>807.5999999999999</ele><time>2026-04-18T09:20:07.999Z</time></trkpt><trkpt lat="43.865706209623646" lon="12.328529470807156"><ele>807.8</ele><time>2026-04-18T09:20:08.999Z</time></trkpt><trkpt lat="43.865736399774505" lon="12.328658793085467"><ele>808.0</ele><time>2026-04-18T09:20:09.999Z</time></trkpt><trkpt lat="43.86579371002872" lon="12.328786623482275"><ele>807.9999999999999</ele><time>2026-04-18T09:20:10.999Z</time></trkpt><trkpt lat="43.86583638485032" lon="12.328887594659275"><ele>808.0</ele><time>2026-04-18T09:20:11.999Z</time></trkpt><trkpt lat="43.86584288755328" lon="12.328978234607723"><ele>808.0</ele><time>2026-04-18T09:20:12.999Z</time></trkpt><trkpt lat="43.86577079168953" lon="12.329105552573473"><ele>808.0</ele><time>2026-04-18T09:20:14.999Z</time></trkpt><trkpt lat="43.865688206272196" lon="12.329166937145496"><ele>807.9999999999999</ele><time>2026-04-18T09:20:17Z</time></trkpt><trkpt lat="43.865632636628526" lon="12.329237260028677"><ele>808.0</ele><time>2026-04-18T09:20:18Z</time></trkpt><trkpt lat="43.86557678777781" lon="12.329338432325255"><ele>808.0</ele><time>2026-04-18T09:20:19Z</time></trkpt><trkpt lat="43.865511599878964" lon="12.329463152516409"><ele>808.0</ele><time>2026-04-18T09:20:20Z</time></trkpt><trkpt lat="43.865455564056724" lon="12.329585065233179"><ele>808.0</ele><time>2026-04-18T09:20:21Z</time></trkpt><trkpt lat="43.86541722079345" lon="12.329709982443028"><ele>808.0</ele><time>2026-04-18T09:20:22Z</time></trkpt><trkpt lat="43.86539244973047" lon="12.329817099636916"><ele>808.0</ele><time>2026-04-18T09:20:23Z</time></trkpt><trkpt lat="43.8653751023079" lon="12.32994358407019"><ele>806.5999999999999</ele><time>2026-04-18T09:20:24Z</time></trkpt><trkpt lat="43.86538411972431" lon="12.330068563163687"><ele>805.1999999999999</ele><time>2026-04-18T09:20:25Z</time></trkpt><trkpt lat="43.86538891296838" lon="12.330195974776425"><ele>803.8</ele><time>2026-04-18T09:20:26Z</time></trkpt><trkpt lat="43.86538470017791" lon="12.330284718087693"><ele>802.4</ele><time>2026-04-18T09:20:27Z</time></trkpt><trkpt lat="43.865289451036766" lon="12.33030807808189"><ele>801.0</ele><time>2026-04-18T09:20:43Z</time></trkpt><trkpt lat="43.865201072807" lon="12.330414774869727"><ele>801.0</ele><time>2026-04-18T09:20:45Z</time></trkpt><trkpt lat="43.865159433362514" lon="12.330496093448815"><ele>801.0</ele><time>2026-04-18T09:20:46Z</time></trkpt><trkpt lat="43.86512253222401" lon="12.33058079636284"><ele>801.0</ele><time>2026-04-18T09:20:47Z</time></trkpt><trkpt lat="43.865091846872446" lon="12.330698486050132"><ele>801.0</ele><time>2026-04-18T09:20:48Z</time></trkpt><trkpt lat="43.86505697852106" lon="12.33082123868357"><ele>801.0</ele><time>2026-04-18T09:20:49Z</time></trkpt><trkpt lat="43.86501395541067" lon="12.330957856290246"><ele>801.0</ele><time>2026-04-18T09:20:50Z</time></trkpt><trkpt lat="43.86497360103259" lon="12.331090513911397"><ele>804.1999999999999</ele><time>2026-04-18T09:20:51Z</time></trkpt><trkpt lat="43.86492973853307" lon="12.331198945875354"><ele>807.4</ele><time>2026-04-18T09:20:52Z</time></trkpt><trkpt lat="43.86486919428535" lon="12.33130057849308"><ele>810.6</ele><time>2026-04-18T09:20:53Z</time></trkpt><trkpt lat="43.864809625745906" lon="12.331405262165074"><ele>813.8</ele><time>2026-04-18T09:20:54Z</time></trkpt><trkpt lat="43.86476918839762" lon="12.331512842299608"><ele>817.0</ele><time>2026-04-18T09:20:55Z</time></trkpt><trkpt lat="43.86474072670415" lon="12.331625501956667"><ele>817.4999999999999</ele><time>2026-04-18T09:20:56Z</time></trkpt><trkpt lat="43.86469298962135" lon="12.331705318739177"><ele>818.0</ele><time>2026-04-18T09:20:57Z</time></trkpt><trkpt lat="43.86458781709755" lon="12.331776838421945"><ele>818.5</ele><time>2026-04-18T09:20:59Z</time></trkpt><trkpt lat="43.864529031197726" lon="12.331851823757312"><ele>819.0</ele><time>2026-04-18T09:21:00Z</time></trkpt><trkpt lat="43.86447047697674" lon="12.331945734062037"><ele>819.4999999999999</ele><time>2026-04-18T09:21:01Z</time></trkpt><trkpt lat="43.86441509912279" lon="12.332032731833511"><ele>820.0</ele><time>2026-04-18T09:21:02Z</time></trkpt><trkpt lat="43.864339438664665" lon="12.332098608903244"><ele>821.2</ele><time>2026-04-18T09:21:03Z</time></trkpt><trkpt lat="43.86424052123107" lon="12.332213485729566"><ele>822.4</ele><time>2026-04-18T09:21:05Z</time></trkpt><trkpt lat="43.86419876373111" lon="12.33230786489543"><ele>823.5999999999999</ele><time>2026-04-18T09:21:06Z</time></trkpt><trkpt lat="43.86416210836334" lon="12.332384585237284"><ele>824.8</ele><time>2026-04-18T09:21:07Z</time></trkpt><trkpt lat="43.864131988709076" lon="12.332470495743774"><ele>826.0</ele><time>2026-04-18T09:21:08Z</time></trkpt><trkpt lat="43.86405389334341" lon="12.332577832735062"><ele>825.9999999999999</ele><time>2026-04-18T09:21:10Z</time></trkpt><trkpt lat="43.8639932798516" lon="12.33264615526912"><ele>826.0</ele><time>2026-04-18T09:21:11Z</time></trkpt><trkpt lat="43.863932312547156" lon="12.332747464974931"><ele>826.0</ele><time>2026-04-18T09:21:12Z</time></trkpt><trkpt lat="43.86387142099503" lon="12.332855534927724"><ele>826.0</ele><time>2026-04-18T09:21:13Z</time></trkpt><trkpt lat="43.86380529297601" lon="12.332954269777959"><ele>825.9999999999999</ele><time>2026-04-18T09:21:14Z</time></trkpt><trkpt lat="43.86374522266407" lon="12.332995110386165"><ele>826.0</ele><time>2026-04-18T09:21:15Z</time></trkpt><trkpt lat="43.863669782840674" lon="12.333033625635844"><ele>825.9999999999999</ele><time>2026-04-18T09:21:16Z</time></trkpt><trkpt lat="43.86361822147401" lon="12.333118164181702"><ele>826.0</ele><time>2026-04-18T09:21:17Z</time></trkpt><trkpt lat="43.86355344003585" lon="12.333233515275232"><ele>826.0</ele><time>2026-04-18T09:21:18Z</time></trkpt><trkpt lat="43.86347895991894" lon="12.333346184452145"><ele>826.0</ele><time>2026-04-18T09:21:19Z</time></trkpt><trkpt lat="43.86344705226925" lon="12.333430469353262"><ele>825.9999999999999</ele><time>2026-04-18T09:21:20Z</time></trkpt><trkpt lat="43.863457487892106" lon="12.3335456024451"><ele>826.0</ele><time>2026-04-18T09:21:21Z</time></trkpt><trkpt lat="43.86347283390044" lon="12.333674265070702"><ele>826.0</ele><time>2026-04-18T09:21:22Z</time></trkpt><trkpt lat="43.863479821444606" lon="12.333837625104072"><ele>826.0</ele><time>2026-04-18T09:21:23Z</time></trkpt><trkpt lat="43.863526384265185" lon="12.333989379568216"><ele>826.0</ele><time>2026-04-18T09:21:24Z</time></trkpt><trkpt lat="43.86356423064686" lon="12.33410937162415"><ele>826.0</ele><time>2026-04-18T09:21:25Z</time></trkpt><trkpt lat="43.8635338945545" lon="12.334197868640802"><ele>826.0</ele><time>2026-04-18T09:21:26Z</time></trkpt><trkpt lat="43.86350828260734" lon="12.334304490428401"><ele>827.8333333333333</ele><time>2026-04-18T09:21:27Z</time></trkpt><trkpt lat="43.86346169118467" lon="12.334415766086781"><ele>829.6666666666666</ele><time>2026-04-18T09:21:29Z</time></trkpt><trkpt lat="43.86344732596624" lon="12.334556489914412"><ele>831.5</ele><time>2026-04-18T09:21:31Z</time></trkpt><trkpt lat="43.863418559802206" lon="12.334659683768454"><ele>833.3333333333333</ele><time>2026-04-18T09:21:32Z</time></trkpt><trkpt lat="43.86337887241966" lon="12.334781979531588"><ele>835.1666666666666</ele><time>2026-04-18T09:21:34Z</time></trkpt><trkpt lat="43.86335593240326" lon="12.334876065742366"><ele>837.0</ele><time>2026-04-18T09:21:35Z</time></trkpt><trkpt lat="43.86336349542503" lon="12.334982434122288"><ele>841.1666666666666</ele><time>2026-04-18T09:21:36Z</time></trkpt><trkpt lat="43.863366818233764" lon="12.335075017858578"><ele>845.3333333333333</ele><time>2026-04-18T09:21:37Z</time></trkpt><trkpt lat="43.86336454645658" lon="12.33517803050073"><ele>849.5</ele><time>2026-04-18T09:21:38Z</time></trkpt><trkpt lat="43.86336981744181" lon="12.335276542389098"><ele>853.6666666666666</ele><time>2026-04-18T09:21:39Z</time></trkpt><trkpt lat="43.863367492456355" lon="12.335442613865242"><ele>857.8333333333333</ele><time>2026-04-18T09:21:41Z</time></trkpt><trkpt lat="43.86337863905475" lon="12.33554651575748"><ele>862.0</ele><time>2026-04-18T09:21:41.999Z</time></trkpt><trkpt lat="43.86338485613311" lon="12.335644588658123"><ele>862.8333333333333</ele><time>2026-04-18T09:21:42.999Z</time></trkpt><trkpt lat="43.863401020352754" lon="12.335734835445123"><ele>863.6666666666666</ele><time>2026-04-18T09:21:43.999Z</time></trkpt><trkpt lat="43.86343697123621" lon="12.3358210269324"><ele>864.5</ele><time>2026-04-18T09:21:58.999Z</time></trkpt><trkpt lat="43.86345696235915" lon="12.335957902725026"><ele>865.3333333333333</ele><time>2026-04-18T09:22:00.999Z</time></trkpt><trkpt lat="43.86346228686335" lon="12.336124420206655"><ele>866.1666666666666</ele><time>2026-04-18T09:22:02.999Z</time></trkpt><trkpt lat="43.86346894083567" lon="12.336217092969994"><ele>867.0</ele><time>2026-04-18T09:22:03.999Z</time></trkpt><trkpt lat="43.86347402487197" lon="12.33631197461507"><ele>868.0</ele><time>2026-04-18T09:22:04.999Z</time></trkpt><trkpt lat="43.8635318443633" lon="12.336433007996202"><ele>869.0</ele><time>2026-04-18T09:22:06.999Z</time></trkpt><trkpt lat="43.86358523915601" lon="12.336484810402261"><ele>870.0</ele><time>2026-04-18T09:22:07.999Z</time></trkpt><trkpt lat="43.86362918309308" lon="12.336569493541887"><ele>871.0</ele><time>2026-04-18T09:22:08.999Z</time></trkpt><trkpt lat="43.863673834771426" lon="12.336658551050034"><ele>872.0</ele><time>2026-04-18T09:22:09.999Z</time></trkpt><trkpt lat="43.863719447088314" lon="12.33674100961557"><ele>873.0</ele><time>2026-04-18T09:22:10.999Z</time></trkpt><trkpt lat="43.86378647201669" lon="12.336834032783255"><ele>873.0</ele><time>2026-04-18T09:22:12.999Z</time></trkpt><trkpt lat="43.86385196742552" lon="12.336933527132079"><ele>873.0</ele><time>2026-04-18T09:22:14.999Z</time></trkpt><trkpt lat="43.863867315558046" lon="12.337027975065896"><ele>873.0</ele><time>2026-04-18T09:22:16.999Z</time></trkpt><trkpt lat="43.863886783081746" lon="12.33711839232755"><ele>873.0</ele><time>2026-04-18T09:22:18.999Z</time></trkpt><trkpt lat="43.8638955213914" lon="12.337233768905286"><ele>873.0</ele><time>2026-04-18T09:22:23Z</time></trkpt><trkpt lat="43.863922647007996" lon="12.337388802130864"><ele>873.0</ele><time>2026-04-18T09:22:25Z</time></trkpt><trkpt lat="43.86395608289563" lon="12.337543499518663"><ele>874.8333333333334</ele><time>2026-04-18T09:22:27Z</time></trkpt><trkpt lat="43.86399081234647" lon="12.337656181099076"><ele>876.6666666666667</ele><time>2026-04-18T09:22:29Z</time></trkpt><trkpt lat="43.86403231207466" lon="12.337788189399095"><ele>878.5</ele><time>2026-04-18T09:22:38Z</time></trkpt><trkpt lat="43.86406237488132" lon="12.337902045819908"><ele>880.3333333333334</ele><time>2026-04-18T09:22:39Z</time></trkpt><trkpt lat="43.864092674015424" lon="12.338014853641974"><ele>882.1666666666667</ele><time>2026-04-18T09:22:41Z</time></trkpt><trkpt lat="43.86409705213134" lon="12.338123999973359"><ele>884.0</ele><time>2026-04-18T09:22:43Z</time></trkpt><trkpt lat="43.86413103851635" lon="12.33821832907512"><ele>882.8333333333334</ele><time>2026-04-18T09:22:44Z</time></trkpt><trkpt lat="43.86417132645906" lon="12.338339470958001"><ele>881.6666666666667</ele><time>2026-04-18T09:22:45Z</time></trkpt><trkpt lat="43.864200354442104" lon="12.338419046282569"><ele>880.5</ele><time>2026-04-18T09:22:46Z</time></trkpt><trkpt lat="43.86427729729566" lon="12.338469058825249"><ele>879.3333333333333</ele><time>2026-04-18T09:22:49Z</time></trkpt><trkpt lat="43.8643354735469" lon="12.338516514205159"><ele>878.1666666666666</ele><time>2026-04-18T09:24:14.999Z</time></trkpt><trkpt lat="43.86440134162888" lon="12.338578128310333"><ele>877.0</ele><time>2026-04-18T09:24:18.999Z</time></trkpt><trkpt lat="43.864464242603525" lon="12.338617929259478"><ele>876.9999999999999</ele><time>2026-04-18T09:24:22.999Z</time></trkpt><trkpt lat="43.8645502712181" lon="12.33866596958873"><ele>877.0</ele><time>2026-04-18T09:24:26.999Z</time></trkpt><trkpt lat="43.86458536637543" lon="12.338747344181742"><ele>877.0</ele><time>2026-04-18T09:24:44Z</time></trkpt><trkpt lat="43.864615326226144" lon="12.338875316553711"><ele>877.0</ele><time>2026-04-18T09:24:46Z</time></trkpt><trkpt lat="43.86469477844747" lon="12.338974162989985"><ele>876.9999999999999</ele><time>2026-04-18T09:24:48Z</time></trkpt><trkpt lat="43.86475090876832" lon="12.33902000935383"><ele>877.0</ele><time>2026-04-18T09:24:49Z</time></trkpt><trkpt lat="43.8648206630821" lon="12.339124863366528"><ele>879.8</ele><time>2026-04-18T09:24:51Z</time></trkpt><trkpt lat="43.864829027723644" lon="12.339231207594402"><ele>882.6</ele><time>2026-04-18T09:24:53Z</time></trkpt><trkpt lat="43.8648758897322" lon="12.339338172402234"><ele>885.3999999999999</ele><time>2026-04-18T09:24:55Z</time></trkpt><trkpt lat="43.86496063463929" lon="12.339459606985129"><ele>888.1999999999999</ele><time>2026-04-18T09:24:57Z</time></trkpt><trkpt lat="43.86501221820773" lon="12.339556676435869"><ele>891.0</ele><time>2026-04-18T09:25:01Z</time></trkpt><trkpt lat="43.865059033845085" lon="12.33963891419225"><ele>891.0</ele><time>2026-04-18T09:25:03Z</time></trkpt><trkpt lat="43.86510754171957" lon="12.339699518730736"><ele>891.0</ele><time>2026-04-18T09:25:06Z</time></trkpt><trkpt lat="43.86515993449175" lon="12.339763066772575"><ele>891.0</ele><time>2026-04-18T09:25:09Z</time></trkpt><trkpt lat="43.86516908974958" lon="12.339867851007684"><ele>891.0</ele><time>2026-04-18T09:25:20Z</time></trkpt><trkpt lat="43.86519177781203" lon="12.340017195336419"><ele>891.0</ele><time>2026-04-18T09:25:22Z</time></trkpt><trkpt lat="43.86521105540082" lon="12.34018417501034"><ele>891.0</ele><time>2026-04-18T09:25:24Z</time></trkpt><trkpt lat="43.86523079249095" lon="12.34033497707864"><ele>890.3333333333334</ele><time>2026-04-18T09:25:26Z</time></trkpt><trkpt lat="43.865257346275605" lon="12.340417084685791"><ele>889.6666666666667</ele><time>2026-04-18T09:25:27Z</time></trkpt><trkpt lat="43.86526542455201" lon="12.340544374797183"><ele>889.0</ele><time>2026-04-18T09:25:29Z</time></trkpt><trkpt lat="43.86528126667142" lon="12.340678252655612"><ele>888.3333333333334</ele><time>2026-04-18T09:25:31Z</time></trkpt><trkpt lat="43.86530296100509" lon="12.340762964336253"><ele>887.6666666666667</ele><time>2026-04-18T09:25:32Z</time></trkpt><trkpt lat="43.86529382496641" lon="12.340860828250285"><ele>887.0</ele><time>2026-04-18T09:25:34Z</time></trkpt><trkpt lat="43.86524383217139" lon="12.340916049204557"><ele>888.1428571428571</ele><time>2026-04-18T09:25:35Z</time></trkpt><trkpt lat="43.86521989309206" lon="12.34102837547576"><ele>889.2857142857142</ele><time>2026-04-18T09:25:37Z</time></trkpt><trkpt lat="43.86526221199129" lon="12.341119379443427"><ele>890.4285714285713</ele><time>2026-04-18T09:25:45.999Z</time></trkpt><trkpt lat="43.86530641815824" lon="12.341190036410579"><ele>891.5714285714286</ele><time>2026-04-18T09:25:47.999Z</time></trkpt><trkpt lat="43.865255941924644" lon="12.34128652892385"><ele>892.7142857142858</ele><time>2026-04-18T09:25:50.999Z</time></trkpt><trkpt lat="43.86521587091827" lon="12.341360084283082"><ele>893.8571428571428</ele><time>2026-04-18T09:25:52.999Z</time></trkpt><trkpt lat="43.86526220378511" lon="12.341422025578272"><ele>895.0</ele><time>2026-04-18T09:25:54.999Z</time></trkpt><trkpt lat="43.865342248377935" lon="12.341476707183938"><ele>895.0</ele><time>2026-04-18T09:25:56.999Z</time></trkpt><trkpt lat="43.86540334915339" lon="12.341606633762733"><ele>895.0</ele><time>2026-04-18T09:25:58.999Z</time></trkpt><trkpt lat="43.86546463923985" lon="12.341706540126319"><ele>895.0</ele><time>2026-04-18T09:26:00.999Z</time></trkpt><trkpt lat="43.865555186562794" lon="12.34171790837539"><ele>895.0</ele><time>2026-04-18T09:26:02.999Z</time></trkpt><trkpt lat="43.865643265175244" lon="12.341777305562307"><ele>895.0</ele><time>2026-04-18T09:26:05.999Z</time></trkpt><trkpt lat="43.86567813947984" lon="12.341872955074207"><ele>894.9999999999999</ele><time>2026-04-18T09:26:07.999Z</time></trkpt><trkpt lat="43.86566337171374" lon="12.341976201636138"><ele>895.0</ele><time>2026-04-18T09:26:09.999Z</time></trkpt><trkpt lat="43.8656689083225" lon="12.34206425622558"><ele>895.0</ele><time>2026-04-18T09:26:11.999Z</time></trkpt><trkpt lat="43.86562442613788" lon="12.342154488887921"><ele>895.0</ele><time>2026-04-18T09:26:13.999Z</time></trkpt><trkpt lat="43.865592858422794" lon="12.342252855899535"><ele>894.9999999999999</ele><time>2026-04-18T09:26:15.999Z</time></trkpt><trkpt lat="43.86555807256474" lon="12.34236426743123"><ele>895.0</ele><time>2026-04-18T09:26:18.999Z</time></trkpt><trkpt lat="43.86551785632699" lon="12.342458461582883"><ele>894.2857142857142</ele><time>2026-04-18T09:26:21.999Z</time></trkpt><trkpt lat="43.865487806518246" lon="12.342552580860968"><ele>893.5714285714287</ele><time>2026-04-18T09:26:25.999Z</time></trkpt><trkpt lat="43.8654507358394" lon="12.342625308334318"><ele>892.8571428571429</ele><time>2026-04-18T09:26:27.999Z</time></trkpt><trkpt lat="43.86541896888561" lon="12.342715162098905"><ele>892.1428571428571</ele><time>2026-04-18T09:26:35Z</time></trkpt><trkpt lat="43.86538143622831" lon="12.34281760642704"><ele>891.4285714285713</ele><time>2026-04-18T09:26:39Z</time></trkpt><trkpt lat="43.865368561415636" lon="12.342912488613486"><ele>890.7142857142858</ele><time>2026-04-18T09:26:41Z</time></trkpt><trkpt lat="43.86530904676378" lon="12.342992501191343"><ele>890.0</ele><time>2026-04-18T09:26:45Z</time></trkpt><trkpt lat="43.86523956112798" lon="12.343048229932164"><ele>889.6666666666667</ele><time>2026-04-18T09:26:48Z</time></trkpt><trkpt lat="43.865197442758046" lon="12.343174684232991"><ele>889.3333333333334</ele><time>2026-04-18T09:26:50Z</time></trkpt><trkpt lat="43.86522265897557" lon="12.343264689701694"><ele>889.0</ele><time>2026-04-18T09:27:04Z</time></trkpt><trkpt lat="43.86521112281762" lon="12.343367693855072"><ele>888.6666666666667</ele><time>2026-04-18T09:27:10Z</time></trkpt><trkpt lat="43.86517557232219" lon="12.343461789843797"><ele>888.3333333333334</ele><time>2026-04-18T09:27:19Z</time></trkpt><trkpt lat="43.86512906190673" lon="12.34353599822505"><ele>888.0</ele><time>2026-04-18T09:27:58.999Z</time></trkpt><trkpt lat="43.86511044735859" lon="12.343626355971827"><ele>888.0</ele><time>2026-04-18T09:28:03.999Z</time></trkpt><trkpt lat="43.86508608916104" lon="12.343719719494613"><ele>888.0</ele><time>2026-04-18T09:28:10.999Z</time></trkpt><trkpt lat="43.86504688439118" lon="12.34380175453354"><ele>888.0</ele><time>2026-04-18T09:28:14.999Z</time></trkpt><trkpt lat="43.86497372034148" lon="12.343815849334543"><ele>888.0</ele><time>2026-04-18T09:28:18.999Z</time></trkpt><trkpt lat="43.86491188323218" lon="12.34389855651018"><ele>888.0</ele><time>2026-04-18T09:28:23.999Z</time></trkpt><trkpt lat="43.86493083778283" lon="12.343982980555031"><ele>888.0</ele><time>2026-04-18T09:28:26.999Z</time></trkpt><trkpt lat="43.86497453188017" lon="12.344079190185985"><ele>888.0</ele><time>2026-04-18T09:28:29.999Z</time></trkpt><trkpt lat="43.86500000642179" lon="12.34419270229987"><ele>888.0</ele><time>2026-04-18T09:28:32.999Z</time></trkpt><trkpt lat="43.865013180691086" lon="12.344294863024913"><ele>888.0</ele><time>2026-04-18T09:28:34.999Z</time></trkpt><trkpt lat="43.8650597949288" lon="12.344379303429621"><ele>888.0</ele><time>2026-04-18T09:28:36.999Z</time></trkpt><trkpt lat="43.86510659237411" lon="12.344504551080624"><ele>888.0</ele><time>2026-04-18T09:28:38.999Z</time></trkpt><trkpt lat="43.865127978601095" lon="12.344603618483504"><ele>888.0</ele><time>2026-04-18T09:28:41Z</time></trkpt><trkpt lat="43.86520100949164" lon="12.344837381398207"><ele>886.1666666666666</ele><time>2026-04-18T09:28:52Z</time></trkpt><trkpt lat="43.86522363369262" lon="12.344944085576936"><ele>884.3333333333333</ele><time>2026-04-18T09:28:55Z</time></trkpt><trkpt lat="43.865251765390965" lon="12.34502793817613"><ele>882.5</ele><time>2026-04-18T09:29:14Z</time></trkpt><trkpt lat="43.86528932792615" lon="12.345114541187074"><ele>880.6666666666666</ele><time>2026-04-18T09:29:21Z</time></trkpt><trkpt lat="43.86530651208952" lon="12.345232386631515"><ele>878.8333333333333</ele><time>2026-04-18T09:29:25Z</time></trkpt><trkpt lat="43.86536293044026" lon="12.345294590359275"><ele>877.0</ele><time>2026-04-18T09:29:27Z</time></trkpt><trkpt lat="43.86540157213559" lon="12.345377515395981"><ele>876.9999999999999</ele><time>2026-04-18T09:29:29Z</time></trkpt><trkpt lat="43.86541888598928" lon="12.345497891199399"><ele>877.0</ele><time>2026-04-18T09:29:31Z</time></trkpt><trkpt lat="43.86538374782408" lon="12.345628786245696"><ele>877.0</ele><time>2026-04-18T09:29:38Z</time></trkpt><trkpt lat="43.86539179043111" lon="12.345724228919186"><ele>877.0</ele><time>2026-04-18T09:31:05Z</time></trkpt><trkpt lat="43.86540379789247" lon="12.345820169987583"><ele>876.9999999999999</ele><time>2026-04-18T09:31:09Z</time></trkpt><trkpt lat="43.86542460771898" lon="12.345918253750993"><ele>877.0</ele><time>2026-04-18T09:31:52Z</time></trkpt><trkpt lat="43.86548020891996" lon="12.34596035856255"><ele>876.9999999999999</ele><time>2026-04-18T09:32:01Z</time></trkpt><trkpt lat="43.86552815728776" lon="12.346028483756193"><ele>877.0</ele><time>2026-04-18T09:32:06Z</time></trkpt><trkpt lat="43.865575033260306" lon="12.346104232571971"><ele>877.0</ele><time>2026-04-18T09:32:09Z</time></trkpt><trkpt lat="43.86560651065867" lon="12.346212602405311"><ele>877.0</ele><time>2026-04-18T09:32:11Z</time></trkpt><trkpt lat="43.86563319834453" lon="12.346325850553729"><ele>876.9999999999999</ele><time>2026-04-18T09:32:13Z</time></trkpt><trkpt lat="43.86565524537218" lon="12.346454393206301"><ele>877.0</ele><time>2026-04-18T09:32:15Z</time></trkpt><trkpt lat="43.86568398586472" lon="12.346588636561764"><ele>876.3333333333333</ele><time>2026-04-18T09:32:17Z</time></trkpt><trkpt lat="43.86571787041379" lon="12.34666412563425"><ele>875.6666666666666</ele><time>2026-04-18T09:32:18.999Z</time></trkpt><trkpt lat="43.86574514085959" lon="12.346753320507558"><ele>875.0</ele><time>2026-04-18T09:32:20.999Z</time></trkpt><trkpt lat="43.86578727677206" lon="12.346865228536409"><ele>874.3333333333333</ele><time>2026-04-18T09:32:22.999Z</time></trkpt><trkpt lat="43.86580553135564" lon="12.34697472640718"><ele>873.6666666666666</ele><time>2026-04-18T09:32:24.999Z</time></trkpt><trkpt lat="43.8658200710581" lon="12.347076154301671"><ele>873.0</ele><time>2026-04-18T09:32:26.999Z</time></trkpt><trkpt lat="43.86581585023677" lon="12.347180639157363"><ele>873.8333333333334</ele><time>2026-04-18T09:32:28.999Z</time></trkpt><trkpt lat="43.865796134620894" lon="12.347290719916348"><ele>874.6666666666667</ele><time>2026-04-18T09:32:30.999Z</time></trkpt><trkpt lat="43.86577998499157" lon="12.3474017788684"><ele>875.5</ele><time>2026-04-18T09:32:32.999Z</time></trkpt><trkpt lat="43.86575849581134" lon="12.347544187317279"><ele>876.3333333333334</ele><time>2026-04-18T09:32:34.999Z</time></trkpt><trkpt lat="43.86581325015983" lon="12.347643800476495"><ele>877.1666666666667</ele><time>2026-04-18T09:32:36.999Z</time></trkpt><trkpt lat="43.86585588303506" lon="12.347724790221486"><ele>878.0</ele><time>2026-04-18T09:32:38.999Z</time></trkpt><trkpt lat="43.86594532760576" lon="12.347825711423475"><ele>875.5000000000001</ele><time>2026-04-18T09:32:40.999Z</time></trkpt><trkpt lat="43.86598692769315" lon="12.347894416881973"><ele>873.0</ele><time>2026-04-18T09:32:41.999Z</time></trkpt><trkpt lat="43.866045746866" lon="12.34798130839691"><ele>870.5</ele><time>2026-04-18T09:32:43.999Z</time></trkpt><trkpt lat="43.86611133396517" lon="12.348067767065976"><ele>868.0</ele><time>2026-04-18T09:33:13Z</time></trkpt><trkpt lat="43.86616556984085" lon="12.348155773183459"><ele>865.5000000000001</ele><time>2026-04-18T09:33:15Z</time></trkpt><trkpt lat="43.866208885101784" lon="12.34826032115673"><ele>863.0</ele><time>2026-04-18T09:33:17Z</time></trkpt><trkpt lat="43.86616041277378" lon="12.348323311880565"><ele>862.0000000000001</ele><time>2026-04-18T09:33:19Z</time></trkpt><trkpt lat="43.866096947145564" lon="12.348351073199302"><ele>861.0</ele><time>2026-04-18T09:33:20Z</time></trkpt><trkpt lat="43.86602761140263" lon="12.348399725346672"><ele>860.0</ele><time>2026-04-18T09:33:21Z</time></trkpt><trkpt lat="43.86597087739017" lon="12.348453145842685"><ele>859.0</ele><time>2026-04-18T09:33:22Z</time></trkpt><trkpt lat="43.86590673188038" lon="12.34860279604985"><ele>858.0000000000001</ele><time>2026-04-18T09:33:24Z</time></trkpt><trkpt lat="43.865921397073414" lon="12.348689993182385"><ele>857.0</ele><time>2026-04-18T09:33:25Z</time></trkpt><trkpt lat="43.865914285584616" lon="12.34878194136017"><ele>857.5000000000001</ele><time>2026-04-18T09:33:26Z</time></trkpt><trkpt lat="43.86589486221201" lon="12.348876222260065"><ele>858.0</ele><time>2026-04-18T09:33:27Z</time></trkpt><trkpt lat="43.865872900189125" lon="12.348998857332388"><ele>858.5</ele><time>2026-04-18T09:33:28Z</time></trkpt><trkpt lat="43.865845046268646" lon="12.349105830426826"><ele>859.0</ele><time>2026-04-18T09:33:29Z</time></trkpt><trkpt lat="43.865801977081006" lon="12.349217038849359"><ele>859.5000000000001</ele><time>2026-04-18T09:33:30Z</time></trkpt><trkpt lat="43.86578961133344" lon="12.349326411579097"><ele>860.0</ele><time>2026-04-18T09:33:31Z</time></trkpt><trkpt lat="43.865777863316396" lon="12.349433778824293"><ele>860.0</ele><time>2026-04-18T09:33:32Z</time></trkpt><trkpt lat="43.865759108339624" lon="12.349550403252474"><ele>860.0</ele><time>2026-04-18T09:33:33Z</time></trkpt><trkpt lat="43.86573932872491" lon="12.349667473536483"><ele>860.0</ele><time>2026-04-18T09:33:34Z</time></trkpt><trkpt lat="43.86571448481625" lon="12.349796152697353"><ele>860.0</ele><time>2026-04-18T09:33:35Z</time></trkpt><trkpt lat="43.86568773721821" lon="12.349930232642333"><ele>860.0</ele><time>2026-04-18T09:33:36Z</time></trkpt><trkpt lat="43.86567605774585" lon="12.350045178466187"><ele>858.6</ele><time>2026-04-18T09:33:37Z</time></trkpt><trkpt lat="43.865680959363104" lon="12.350152253193079"><ele>857.2</ele><time>2026-04-18T09:33:38Z</time></trkpt><trkpt lat="43.86568839261905" lon="12.350291792647834"><ele>855.8</ele><time>2026-04-18T09:33:39Z</time></trkpt><trkpt lat="43.865685510867806" lon="12.350459104527323"><ele>854.4</ele><time>2026-04-18T09:33:40Z</time></trkpt><trkpt lat="43.86566932997575" lon="12.350560882326386"><ele>853.0</ele><time>2026-04-18T09:33:41Z</time></trkpt><trkpt lat="43.86565500868849" lon="12.350677169265834"><ele>852.9999999999999</ele><time>2026-04-18T09:33:42Z</time></trkpt><trkpt lat="43.86563025561996" lon="12.35078764900592"><ele>853.0</ele><time>2026-04-18T09:33:43Z</time></trkpt><trkpt lat="43.865617763893276" lon="12.350914177412696"><ele>853.0</ele><time>2026-04-18T09:33:44Z</time></trkpt><trkpt lat="43.86564612536349" lon="12.3510208102586"><ele>853.0</ele><time>2026-04-18T09:33:45Z</time></trkpt><trkpt lat="43.86568508072227" lon="12.351100551345786"><ele>852.9999999999999</ele><time>2026-04-18T09:33:46Z</time></trkpt><trkpt lat="43.86574974780047" lon="12.351171927132722"><ele>853.0</ele><time>2026-04-18T09:33:47Z</time></trkpt><trkpt lat="43.86581736496333" lon="12.351233946948593"><ele>853.0</ele><time>2026-04-18T09:33:48Z</time></trkpt><trkpt lat="43.86588876641826" lon="12.351294108079538"><ele>853.0</ele><time>2026-04-18T09:33:49Z</time></trkpt><trkpt lat="43.8659448260401" lon="12.351437559214439"><ele>853.0</ele><time>2026-04-18T09:33:51Z</time></trkpt><trkpt lat="43.865955243590825" lon="12.351526934737297"><ele>853.0</ele><time>2026-04-18T09:33:52Z</time></trkpt><trkpt lat="43.86598212098454" lon="12.351688505057831"><ele>853.0</ele><time>2026-04-18T09:33:54Z</time></trkpt><trkpt lat="43.86601369388892" lon="12.351786439210603"><ele>851.1666666666666</ele><time>2026-04-18T09:33:55Z</time></trkpt><trkpt lat="43.866041891060355" lon="12.351886106274163"><ele>849.3333333333333</ele><time>2026-04-18T09:33:56Z</time></trkpt><trkpt lat="43.86605966212838" lon="12.35197917978962"><ele>847.5</ele><time>2026-04-18T09:33:57Z</time></trkpt><trkpt lat="43.866102678230256" lon="12.3521512715537"><ele>845.6666666666667</ele><time>2026-04-18T09:33:59Z</time></trkpt><trkpt lat="43.866139810336044" lon="12.352236068720082"><ele>843.8333333333334</ele><time>2026-04-18T09:34:00Z</time></trkpt><trkpt lat="43.866176889593305" lon="12.352334768334563"><ele>842.0</ele><time>2026-04-18T09:34:01Z</time></trkpt><trkpt lat="43.86620332668699" lon="12.352418663746468"><ele>842.0000000000001</ele><time>2026-04-18T09:34:02Z</time></trkpt><trkpt lat="43.866207431382605" lon="12.352559614738542"><ele>842.0</ele><time>2026-04-18T09:34:04Z</time></trkpt><trkpt lat="43.86620254133116" lon="12.352674445604029"><ele>842.0</ele><time>2026-04-18T09:34:06Z</time></trkpt><trkpt lat="43.86621895581206" lon="12.352786755172847"><ele>842.0</ele><time>2026-04-18T09:34:17Z</time></trkpt><trkpt lat="43.86626621329544" lon="12.352877176012562"><ele>842.0000000000001</ele><time>2026-04-18T09:34:18Z</time></trkpt><trkpt lat="43.86633262817572" lon="12.352961243890517"><ele>842.0</ele><time>2026-04-18T09:34:19Z</time></trkpt><trkpt lat="43.86639574226548" lon="12.353052359167188"><ele>842.6</ele><time>2026-04-18T09:34:20Z</time></trkpt><trkpt lat="43.86646452789541" lon="12.353150076533575"><ele>843.2</ele><time>2026-04-18T09:34:21Z</time></trkpt><trkpt lat="43.866541554722644" lon="12.35325492921546"><ele>843.8</ele><time>2026-04-18T09:34:22Z</time></trkpt><trkpt lat="43.86662473240764" lon="12.353371574605294"><ele>844.4</ele><time>2026-04-18T09:34:23Z</time></trkpt><trkpt lat="43.866702526034516" lon="12.353490967690227"><ele>845.0</ele><time>2026-04-18T09:34:24Z</time></trkpt><trkpt lat="43.866772419651824" lon="12.353606677408171"><ele>844.5</ele><time>2026-04-18T09:34:25Z</time></trkpt><trkpt lat="43.866828346973016" lon="12.353718759518882"><ele>844.0</ele><time>2026-04-18T09:34:26Z</time></trkpt><trkpt lat="43.866879152672254" lon="12.353829222229733"><ele>843.5</ele><time>2026-04-18T09:34:27Z</time></trkpt><trkpt lat="43.866988372072534" lon="12.35397454635121"><ele>843.0</ele><time>2026-04-18T09:34:28Z</time></trkpt><trkpt lat="43.867059307635024" lon="12.354104515147279"><ele>843.0</ele><time>2026-04-18T09:34:28.999Z</time></trkpt><trkpt lat="43.86713541737235" lon="12.354239139579446"><ele>843.0</ele><time>2026-04-18T09:34:29.999Z</time></trkpt><trkpt lat="43.867214546630336" lon="12.354377038484218"><ele>843.0</ele><time>2026-04-18T09:34:30.999Z</time></trkpt><trkpt lat="43.867295418976475" lon="12.354507300511218"><ele>843.0</ele><time>2026-04-18T09:34:31.999Z</time></trkpt><trkpt lat="43.86737994879391" lon="12.354618504093265"><ele>843.2</ele><time>2026-04-18T09:34:32.999Z</time></trkpt><trkpt lat="43.86746135202307" lon="12.354716731330395"><ele>843.4</ele><time>2026-04-18T09:34:33.999Z</time></trkpt><trkpt lat="43.86752661199931" lon="12.354829388261749"><ele>843.6</ele><time>2026-04-18T09:34:34.999Z</time></trkpt><trkpt lat="43.86759852269375" lon="12.354935449628748"><ele>843.8000000000001</ele><time>2026-04-18T09:34:35.999Z</time></trkpt><trkpt lat="43.86766132960979" lon="12.3550454760327"><ele>844.0</ele><time>2026-04-18T09:34:36.999Z</time></trkpt><trkpt lat="43.86771575184146" lon="12.355175557978034"><ele>844.0</ele><time>2026-04-18T09:34:37.999Z</time></trkpt><trkpt lat="43.8677739816808" lon="12.355321911546586"><ele>844.0</ele><time>2026-04-18T09:34:38.999Z</time></trkpt><trkpt lat="43.86781866000938" lon="12.35546295247261"><ele>844.0</ele><time>2026-04-18T09:34:39.999Z</time></trkpt><trkpt lat="43.86784746627835" lon="12.355609257519085"><ele>844.0</ele><time>2026-04-18T09:34:40.999Z</time></trkpt><trkpt lat="43.8678649617615" lon="12.35575488317959"><ele>844.0</ele><time>2026-04-18T09:34:41.999Z</time></trkpt><trkpt lat="43.8678824001131" lon="12.35589191849738"><ele>843.6666666666666</ele><time>2026-04-18T09:34:42.999Z</time></trkpt><trkpt lat="43.86789721307251" lon="12.35600055835615"><ele>843.3333333333333</ele><time>2026-04-18T09:34:43.999Z</time></trkpt><trkpt lat="43.86788116475174" lon="12.356153936939403"><ele>843.0</ele><time>2026-04-18T09:34:45.999Z</time></trkpt><trkpt lat="43.86779360153809" lon="12.356159817324892"><ele>842.6666666666667</ele><time>2026-04-18T09:34:46.999Z</time></trkpt><trkpt lat="43.8677467257566" lon="12.356242283949127"><ele>842.3333333333334</ele><time>2026-04-18T09:34:47.999Z</time></trkpt><trkpt lat="43.867686493664465" lon="12.356322140050734"><ele>842.0</ele><time>2026-04-18T09:34:48.999Z</time></trkpt><trkpt lat="43.8675985420361" lon="12.356396708547372"><ele>839.0000000000001</ele><time>2026-04-18T09:34:49.999Z</time></trkpt><trkpt lat="43.86754016147543" lon="12.356461231491117"><ele>836.0</ele><time>2026-04-18T09:34:50.999Z</time></trkpt><trkpt lat="43.86748274984981" lon="12.356502720580904"><ele>833.0</ele><time>2026-04-18T09:34:51.999Z</time></trkpt><trkpt lat="43.86743630047415" lon="12.356571122101073"><ele>830.0</ele><time>2026-04-18T09:34:52.999Z</time></trkpt><trkpt lat="43.867360598589954" lon="12.356653175027025"><ele>827.0000000000001</ele><time>2026-04-18T09:34:53.999Z</time></trkpt><trkpt lat="43.86731878045811" lon="12.356790888382195"><ele>824.0</ele><time>2026-04-18T09:34:54.999Z</time></trkpt><trkpt lat="43.867250250173605" lon="12.356923511646107"><ele>824.0</ele><time>2026-04-18T09:34:55.999Z</time></trkpt><trkpt lat="43.86717766526133" lon="12.357039142939135"><ele>824.0</ele><time>2026-04-18T09:34:56.999Z</time></trkpt><trkpt lat="43.86711786072308" lon="12.35715396834666"><ele>824.0</ele><time>2026-04-18T09:34:58Z</time></trkpt><trkpt lat="43.867075209216694" lon="12.35725789414177"><ele>824.0</ele><time>2026-04-18T09:34:59Z</time></trkpt><trkpt lat="43.867055512844054" lon="12.3574141404291"><ele>824.0</ele><time>2026-04-18T09:35:00Z</time></trkpt><trkpt lat="43.86704587453693" lon="12.357574479908607"><ele>822.25</ele><time>2026-04-18T09:35:01Z</time></trkpt><trkpt lat="43.86704265190255" lon="12.357730056439983"><ele>820.5</ele><time>2026-04-18T09:35:02Z</time></trkpt><trkpt lat="43.86705520658555" lon="12.357882331609106"><ele>818.75</ele><time>2026-04-18T09:35:03Z</time></trkpt><trkpt lat="43.86707156099078" lon="12.358046888463829"><ele>817.0</ele><time>2026-04-18T09:35:04Z</time></trkpt><trkpt lat="43.86709778670084" lon="12.358197051394319"><ele>814.25</ele><time>2026-04-18T09:35:05Z</time></trkpt><trkpt lat="43.86713660828205" lon="12.358354317057884"><ele>811.5</ele><time>2026-04-18T09:35:06Z</time></trkpt><trkpt lat="43.86719432526169" lon="12.358515775386644"><ele>808.75</ele><time>2026-04-18T09:35:07Z</time></trkpt><trkpt lat="43.86728431786967" lon="12.35863462006052"><ele>806.0</ele><time>2026-04-18T09:35:08Z</time></trkpt><trkpt lat="43.86737517431439" lon="12.358728868155655"><ele>806.0000000000001</ele><time>2026-04-18T09:35:09Z</time></trkpt><trkpt lat="43.86742177553683" lon="12.35883197779452"><ele>806.0</ele><time>2026-04-18T09:35:10Z</time></trkpt><trkpt lat="43.86742114312348" lon="12.358928789209143"><ele>806.0</ele><time>2026-04-18T09:35:11Z</time></trkpt><trkpt lat="43.8673672829447" lon="12.358992141800533"><ele>806.0</ele><time>2026-04-18T09:35:12Z</time></trkpt><trkpt lat="43.86734222429029" lon="12.359113114093496"><ele>806.0000000000001</ele><time>2026-04-18T09:35:13Z</time></trkpt><trkpt lat="43.86731205794862" lon="12.359259922347675"><ele>806.0</ele><time>2026-04-18T09:35:14Z</time></trkpt><trkpt lat="43.86729094613308" lon="12.359451729405437"><ele>804.75</ele><time>2026-04-18T09:35:15Z</time></trkpt><trkpt lat="43.86725902440175" lon="12.35967835771556"><ele>803.5</ele><time>2026-04-18T09:35:16Z</time></trkpt><trkpt lat="43.86724926356092" lon="12.359834778781021"><ele>802.25</ele><time>2026-04-18T09:35:17Z</time></trkpt><trkpt lat="43.86724743291081" lon="12.359958480235958"><ele>801.0</ele><time>2026-04-18T09:35:18Z</time></trkpt><trkpt lat="43.86726948813915" lon="12.360088772020035"><ele>799.8</ele><time>2026-04-18T09:35:19Z</time></trkpt><trkpt lat="43.86730933286959" lon="12.360230848917395"><ele>798.5999999999999</ele><time>2026-04-18T09:35:20Z</time></trkpt><trkpt lat="43.86731138887925" lon="12.360383274197817"><ele>797.4</ele><time>2026-04-18T09:35:21Z</time></trkpt><trkpt lat="43.86731282702696" lon="12.360536288439986"><ele>796.2</ele><time>2026-04-18T09:35:22Z</time></trkpt><trkpt lat="43.867318648084854" lon="12.360698722895808"><ele>795.0</ele><time>2026-04-18T09:35:23Z</time></trkpt><trkpt lat="43.867327160078716" lon="12.360860575419323"><ele>794.0</ele><time>2026-04-18T09:35:24Z</time></trkpt><trkpt lat="43.86732873925029" lon="12.360981505384204"><ele>793.0</ele><time>2026-04-18T09:35:25Z</time></trkpt><trkpt lat="43.86733000070503" lon="12.361091423853475"><ele>792.0</ele><time>2026-04-18T09:35:26Z</time></trkpt><trkpt lat="43.86732237278177" lon="12.36119053955161"><ele>791.0</ele><time>2026-04-18T09:35:27Z</time></trkpt><trkpt lat="43.86729493313384" lon="12.361298871853313"><ele>790.0</ele><time>2026-04-18T09:35:28Z</time></trkpt><trkpt lat="43.86726536941489" lon="12.361468740982103"><ele>789.0</ele><time>2026-04-18T09:35:29Z</time></trkpt><trkpt lat="43.86722955583247" lon="12.361646084648998"><ele>787.4000000000001</ele><time>2026-04-18T09:35:30Z</time></trkpt><trkpt lat="43.86719510802317" lon="12.361782460973075"><ele>785.8</ele><time>2026-04-18T09:35:31Z</time></trkpt><trkpt lat="43.86719747898177" lon="12.361931880421919"><ele>784.2</ele><time>2026-04-18T09:35:32Z</time></trkpt><trkpt lat="43.86716791725598" lon="12.362085275568816"><ele>782.5999999999999</ele><time>2026-04-18T09:35:33Z</time></trkpt><trkpt lat="43.86715709812912" lon="12.362240306211635"><ele>781.0</ele><time>2026-04-18T09:35:34Z</time></trkpt><trkpt lat="43.86714868208656" lon="12.362381836234976"><ele>779.3333333333333</ele><time>2026-04-18T09:35:35Z</time></trkpt><trkpt lat="43.86714645922885" lon="12.362478641069643"><ele>777.6666666666666</ele><time>2026-04-18T09:35:36Z</time></trkpt><trkpt lat="43.86717097000348" lon="12.362575589718933"><ele>776.0</ele><time>2026-04-18T09:35:37Z</time></trkpt><trkpt lat="43.86722340439507" lon="12.362705435649387"><ele>774.3333333333333</ele><time>2026-04-18T09:35:39Z</time></trkpt><trkpt lat="43.867309408856464" lon="12.36280404265094"><ele>772.6666666666666</ele><time>2026-04-18T09:35:41Z</time></trkpt><trkpt lat="43.86734760250348" lon="12.362897787587668"><ele>771.0</ele><time>2026-04-18T09:35:42Z</time></trkpt><trkpt lat="43.86741783165085" lon="12.36301223769618"><ele>769.5999999999999</ele><time>2026-04-18T09:35:43Z</time></trkpt><trkpt lat="43.867476310647675" lon="12.36312810610391"><ele>768.2</ele><time>2026-04-18T09:35:44Z</time></trkpt><trkpt lat="43.8675187766276" lon="12.363285031637478"><ele>766.8</ele><time>2026-04-18T09:35:45Z</time></trkpt><trkpt lat="43.86754050116569" lon="12.363407743174786"><ele>765.4000000000001</ele><time>2026-04-18T09:35:46Z</time></trkpt><trkpt lat="43.86755885890831" lon="12.363505938682527"><ele>764.0</ele><time>2026-04-18T09:35:47Z</time></trkpt><trkpt lat="43.867584022659614" lon="12.36362540722501"><ele>764.0</ele><time>2026-04-18T09:35:49Z</time></trkpt><trkpt lat="43.8676020592867" lon="12.363711038600965"><ele>764.0</ele><time>2026-04-18T09:35:52Z</time></trkpt><trkpt lat="43.8675265985607" lon="12.363791308369692"><ele>764.0</ele><time>2026-04-18T09:35:55Z</time></trkpt><trkpt lat="43.867488143825376" lon="12.36388085506649"><ele>764.0</ele><time>2026-04-18T09:35:56Z</time></trkpt><trkpt lat="43.867427861607005" lon="12.363973416457908"><ele>764.0</ele><time>2026-04-18T09:35:57Z</time></trkpt><trkpt lat="43.86736040864756" lon="12.364076332781504"><ele>764.0</ele><time>2026-04-18T09:35:58Z</time></trkpt><trkpt lat="43.8673373505839" lon="12.364216071818365"><ele>762.8000000000001</ele><time>2026-04-18T09:35:59Z</time></trkpt><trkpt lat="43.86728844640399" lon="12.364351258751777"><ele>761.6</ele><time>2026-04-18T09:36:00Z</time></trkpt><trkpt lat="43.86726236589702" lon="12.364498574969883"><ele>760.4</ele><time>2026-04-18T09:36:01Z</time></trkpt><trkpt lat="43.867240815380256" lon="12.364636820079191"><ele>759.2</ele><time>2026-04-18T09:36:02Z</time></trkpt><trkpt lat="43.86722203997467" lon="12.36475791077524"><ele>758.0</ele><time>2026-04-18T09:36:03Z</time></trkpt><trkpt lat="43.867203575607185" lon="12.364875614223644"><ele>756.8</ele><time>2026-04-18T09:36:04Z</time></trkpt><trkpt lat="43.86718474654152" lon="12.364995117447771"><ele>755.5999999999999</ele><time>2026-04-18T09:36:05Z</time></trkpt><trkpt lat="43.86716554296468" lon="12.36511699752482"><ele>754.4000000000001</ele><time>2026-04-18T09:36:06Z</time></trkpt><trkpt lat="43.86714280985091" lon="12.36524881183756"><ele>753.2</ele><time>2026-04-18T09:36:07Z</time></trkpt><trkpt lat="43.86711846254419" lon="12.365361355213526"><ele>752.0</ele><time>2026-04-18T09:36:08Z</time></trkpt><trkpt lat="43.86721223456808" lon="12.36550870552578"><ele>750.5</ele><time>2026-04-18T09:36:09Z</time></trkpt><trkpt lat="43.86726172610297" lon="12.365581035278248"><ele>749.0</ele><time>2026-04-18T09:36:10Z</time></trkpt><trkpt lat="43.867318991920136" lon="12.365623143213753"><ele>747.5</ele><time>2026-04-18T09:36:11Z</time></trkpt><trkpt lat="43.867386386146016" lon="12.365643082473175"><ele>746.0</ele><time>2026-04-18T09:36:12Z</time></trkpt><trkpt lat="43.86751601384865" lon="12.365672133150014"><ele>744.5</ele><time>2026-04-18T09:36:14Z</time></trkpt><trkpt lat="43.86759510202346" lon="12.365688738335754"><ele>743.0</ele><time>2026-04-18T09:36:15Z</time></trkpt><trkpt lat="43.867672131883666" lon="12.365723680297938"><ele>741.8</ele><time>2026-04-18T09:36:16Z</time></trkpt><trkpt lat="43.86776482028428" lon="12.365779035165778"><ele>740.5999999999999</ele><time>2026-04-18T09:36:17Z</time></trkpt><trkpt lat="43.86781397549919" lon="12.365885737558687"><ele>739.4000000000001</ele><time>2026-04-18T09:36:18Z</time></trkpt><trkpt lat="43.86784743998836" lon="12.366004254938078"><ele>738.2</ele><time>2026-04-18T09:36:19Z</time></trkpt><trkpt lat="43.86789146176301" lon="12.366122904980552"><ele>737.0</ele><time>2026-04-18T09:36:20Z</time></trkpt><trkpt lat="43.86794031459586" lon="12.366223087345448"><ele>737.0</ele><time>2026-04-18T09:36:21Z</time></trkpt><trkpt lat="43.86799294720592" lon="12.366320201177142"><ele>737.0</ele><time>2026-04-18T09:36:22Z</time></trkpt><trkpt lat="43.868046755641174" lon="12.366464422322501"><ele>737.0</ele><time>2026-04-18T09:36:24Z</time></trkpt><trkpt lat="43.86803285169901" lon="12.366552016212767"><ele>737.0</ele><time>2026-04-18T09:36:25Z</time></trkpt><trkpt lat="43.8680328516963" lon="12.36665186054106"><ele>737.0</ele><time>2026-04-18T09:36:26Z</time></trkpt><trkpt lat="43.86803285169431" lon="12.36675860269509"><ele>737.0</ele><time>2026-04-18T09:36:27Z</time></trkpt><trkpt lat="43.86808701903866" lon="12.36688435954166"><ele>735.6</ele><time>2026-04-18T09:36:28Z</time></trkpt><trkpt lat="43.868134621309586" lon="12.3670021108012"><ele>734.2</ele><time>2026-04-18T09:36:29Z</time></trkpt><trkpt lat="43.86818994303672" lon="12.367121301146067"><ele>732.8</ele><time>2026-04-18T09:36:30Z</time></trkpt><trkpt lat="43.86825296517163" lon="12.367236271080262"><ele>731.4</ele><time>2026-04-18T09:36:31Z</time></trkpt><trkpt lat="43.86832228610979" lon="12.367341401900477"><ele>730.0</ele><time>2026-04-18T09:36:31.999Z</time></trkpt><trkpt lat="43.86840250652787" lon="12.367424144910846"><ele>727.2</ele><time>2026-04-18T09:36:32.999Z</time></trkpt><trkpt lat="43.86847967547862" lon="12.367520336992607"><ele>724.4</ele><time>2026-04-18T09:36:33.999Z</time></trkpt><trkpt lat="43.86856372256996" lon="12.367604053659177"><ele>721.5999999999999</ele><time>2026-04-18T09:36:34.999Z</time></trkpt><trkpt lat="43.86864103247956" lon="12.367713720221223"><ele>718.8</ele><time>2026-04-18T09:36:35.999Z</time></trkpt><trkpt lat="43.86873189783962" lon="12.367824678800833"><ele>716.0</ele><time>2026-04-18T09:36:36.999Z</time></trkpt><trkpt lat="43.86880653625836" lon="12.36794129049198"><ele>716.4</ele><time>2026-04-18T09:36:37.999Z</time></trkpt><trkpt lat="43.86885670068047" lon="12.368079417936233"><ele>716.8</ele><time>2026-04-18T09:36:38.999Z</time></trkpt><trkpt lat="43.86886166194608" lon="12.368240637903996"><ele>717.1999999999999</ele><time>2026-04-18T09:36:39.999Z</time></trkpt><trkpt lat="43.86885006930161" lon="12.368377350563318"><ele>717.5999999999999</ele><time>2026-04-18T09:36:40.999Z</time></trkpt><trkpt lat="43.86884669523605" lon="12.36852026873292"><ele>718.0</ele><time>2026-04-18T09:36:41.999Z</time></trkpt><trkpt lat="43.8688341606688" lon="12.368659152777374"><ele>718.0</ele><time>2026-04-18T09:36:42.999Z</time></trkpt><trkpt lat="43.86885281415309" lon="12.3688212820857"><ele>718.0</ele><time>2026-04-18T09:36:43.999Z</time></trkpt><trkpt lat="43.868878420039" lon="12.368977975952433"><ele>718.0</ele><time>2026-04-18T09:36:44.999Z</time></trkpt><trkpt lat="43.868929799565684" lon="12.369096130552636"><ele>718.0</ele><time>2026-04-18T09:36:45.999Z</time></trkpt><trkpt lat="43.86904441428664" lon="12.369139274217588"><ele>717.0</ele><time>2026-04-18T09:36:46.999Z</time></trkpt><trkpt lat="43.86916093797169" lon="12.369171850218981"><ele>716.0</ele><time>2026-04-18T09:36:47.999Z</time></trkpt><trkpt lat="43.869296556900736" lon="12.369193941190831"><ele>715.0</ele><time>2026-04-18T09:36:48.999Z</time></trkpt><trkpt lat="43.86940759824308" lon="12.369266678637661"><ele>714.0</ele><time>2026-04-18T09:36:49.999Z</time></trkpt><trkpt lat="43.86948187893056" lon="12.369334790820831"><ele>711.4000000000001</ele><time>2026-04-18T09:36:50.999Z</time></trkpt><trkpt lat="43.86955700830513" lon="12.369381481518754"><ele>708.8</ele><time>2026-04-18T09:36:51.999Z</time></trkpt><trkpt lat="43.869578157048096" lon="12.369514772710051"><ele>706.2</ele><time>2026-04-18T09:36:52.999Z</time></trkpt><trkpt lat="43.86962707003097" lon="12.369631022338043"><ele>703.5999999999999</ele><time>2026-04-18T09:36:53.999Z</time></trkpt><trkpt lat="43.86966519977406" lon="12.36975227174299"><ele>701.0</ele><time>2026-04-18T09:36:54.999Z</time></trkpt><trkpt lat="43.869698815827334" lon="12.369894154579146"><ele>699.0</ele><time>2026-04-18T09:36:55.999Z</time></trkpt><trkpt lat="43.86973295907232" lon="12.370051501858148"><ele>697.0</ele><time>2026-04-18T09:36:56.999Z</time></trkpt><trkpt lat="43.86977195366945" lon="12.370222317578799"><ele>695.0</ele><time>2026-04-18T09:36:57.999Z</time></trkpt><trkpt lat="43.86981421868487" lon="12.37040071736047"><ele>693.0</ele><time>2026-04-18T09:36:58.999Z</time></trkpt><trkpt lat="43.869859451306496" lon="12.37058264451104"><ele>692.75</ele><time>2026-04-18T09:36:59.999Z</time></trkpt><trkpt lat="43.86990915767029" lon="12.3707687499827"><ele>692.5</ele><time>2026-04-18T09:37:00.999Z</time></trkpt><trkpt lat="43.86997376633594" lon="12.370935737901805"><ele>692.25</ele><time>2026-04-18T09:37:01.999Z</time></trkpt><trkpt lat="43.87000756125811" lon="12.371112006769469"><ele>692.0</ele><time>2026-04-18T09:37:02.999Z</time></trkpt><trkpt lat="43.87004614025423" lon="12.371268025228929"><ele>690.5</ele><time>2026-04-18T09:37:04Z</time></trkpt><trkpt lat="43.87012297185173" lon="12.371396769908953"><ele>689.0</ele><time>2026-04-18T09:37:05Z</time></trkpt><trkpt lat="43.870180794575326" lon="12.371533620069302"><ele>687.5</ele><time>2026-04-18T09:37:06Z</time></trkpt><trkpt lat="43.870247224049194" lon="12.371668246925804"><ele>686.0</ele><time>2026-04-18T09:37:07Z</time></trkpt><trkpt lat="43.870308643738056" lon="12.371785516892798"><ele>686.0</ele><time>2026-04-18T09:37:08Z</time></trkpt><trkpt lat="43.87032878562326" lon="12.371919957929618"><ele>686.0</ele><time>2026-04-18T09:37:09Z</time></trkpt><trkpt lat="43.87035620419804" lon="12.372033780772753"><ele>686.0</ele><time>2026-04-18T09:37:10Z</time></trkpt><trkpt lat="43.870384703164056" lon="12.372174995503576"><ele>686.0</ele><time>2026-04-18T09:37:11Z</time></trkpt><trkpt lat="43.87041894422341" lon="12.37233141468731"><ele>686.0</ele><time>2026-04-18T09:37:12Z</time></trkpt><trkpt lat="43.87047053460624" lon="12.372474478384353"><ele>684.25</ele><time>2026-04-18T09:37:13Z</time></trkpt><trkpt lat="43.87050533642709" lon="12.372628707981038"><ele>682.5</ele><time>2026-04-18T09:37:14Z</time></trkpt><trkpt lat="43.870543120685646" lon="12.372803170732896"><ele>680.75</ele><time>2026-04-18T09:37:15Z</time></trkpt><trkpt lat="43.870601968752794" lon="12.372968816896742"><ele>679.0</ele><time>2026-04-18T09:37:16Z</time></trkpt><trkpt lat="43.870670663296416" lon="12.373123151034271"><ele>677.2</ele><time>2026-04-18T09:37:17Z</time></trkpt><trkpt lat="43.870740802643624" lon="12.37325860320892"><ele>675.4000000000001</ele><time>2026-04-18T09:37:18Z</time></trkpt><trkpt lat="43.870820681799955" lon="12.373372155394202"><ele>673.6</ele><time>2026-04-18T09:37:19Z</time></trkpt><trkpt lat="43.87086829011212" lon="12.373502529871297"><ele>671.8</ele><time>2026-04-18T09:37:20Z</time></trkpt><trkpt lat="43.870930772552235" lon="12.373622079810616"><ele>670.0</ele><time>2026-04-18T09:37:21Z</time></trkpt><trkpt lat="43.8709912172281" lon="12.37374066935234"><ele>668.4</ele><time>2026-04-18T09:37:22Z</time></trkpt><trkpt lat="43.87105100894585" lon="12.373860360358231"><ele>666.8</ele><time>2026-04-18T09:37:23Z</time></trkpt><trkpt lat="43.87109800147083" lon="12.37396080527682"><ele>665.2</ele><time>2026-04-18T09:37:24Z</time></trkpt><trkpt lat="43.871129795758165" lon="12.374053462420688"><ele>663.6</ele><time>2026-04-18T09:37:25Z</time></trkpt><trkpt lat="43.87114858882535" lon="12.37415002097274"><ele>662.0</ele><time>2026-04-18T09:37:27Z</time></trkpt><trkpt lat="43.8712922966046" lon="12.374191397116737"><ele>662.0</ele><time>2026-04-18T09:37:29Z</time></trkpt><trkpt lat="43.87139922627834" lon="12.374208705096228"><ele>662.0</ele><time>2026-04-18T09:37:30Z</time></trkpt><trkpt lat="43.87150680861023" lon="12.374243606147907"><ele>662.0</ele><time>2026-04-18T09:37:31Z</time></trkpt><trkpt lat="43.871570692654714" lon="12.374297766437111"><ele>662.0</ele><time>2026-04-18T09:37:32Z</time></trkpt><trkpt lat="43.87161197499186" lon="12.3743734081618"><ele>662.0</ele><time>2026-04-18T09:37:33Z</time></trkpt><trkpt lat="43.87168527895074" lon="12.374432663999068"><ele>662.0</ele><time>2026-04-18T09:37:34Z</time></trkpt><trkpt lat="43.87176023172118" lon="12.374535680200474"><ele>658.2</ele><time>2026-04-18T09:37:35Z</time></trkpt><trkpt lat="43.87185262534991" lon="12.37464389547901"><ele>654.4000000000001</ele><time>2026-04-18T09:37:36Z</time></trkpt><trkpt lat="43.871939636362626" lon="12.374756016580728"><ele>650.5999999999999</ele><time>2026-04-18T09:37:37Z</time></trkpt><trkpt lat="43.87200533129469" lon="12.37485405289579"><ele>646.8</ele><time>2026-04-18T09:37:38Z</time></trkpt><trkpt lat="43.87206958607015" lon="12.374961288981556"><ele>643.0</ele><time>2026-04-18T09:37:39Z</time></trkpt><trkpt lat="43.87212391862853" lon="12.37509775372428"><ele>643.0</ele><time>2026-04-18T09:37:40Z</time></trkpt><trkpt lat="43.872198810331895" lon="12.375198272486527"><ele>643.0</ele><time>2026-04-18T09:37:41Z</time></trkpt><trkpt lat="43.87224793577343" lon="12.37529164016892"><ele>643.0</ele><time>2026-04-18T09:37:42Z</time></trkpt><trkpt lat="43.87231537484171" lon="12.375380285986173"><ele>643.0</ele><time>2026-04-18T09:37:43Z</time></trkpt><trkpt lat="43.8724228803479" lon="12.375448477941065"><ele>643.0</ele><time>2026-04-18T09:37:44Z</time></trkpt><trkpt lat="43.87255776390551" lon="12.375522978140093"><ele>638.0</ele><time>2026-04-18T09:37:45Z</time></trkpt><trkpt lat="43.87266779982175" lon="12.37559415837976"><ele>633.0</ele><time>2026-04-18T09:37:46Z</time></trkpt><trkpt lat="43.872766492005624" lon="12.37567571355591"><ele>628.0</ele><time>2026-04-18T09:37:47Z</time></trkpt><trkpt lat="43.87285095871559" lon="12.375788868106229"><ele>623.0</ele><time>2026-04-18T09:37:48Z</time></trkpt><trkpt lat="43.87293459460195" lon="12.375888801829053"><ele>623.0</ele><time>2026-04-18T09:37:49Z</time></trkpt><trkpt lat="43.872975867155304" lon="12.375979811336677"><ele>623.0</ele><time>2026-04-18T09:37:50Z</time></trkpt><trkpt lat="43.87302812430027" lon="12.376117943713632"><ele>623.0</ele><time>2026-04-18T09:37:51Z</time></trkpt><trkpt lat="43.8730893897666" lon="12.376253678459676"><ele>623.0</ele><time>2026-04-18T09:37:52Z</time></trkpt><trkpt lat="43.87316845606643" lon="12.376381341432651"><ele>623.0</ele><time>2026-04-18T09:37:53Z</time></trkpt><trkpt lat="43.87324978283698" lon="12.37653647958053"><ele>623.75</ele><time>2026-04-18T09:37:54Z</time></trkpt><trkpt lat="43.87333741422541" lon="12.376697180551535"><ele>624.5</ele><time>2026-04-18T09:37:55Z</time></trkpt><trkpt lat="43.873404479717465" lon="12.376856785404465"><ele>625.25</ele><time>2026-04-18T09:37:56Z</time></trkpt><trkpt lat="43.873470979798604" lon="12.376986332390164"><ele>626.0</ele><time>2026-04-18T09:37:57Z</time></trkpt><trkpt lat="43.87352511844187" lon="12.377096799789273"><ele>622.0</ele><time>2026-04-18T09:37:58Z</time></trkpt><trkpt lat="43.87357014837838" lon="12.377220209555665"><ele>618.0</ele><time>2026-04-18T09:37:59Z</time></trkpt><trkpt lat="43.87360999458325" lon="12.377390224958132"><ele>614.0</ele><time>2026-04-18T09:38:00Z</time></trkpt><trkpt lat="43.87365131499921" lon="12.377546710027111"><ele>610.0</ele><time>2026-04-18T09:38:01Z</time></trkpt><trkpt lat="43.87371632712345" lon="12.377697695136725"><ele>610.0</ele><time>2026-04-18T09:38:02Z</time></trkpt><trkpt lat="43.873818001474255" lon="12.377803138013892"><ele>610.0</ele><time>2026-04-18T09:38:03Z</time></trkpt><trkpt lat="43.87392821123931" lon="12.377907304775018"><ele>610.0</ele><time>2026-04-18T09:38:04Z</time></trkpt><trkpt lat="43.874031823785096" lon="12.378009293045801"><ele>610.0</ele><time>2026-04-18T09:38:05Z</time></trkpt><trkpt lat="43.874095476752814" lon="12.378113578871103"><ele>609.75</ele><time>2026-04-18T09:38:06Z</time></trkpt><trkpt lat="43.87417819914907" lon="12.378252002077415"><ele>609.5</ele><time>2026-04-18T09:38:07Z</time></trkpt><trkpt lat="43.874281010544195" lon="12.378349961444089"><ele>609.25</ele><time>2026-04-18T09:38:08Z</time></trkpt><trkpt lat="43.87437412340825" lon="12.37842309476781"><ele>609.0</ele><time>2026-04-18T09:38:09Z</time></trkpt><trkpt lat="43.87448772686611" lon="12.378460435195608"><ele>606.6</ele><time>2026-04-18T09:38:10Z</time></trkpt><trkpt lat="43.874608655768355" lon="12.378483832128618"><ele>604.2</ele><time>2026-04-18T09:38:11Z</time></trkpt><trkpt lat="43.874720269279045" lon="12.37853389213319"><ele>601.8000000000001</ele><time>2026-04-18T09:38:12Z</time></trkpt><trkpt lat="43.87481544384632" lon="12.378564905415848"><ele>599.4</ele><time>2026-04-18T09:38:13Z</time></trkpt><trkpt lat="43.87491902656323" lon="12.378611892490557"><ele>597.0</ele><time>2026-04-18T09:38:14Z</time></trkpt><trkpt lat="43.87501960379092" lon="12.378697254914703"><ele>597.0</ele><time>2026-04-18T09:38:15Z</time></trkpt><trkpt lat="43.875103381336835" lon="12.378794855091526"><ele>597.0</ele><time>2026-04-18T09:38:16Z</time></trkpt><trkpt lat="43.87517761269367" lon="12.378897176700498"><ele>597.0</ele><time>2026-04-18T09:38:17Z</time></trkpt><trkpt lat="43.87522983305891" lon="12.37897121255068"><ele>597.0</ele><time>2026-04-18T09:38:18Z</time></trkpt><trkpt lat="43.87528539622897" lon="12.379032072761902"><ele>597.0</ele><time>2026-04-18T09:38:20Z</time></trkpt><trkpt lat="43.87533023798147" lon="12.379118713501189"><ele>597.0</ele><time>2026-04-18T09:38:22Z</time></trkpt><trkpt lat="43.875389059193346" lon="12.379267282677906"><ele>596.0</ele><time>2026-04-18T09:38:24Z</time></trkpt><trkpt lat="43.875424083189436" lon="12.379351462009112"><ele>595.0</ele><time>2026-04-18T09:38:25Z</time></trkpt><trkpt lat="43.87547950583654" lon="12.379482467485516"><ele>594.0</ele><time>2026-04-18T09:38:27Z</time></trkpt><trkpt lat="43.875514280614226" lon="12.379570288817792"><ele>593.0</ele><time>2026-04-18T09:38:29Z</time></trkpt><trkpt lat="43.875533671127684" lon="12.379677316052918"><ele>592.0</ele><time>2026-04-18T09:38:31Z</time></trkpt><trkpt lat="43.87560545488351" lon="12.379826419197169"><ele>591.2857142857143</ele><time>2026-04-18T09:38:33Z</time></trkpt><trkpt lat="43.87566081007908" lon="12.379902161849156"><ele>590.5714285714286</ele><time>2026-04-18T09:38:34Z</time></trkpt><trkpt lat="43.87569432158267" lon="12.379983401372883"><ele>589.8571428571429</ele><time>2026-04-18T09:38:35Z</time></trkpt><trkpt lat="43.87574568813827" lon="12.380057041888305"><ele>589.1428571428571</ele><time>2026-04-18T09:38:35.999Z</time></trkpt><trkpt lat="43.87579684255567" lon="12.380129822729446"><ele>588.4285714285714</ele><time>2026-04-18T09:38:36.999Z</time></trkpt><trkpt lat="43.87584666561019" lon="12.380206124209513"><ele>587.7142857142858</ele><time>2026-04-18T09:38:37.999Z</time></trkpt><trkpt lat="43.875874756158915" lon="12.380289850637599"><ele>587.0</ele><time>2026-04-18T09:38:38.999Z</time></trkpt><trkpt lat="43.87589998595038" lon="12.380403682177896"><ele>584.8000000000001</ele><time>2026-04-18T09:38:40.999Z</time></trkpt><trkpt lat="43.87590350679511" lon="12.380546364401802"><ele>582.6</ele><time>2026-04-18T09:38:43.999Z</time></trkpt><trkpt lat="43.87593814995034" lon="12.380694449297836"><ele>580.4000000000001</ele><time>2026-04-18T09:38:45.999Z</time></trkpt><trkpt lat="43.875919536942824" lon="12.380787799904898"><ele>578.2</ele><time>2026-04-18T09:38:47.999Z</time></trkpt><trkpt lat="43.87597210648005" lon="12.380907104213323"><ele>576.0</ele><time>2026-04-18T09:38:49.999Z</time></trkpt><trkpt lat="43.87600602027636" lon="12.380990496208627"><ele>573.8333333333334</ele><time>2026-04-18T09:38:50.999Z</time></trkpt><trkpt lat="43.87603392332629" lon="12.381091497221746"><ele>571.6666666666666</ele><time>2026-04-18T09:38:51.999Z</time></trkpt><trkpt lat="43.87601373263377" lon="12.381185938535948"><ele>569.5</ele><time>2026-04-18T09:38:52.999Z</time></trkpt><trkpt lat="43.87606633697952" lon="12.381316959447817"><ele>567.3333333333333</ele><time>2026-04-18T09:38:54.999Z</time></trkpt><trkpt lat="43.8761132173879" lon="12.381426053235028"><ele>565.1666666666666</ele><time>2026-04-18T09:38:56.999Z</time></trkpt><trkpt lat="43.87616097179931" lon="12.38153309451291"><ele>563.0</ele><time>2026-04-18T09:38:58.999Z</time></trkpt><trkpt lat="43.876208316360035" lon="12.381636135006861"><ele>562.5</ele><time>2026-04-18T09:39:00.999Z</time></trkpt><trkpt lat="43.87624348514999" lon="12.381715532224598"><ele>562.0</ele><time>2026-04-18T09:39:02.999Z</time></trkpt><trkpt lat="43.87627544028397" lon="12.38179917962902"><ele>561.5</ele><time>2026-04-18T09:39:13Z</time></trkpt><trkpt lat="43.876320120256864" lon="12.381922381554286"><ele>561.0</ele><time>2026-04-18T09:39:15Z</time></trkpt><trkpt lat="43.87634742866473" lon="12.382019692292161"><ele>560.5</ele><time>2026-04-18T09:39:16Z</time></trkpt><trkpt lat="43.87636410833563" lon="12.382114892362106"><ele>560.0</ele><time>2026-04-18T09:39:17Z</time></trkpt><trkpt lat="43.87637653643061" lon="12.382297465609312"><ele>558.6666666666666</ele><time>2026-04-18T09:39:19Z</time></trkpt><trkpt lat="43.87637708746421" lon="12.382416133324817"><ele>557.3333333333333</ele><time>2026-04-18T09:39:20Z</time></trkpt><trkpt lat="43.87636715077299" lon="12.382528964708067"><ele>556.0</ele><time>2026-04-18T09:39:21Z</time></trkpt><trkpt lat="43.87634266053062" lon="12.382629601821833"><ele>554.6666666666666</ele><time>2026-04-18T09:39:22Z</time></trkpt><trkpt lat="43.87630349238533" lon="12.382724957717748"><ele>553.3333333333334</ele><time>2026-04-18T09:39:23Z</time></trkpt><trkpt lat="43.87624389521924" lon="12.382847264086399"><ele>552.0</ele><time>2026-04-18T09:39:24Z</time></trkpt><trkpt lat="43.87618314221032" lon="12.382968868505502"><ele>550.6</ele><time>2026-04-18T09:39:25Z</time></trkpt><trkpt lat="43.87612968897943" lon="12.383075861840801"><ele>549.2</ele><time>2026-04-18T09:39:26Z</time></trkpt><trkpt lat="43.87607637033051" lon="12.3831825855477"><ele>547.8</ele><time>2026-04-18T09:39:27Z</time></trkpt><trkpt lat="43.87602126031299" lon="12.38329289498256"><ele>546.4</ele><time>2026-04-18T09:39:28Z</time></trkpt><trkpt lat="43.87597421912069" lon="12.38339955878664"><ele>545.0</ele><time>2026-04-18T09:39:29Z</time></trkpt><trkpt lat="43.87593628639457" lon="12.383518732287977"><ele>545.0</ele><time>2026-04-18T09:39:30Z</time></trkpt><trkpt lat="43.87587944881911" lon="12.38361631042061"><ele>545.0</ele><time>2026-04-18T09:39:31Z</time></trkpt><trkpt lat="43.87579446501934" lon="12.383730220367063"><ele>545.0</ele><time>2026-04-18T09:39:32Z</time></trkpt><trkpt lat="43.87569917016516" lon="12.383828586156064"><ele>545.0</ele><time>2026-04-18T09:39:33Z</time></trkpt><trkpt lat="43.875597906745064" lon="12.38392563505908"><ele>542.3333333333333</ele><time>2026-04-18T09:39:34Z</time></trkpt><trkpt lat="43.87548633931664" lon="12.384022930093213"><ele>539.6666666666666</ele><time>2026-04-18T09:39:35Z</time></trkpt><trkpt lat="43.875365011357694" lon="12.384120826185033"><ele>537.0</ele><time>2026-04-18T09:39:36Z</time></trkpt><trkpt lat="43.87520443099294" lon="12.384251872649273"><ele>537.0</ele><time>2026-04-18T09:39:37Z</time></trkpt><trkpt lat="43.875050371406026" lon="12.384386924031594"><ele>537.0</ele><time>2026-04-18T09:39:38Z</time></trkpt><trkpt lat="43.87492630555226" lon="12.384494543568081"><ele>537.0</ele><time>2026-04-18T09:39:39Z</time></trkpt><trkpt lat="43.874824422103245" lon="12.384584102766922"><ele>537.0</ele><time>2026-04-18T09:39:40Z</time></trkpt><trkpt lat="43.87473526185989" lon="12.384652712384744"><ele>535.6</ele><time>2026-04-18T09:39:41Z</time></trkpt><trkpt lat="43.87465474109475" lon="12.384687250664705"><ele>534.2</ele><time>2026-04-18T09:39:42Z</time></trkpt><trkpt lat="43.87454573684045" lon="12.384704498946386"><ele>532.8</ele><time>2026-04-18T09:39:44Z</time></trkpt><trkpt lat="43.87447791003924" lon="12.384737371388603"><ele>531.4</ele><time>2026-04-18T09:39:46Z</time></trkpt><trkpt lat="43.874464827182734" lon="12.384863699067271"><ele>530.0</ele><time>2026-04-18T09:39:49Z</time></trkpt><trkpt lat="43.874524975067715" lon="12.38498409524298"><ele>530.0</ele><time>2026-04-18T09:39:51Z</time></trkpt><trkpt lat="43.874573866744896" lon="12.385044885944058"><ele>530.0</ele><time>2026-04-18T09:39:52Z</time></trkpt><trkpt lat="43.87460409266861" lon="12.385121998041422"><ele>530.0</ele><time>2026-04-18T09:39:53Z</time></trkpt><trkpt lat="43.874637546023905" lon="12.385198724807964"><ele>530.0</ele><time>2026-04-18T09:39:54Z</time></trkpt><trkpt lat="43.87467860843937" lon="12.385287200363772"><ele>530.0</ele><time>2026-04-18T09:39:55Z</time></trkpt><trkpt lat="43.87472304586321" lon="12.385388826542256"><ele>530.0</ele><time>2026-04-18T09:39:56Z</time></trkpt><trkpt lat="43.87474907684113" lon="12.385514805456346"><ele>528.6</ele><time>2026-04-18T09:39:57Z</time></trkpt><trkpt lat="43.87477780447944" lon="12.385632418779407"><ele>527.2</ele><time>2026-04-18T09:39:58Z</time></trkpt><trkpt lat="43.874794792239726" lon="12.385757129576803"><ele>525.8</ele><time>2026-04-18T09:39:59Z</time></trkpt><trkpt lat="43.87480832283865" lon="12.385877188044699"><ele>524.4</ele><time>2026-04-18T09:40:00Z</time></trkpt><trkpt lat="43.874853565674336" lon="12.386002048485496"><ele>523.0</ele><time>2026-04-18T09:40:01Z</time></trkpt><trkpt lat="43.87487171319937" lon="12.386140824174209"><ele>523.0</ele><time>2026-04-18T09:40:02Z</time></trkpt><trkpt lat="43.87490162820942" lon="12.386272767527217"><ele>523.0</ele><time>2026-04-18T09:40:03Z</time></trkpt><trkpt lat="43.8749573747038" lon="12.38638251716802"><ele>523.0</ele><time>2026-04-18T09:40:04Z</time></trkpt><trkpt lat="43.87503492156471" lon="12.386454454412137"><ele>523.0</ele><time>2026-04-18T09:40:05Z</time></trkpt><trkpt lat="43.875136951266676" lon="12.386501684380084"><ele>523.0</ele><time>2026-04-18T09:40:06Z</time></trkpt><trkpt lat="43.87524909261211" lon="12.386543802788305"><ele>520.5</ele><time>2026-04-18T09:40:07Z</time></trkpt><trkpt lat="43.875368060549874" lon="12.386583094806369"><ele>518.0</ele><time>2026-04-18T09:40:08Z</time></trkpt><trkpt lat="43.87549268027588" lon="12.386633228994993"><ele>515.5</ele><time>2026-04-18T09:40:09Z</time></trkpt><trkpt lat="43.8756234443929" lon="12.38668147877429"><ele>513.0</ele><time>2026-04-18T09:40:10Z</time></trkpt><trkpt lat="43.87576329168088" lon="12.386724881665367"><ele>513.0</ele><time>2026-04-18T09:40:11Z</time></trkpt><trkpt lat="43.87590521001774" lon="12.386780497458961"><ele>513.0</ele><time>2026-04-18T09:40:12Z</time></trkpt><trkpt lat="43.87603379002983" lon="12.386877815650893"><ele>513.0</ele><time>2026-04-18T09:40:13Z</time></trkpt><trkpt lat="43.87617523032287" lon="12.386933173021296"><ele>513.0</ele><time>2026-04-18T09:40:14Z</time></trkpt><trkpt lat="43.87631922653548" lon="12.38699264302187"><ele>511.25</ele><time>2026-04-18T09:40:15Z</time></trkpt><trkpt lat="43.87645437228527" lon="12.387057935639504"><ele>509.5</ele><time>2026-04-18T09:40:16Z</time></trkpt><trkpt lat="43.87658912440065" lon="12.387137175406847"><ele>507.75</ele><time>2026-04-18T09:40:17Z</time></trkpt><trkpt lat="43.876732408517306" lon="12.387227956300276"><ele>506.0</ele><time>2026-04-18T09:40:18Z</time></trkpt><trkpt lat="43.87687413188908" lon="12.387321994143933"><ele>505.0</ele><time>2026-04-18T09:40:19Z</time></trkpt><trkpt lat="43.877026528056135" lon="12.387420286244442"><ele>504.0</ele><time>2026-04-18T09:40:20Z</time></trkpt><trkpt lat="43.87717506821055" lon="12.387501012397932"><ele>503.0</ele><time>2026-04-18T09:40:21Z</time></trkpt><trkpt lat="43.877310523793874" lon="12.387574299570202"><ele>503.0</ele><time>2026-04-18T09:40:22Z</time></trkpt><trkpt lat="43.877437363568525" lon="12.387651918236767"><ele>503.0</ele><time>2026-04-18T09:40:23Z</time></trkpt><trkpt lat="43.87757028156284" lon="12.387736514924434"><ele>503.0</ele><time>2026-04-18T09:40:24Z</time></trkpt><trkpt lat="43.87768710874091" lon="12.38784144511144"><ele>503.0</ele><time>2026-04-18T09:40:25Z</time></trkpt><trkpt lat="43.87782323719895" lon="12.387937340908165"><ele>502.2</ele><time>2026-04-18T09:40:26Z</time></trkpt><trkpt lat="43.87792056930514" lon="12.388070793818741"><ele>501.4</ele><time>2026-04-18T09:40:27Z</time></trkpt><trkpt lat="43.878005485670734" lon="12.388173616726132"><ele>500.59999999999997</ele><time>2026-04-18T09:40:28Z</time></trkpt><trkpt lat="43.87808257466257" lon="12.38825140079695"><ele>499.79999999999995</ele><time>2026-04-18T09:40:29Z</time></trkpt><trkpt lat="43.87814449351029" lon="12.388355570083915"><ele>499.0</ele><time>2026-04-18T09:40:30Z</time></trkpt><trkpt lat="43.878219884709694" lon="12.388413716097672"><ele>499.0</ele><time>2026-04-18T09:40:31Z</time></trkpt><trkpt lat="43.87830293189207" lon="12.38848769853876"><ele>499.0</ele><time>2026-04-18T09:40:32Z</time></trkpt><trkpt lat="43.87836917518364" lon="12.388589589552858"><ele>499.0</ele><time>2026-04-18T09:40:33Z</time></trkpt><trkpt lat="43.8784436647413" lon="12.388740273273154"><ele>499.0</ele><time>2026-04-18T09:40:34Z</time></trkpt><trkpt lat="43.878518763882866" lon="12.388906810467956"><ele>497.75</ele><time>2026-04-18T09:40:35Z</time></trkpt><trkpt lat="43.87859326807864" lon="12.38907953782721"><ele>496.5</ele><time>2026-04-18T09:40:36Z</time></trkpt><trkpt lat="43.87866389742796" lon="12.389220546152991"><ele>495.25</ele><time>2026-04-18T09:40:37Z</time></trkpt><trkpt lat="43.878708051204974" lon="12.389354760333687"><ele>494.0</ele><time>2026-04-18T09:40:38Z</time></trkpt><trkpt lat="43.87877182805419" lon="12.389461876139487"><ele>493.99999999999994</ele><time>2026-04-18T09:40:39Z</time></trkpt><trkpt lat="43.87881181348401" lon="12.389576246962731"><ele>494.0</ele><time>2026-04-18T09:40:40Z</time></trkpt><trkpt lat="43.87885138515009" lon="12.389667295864205"><ele>494.0</ele><time>2026-04-18T09:40:41Z</time></trkpt><trkpt lat="43.87890746924784" lon="12.38979407027643"><ele>494.0</ele><time>2026-04-18T09:40:43Z</time></trkpt><trkpt lat="43.87894962840858" lon="12.389869607924247"><ele>493.99999999999994</ele><time>2026-04-18T09:40:45Z</time></trkpt><trkpt lat="43.87898386847023" lon="12.389974894326992"><ele>494.0</ele><time>2026-04-18T09:40:48.999Z</time></trkpt><trkpt lat="43.879028869510755" lon="12.390048986504702"><ele>494.75</ele><time>2026-04-18T09:40:50.999Z</time></trkpt><trkpt lat="43.879072775351005" lon="12.390139683083184"><ele>495.5</ele><time>2026-04-18T09:40:53.999Z</time></trkpt><trkpt lat="43.87910444949354" lon="12.390253811425469"><ele>496.25</ele><time>2026-04-18T09:41:22Z</time></trkpt><trkpt lat="43.879141208631324" lon="12.390379255380791"><ele>497.0</ele><time>2026-04-18T09:41:24Z</time></trkpt><trkpt lat="43.87915544945797" lon="12.390742761984251"><ele>497.0</ele><time>2026-04-18T09:41:26Z</time></trkpt><trkpt lat="43.879207830638016" lon="12.390796110112973"><ele>497.0</ele><time>2026-04-18T09:41:27Z</time></trkpt><trkpt lat="43.87967492455029" lon="12.390363407114624"><ele>496.49999999999994</ele><time>2026-04-18T09:41:29Z</time></trkpt><trkpt lat="43.879759522146024" lon="12.390383938160296"><ele>496.0</ele><time>2026-04-18T09:41:30Z</time></trkpt><trkpt lat="43.87983381565951" lon="12.390396239909883"><ele>495.5</ele><time>2026-04-18T09:41:31Z</time></trkpt><trkpt lat="43.87990826527882" lon="12.390407670938261"><ele>495.0</ele><time>2026-04-18T09:41:32Z</time></trkpt><trkpt lat="43.879995178572464" lon="12.390414343223625"><ele>494.49999999999994</ele><time>2026-04-18T09:41:33Z</time></trkpt><trkpt lat="43.880069965485156" lon="12.390432604128574"><ele>494.0</ele><time>2026-04-18T09:41:34Z</time></trkpt><trkpt lat="43.880134325375" lon="12.39045367019921"><ele>491.99999999999994</ele><time>2026-04-18T09:41:35Z</time></trkpt><trkpt lat="43.88022782608725" lon="12.390477412560351"><ele>490.0</ele><time>2026-04-18T09:41:36Z</time></trkpt><trkpt lat="43.88029690765135" lon="12.390490504493567"><ele>488.0</ele><time>2026-04-18T09:41:37Z</time></trkpt><trkpt lat="43.88036062290664" lon="12.390492108851788"><ele>486.0</ele><time>2026-04-18T09:41:38Z</time></trkpt><trkpt lat="43.880493498511235" lon="12.390540096818482"><ele>483.99999999999994</ele><time>2026-04-18T09:41:40Z</time></trkpt><trkpt lat="43.880565616971346" lon="12.390587809343169"><ele>482.0</ele><time>2026-04-18T09:41:41Z</time></trkpt><trkpt lat="43.88064358151308" lon="12.39063265624377"><ele>482.0</ele><time>2026-04-18T09:41:42Z</time></trkpt><trkpt lat="43.880774046930796" lon="12.390711699700189"><ele>482.00000000000006</ele><time>2026-04-18T09:41:44Z</time></trkpt><trkpt lat="43.880845717288764" lon="12.390758834574628"><ele>482.00000000000006</ele><time>2026-04-18T09:41:45Z</time></trkpt><trkpt lat="43.880927716183635" lon="12.390829964716952"><ele>482.0</ele><time>2026-04-18T09:41:46Z</time></trkpt><trkpt lat="43.88101782002832" lon="12.390893992436235"><ele>482.0</ele><time>2026-04-18T09:41:47Z</time></trkpt><trkpt lat="43.88110224764635" lon="12.39092001663597"><ele>480.99999999999994</ele><time>2026-04-18T09:41:48Z</time></trkpt><trkpt lat="43.881183267088446" lon="12.390945764635328"><ele>480.0</ele><time>2026-04-18T09:41:49Z</time></trkpt><trkpt lat="43.88126166095948" lon="12.390963865152"><ele>479.0</ele><time>2026-04-18T09:41:50Z</time></trkpt><trkpt lat="43.88133382762048" lon="12.390988755325882"><ele>478.0</ele><time>2026-04-18T09:41:51Z</time></trkpt><trkpt lat="43.88140032396173" lon="12.391005977731416"><ele>476.99999999999994</ele><time>2026-04-18T09:41:52Z</time></trkpt><trkpt lat="43.881470250376694" lon="12.391020517152405"><ele>476.0</ele><time>2026-04-18T09:41:53Z</time></trkpt><trkpt lat="43.88154011664807" lon="12.39105565499694"><ele>476.0</ele><time>2026-04-18T09:41:54Z</time></trkpt><trkpt lat="43.88162771925734" lon="12.391105233508231"><ele>476.0</ele><time>2026-04-18T09:41:55Z</time></trkpt><trkpt lat="43.881725446733576" lon="12.39112363013515"><ele>476.0</ele><time>2026-04-18T09:41:56Z</time></trkpt><trkpt lat="43.881819648019246" lon="12.391131564450946"><ele>476.0</ele><time>2026-04-18T09:41:57Z</time></trkpt><trkpt lat="43.88190637183673" lon="12.3911607880227"><ele>476.0</ele><time>2026-04-18T09:41:58Z</time></trkpt><trkpt lat="43.88196806136536" lon="12.391221831518575"><ele>475.16666666666663</ele><time>2026-04-18T09:41:59Z</time></trkpt><trkpt lat="43.88203818370168" lon="12.391275437333084"><ele>474.3333333333333</ele><time>2026-04-18T09:42:00Z</time></trkpt><trkpt lat="43.88210662832723" lon="12.39128424089846"><ele>473.5</ele><time>2026-04-18T09:42:01Z</time></trkpt><trkpt lat="43.88218446376787" lon="12.39127289096224"><ele>472.66666666666663</ele><time>2026-04-18T09:42:02Z</time></trkpt><trkpt lat="43.88227077883388" lon="12.391238477161714"><ele>471.8333333333333</ele><time>2026-04-18T09:42:03Z</time></trkpt><trkpt lat="43.88233618687456" lon="12.391213320955753"><ele>471.0</ele><time>2026-04-18T09:42:04Z</time></trkpt><trkpt lat="43.88245838256732" lon="12.391208069148188"><ele>471.0</ele><time>2026-04-18T09:42:06Z</time></trkpt><trkpt lat="43.88253198918209" lon="12.391258174611716"><ele>471.0</ele><time>2026-04-18T09:42:08Z</time></trkpt><trkpt lat="43.88261961856658" lon="12.391323117356913"><ele>471.0</ele><time>2026-04-18T09:42:26Z</time></trkpt><trkpt lat="43.88269779201256" lon="12.391358989603932"><ele>471.0</ele><time>2026-04-18T09:42:27Z</time></trkpt><trkpt lat="43.882765460615516" lon="12.39142075664158"><ele>471.0</ele><time>2026-04-18T09:42:28Z</time></trkpt><trkpt lat="43.88282153398366" lon="12.391484304345049"><ele>471.0</ele><time>2026-04-18T09:42:29Z</time></trkpt><trkpt lat="43.88284556802476" lon="12.391567822224067"><ele>468.6</ele><time>2026-04-18T09:42:31Z</time></trkpt><trkpt lat="43.882945699834124" lon="12.39163256628612"><ele>466.20000000000005</ele><time>2026-04-18T09:42:35Z</time></trkpt><trkpt lat="43.882984971338615" lon="12.391726886042267"><ele>463.79999999999995</ele><time>2026-04-18T09:42:42Z</time></trkpt><trkpt lat="43.88306480246405" lon="12.391800792941726"><ele>461.4</ele><time>2026-04-18T09:42:46.999Z</time></trkpt><trkpt lat="43.88312410532528" lon="12.391893519198305"><ele>459.0</ele><time>2026-04-18T09:42:48.999Z</time></trkpt><trkpt lat="43.8831811613957" lon="12.39196312183829"><ele>459.0</ele><time>2026-04-18T09:42:50.999Z</time></trkpt><trkpt lat="43.88324979009335" lon="12.392056755498633"><ele>459.0</ele><time>2026-04-18T09:42:53.999Z</time></trkpt><trkpt lat="43.88331274640056" lon="12.392154718534231"><ele>459.0</ele><time>2026-04-18T09:42:55.999Z</time></trkpt><trkpt lat="43.88341306218588" lon="12.392243993679758"><ele>459.0</ele><time>2026-04-18T09:42:57.999Z</time></trkpt><trkpt lat="43.883460766463344" lon="12.392301855617191"><ele>459.0</ele><time>2026-04-18T09:42:58.999Z</time></trkpt><trkpt lat="43.88352089403219" lon="12.392404150466858"><ele>455.79999999999995</ele><time>2026-04-18T09:43:00.999Z</time></trkpt><trkpt lat="43.883556278901615" lon="12.392535471529444"><ele>452.59999999999997</ele><time>2026-04-18T09:43:02.999Z</time></trkpt><trkpt lat="43.88360910206874" lon="12.392686838473585"><ele>449.4</ele><time>2026-04-18T09:43:04.999Z</time></trkpt><trkpt lat="43.88366779164197" lon="12.392832751797267"><ele>446.2</ele><time>2026-04-18T09:43:06.999Z</time></trkpt><trkpt lat="43.88372418171253" lon="12.392910280923692"><ele>443.0</ele><time>2026-04-18T09:43:07.999Z</time></trkpt><trkpt lat="43.88377320147236" lon="12.392967718559746"><ele>443.4</ele><time>2026-04-18T09:43:08.999Z</time></trkpt><trkpt lat="43.883864665893455" lon="12.393080525354218"><ele>443.79999999999995</ele><time>2026-04-18T09:43:10.999Z</time></trkpt><trkpt lat="43.88392798657837" lon="12.393177531023372"><ele>444.2</ele><time>2026-04-18T09:43:12.999Z</time></trkpt><trkpt lat="43.884003118184815" lon="12.39328843338778"><ele>444.6</ele><time>2026-04-18T09:43:14.999Z</time></trkpt><trkpt lat="43.88405243986384" lon="12.393363942905987"><ele>445.0</ele><time>2026-04-18T09:43:15.998Z</time></trkpt><trkpt lat="43.88410193918905" lon="12.39341879243876"><ele>445.00000000000006</ele><time>2026-04-18T09:43:16.998Z</time></trkpt><trkpt lat="43.884156508603375" lon="12.393463787170857"><ele>445.0</ele><time>2026-04-18T09:43:17.998Z</time></trkpt><trkpt lat="43.88422767384914" lon="12.393585767831963"><ele>445.0</ele><time>2026-04-18T09:43:19.998Z</time></trkpt><trkpt lat="43.88427666258639" lon="12.39364148240786"><ele>445.0</ele><time>2026-04-18T09:43:20.998Z</time></trkpt><trkpt lat="43.884346060632915" lon="12.393714608031914"><ele>445.00000000000006</ele><time>2026-04-18T09:43:21.999Z</time></trkpt><trkpt lat="43.88444578746509" lon="12.393766818750718"><ele>445.0</ele><time>2026-04-18T09:43:22.999Z</time></trkpt><trkpt lat="43.88452772091894" lon="12.393812837034645"><ele>444.1666666666667</ele><time>2026-04-18T09:43:23.999Z</time></trkpt><trkpt lat="43.88459423637259" lon="12.393867504912228"><ele>443.33333333333337</ele><time>2026-04-18T09:43:24.999Z</time></trkpt><trkpt lat="43.88467149631198" lon="12.393950954962486"><ele>442.5</ele><time>2026-04-18T09:43:26.999Z</time></trkpt><trkpt lat="43.88473549702649" lon="12.394013281491032"><ele>441.66666666666663</ele><time>2026-04-18T09:43:28.999Z</time></trkpt><trkpt lat="43.88482226526725" lon="12.394101185315579"><ele>440.8333333333333</ele><time>2026-04-18T09:49:50.999Z</time></trkpt><trkpt lat="43.88489001055218" lon="12.394139166247612"><ele>440.0</ele><time>2026-04-18T09:49:51.999Z</time></trkpt><trkpt lat="43.8849718573148" lon="12.394162621986675"><ele>440.0</ele><time>2026-04-18T09:49:52.999Z</time></trkpt><trkpt lat="43.885054917248866" lon="12.394177203864533"><ele>440.0</ele><time>2026-04-18T09:49:53.999Z</time></trkpt><trkpt lat="43.88514367422883" lon="12.394193857095415"><ele>440.0</ele><time>2026-04-18T09:49:54.999Z</time></trkpt><trkpt lat="43.88524893112395" lon="12.394204186860117"><ele>440.0</ele><time>2026-04-18T09:49:55.999Z</time></trkpt><trkpt lat="43.885366807557276" lon="12.394217791735095"><ele>440.0</ele><time>2026-04-18T09:49:56.999Z</time></trkpt><trkpt lat="43.885466127142635" lon="12.394214826317024"><ele>440.0</ele><time>2026-04-18T09:49:57.999Z</time></trkpt><trkpt lat="43.885562881171374" lon="12.394192473943681"><ele>440.0</ele><time>2026-04-18T09:49:58.999Z</time></trkpt><trkpt lat="43.88565526664848" lon="12.394163214382429"><ele>440.0</ele><time>2026-04-18T09:49:59.999Z</time></trkpt><trkpt lat="43.88575106084043" lon="12.394170477239177"><ele>440.0</ele><time>2026-04-18T09:50:00.999Z</time></trkpt><trkpt lat="43.88584843567028" lon="12.394198759300778"><ele>440.0</ele><time>2026-04-18T09:50:01.999Z</time></trkpt><trkpt lat="43.88593141650629" lon="12.394223226446314"><ele>438.6</ele><time>2026-04-18T09:50:02.999Z</time></trkpt><trkpt lat="43.886012255817676" lon="12.394265173053101"><ele>437.2</ele><time>2026-04-18T09:50:03.999Z</time></trkpt><trkpt lat="43.8861081293136" lon="12.39431369171813"><ele>435.79999999999995</ele><time>2026-04-18T09:50:04.999Z</time></trkpt><trkpt lat="43.886207715922936" lon="12.39437770650269"><ele>434.4</ele><time>2026-04-18T09:50:05.999Z</time></trkpt><trkpt lat="43.88630032495717" lon="12.394436395881275"><ele>433.0</ele><time>2026-04-18T09:50:06.999Z</time></trkpt><trkpt lat="43.88638354354963" lon="12.394481814926753"><ele>433.0</ele><time>2026-04-18T09:50:07.999Z</time></trkpt><trkpt lat="43.88646138030319" lon="12.39453190984161"><ele>432.99999999999994</ele><time>2026-04-18T09:50:08.999Z</time></trkpt><trkpt lat="43.88654980182036" lon="12.394609227884898"><ele>432.99999999999994</ele><time>2026-04-18T09:50:09.999Z</time></trkpt><trkpt lat="43.88665007061328" lon="12.394669660208924"><ele>433.0</ele><time>2026-04-18T09:50:10.999Z</time></trkpt><trkpt lat="43.886734735248005" lon="12.394731163493823"><ele>433.0</ele><time>2026-04-18T09:50:11.999Z</time></trkpt><trkpt lat="43.88680492274774" lon="12.394757033079415"><ele>431.0</ele><time>2026-04-18T09:50:12.999Z</time></trkpt><trkpt lat="43.8869022794944" lon="12.394775596115675"><ele>428.99999999999994</ele><time>2026-04-18T09:50:13.999Z</time></trkpt><trkpt lat="43.88701004693575" lon="12.394767144291315"><ele>427.0</ele><time>2026-04-18T09:50:14.999Z</time></trkpt><trkpt lat="43.88711442748844" lon="12.394761244781638"><ele>425.0</ele><time>2026-04-18T09:50:15.999Z</time></trkpt><trkpt lat="43.8872110241998" lon="12.394736604680475"><ele>423.0</ele><time>2026-04-18T09:50:16.999Z</time></trkpt><trkpt lat="43.88730704082441" lon="12.394693842239125"><ele>423.79999999999995</ele><time>2026-04-18T09:50:17.999Z</time></trkpt><trkpt lat="43.88739113438064" lon="12.394631443948663"><ele>424.6</ele><time>2026-04-18T09:50:18.999Z</time></trkpt><trkpt lat="43.887477051258415" lon="12.394563873966982"><ele>425.40000000000003</ele><time>2026-04-18T09:50:19.999Z</time></trkpt><trkpt lat="43.88757687853032" lon="12.394501383455877"><ele>426.20000000000005</ele><time>2026-04-18T09:50:20.999Z</time></trkpt><trkpt lat="43.88769039526613" lon="12.39444272354897"><ele>427.0</ele><time>2026-04-18T09:50:21.999Z</time></trkpt><trkpt lat="43.88779621249992" lon="12.394393805021297"><ele>425.33333333333337</ele><time>2026-04-18T09:50:22.999Z</time></trkpt><trkpt lat="43.88788764478502" lon="12.394344763527918"><ele>423.6666666666667</ele><time>2026-04-18T09:50:23.999Z</time></trkpt><trkpt lat="43.887961162311626" lon="12.394299414123253"><ele>422.0</ele><time>2026-04-18T09:50:24.999Z</time></trkpt><trkpt lat="43.888037423080974" lon="12.394256040133563"><ele>420.33333333333337</ele><time>2026-04-18T09:50:25.999Z</time></trkpt><trkpt lat="43.88812104863567" lon="12.394212189527035"><ele>418.6666666666667</ele><time>2026-04-18T09:50:26.999Z</time></trkpt><trkpt lat="43.888216885422665" lon="12.394182159406931"><ele>417.0</ele><time>2026-04-18T09:50:27.999Z</time></trkpt><trkpt lat="43.88833073076878" lon="12.394167211172986"><ele>415.25</ele><time>2026-04-18T09:50:28.999Z</time></trkpt><trkpt lat="43.888465259065185" lon="12.394164288629684"><ele>413.5</ele><time>2026-04-18T09:50:29.999Z</time></trkpt><trkpt lat="43.888574612490736" lon="12.394154388170724"><ele>411.75</ele><time>2026-04-18T09:50:30.999Z</time></trkpt><trkpt lat="43.88867875831979" lon="12.394126196050191"><ele>410.0</ele><time>2026-04-18T09:50:31.999Z</time></trkpt><trkpt lat="43.88879239808081" lon="12.394101336871616"><ele>410.0</ele><time>2026-04-18T09:50:32.999Z</time></trkpt><trkpt lat="43.8888943085409" lon="12.39408385330858"><ele>410.0</ele><time>2026-04-18T09:50:33.999Z</time></trkpt><trkpt lat="43.888974446560944" lon="12.39409289469451"><ele>410.0</ele><time>2026-04-18T09:50:34.999Z</time></trkpt><trkpt lat="43.889066575629585" lon="12.394132049689722"><ele>410.0</ele><time>2026-04-18T09:50:35.999Z</time></trkpt><trkpt lat="43.88916352989721" lon="12.394172670710848"><ele>410.0</ele><time>2026-04-18T09:50:36.999Z</time></trkpt><trkpt lat="43.8892608532151" lon="12.3941944344009"><ele>407.6</ele><time>2026-04-18T09:50:37.999Z</time></trkpt><trkpt lat="43.8893639371944" lon="12.394212741274993"><ele>405.2</ele><time>2026-04-18T09:50:38.999Z</time></trkpt><trkpt lat="43.88948340600933" lon="12.394232059146486"><ele>402.79999999999995</ele><time>2026-04-18T09:50:39.999Z</time></trkpt><trkpt lat="43.889590559376614" lon="12.394255052167061"><ele>400.4</ele><time>2026-04-18T09:50:40.999Z</time></trkpt><trkpt lat="43.889697630982695" lon="12.39427181028714"><ele>398.0</ele><time>2026-04-18T09:50:41.999Z</time></trkpt><trkpt lat="43.889804191592546" lon="12.394301833171445"><ele>398.0</ele><time>2026-04-18T09:50:42.999Z</time></trkpt><trkpt lat="43.889907560820944" lon="12.394323211394264"><ele>398.0</ele><time>2026-04-18T09:50:43.999Z</time></trkpt><trkpt lat="43.890006014672124" lon="12.394336594798869"><ele>398.0</ele><time>2026-04-18T09:50:44.999Z</time></trkpt><trkpt lat="43.890090283935535" lon="12.394344030375459"><ele>398.0</ele><time>2026-04-18T09:50:45.999Z</time></trkpt><trkpt lat="43.890175438719496" lon="12.3943480520141"><ele>398.0</ele><time>2026-04-18T09:50:46.999Z</time></trkpt><trkpt lat="43.89027240145486" lon="12.394354123435932"><ele>395.59999999999997</ele><time>2026-04-18T09:50:47.999Z</time></trkpt><trkpt lat="43.890379271828955" lon="12.394378278028812"><ele>393.2</ele><time>2026-04-18T09:50:48.999Z</time></trkpt><trkpt lat="43.89047911980494" lon="12.394421383862316"><ele>390.8</ele><time>2026-04-18T09:50:49.999Z</time></trkpt><trkpt lat="43.89056660432191" lon="12.394458289738779"><ele>388.4</ele><time>2026-04-18T09:50:50.999Z</time></trkpt><trkpt lat="43.890646122233235" lon="12.394484718548217"><ele>386.0</ele><time>2026-04-18T09:50:51.999Z</time></trkpt><trkpt lat="43.890730710358866" lon="12.394497371662835"><ele>386.0</ele><time>2026-04-18T09:50:52.999Z</time></trkpt><trkpt lat="43.890830823985475" lon="12.394489375782058"><ele>386.0</ele><time>2026-04-18T09:50:53.999Z</time></trkpt><trkpt lat="43.89092382074782" lon="12.394471515765721"><ele>386.0</ele><time>2026-04-18T09:50:54.999Z</time></trkpt><trkpt lat="43.891029436259586" lon="12.394453647987962"><ele>386.0</ele><time>2026-04-18T09:50:55.999Z</time></trkpt><trkpt lat="43.89113358654131" lon="12.394456227942403"><ele>386.0</ele><time>2026-04-18T09:50:56.999Z</time></trkpt><trkpt lat="43.89121713721786" lon="12.39445376822887"><ele>383.8</ele><time>2026-04-18T09:50:57.999Z</time></trkpt><trkpt lat="43.891301550870956" lon="12.394442124034667"><ele>381.6</ele><time>2026-04-18T09:50:58.999Z</time></trkpt><trkpt lat="43.89138969528575" lon="12.394412258155038"><ele>379.4</ele><time>2026-04-18T09:50:59.999Z</time></trkpt><trkpt lat="43.89149756075098" lon="12.394351945862452"><ele>377.2</ele><time>2026-04-18T09:51:00.999Z</time></trkpt><trkpt lat="43.891596031522916" lon="12.39431832319976"><ele>375.0</ele><time>2026-04-18T09:51:01.999Z</time></trkpt><trkpt lat="43.89167204032212" lon="12.39431907135317"><ele>372.0</ele><time>2026-04-18T09:51:02.999Z</time></trkpt><trkpt lat="43.89176205577144" lon="12.394309866693762"><ele>369.0</ele><time>2026-04-18T09:51:03.999Z</time></trkpt><trkpt lat="43.891864736460214" lon="12.394270045792316"><ele>366.0</ele><time>2026-04-18T09:51:04.999Z</time></trkpt><trkpt lat="43.89193886030567" lon="12.394218366990186"><ele>363.0</ele><time>2026-04-18T09:51:05.999Z</time></trkpt><trkpt lat="43.89199125216236" lon="12.394169465006769"><ele>360.0</ele><time>2026-04-18T09:51:06.999Z</time></trkpt><trkpt lat="43.892061287499175" lon="12.394117479538517"><ele>357.0</ele><time>2026-04-18T09:51:07.999Z</time></trkpt><trkpt lat="43.89212444802492" lon="12.394065182546342"><ele>357.0</ele><time>2026-04-18T09:51:08.999Z</time></trkpt><trkpt lat="43.892182835118405" lon="12.394005856538808"><ele>357.0</ele><time>2026-04-18T09:51:09.999Z</time></trkpt><trkpt lat="43.8922263216304" lon="12.393937652905109"><ele>357.0</ele><time>2026-04-18T09:51:10.999Z</time></trkpt><trkpt lat="43.89228282083259" lon="12.39377289713864"><ele>357.0</ele><time>2026-04-18T09:51:12.999Z</time></trkpt><trkpt lat="43.89232072607111" lon="12.393666583107528"><ele>357.0</ele><time>2026-04-18T09:51:13.999Z</time></trkpt><trkpt lat="43.89236406764283" lon="12.393561646394673"><ele>357.0</ele><time>2026-04-18T09:51:14.999Z</time></trkpt><trkpt lat="43.89242456892656" lon="12.393464759455554"><ele>357.6666666666667</ele><time>2026-04-18T09:51:15.999Z</time></trkpt><trkpt lat="43.89248551926356" lon="12.393392161857593"><ele>358.3333333333333</ele><time>2026-04-18T09:51:16.999Z</time></trkpt><trkpt lat="43.89255024582638" lon="12.393334829392984"><ele>359.0</ele><time>2026-04-18T09:51:17.999Z</time></trkpt><trkpt lat="43.89263541351228" lon="12.393281744125224"><ele>359.66666666666663</ele><time>2026-04-18T09:51:18.999Z</time></trkpt><trkpt lat="43.89273127650235" lon="12.393249106680738"><ele>360.3333333333333</ele><time>2026-04-18T09:51:19.999Z</time></trkpt><trkpt lat="43.89282490795285" lon="12.393231123495655"><ele>361.0</ele><time>2026-04-18T09:51:20.999Z</time></trkpt><trkpt lat="43.892929092984446" lon="12.393213084083623"><ele>359.0</ele><time>2026-04-18T09:51:21.999Z</time></trkpt><trkpt lat="43.89303978294447" lon="12.393198063340051"><ele>357.0</ele><time>2026-04-18T09:51:22.999Z</time></trkpt><trkpt lat="43.89312699828883" lon="12.393195030427034"><ele>355.0</ele><time>2026-04-18T09:51:23.999Z</time></trkpt><trkpt lat="43.893200717720475" lon="12.39321691794632"><ele>353.0</ele><time>2026-04-18T09:51:24.999Z</time></trkpt><trkpt lat="43.89328048847514" lon="12.39325975374799"><ele>351.0</ele><time>2026-04-18T09:51:25.999Z</time></trkpt><trkpt lat="43.89336366234135" lon="12.393308134130029"><ele>350.3333333333333</ele><time>2026-04-18T09:51:26.999Z</time></trkpt><trkpt lat="43.893429593834284" lon="12.393335313657381"><ele>349.6666666666667</ele><time>2026-04-18T09:51:27.999Z</time></trkpt><trkpt lat="43.893495804810485" lon="12.393334693050837"><ele>349.0</ele><time>2026-04-18T09:51:28.999Z</time></trkpt><trkpt lat="43.893556172714696" lon="12.39327773874635"><ele>348.33333333333337</ele><time>2026-04-18T09:51:29.999Z</time></trkpt><trkpt lat="43.8936236991701" lon="12.393220771876171"><ele>347.6666666666667</ele><time>2026-04-18T09:51:30.999Z</time></trkpt><trkpt lat="43.89373785755627" lon="12.39318186419751"><ele>347.0</ele><time>2026-04-18T09:51:32.999Z</time></trkpt><trkpt lat="43.89387167255387" lon="12.393136238386612"><ele>347.0</ele><time>2026-04-18T09:51:34.999Z</time></trkpt><trkpt lat="43.89395029682627" lon="12.393111936286571"><ele>347.0</ele><time>2026-04-18T09:51:35.999Z</time></trkpt><trkpt lat="43.894034166815864" lon="12.393109924612661"><ele>347.0</ele><time>2026-04-18T09:51:36.999Z</time></trkpt><trkpt lat="43.89416678742637" lon="12.39316636935373"><ele>347.0</ele><time>2026-04-18T09:51:38.999Z</time></trkpt><trkpt lat="43.89424066583136" lon="12.393179193794944"><ele>347.0</ele><time>2026-04-18T09:51:39.999Z</time></trkpt><trkpt lat="43.89430545552188" lon="12.39314165630608"><ele>347.0</ele><time>2026-04-18T09:51:40.999Z</time></trkpt><trkpt lat="43.89437028145268" lon="12.39309642223185"><ele>344.2857142857143</ele><time>2026-04-18T09:51:41.999Z</time></trkpt><trkpt lat="43.894429242724264" lon="12.393064457459605"><ele>341.57142857142856</ele><time>2026-04-18T09:51:42.999Z</time></trkpt><trkpt lat="43.8944984441684" lon="12.39303591078063"><ele>338.85714285714283</ele><time>2026-04-18T09:51:43.999Z</time></trkpt><trkpt lat="43.89455680628291" lon="12.392969730464596"><ele>336.1428571428571</ele><time>2026-04-18T09:51:44.999Z</time></trkpt><trkpt lat="43.89459849975492" lon="12.392878908676096"><ele>333.42857142857144</ele><time>2026-04-18T09:51:46Z</time></trkpt><trkpt lat="43.8946561825318" lon="12.392805413950295"><ele>330.71428571428567</ele><time>2026-04-18T09:51:47Z</time></trkpt><trkpt lat="43.894723159954786" lon="12.392781496753"><ele>328.0</ele><time>2026-04-18T09:51:48Z</time></trkpt><trkpt lat="43.89479577080665" lon="12.392804839329981"><ele>328.0</ele><time>2026-04-18T09:51:49Z</time></trkpt><trkpt lat="43.89487450410036" lon="12.392823861674948"><ele>328.0</ele><time>2026-04-18T09:51:50Z</time></trkpt><trkpt lat="43.89494720413725" lon="12.392859355625559"><ele>328.0</ele><time>2026-04-18T09:51:51Z</time></trkpt><trkpt lat="43.895010290639114" lon="12.392919292334643"><ele>328.0</ele><time>2026-04-18T09:51:52Z</time></trkpt><trkpt lat="43.89507601213296" lon="12.39302109529189"><ele>328.0</ele><time>2026-04-18T09:51:54Z</time></trkpt><trkpt lat="43.89517026411563" lon="12.393067460369009"><ele>328.0</ele><time>2026-04-18T09:51:56Z</time></trkpt><trkpt lat="43.89525639717472" lon="12.393013093423866"><ele>324.71428571428567</ele><time>2026-04-18T09:51:59Z</time></trkpt><trkpt lat="43.895300935683245" lon="12.392945973926063"><ele>321.42857142857144</ele><time>2026-04-18T09:52:00Z</time></trkpt><trkpt lat="43.89534348281773" lon="12.39287887568481"><ele>318.1428571428571</ele><time>2026-04-18T09:52:01Z</time></trkpt><trkpt lat="43.89542867913937" lon="12.39288601467924"><ele>314.85714285714283</ele><time>2026-04-18T09:52:03Z</time></trkpt><trkpt lat="43.89548953092702" lon="12.39292112464134"><ele>311.57142857142856</ele><time>2026-04-18T09:52:04Z</time></trkpt><trkpt lat="43.895561700242105" lon="12.392944888123933"><ele>308.2857142857143</ele><time>2026-04-18T09:52:05Z</time></trkpt><trkpt lat="43.89562265923607" lon="12.392914641114187"><ele>305.0</ele><time>2026-04-18T09:52:06Z</time></trkpt><trkpt lat="43.89569158520905" lon="12.392851346964543"><ele>305.0</ele><time>2026-04-18T09:52:07Z</time></trkpt><trkpt lat="43.895757441897636" lon="12.392793872568038"><ele>305.0</ele><time>2026-04-18T09:52:08Z</time></trkpt><trkpt lat="43.895815669001514" lon="12.392758388064205"><ele>305.0</ele><time>2026-04-18T09:52:09Z</time></trkpt><trkpt lat="43.895932162210165" lon="12.392702901769374"><ele>305.0</ele><time>2026-04-18T09:52:11Z</time></trkpt><trkpt lat="43.89599946893657" lon="12.392645601111653"><ele>305.0</ele><time>2026-04-18T09:52:12Z</time></trkpt><trkpt lat="43.89607341148818" lon="12.392615988579982"><ele>305.0</ele><time>2026-04-18T09:52:13Z</time></trkpt><trkpt lat="43.89619026099032" lon="12.392560200695492"><ele>304.6666666666667</ele><time>2026-04-18T09:52:15Z</time></trkpt><trkpt lat="43.8962404775731" lon="12.392494014926108"><ele>304.33333333333337</ele><time>2026-04-18T09:52:16Z</time></trkpt><trkpt lat="43.89630061092885" lon="12.392411300774675"><ele>304.0</ele><time>2026-04-18T09:52:16.999Z</time></trkpt><trkpt lat="43.89635097954679" lon="12.392357043852677"><ele>303.6666666666667</ele><time>2026-04-18T09:52:17.999Z</time></trkpt><trkpt lat="43.89641480108141" lon="12.392301044691573"><ele>303.3333333333333</ele><time>2026-04-18T09:52:19.999Z</time></trkpt><trkpt lat="43.89643083801795" lon="12.392209244128741"><ele>303.0</ele><time>2026-04-18T09:52:21.999Z</time></trkpt><trkpt lat="43.89647872075853" lon="12.392099510130638"><ele>303.0</ele><time>2026-04-18T09:52:31.999Z</time></trkpt><trkpt lat="43.89654325082138" lon="12.392040507800562"><ele>303.0</ele><time>2026-04-18T09:52:47.999Z</time></trkpt><trkpt lat="43.89659418796032" lon="12.391926902900629"><ele>303.0</ele><time>2026-04-18T09:53:55Z</time></trkpt><trkpt lat="43.89665184288751" lon="12.391820689285064"><ele>303.0</ele><time>2026-04-18T09:53:57Z</time></trkpt><trkpt lat="43.89670815070027" lon="12.391780650410025"><ele>303.0</ele><time>2026-04-18T09:54:04Z</time></trkpt><trkpt lat="43.89664272383316" lon="12.391760903779472"><ele>303.0</ele><time>2026-04-18T09:54:09Z</time></trkpt><trkpt lat="43.89662315882363" lon="12.391653103234578"><ele>303.0</ele><time>2026-04-18T09:54:12Z</time></trkpt><trkpt lat="43.8965820519113" lon="12.391448761232999"><ele>303.0</ele><time>2026-04-18T09:54:19Z</time></trkpt><trkpt lat="43.89648177787886" lon="12.391447787585811"><ele>303.0</ele><time>2026-04-18T09:54:21Z</time></trkpt><trkpt lat="43.896407938950624" lon="12.391440253751123"><ele>303.0</ele><time>2026-04-18T09:54:22Z</time></trkpt><trkpt lat="43.89629599763009" lon="12.391370078705211"><ele>306.3333333333333</ele><time>2026-04-18T09:54:24Z</time></trkpt><trkpt lat="43.896230312238686" lon="12.391334640411628"><ele>309.6666666666667</ele><time>2026-04-18T09:54:25Z</time></trkpt><trkpt lat="43.89616247168502" lon="12.391312804578417"><ele>313.0</ele><time>2026-04-18T09:54:26Z</time></trkpt><trkpt lat="43.89605256504681" lon="12.391219416198545"><ele>316.33333333333337</ele><time>2026-04-18T09:54:28Z</time></trkpt><trkpt lat="43.896002692135085" lon="12.391130651523312"><ele>319.6666666666667</ele><time>2026-04-18T09:54:30Z</time></trkpt><trkpt lat="43.895978333632996" lon="12.391001712733221"><ele>323.0</ele><time>2026-04-18T09:54:32Z</time></trkpt><trkpt lat="43.89592338061958" lon="12.390922489196706"><ele>323.0</ele><time>2026-04-18T09:54:34Z</time></trkpt><trkpt lat="43.89591142097249" lon="12.390819210219917"><ele>323.0</ele><time>2026-04-18T09:54:39Z</time></trkpt><trkpt lat="43.895917158825995" lon="12.390729113901765"><ele>323.0</ele><time>2026-04-18T09:54:41Z</time></trkpt><trkpt lat="43.895997126174684" lon="12.390672486319138"><ele>323.0</ele><time>2026-04-18T09:54:43.999Z</time></trkpt><trkpt lat="43.89610233157477" lon="12.39067615801837"><ele>323.0</ele><time>2026-04-18T09:54:45.999Z</time></trkpt><trkpt lat="43.896191245839844" lon="12.390651038335413"><ele>323.0</ele><time>2026-04-18T09:54:48.999Z</time></trkpt><trkpt lat="43.89628948518742" lon="12.390646809749503"><ele>323.0</ele><time>2026-04-18T09:54:50.999Z</time></trkpt><trkpt lat="43.896381676488765" lon="12.390619988912519"><ele>323.0</ele><time>2026-04-18T09:54:52.999Z</time></trkpt><trkpt lat="43.89644479651834" lon="12.390596716629927"><ele>323.0</ele><time>2026-04-18T09:54:54.999Z</time></trkpt><trkpt lat="43.896451289310455" lon="12.390488608772829"><ele>323.0</ele><time>2026-04-18T09:54:56.999Z</time></trkpt><trkpt lat="43.89639418020761" lon="12.390422089156164"><ele>323.0</ele><time>2026-04-18T09:54:57.999Z</time></trkpt><trkpt lat="43.89633500595666" lon="12.390375118760616"><ele>323.0</ele><time>2026-04-18T09:54:58.999Z</time></trkpt><trkpt lat="43.89628945966318" lon="12.390275964145088"><ele>326.83333333333337</ele><time>2026-04-18T09:55:00.999Z</time></trkpt><trkpt lat="43.89625118232987" lon="12.390160463977598"><ele>330.6666666666667</ele><time>2026-04-18T09:55:02.999Z</time></trkpt><trkpt lat="43.89620645280713" lon="12.39004963002454"><ele>334.5</ele><time>2026-04-18T09:55:04.999Z</time></trkpt><trkpt lat="43.89617210093536" lon="12.389973387186851"><ele>338.3333333333333</ele><time>2026-04-18T09:55:06.999Z</time></trkpt><trkpt lat="43.89616624781421" lon="12.389874625935706"><ele>342.16666666666663</ele><time>2026-04-18T09:57:05.999Z</time></trkpt><trkpt lat="43.896162170289806" lon="12.3897837220325"><ele>346.0</ele><time>2026-04-18T09:57:38.999Z</time></trkpt><trkpt lat="43.89615946687187" lon="12.389694040486333"><ele>346.0</ele><time>2026-04-18T09:57:45.999Z</time></trkpt><trkpt lat="43.89616726179511" lon="12.389569287417274"><ele>346.0</ele><time>2026-04-18T09:57:49.999Z</time></trkpt><trkpt lat="43.896195310471796" lon="12.389454565103893"><ele>346.0</ele><time>2026-04-18T09:58:13Z</time></trkpt><trkpt lat="43.89621722915738" lon="12.389359096557364"><ele>346.0</ele><time>2026-04-18T09:58:15Z</time></trkpt><trkpt lat="43.89617931716918" lon="12.389510713450873"><ele>346.0</ele><time>2026-04-18T09:59:39.999Z</time></trkpt><trkpt lat="43.896169297764786" lon="12.389676687568077"><ele>346.0</ele><time>2026-04-18T09:59:52.999Z</time></trkpt><trkpt lat="43.89617444805249" lon="12.38976968729883"><ele>346.0</ele><time>2026-04-18T10:00:01.999Z</time></trkpt><trkpt lat="43.896186810846345" lon="12.389891901240308"><ele>346.0</ele><time>2026-04-18T10:00:11Z</time></trkpt><trkpt lat="43.896212617018094" lon="12.38998282061833"><ele>346.0</ele><time>2026-04-18T10:00:15Z</time></trkpt><trkpt lat="43.89625618036366" lon="12.390058276837108"><ele>346.0</ele><time>2026-04-18T10:00:18Z</time></trkpt><trkpt lat="43.89628406221029" lon="12.390141239298009"><ele>346.0</ele><time>2026-04-18T10:00:20Z</time></trkpt><trkpt lat="43.89634469809211" lon="12.390254451630579"><ele>346.0</ele><time>2026-04-18T10:00:23Z</time></trkpt><trkpt lat="43.896389296585745" lon="12.390345350675707"><ele>346.0</ele><time>2026-04-18T10:00:25Z</time></trkpt><trkpt lat="43.896457229918205" lon="12.390437415355278"><ele>346.0</ele><time>2026-04-18T10:00:27Z</time></trkpt><trkpt lat="43.89650151116415" lon="12.390515486673332"><ele>346.0</ele><time>2026-04-18T10:00:29Z</time></trkpt><trkpt lat="43.896429882890466" lon="12.39055595517473"><ele>346.0</ele><time>2026-04-18T10:00:32Z</time></trkpt><trkpt lat="43.89636489749196" lon="12.390586076758058"><ele>346.0</ele><time>2026-04-18T10:00:34Z</time></trkpt><trkpt lat="43.89627057422882" lon="12.390592714633963"><ele>341.4</ele><time>2026-04-18T10:00:36Z</time></trkpt><trkpt lat="43.89616025793734" lon="12.39060639555363"><ele>336.8</ele><time>2026-04-18T10:00:38Z</time></trkpt><trkpt lat="43.89605802791421" lon="12.390604370917673"><ele>332.2</ele><time>2026-04-18T10:00:40Z</time></trkpt><trkpt lat="43.895959295517564" lon="12.390625139662669"><ele>327.59999999999997</ele><time>2026-04-18T10:00:41.999Z</time></trkpt><trkpt lat="43.89589901719967" lon="12.390676004097463"><ele>323.0</ele><time>2026-04-18T10:00:43.999Z</time></trkpt><trkpt lat="43.8959005891493" lon="12.390782660511217"><ele>323.0</ele><time>2026-04-18T10:00:46.999Z</time></trkpt><trkpt lat="43.89593831057087" lon="12.390866709451599"><ele>323.0</ele><time>2026-04-18T10:00:49.999Z</time></trkpt><trkpt lat="43.89596422953179" lon="12.3909660213086"><ele>323.0</ele><time>2026-04-18T10:00:52.999Z</time></trkpt><trkpt lat="43.89602260065748" lon="12.391032968960461"><ele>323.0</ele><time>2026-04-18T10:00:56.999Z</time></trkpt><trkpt lat="43.89605865918616" lon="12.391144479536104"><ele>323.0</ele><time>2026-04-18T10:01:00.999Z</time></trkpt><trkpt lat="43.89611309692927" lon="12.391210180760938"><ele>323.0</ele><time>2026-04-18T10:01:02.999Z</time></trkpt><trkpt lat="43.89618851918702" lon="12.391247433497636"><ele>323.0</ele><time>2026-04-18T10:01:04.999Z</time></trkpt><trkpt lat="43.896282004983874" lon="12.391305126657285"><ele>323.0</ele><time>2026-04-18T10:01:06.999Z</time></trkpt><trkpt lat="43.89639477063967" lon="12.39138355790279"><ele>323.0</ele><time>2026-04-18T10:01:08.999Z</time></trkpt><trkpt lat="43.89646445115848" lon="12.391399897228176"><ele>323.0</ele><time>2026-04-18T10:01:10.999Z</time></trkpt><trkpt lat="43.89656024130038" lon="12.391440934139723"><ele>323.0</ele><time>2026-04-18T10:01:12.999Z</time></trkpt><trkpt lat="43.89659484834888" lon="12.391523134333957"><ele>319.6666666666667</ele><time>2026-04-18T10:01:14.999Z</time></trkpt><trkpt lat="43.89660437779302" lon="12.391630734177213"><ele>316.33333333333337</ele><time>2026-04-18T10:01:16.999Z</time></trkpt><trkpt lat="43.896642655020656" lon="12.391744570695819"><ele>313.0</ele><time>2026-04-18T10:01:19.999Z</time></trkpt><trkpt lat="43.89675762016146" lon="12.391810849015775"><ele>309.6666666666667</ele><time>2026-04-18T10:01:30.999Z</time></trkpt><trkpt lat="43.89683206290969" lon="12.391798923845386"><ele>306.3333333333333</ele><time>2026-04-18T10:01:31.999Z</time></trkpt><trkpt lat="43.896912418735816" lon="12.391812721411004"><ele>303.0</ele><time>2026-04-18T10:01:32.999Z</time></trkpt><trkpt lat="43.897022658230405" lon="12.391820632170868"><ele>300.8</ele><time>2026-04-18T10:01:34.999Z</time></trkpt><trkpt lat="43.89709879645151" lon="12.391745371378194"><ele>298.6</ele><time>2026-04-18T10:01:36.999Z</time></trkpt><trkpt lat="43.897191329693186" lon="12.3917414496407"><ele>296.4</ele><time>2026-04-18T10:01:38.999Z</time></trkpt><trkpt lat="43.89728840109863" lon="12.39174556887697"><ele>294.2</ele><time>2026-04-18T10:01:40.999Z</time></trkpt><trkpt lat="43.89739320373939" lon="12.391730532622955"><ele>292.0</ele><time>2026-04-18T10:01:42.999Z</time></trkpt><trkpt lat="43.897489808635065" lon="12.391701807245816"><ele>292.0</ele><time>2026-04-18T10:01:44.999Z</time></trkpt><trkpt lat="43.89758364933598" lon="12.391656954514731"><ele>292.0</ele><time>2026-04-18T10:01:46.999Z</time></trkpt><trkpt lat="43.8976835946801" lon="12.391593602205623"><ele>292.0</ele><time>2026-04-18T10:01:48.999Z</time></trkpt><trkpt lat="43.897778725887875" lon="12.391514489417261"><ele>292.0</ele><time>2026-04-18T10:01:50.999Z</time></trkpt><trkpt lat="43.89786235621652" lon="12.391419731949595"><ele>292.0</ele><time>2026-04-18T10:01:52.999Z</time></trkpt><trkpt lat="43.897772844852675" lon="12.391468239672086"><ele>292.0</ele><time>2026-04-18T10:02:10.999Z</time></trkpt><trkpt lat="43.89770639685696" lon="12.391592816493771"><ele>292.0</ele><time>2026-04-18T10:02:12.999Z</time></trkpt><trkpt lat="43.89765012476241" lon="12.391641815240929"><ele>292.0</ele><time>2026-04-18T10:02:13.999Z</time></trkpt><trkpt lat="43.89758615860192" lon="12.391675573215183"><ele>292.0</ele><time>2026-04-18T10:02:14.999Z</time></trkpt><trkpt lat="43.897511083487835" lon="12.39171086963465"><ele>292.0</ele><time>2026-04-18T10:02:15.999Z</time></trkpt><trkpt lat="43.89742714433384" lon="12.391733082999028"><ele>292.0</ele><time>2026-04-18T10:02:16.999Z</time></trkpt><trkpt lat="43.89735044848163" lon="12.391741766725223"><ele>292.0</ele><time>2026-04-18T10:02:17.999Z</time></trkpt><trkpt lat="43.897270929162744" lon="12.391749635162865"><ele>292.0</ele><time>2026-04-18T10:02:18.999Z</time></trkpt><trkpt lat="43.89714346639331" lon="12.39176120757627"><ele>292.0</ele><time>2026-04-18T10:02:20.999Z</time></trkpt><trkpt lat="43.89703523853396" lon="12.39179445985021"><ele>292.0</ele><time>2026-04-18T10:02:22.999Z</time></trkpt><trkpt lat="43.89697914702127" lon="12.391837414900776"><ele>292.0</ele><time>2026-04-18T10:02:23.999Z</time></trkpt><trkpt lat="43.896862093170256" lon="12.391837487673913"><ele>293.16666666666663</ele><time>2026-04-18T10:02:25.999Z</time></trkpt><trkpt lat="43.8967416523477" lon="12.391807310431508"><ele>294.3333333333333</ele><time>2026-04-18T10:02:27.999Z</time></trkpt><trkpt lat="43.89665610761153" lon="12.39183633315142"><ele>295.5</ele><time>2026-04-18T10:02:29.999Z</time></trkpt><trkpt lat="43.89659130582492" lon="12.391923842171217"><ele>296.6666666666667</ele><time>2026-04-18T10:02:31.999Z</time></trkpt><trkpt lat="43.89655750582902" lon="12.392000100079716"><ele>297.83333333333337</ele><time>2026-04-18T10:02:45.999Z</time></trkpt><trkpt lat="43.896510691032155" lon="12.392095724668076"><ele>299.0</ele><time>2026-04-18T10:02:49.999Z</time></trkpt><trkpt lat="43.896449730945456" lon="12.39218940660172"><ele>299.0</ele><time>2026-04-18T10:02:54.999Z</time></trkpt><trkpt lat="43.89639969177997" lon="12.392294745885799"><ele>299.0</ele><time>2026-04-18T10:02:56.999Z</time></trkpt><trkpt lat="43.89641315542842" lon="12.392380218085378"><ele>299.0</ele><time>2026-04-18T10:03:03.999Z</time></trkpt><trkpt lat="43.896476532614855" lon="12.39239289125931"><ele>299.0</ele><time>2026-04-18T10:03:05.999Z</time></trkpt><trkpt lat="43.896515306286716" lon="12.392484171477243"><ele>299.0</ele><time>2026-04-18T10:03:08.999Z</time></trkpt><trkpt lat="43.89653708145911" lon="12.392574160341141"><ele>299.0</ele><time>2026-04-18T10:03:11.999Z</time></trkpt><trkpt lat="43.896567451121264" lon="12.392652700097551"><ele>299.0</ele><time>2026-04-18T10:03:14.999Z</time></trkpt><trkpt lat="43.89660776105132" lon="12.392764886255032"><ele>299.0</ele><time>2026-04-18T10:03:16.999Z</time></trkpt><trkpt lat="43.89665979551469" lon="12.392906877466212"><ele>299.0</ele><time>2026-04-18T10:03:18.999Z</time></trkpt><trkpt lat="43.8967161479098" lon="12.393068846866461"><ele>299.0</ele><time>2026-04-18T10:03:20.999Z</time></trkpt><trkpt lat="43.89674565168088" lon="12.393198695140622"><ele>299.0</ele><time>2026-04-18T10:03:22.999Z</time></trkpt><trkpt lat="43.89669481638566" lon="12.393266085811849"><ele>299.0</ele><time>2026-04-18T10:03:33.999Z</time></trkpt><trkpt lat="43.89669738280542" lon="12.393172105219247"><ele>299.0</ele><time>2026-04-18T10:03:51.999Z</time></trkpt><trkpt lat="43.896707360480846" lon="12.393064244929255"><ele>299.0</ele><time>2026-04-18T10:03:53.999Z</time></trkpt><trkpt lat="43.89664079517171" lon="12.392901986701718"><ele>299.0</ele><time>2026-04-18T10:03:55.999Z</time></trkpt><trkpt lat="43.89660269263705" lon="12.392807582579803"><ele>299.0</ele><time>2026-04-18T10:03:56.999Z</time></trkpt><trkpt lat="43.89656648014931" lon="12.392715187540004"><ele>299.0</ele><time>2026-04-18T10:03:57.999Z</time></trkpt><trkpt lat="43.89653842315634" lon="12.392627868055394"><ele>299.0</ele><time>2026-04-18T10:03:58.999Z</time></trkpt><trkpt lat="43.89648601109184" lon="12.392484783846054"><ele>299.0</ele><time>2026-04-18T10:04:00.999Z</time></trkpt><trkpt lat="43.89643141988588" lon="12.392400532935419"><ele>299.0</ele><time>2026-04-18T10:04:02.999Z</time></trkpt><trkpt lat="43.89633959605227" lon="12.39238711537326"><ele>299.0</ele><time>2026-04-18T10:04:04.999Z</time></trkpt><trkpt lat="43.89623002352254" lon="12.39248188410252"><ele>299.0</ele><time>2026-04-18T10:04:06.999Z</time></trkpt><trkpt lat="43.89617257233541" lon="12.392560500356153"><ele>299.0</ele><time>2026-04-18T10:04:07.999Z</time></trkpt><trkpt lat="43.896111327690164" lon="12.392631872687046"><ele>299.0</ele><time>2026-04-18T10:04:08.999Z</time></trkpt><trkpt lat="43.89603861623169" lon="12.392681637498068"><ele>299.0</ele><time>2026-04-18T10:04:09.999Z</time></trkpt><trkpt lat="43.89595625835977" lon="12.392722221385034"><ele>299.0</ele><time>2026-04-18T10:04:10.999Z</time></trkpt><trkpt lat="43.895867189733146" lon="12.392759416392295"><ele>299.0</ele><time>2026-04-18T10:04:11.999Z</time></trkpt><trkpt lat="43.895796530880745" lon="12.392820728249589"><ele>299.0</ele><time>2026-04-18T10:04:12.999Z</time></trkpt><trkpt lat="43.89570469881848" lon="12.392874488707179"><ele>299.0</ele><time>2026-04-18T10:04:13.999Z</time></trkpt><trkpt lat="43.895635315377355" lon="12.39292243489668"><ele>300.2</ele><time>2026-04-18T10:04:14.999Z</time></trkpt><trkpt lat="43.8955544771469" lon="12.392967107263651"><ele>301.4</ele><time>2026-04-18T10:04:15.999Z</time></trkpt><trkpt lat="43.89544711140874" lon="12.392924209252492"><ele>302.6</ele><time>2026-04-18T10:04:17.999Z</time></trkpt><trkpt lat="43.89534103533969" lon="12.392885680773121"><ele>303.8</ele><time>2026-04-18T10:04:19.999Z</time></trkpt><trkpt lat="43.895290981574846" lon="12.39301435212456"><ele>305.0</ele><time>2026-04-18T10:04:21.999Z</time></trkpt><trkpt lat="43.895220599006215" lon="12.393092135753527"><ele>305.1666666666667</ele><time>2026-04-18T10:04:23.999Z</time></trkpt><trkpt lat="43.895156544734924" lon="12.393074363162523"><ele>305.33333333333337</ele><time>2026-04-18T10:04:24.999Z</time></trkpt><trkpt lat="43.89510317053294" lon="12.393027042577568"><ele>305.5</ele><time>2026-04-18T10:04:25.999Z</time></trkpt><trkpt lat="43.895013565809" lon="12.392929124912078"><ele>305.6666666666667</ele><time>2026-04-18T10:04:27.999Z</time></trkpt><trkpt lat="43.894952963796754" lon="12.392876876391405"><ele>305.8333333333333</ele><time>2026-04-18T10:04:28.999Z</time></trkpt><trkpt lat="43.89489678943528" lon="12.392816212443416"><ele>306.0</ele><time>2026-04-18T10:04:29.999Z</time></trkpt><trkpt lat="43.894816750471264" lon="12.392779865990239"><ele>309.6666666666667</ele><time>2026-04-18T10:04:30.999Z</time></trkpt><trkpt lat="43.89473095029931" lon="12.392790662257088"><ele>313.3333333333333</ele><time>2026-04-18T10:04:32Z</time></trkpt><trkpt lat="43.8946413578968" lon="12.39282649631936"><ele>317.0</ele><time>2026-04-18T10:04:33Z</time></trkpt><trkpt lat="43.89457941161316" lon="12.39289689290539"><ele>320.66666666666663</ele><time>2026-04-18T10:04:34Z</time></trkpt><trkpt lat="43.89454261699718" lon="12.392985742674375"><ele>324.3333333333333</ele><time>2026-04-18T10:04:35Z</time></trkpt><trkpt lat="43.89450090874777" lon="12.39305261255246"><ele>328.0</ele><time>2026-04-18T10:04:36Z</time></trkpt><trkpt lat="43.89443224320915" lon="12.393110910560388"><ele>328.0</ele><time>2026-04-18T10:04:37Z</time></trkpt><trkpt lat="43.89435699927918" lon="12.393133315800265"><ele>328.0</ele><time>2026-04-18T10:04:38Z</time></trkpt><trkpt lat="43.89428221009482" lon="12.393141430930333"><ele>328.0</ele><time>2026-04-18T10:04:39Z</time></trkpt><trkpt lat="43.89421322292871" lon="12.393157790421053"><ele>328.0</ele><time>2026-04-18T10:04:40Z</time></trkpt><trkpt lat="43.894076030050876" lon="12.39314229637564"><ele>328.0</ele><time>2026-04-18T10:04:42Z</time></trkpt><trkpt lat="43.89399078861532" lon="12.39311229664065"><ele>328.0</ele><time>2026-04-18T10:04:43Z</time></trkpt><trkpt lat="43.89390526363614" lon="12.393106033963338"><ele>331.16666666666663</ele><time>2026-04-18T10:04:44Z</time></trkpt><trkpt lat="43.893820759709214" lon="12.393146963271596"><ele>334.3333333333333</ele><time>2026-04-18T10:04:45Z</time></trkpt><trkpt lat="43.893731947401015" lon="12.393190780463517"><ele>337.5</ele><time>2026-04-18T10:04:46Z</time></trkpt><trkpt lat="43.8936423148429" lon="12.393227675334899"><ele>340.6666666666667</ele><time>2026-04-18T10:04:47Z</time></trkpt><trkpt lat="43.893560526052454" lon="12.393261542081204"><ele>343.83333333333337</ele><time>2026-04-18T10:04:48Z</time></trkpt><trkpt lat="43.893486325040755" lon="12.393310595398738"><ele>347.0</ele><time>2026-04-18T10:04:49Z</time></trkpt><trkpt lat="43.893416633844446" lon="12.393348753002746"><ele>347.6666666666667</ele><time>2026-04-18T10:04:49.999Z</time></trkpt><trkpt lat="43.8933414579986" lon="12.393337271568159"><ele>348.33333333333337</ele><time>2026-04-18T10:04:50.999Z</time></trkpt><trkpt lat="43.893268509490916" lon="12.39327377781754"><ele>349.0</ele><time>2026-04-18T10:04:51.999Z</time></trkpt><trkpt lat="43.893194424773185" lon="12.393220312567397"><ele>349.6666666666667</ele><time>2026-04-18T10:04:52.999Z</time></trkpt><trkpt lat="43.89310038800965" lon="12.393190293357952"><ele>350.3333333333333</ele><time>2026-04-18T10:04:53.999Z</time></trkpt><trkpt lat="43.89300184130636" lon="12.393185358829372"><ele>351.0</ele><time>2026-04-18T10:04:54.999Z</time></trkpt><trkpt lat="43.89288985264576" lon="12.39321115519371"><ele>351.0</ele><time>2026-04-18T10:04:55.999Z</time></trkpt><trkpt lat="43.892796831536266" lon="12.39324394831241"><ele>351.0</ele><time>2026-04-18T10:04:56.999Z</time></trkpt><trkpt lat="43.89271150757758" lon="12.393276656265517"><ele>351.0</ele><time>2026-04-18T10:04:57.999Z</time></trkpt><trkpt lat="43.89263822194123" lon="12.393313384379544"><ele>351.0</ele><time>2026-04-18T10:04:58.999Z</time></trkpt><trkpt lat="43.89255721461984" lon="12.393357043845583"><ele>351.0</ele><time>2026-04-18T10:04:59.999Z</time></trkpt><trkpt lat="43.89248453187342" lon="12.393411704557117"><ele>351.0</ele><time>2026-04-18T10:05:00.999Z</time></trkpt><trkpt lat="43.89242194744967" lon="12.393485500942651"><ele>352.0</ele><time>2026-04-18T10:05:01.999Z</time></trkpt><trkpt lat="43.89238951152988" lon="12.393561132075325"><ele>353.0</ele><time>2026-04-18T10:05:02.999Z</time></trkpt><trkpt lat="43.89233719895028" lon="12.393657491935164"><ele>354.0</ele><time>2026-04-18T10:05:03.999Z</time></trkpt><trkpt lat="43.89228897222423" lon="12.393767673219918"><ele>355.0</ele><time>2026-04-18T10:05:04.999Z</time></trkpt><trkpt lat="43.89224505113028" lon="12.393875527723724"><ele>356.0</ele><time>2026-04-18T10:05:05.999Z</time></trkpt><trkpt lat="43.89220727863432" lon="12.393976932681104"><ele>357.0</ele><time>2026-04-18T10:05:06.999Z</time></trkpt><trkpt lat="43.89214861790335" lon="12.394056917925266"><ele>357.0</ele><time>2026-04-18T10:05:07.999Z</time></trkpt><trkpt lat="43.892066704734006" lon="12.39413114322182"><ele>357.0</ele><time>2026-04-18T10:05:08.999Z</time></trkpt><trkpt lat="43.89195831180568" lon="12.394201799380344"><ele>357.0</ele><time>2026-04-18T10:05:09.999Z</time></trkpt><trkpt lat="43.89186372536752" lon="12.394286412413303"><ele>357.0</ele><time>2026-04-18T10:05:10.999Z</time></trkpt><trkpt lat="43.89178109053375" lon="12.394326803419615"><ele>357.0</ele><time>2026-04-18T10:05:11.999Z</time></trkpt><trkpt lat="43.89170185228554" lon="12.394348204304524"><ele>360.6</ele><time>2026-04-18T10:05:12.999Z</time></trkpt><trkpt lat="43.89160682657731" lon="12.394366620333676"><ele>364.20000000000005</ele><time>2026-04-18T10:05:13.999Z</time></trkpt><trkpt lat="43.89150856376973" lon="12.394375993294991"><ele>367.8</ele><time>2026-04-18T10:05:14.999Z</time></trkpt><trkpt lat="43.89139501681097" lon="12.394385926947814"><ele>371.4</ele><time>2026-04-18T10:05:15.999Z</time></trkpt><trkpt lat="43.891273615484884" lon="12.394428606025823"><ele>375.0</ele><time>2026-04-18T10:05:16.999Z</time></trkpt><trkpt lat="43.89116532909015" lon="12.394470591690851"><ele>375.0</ele><time>2026-04-18T10:05:17.999Z</time></trkpt><trkpt lat="43.891083356040305" lon="12.394509824902538"><ele>375.0</ele><time>2026-04-18T10:05:18.999Z</time></trkpt><trkpt lat="43.89096394387706" lon="12.394493161616943"><ele>375.0</ele><time>2026-04-18T10:05:19.999Z</time></trkpt><trkpt lat="43.89081641533012" lon="12.394528041881108"><ele>375.0</ele><time>2026-04-18T10:05:20.999Z</time></trkpt><trkpt lat="43.89068489343962" lon="12.39451967221726"><ele>376.8333333333333</ele><time>2026-04-18T10:05:22.999Z</time></trkpt><trkpt lat="43.890598581714706" lon="12.39452147309483"><ele>378.66666666666663</ele><time>2026-04-18T10:05:23.999Z</time></trkpt><trkpt lat="43.89053259386653" lon="12.39450799075096"><ele>380.5</ele><time>2026-04-18T10:05:24.999Z</time></trkpt><trkpt lat="43.89045594189609" lon="12.394479126507928"><ele>382.3333333333333</ele><time>2026-04-18T10:05:25.999Z</time></trkpt><trkpt lat="43.890367442306804" lon="12.394446103918863"><ele>384.16666666666663</ele><time>2026-04-18T10:05:26.999Z</time></trkpt><trkpt lat="43.89026541764192" lon="12.394397163956231"><ele>386.0</ele><time>2026-04-18T10:05:27.999Z</time></trkpt><trkpt lat="43.89016312613287" lon="12.394361075970892"><ele>388.4</ele><time>2026-04-18T10:05:28.999Z</time></trkpt><trkpt lat="43.89004967986022" lon="12.394345884640643"><ele>390.8</ele><time>2026-04-18T10:05:29.999Z</time></trkpt><trkpt lat="43.88992882300254" lon="12.394339546967503"><ele>393.2</ele><time>2026-04-18T10:05:30.999Z</time></trkpt><trkpt lat="43.88982125860178" lon="12.39432992521415"><ele>395.59999999999997</ele><time>2026-04-18T10:05:31.999Z</time></trkpt><trkpt lat="43.889716324913046" lon="12.394318453455577"><ele>398.0</ele><time>2026-04-18T10:05:32.999Z</time></trkpt><trkpt lat="43.88959630666556" lon="12.394281266954124"><ele>398.0</ele><time>2026-04-18T10:05:33.999Z</time></trkpt><trkpt lat="43.889456364123035" lon="12.394235338331859"><ele>398.0</ele><time>2026-04-18T10:05:34.999Z</time></trkpt><trkpt lat="43.889321350585355" lon="12.39419821896245"><ele>398.0</ele><time>2026-04-18T10:05:35.999Z</time></trkpt><trkpt lat="43.88918454383387" lon="12.394166256825075"><ele>398.0</ele><time>2026-04-18T10:05:36.999Z</time></trkpt><trkpt lat="43.889080149432424" lon="12.39413642420982"><ele>400.4</ele><time>2026-04-18T10:05:37.999Z</time></trkpt><trkpt lat="43.888988439882006" lon="12.394116840662544"><ele>402.79999999999995</ele><time>2026-04-18T10:05:38.999Z</time></trkpt><trkpt lat="43.88889169030953" lon="12.394095669491868"><ele>405.2</ele><time>2026-04-18T10:05:39.999Z</time></trkpt><trkpt lat="43.88879317766263" lon="12.394084356296869"><ele>407.6</ele><time>2026-04-18T10:05:40.999Z</time></trkpt><trkpt lat="43.888696116289495" lon="12.394089031396677"><ele>410.0</ele><time>2026-04-18T10:05:41.999Z</time></trkpt><trkpt lat="43.88859782662726" lon="12.394128991435359"><ele>410.0</ele><time>2026-04-18T10:05:42.999Z</time></trkpt><trkpt lat="43.888507693262795" lon="12.394163387098379"><ele>410.0</ele><time>2026-04-18T10:05:43.999Z</time></trkpt><trkpt lat="43.888411626306144" lon="12.394194474277068"><ele>410.0</ele><time>2026-04-18T10:05:44.999Z</time></trkpt><trkpt lat="43.88829317051495" lon="12.394208749285575"><ele>410.0</ele><time>2026-04-18T10:05:45.999Z</time></trkpt><trkpt lat="43.888160355760725" lon="12.394224771332247"><ele>410.0</ele><time>2026-04-18T10:05:46.999Z</time></trkpt><trkpt lat="43.88803312008349" lon="12.394244729054575"><ele>411.4</ele><time>2026-04-18T10:05:47.999Z</time></trkpt><trkpt lat="43.88794562836348" lon="12.394288817986046"><ele>412.8</ele><time>2026-04-18T10:05:48.999Z</time></trkpt><trkpt lat="43.88786693427515" lon="12.394364703548534"><ele>414.20000000000005</ele><time>2026-04-18T10:05:49.999Z</time></trkpt><trkpt lat="43.887779821451424" lon="12.394445097282668"><ele>415.6</ele><time>2026-04-18T10:05:50.999Z</time></trkpt><trkpt lat="43.88766994217804" lon="12.394495435041646"><ele>417.0</ele><time>2026-04-18T10:05:51.999Z</time></trkpt><trkpt lat="43.88755276156582" lon="12.394541593939282"><ele>418.20000000000005</ele><time>2026-04-18T10:05:52.999Z</time></trkpt><trkpt lat="43.88743274389352" lon="12.394618667764174"><ele>419.4</ele><time>2026-04-18T10:05:53.999Z</time></trkpt><trkpt lat="43.88732607645608" lon="12.394674755596574"><ele>420.6</ele><time>2026-04-18T10:05:54.999Z</time></trkpt><trkpt lat="43.88725094799956" lon="12.394719536632984"><ele>421.79999999999995</ele><time>2026-04-18T10:05:55.999Z</time></trkpt><trkpt lat="43.88716445293557" lon="12.39477621280952"><ele>423.0</ele><time>2026-04-18T10:05:56.999Z</time></trkpt><trkpt lat="43.88707563164692" lon="12.394782825091532"><ele>423.0</ele><time>2026-04-18T10:05:57.999Z</time></trkpt><trkpt lat="43.8869786221189" lon="12.394779234035482"><ele>423.0</ele><time>2026-04-18T10:05:58.999Z</time></trkpt><trkpt lat="43.88686929099831" lon="12.39478080700869"><ele>423.0</ele><time>2026-04-18T10:05:59.999Z</time></trkpt><trkpt lat="43.886757741055156" lon="12.394765397809943"><ele>423.0</ele><time>2026-04-18T10:06:00.999Z</time></trkpt><trkpt lat="43.88664858824016" lon="12.394717230145194"><ele>423.0</ele><time>2026-04-18T10:06:01.999Z</time></trkpt><trkpt lat="43.886562412170235" lon="12.394650800808789"><ele>425.0</ele><time>2026-04-18T10:06:02.999Z</time></trkpt><trkpt lat="43.88648273532885" lon="12.394576855194135"><ele>427.0</ele><time>2026-04-18T10:06:03.999Z</time></trkpt><trkpt lat="43.88638279970391" lon="12.394498483982094"><ele>428.99999999999994</ele><time>2026-04-18T10:06:04.999Z</time></trkpt><trkpt lat="43.886274119898665" lon="12.394417419006505"><ele>431.0</ele><time>2026-04-18T10:06:05.999Z</time></trkpt><trkpt lat="43.88616931991577" lon="12.394357207295618"><ele>433.0</ele><time>2026-04-18T10:06:06.999Z</time></trkpt><trkpt lat="43.88606717553243" lon="12.394306097444376"><ele>433.0</ele><time>2026-04-18T10:06:07.999Z</time></trkpt><trkpt lat="43.88596560181431" lon="12.39424160627387"><ele>432.99999999999994</ele><time>2026-04-18T10:06:08.999Z</time></trkpt><trkpt lat="43.88587174708115" lon="12.394194920319686"><ele>432.99999999999994</ele><time>2026-04-18T10:06:09.999Z</time></trkpt><trkpt lat="43.88576883195078" lon="12.394178132227427"><ele>433.0</ele><time>2026-04-18T10:06:10.999Z</time></trkpt><trkpt lat="43.885650422328055" lon="12.39415691155168"><ele>433.0</ele><time>2026-04-18T10:06:11.999Z</time></trkpt><trkpt lat="43.885538414714055" lon="12.394158578028831"><ele>434.4</ele><time>2026-04-18T10:06:12.999Z</time></trkpt><trkpt lat="43.88542178405972" lon="12.394181205038095"><ele>435.79999999999995</ele><time>2026-04-18T10:06:13.999Z</time></trkpt><trkpt lat="43.88531289584482" lon="12.394220407011122"><ele>437.2</ele><time>2026-04-18T10:06:14.999Z</time></trkpt><trkpt lat="43.88522589844302" lon="12.394239776174025"><ele>438.6</ele><time>2026-04-18T10:06:15.999Z</time></trkpt><trkpt lat="43.88512257309668" lon="12.394207093481404"><ele>440.0</ele><time>2026-04-18T10:06:16.999Z</time></trkpt><trkpt lat="43.884997996914976" lon="12.394165223625537"><ele>440.0</ele><time>2026-04-18T10:06:17.999Z</time></trkpt><trkpt lat="43.88487863597624" lon="12.394141616389325"><ele>440.0</ele><time>2026-04-18T10:06:18.999Z</time></trkpt><trkpt lat="43.88479543675082" lon="12.394113162926686"><ele>440.0</ele><time>2026-04-18T10:06:19.999Z</time></trkpt><trkpt lat="43.88472169638123" lon="12.39405081897758"><ele>440.0</ele><time>2026-04-18T10:06:20.999Z</time></trkpt><trkpt lat="43.884617907472865" lon="12.393971766532433"><ele>440.0</ele><time>2026-04-18T10:06:21.999Z</time></trkpt><trkpt lat="43.884508483155244" lon="12.39386798170928"><ele>439.2</ele><time>2026-04-18T10:06:22.999Z</time></trkpt><trkpt lat="43.88441579108916" lon="12.393775051915306"><ele>438.4</ele><time>2026-04-18T10:06:23.999Z</time></trkpt><trkpt lat="43.884344590873816" lon="12.3937260503838"><ele>437.6</ele><time>2026-04-18T10:06:24.999Z</time></trkpt><trkpt lat="43.884270308821485" lon="12.393682043935039"><ele>436.8</ele><time>2026-04-18T10:06:27Z</time></trkpt><trkpt lat="43.88419328204901" lon="12.393722616590903"><ele>436.0</ele><time>2026-04-18T10:06:30Z</time></trkpt><trkpt lat="43.884082900143056" lon="12.393788986966221"><ele>437.0</ele><time>2026-04-18T10:07:24Z</time></trkpt><trkpt lat="43.88401200875724" lon="12.393839224672854"><ele>438.0</ele><time>2026-04-18T10:07:25Z</time></trkpt><trkpt lat="43.88392297768897" lon="12.393856975765479"><ele>439.0</ele><time>2026-04-18T10:07:26Z</time></trkpt><trkpt lat="43.88383291791726" lon="12.39389651285055"><ele>440.0</ele><time>2026-04-18T10:07:27Z</time></trkpt><trkpt lat="43.88374380303305" lon="12.393931571340627"><ele>441.0</ele><time>2026-04-18T10:07:28Z</time></trkpt><trkpt lat="43.883648374910535" lon="12.393988574898723"><ele>441.0</ele><time>2026-04-18T10:07:29Z</time></trkpt><trkpt lat="43.88352538117512" lon="12.394019431723349"><ele>441.0</ele><time>2026-04-18T10:07:30Z</time></trkpt><trkpt lat="43.883398401752586" lon="12.39405921836142"><ele>441.0</ele><time>2026-04-18T10:07:30.999Z</time></trkpt><trkpt lat="43.883288460050835" lon="12.394107936955958"><ele>441.0</ele><time>2026-04-18T10:07:31.999Z</time></trkpt><trkpt lat="43.88317597061056" lon="12.39419378298361"><ele>441.4</ele><time>2026-04-18T10:07:32.999Z</time></trkpt><trkpt lat="43.88307561593602" lon="12.394282660757426"><ele>441.8</ele><time>2026-04-18T10:07:33.999Z</time></trkpt><trkpt lat="43.88300426973899" lon="12.394368961367682"><ele>442.19999999999993</ele><time>2026-04-18T10:07:34.999Z</time></trkpt><trkpt lat="43.882947227894526" lon="12.394427769745615"><ele>442.59999999999997</ele><time>2026-04-18T10:07:36.999Z</time></trkpt><trkpt lat="43.88297474502139" lon="12.394568621775532"><ele>443.0</ele><time>2026-04-18T10:07:40.999Z</time></trkpt><trkpt lat="43.88306247642894" lon="12.394658247440104"><ele>441.4</ele><time>2026-04-18T10:07:42.999Z</time></trkpt><trkpt lat="43.883134000045054" lon="12.394735287039154"><ele>439.79999999999995</ele><time>2026-04-18T10:07:43.999Z</time></trkpt><trkpt lat="43.88320574640875" lon="12.394811263451022"><ele>438.2</ele><time>2026-04-18T10:07:44.999Z</time></trkpt><trkpt lat="43.88328636015053" lon="12.39489334128531"><ele>436.6</ele><time>2026-04-18T10:07:45.999Z</time></trkpt><trkpt lat="43.88338448904657" lon="12.394963847844373"><ele>435.0</ele><time>2026-04-18T10:07:46.999Z</time></trkpt><trkpt lat="43.883468126561006" lon="12.39506473680603"><ele>434.0</ele><time>2026-04-18T10:07:47.999Z</time></trkpt><trkpt lat="43.883555245978165" lon="12.395163596606533"><ele>433.0</ele><time>2026-04-18T10:07:48.999Z</time></trkpt><trkpt lat="43.88364185984931" lon="12.395277065638147"><ele>432.0</ele><time>2026-04-18T10:07:49.999Z</time></trkpt><trkpt lat="43.883731572446095" lon="12.395389966702774"><ele>431.0</ele><time>2026-04-18T10:07:50.999Z</time></trkpt><trkpt lat="43.88382378295303" lon="12.39550560630055"><ele>428.0</ele><time>2026-04-18T10:07:51.999Z</time></trkpt><trkpt lat="43.88391107315395" lon="12.395616266625403"><ele>425.0</ele><time>2026-04-18T10:07:52.999Z</time></trkpt><trkpt lat="43.88401059036798" lon="12.39574920097408"><ele>422.0</ele><time>2026-04-18T10:07:53.999Z</time></trkpt><trkpt lat="43.884130283432235" lon="12.39590023351541"><ele>419.0</ele><time>2026-04-18T10:07:54.999Z</time></trkpt><trkpt lat="43.884235414377365" lon="12.396031593104397"><ele>418.75</ele><time>2026-04-18T10:07:55.999Z</time></trkpt><trkpt lat="43.88433277561434" lon="12.396150480838637"><ele>418.5</ele><time>2026-04-18T10:07:56.999Z</time></trkpt><trkpt lat="43.88443886794151" lon="12.396271035358312"><ele>418.25</ele><time>2026-04-18T10:07:57.999Z</time></trkpt><trkpt lat="43.88454226881748" lon="12.396388135595995"><ele>418.0</ele><time>2026-04-18T10:07:58.999Z</time></trkpt><trkpt lat="43.884636638366835" lon="12.396499533029706"><ele>416.5</ele><time>2026-04-18T10:07:59.999Z</time></trkpt><trkpt lat="43.884748724336646" lon="12.396559711760764"><ele>415.0</ele><time>2026-04-18T10:08:00.999Z</time></trkpt><trkpt lat="43.88487250616189" lon="12.396601973632219"><ele>413.5</ele><time>2026-04-18T10:08:01.999Z</time></trkpt><trkpt lat="43.885009846402504" lon="12.396637992415217"><ele>412.0</ele><time>2026-04-18T10:08:02.999Z</time></trkpt><trkpt lat="43.88513495759976" lon="12.396662226720272"><ele>411.75</ele><time>2026-04-18T10:08:03.999Z</time></trkpt><trkpt lat="43.88524202239927" lon="12.396697741359493"><ele>411.5</ele><time>2026-04-18T10:08:04.999Z</time></trkpt><trkpt lat="43.885349070776265" lon="12.396762211928076"><ele>411.25</ele><time>2026-04-18T10:08:05.999Z</time></trkpt><trkpt lat="43.88546386541878" lon="12.396837096717496"><ele>411.0</ele><time>2026-04-18T10:08:06.999Z</time></trkpt><trkpt lat="43.885568396291504" lon="12.396910731842098"><ele>411.0</ele><time>2026-04-18T10:08:07.999Z</time></trkpt><trkpt lat="43.8856734098665" lon="12.396961732380042"><ele>411.0</ele><time>2026-04-18T10:08:08.999Z</time></trkpt><trkpt lat="43.88579997333876" lon="12.396976242910545"><ele>411.0</ele><time>2026-04-18T10:08:09.999Z</time></trkpt><trkpt lat="43.88592204052115" lon="12.39698510910985"><ele>411.0</ele><time>2026-04-18T10:08:10.999Z</time></trkpt><trkpt lat="43.886043281374505" lon="12.396997243910306"><ele>409.0</ele><time>2026-04-18T10:08:11.999Z</time></trkpt><trkpt lat="43.88616802163189" lon="12.39701440229484"><ele>407.0</ele><time>2026-04-18T10:08:12.999Z</time></trkpt><trkpt lat="43.88629853993461" lon="12.397033455209117"><ele>405.0</ele><time>2026-04-18T10:08:13.999Z</time></trkpt><trkpt lat="43.88642901435135" lon="12.397057615469288"><ele>403.0</ele><time>2026-04-18T10:08:14.999Z</time></trkpt><trkpt lat="43.88655841473497" lon="12.397085596629948"><ele>403.0</ele><time>2026-04-18T10:08:15.999Z</time></trkpt><trkpt lat="43.88668022519894" lon="12.397113774030144"><ele>403.0</ele><time>2026-04-18T10:08:16.999Z</time></trkpt><trkpt lat="43.88679586629507" lon="12.397143769064922"><ele>403.0</ele><time>2026-04-18T10:08:17.999Z</time></trkpt><trkpt lat="43.8869127307812" lon="12.39717450916637"><ele>403.0</ele><time>2026-04-18T10:08:18.999Z</time></trkpt><trkpt lat="43.887024813316515" lon="12.397210373619755"><ele>400.2</ele><time>2026-04-18T10:08:19.999Z</time></trkpt><trkpt lat="43.88713307846125" lon="12.397245923953141"><ele>397.4</ele><time>2026-04-18T10:08:20.999Z</time></trkpt><trkpt lat="43.887240833540034" lon="12.397279176697271"><ele>394.59999999999997</ele><time>2026-04-18T10:08:21.999Z</time></trkpt><trkpt lat="43.887337263101365" lon="12.397304493943354"><ele>391.79999999999995</ele><time>2026-04-18T10:08:22.999Z</time></trkpt><trkpt lat="43.887407392884896" lon="12.397327385409927"><ele>389.0</ele><time>2026-04-18T10:08:23.999Z</time></trkpt><trkpt lat="43.88749454104652" lon="12.397380401552388"><ele>389.0</ele><time>2026-04-18T10:08:25.999Z</time></trkpt><trkpt lat="43.887518650627406" lon="12.397491267098417"><ele>389.0</ele><time>2026-04-18T10:08:27.999Z</time></trkpt><trkpt lat="43.88749617686975" lon="12.397600126488147"><ele>389.0</ele><time>2026-04-18T10:08:28.999Z</time></trkpt><trkpt lat="43.88744407792436" lon="12.397710320867596"><ele>389.0</ele><time>2026-04-18T10:08:29.999Z</time></trkpt><trkpt lat="43.88741882820107" lon="12.3978879752295"><ele>389.0</ele><time>2026-04-18T10:08:30.999Z</time></trkpt><trkpt lat="43.88742625169653" lon="12.398025952934038"><ele>386.6</ele><time>2026-04-18T10:08:32Z</time></trkpt><trkpt lat="43.887468440143515" lon="12.398152662866462"><ele>384.2</ele><time>2026-04-18T10:08:33Z</time></trkpt><trkpt lat="43.88749788588456" lon="12.398291419145485"><ele>381.8</ele><time>2026-04-18T10:08:34Z</time></trkpt><trkpt lat="43.88751558512032" lon="12.398435028009793"><ele>379.40000000000003</ele><time>2026-04-18T10:08:35Z</time></trkpt><trkpt lat="43.88754435096906" lon="12.398562766562309"><ele>377.0</ele><time>2026-04-18T10:08:36Z</time></trkpt><trkpt lat="43.88758103858693" lon="12.398687676305785"><ele>377.0</ele><time>2026-04-18T10:08:37Z</time></trkpt><trkpt lat="43.88758513632623" lon="12.398809581640991"><ele>377.0</ele><time>2026-04-18T10:08:38Z</time></trkpt><trkpt lat="43.88757761163303" lon="12.398922519180521"><ele>377.0</ele><time>2026-04-18T10:08:39Z</time></trkpt><trkpt lat="43.88754654263154" lon="12.399015395907881"><ele>377.0</ele><time>2026-04-18T10:08:40Z</time></trkpt><trkpt lat="43.88748562358458" lon="12.399084706245002"><ele>377.0</ele><time>2026-04-18T10:08:41Z</time></trkpt><trkpt lat="43.887393088565325" lon="12.399157779047915"><ele>377.0</ele><time>2026-04-18T10:08:42Z</time></trkpt><trkpt lat="43.887284674137526" lon="12.399179113513192"><ele>373.5</ele><time>2026-04-18T10:08:43Z</time></trkpt><trkpt lat="43.88716913138506" lon="12.399233229905542"><ele>370.0</ele><time>2026-04-18T10:08:44Z</time></trkpt><trkpt lat="43.887045089024355" lon="12.39926912599576"><ele>366.5</ele><time>2026-04-18T10:08:45Z</time></trkpt><trkpt lat="43.88693507868068" lon="12.39931522802754"><ele>363.0</ele><time>2026-04-18T10:08:46Z</time></trkpt><trkpt lat="43.88684912949764" lon="12.399364899974895"><ele>363.0</ele><time>2026-04-18T10:08:47Z</time></trkpt><trkpt lat="43.88678505826834" lon="12.399421457114949"><ele>363.0</ele><time>2026-04-18T10:08:48Z</time></trkpt><trkpt lat="43.88673924396882" lon="12.399487879084123"><ele>363.0</ele><time>2026-04-18T10:08:49Z</time></trkpt><trkpt lat="43.88674956166016" lon="12.399650354191744"><ele>363.0</ele><time>2026-04-18T10:08:51Z</time></trkpt><trkpt lat="43.886799285354975" lon="12.399746684352925"><ele>363.0</ele><time>2026-04-18T10:08:52Z</time></trkpt><trkpt lat="43.886863672140535" lon="12.399852581873944"><ele>363.0</ele><time>2026-04-18T10:08:53Z</time></trkpt><trkpt lat="43.886957906597104" lon="12.39989777570334"><ele>360.1666666666667</ele><time>2026-04-18T10:08:54Z</time></trkpt><trkpt lat="43.88703710074496" lon="12.399923252701665"><ele>357.3333333333333</ele><time>2026-04-18T10:08:55Z</time></trkpt><trkpt lat="43.8871165000107" lon="12.399977340255234"><ele>354.5</ele><time>2026-04-18T10:08:57Z</time></trkpt><trkpt lat="43.88710155261488" lon="12.400158064267124"><ele>351.66666666666663</ele><time>2026-04-18T10:08:59Z</time></trkpt><trkpt lat="43.88705039056901" lon="12.400236199543743"><ele>348.8333333333333</ele><time>2026-04-18T10:09:00Z</time></trkpt><trkpt lat="43.88698495679099" lon="12.400276602083933"><ele>346.0</ele><time>2026-04-18T10:09:01Z</time></trkpt><trkpt lat="43.886904790791284" lon="12.40027908846992"><ele>346.0</ele><time>2026-04-18T10:09:02Z</time></trkpt><trkpt lat="43.88680663082635" lon="12.400273468730338"><ele>346.0</ele><time>2026-04-18T10:09:03Z</time></trkpt><trkpt lat="43.88669228340738" lon="12.40026111959071"><ele>346.0</ele><time>2026-04-18T10:09:04Z</time></trkpt><trkpt lat="43.886610719272284" lon="12.40025681800326"><ele>346.0</ele><time>2026-04-18T10:09:05Z</time></trkpt><trkpt lat="43.886551503193715" lon="12.40030724425562"><ele>346.0</ele><time>2026-04-18T10:09:06Z</time></trkpt><trkpt lat="43.88651594082246" lon="12.40040142158312"><ele>346.0</ele><time>2026-04-18T10:09:07Z</time></trkpt><trkpt lat="43.88651077760372" lon="12.400510582415638"><ele>344.8333333333333</ele><time>2026-04-18T10:09:08Z</time></trkpt><trkpt lat="43.88653703242267" lon="12.400615451158574"><ele>343.66666666666663</ele><time>2026-04-18T10:09:09Z</time></trkpt><trkpt lat="43.88657125194958" lon="12.40070525383572"><ele>342.5</ele><time>2026-04-18T10:09:10Z</time></trkpt><trkpt lat="43.88665863598733" lon="12.400740067399841"><ele>341.3333333333333</ele><time>2026-04-18T10:09:11Z</time></trkpt><trkpt lat="43.88675716901832" lon="12.400717582000626"><ele>340.1666666666667</ele><time>2026-04-18T10:09:12Z</time></trkpt><trkpt lat="43.88684979583302" lon="12.400705569744964"><ele>339.0</ele><time>2026-04-18T10:09:13Z</time></trkpt><trkpt lat="43.88692982183188" lon="12.40069667569655"><ele>338.0</ele><time>2026-04-18T10:09:14Z</time></trkpt><trkpt lat="43.88699845440408" lon="12.400706102523621"><ele>337.0</ele><time>2026-04-18T10:09:15Z</time></trkpt><trkpt lat="43.88707178647549" lon="12.40073773287709"><ele>336.0</ele><time>2026-04-18T10:09:16Z</time></trkpt><trkpt lat="43.88711040990672" lon="12.400856539381914"><ele>335.0</ele><time>2026-04-18T10:09:17Z</time></trkpt><trkpt lat="43.88714610222862" lon="12.400969118000553"><ele>334.0</ele><time>2026-04-18T10:09:18Z</time></trkpt><trkpt lat="43.88718565516538" lon="12.401090661122497"><ele>333.0</ele><time>2026-04-18T10:09:19Z</time></trkpt><trkpt lat="43.88722065452903" lon="12.401206594124034"><ele>333.0</ele><time>2026-04-18T10:09:20Z</time></trkpt><trkpt lat="43.887269798034424" lon="12.401314731763243"><ele>333.0</ele><time>2026-04-18T10:09:21Z</time></trkpt><trkpt lat="43.88730433888395" lon="12.401438027732638"><ele>333.0</ele><time>2026-04-18T10:09:22Z</time></trkpt><trkpt lat="43.88733962104172" lon="12.40156086490866"><ele>333.0</ele><time>2026-04-18T10:09:23Z</time></trkpt><trkpt lat="43.88737961166882" lon="12.401692039816554"><ele>333.0</ele><time>2026-04-18T10:09:24Z</time></trkpt><trkpt lat="43.88740861075245" lon="12.401835610698987"><ele>333.2</ele><time>2026-04-18T10:09:25Z</time></trkpt><trkpt lat="43.88746048244973" lon="12.401970525648979"><ele>333.4</ele><time>2026-04-18T10:09:26Z</time></trkpt><trkpt lat="43.88750578919013" lon="12.402109813566517"><ele>333.59999999999997</ele><time>2026-04-18T10:09:27Z</time></trkpt><trkpt lat="43.88753912549243" lon="12.402244985566089"><ele>333.79999999999995</ele><time>2026-04-18T10:09:28Z</time></trkpt><trkpt lat="43.887550064213315" lon="12.402384788626167"><ele>334.0</ele><time>2026-04-18T10:09:29Z</time></trkpt><trkpt lat="43.88753945244494" lon="12.402530705943246"><ele>335.79999999999995</ele><time>2026-04-18T10:09:30Z</time></trkpt><trkpt lat="43.88750825685279" lon="12.40266742857962"><ele>337.59999999999997</ele><time>2026-04-18T10:09:31Z</time></trkpt><trkpt lat="43.88746562094837" lon="12.40279517982133"><ele>339.4</ele><time>2026-04-18T10:09:32Z</time></trkpt><trkpt lat="43.88741198009192" lon="12.402917791221336"><ele>341.2</ele><time>2026-04-18T10:09:33Z</time></trkpt><trkpt lat="43.887347829434894" lon="12.403051101762454"><ele>343.0</ele><time>2026-04-18T10:09:34Z</time></trkpt><trkpt lat="43.88729942072639" lon="12.403174895697173"><ele>344.8333333333333</ele><time>2026-04-18T10:09:35Z</time></trkpt><trkpt lat="43.88726679904821" lon="12.403271802616972"><ele>346.66666666666663</ele><time>2026-04-18T10:09:36Z</time></trkpt><trkpt lat="43.88723415167554" lon="12.403376780005399"><ele>348.5</ele><time>2026-04-18T10:09:37Z</time></trkpt><trkpt lat="43.887200098976955" lon="12.403486760253909"><ele>350.3333333333333</ele><time>2026-04-18T10:09:38Z</time></trkpt><trkpt lat="43.88717033301091" lon="12.403611746763314"><ele>352.1666666666667</ele><time>2026-04-18T10:09:39Z</time></trkpt><trkpt lat="43.887143110147704" lon="12.403723732608585"><ele>354.0</ele><time>2026-04-18T10:09:40Z</time></trkpt><trkpt lat="43.887115393646376" lon="12.403826371774118"><ele>357.0</ele><time>2026-04-18T10:09:41Z</time></trkpt><trkpt lat="43.88707816400338" lon="12.40390299883166"><ele>360.0</ele><time>2026-04-18T10:09:41.999Z</time></trkpt><trkpt lat="43.887216919560274" lon="12.40409426147574"><ele>363.0</ele><time>2026-04-18T10:09:43.999Z</time></trkpt><trkpt lat="43.887300235742735" lon="12.404140366159233"><ele>366.0</ele><time>2026-04-18T10:09:44.999Z</time></trkpt><trkpt lat="43.887405451887226" lon="12.404150820587386"><ele>366.0</ele><time>2026-04-18T10:09:45.999Z</time></trkpt><trkpt lat="43.88750195264738" lon="12.404177342346873"><ele>366.0</ele><time>2026-04-18T10:09:46.999Z</time></trkpt><trkpt lat="43.8876096791935" lon="12.404210630160957"><ele>366.0</ele><time>2026-04-18T10:09:47.999Z</time></trkpt><trkpt lat="43.88772197042673" lon="12.404246041287516"><ele>366.0</ele><time>2026-04-18T10:09:48.999Z</time></trkpt><trkpt lat="43.88781758148129" lon="12.404273408220448"><ele>366.0</ele><time>2026-04-18T10:09:49.999Z</time></trkpt><trkpt lat="43.88791172213536" lon="12.404318935666259"><ele>365.5</ele><time>2026-04-18T10:09:50.999Z</time></trkpt><trkpt lat="43.888016376169126" lon="12.404401796060096"><ele>365.0</ele><time>2026-04-18T10:09:51.999Z</time></trkpt><trkpt lat="43.8881211007573" lon="12.404488052722403"><ele>364.5</ele><time>2026-04-18T10:09:52.999Z</time></trkpt><trkpt lat="43.88823577614222" lon="12.404550488178899"><ele>364.0</ele><time>2026-04-18T10:09:53.999Z</time></trkpt><trkpt lat="43.88835550322897" lon="12.404585736385267"><ele>364.75</ele><time>2026-04-18T10:09:54.999Z</time></trkpt><trkpt lat="43.88847392612142" lon="12.404626785806652"><ele>365.5</ele><time>2026-04-18T10:09:55.999Z</time></trkpt><trkpt lat="43.8886031345951" lon="12.404659629655013"><ele>366.25</ele><time>2026-04-18T10:09:56.999Z</time></trkpt><trkpt lat="43.88874019397691" lon="12.404687369238298"><ele>367.0</ele><time>2026-04-18T10:09:57.999Z</time></trkpt><trkpt lat="43.8888604437373" lon="12.404711364292249"><ele>369.20000000000005</ele><time>2026-04-18T10:09:58.999Z</time></trkpt><trkpt lat="43.888966326870175" lon="12.404723552740304"><ele>371.4</ele><time>2026-04-18T10:09:59.999Z</time></trkpt><trkpt lat="43.88905333540254" lon="12.404730005840145"><ele>373.6</ele><time>2026-04-18T10:10:00.999Z</time></trkpt><trkpt lat="43.88913753279322" lon="12.404723727933549"><ele>375.79999999999995</ele><time>2026-04-18T10:10:01.999Z</time></trkpt><trkpt lat="43.889221940133545" lon="12.404715108577605"><ele>378.0</ele><time>2026-04-18T10:10:02.999Z</time></trkpt><trkpt lat="43.88931182719401" lon="12.404705482136077"><ele>378.25</ele><time>2026-04-18T10:10:03.999Z</time></trkpt><trkpt lat="43.889423135142515" lon="12.404667084920208"><ele>378.5</ele><time>2026-04-18T10:10:04.999Z</time></trkpt><trkpt lat="43.889549388709014" lon="12.404606758234092"><ele>378.75</ele><time>2026-04-18T10:10:05.999Z</time></trkpt><trkpt lat="43.889684424294366" lon="12.404561022333546"><ele>379.0</ele><time>2026-04-18T10:10:06.999Z</time></trkpt><trkpt lat="43.889811666639226" lon="12.404536654461054"><ele>379.0</ele><time>2026-04-18T10:10:07.999Z</time></trkpt><trkpt lat="43.889918277632106" lon="12.404563681301914"><ele>379.0</ele><time>2026-04-18T10:10:08.999Z</time></trkpt><trkpt lat="43.88998482954807" lon="12.404648190929057"><ele>379.0</ele><time>2026-04-18T10:10:09.999Z</time></trkpt><trkpt lat="43.89000620335607" lon="12.404761912095616"><ele>379.0</ele><time>2026-04-18T10:10:10.999Z</time></trkpt><trkpt lat="43.88999338278793" lon="12.404883457000485"><ele>379.0</ele><time>2026-04-18T10:10:11.999Z</time></trkpt><trkpt lat="43.88996136578723" lon="12.405015472791838"><ele>379.0</ele><time>2026-04-18T10:10:12.999Z</time></trkpt><trkpt lat="43.88993035469114" lon="12.405159368058898"><ele>379.0</ele><time>2026-04-18T10:10:13.999Z</time></trkpt><trkpt lat="43.889908006550826" lon="12.405315973555847"><ele>379.0</ele><time>2026-04-18T10:10:14.999Z</time></trkpt><trkpt lat="43.88988054362607" lon="12.405487416866466"><ele>379.0</ele><time>2026-04-18T10:10:15.999Z</time></trkpt><trkpt lat="43.88984766931717" lon="12.405665123237142"><ele>381.0</ele><time>2026-04-18T10:10:16.999Z</time></trkpt><trkpt lat="43.88985236941681" lon="12.405820892207142"><ele>383.0</ele><time>2026-04-18T10:10:17.999Z</time></trkpt><trkpt lat="43.88989641743122" lon="12.405910601463653"><ele>385.0</ele><time>2026-04-18T10:10:18.999Z</time></trkpt><trkpt lat="43.88999316405059" lon="12.40594486646427"><ele>387.0</ele><time>2026-04-18T10:10:19.999Z</time></trkpt><trkpt lat="43.89009143452713" lon="12.405923856379959"><ele>389.0</ele><time>2026-04-18T10:10:20.999Z</time></trkpt><trkpt lat="43.89017268246507" lon="12.405860432879399"><ele>388.0</ele><time>2026-04-18T10:10:21.999Z</time></trkpt><trkpt lat="43.89024089399918" lon="12.405758796919388"><ele>387.0</ele><time>2026-04-18T10:10:22.999Z</time></trkpt><trkpt lat="43.89032041507185" lon="12.405646689283568"><ele>386.0</ele><time>2026-04-18T10:10:23.999Z</time></trkpt><trkpt lat="43.89042519049134" lon="12.40552267718408"><ele>385.0</ele><time>2026-04-18T10:10:24.999Z</time></trkpt><trkpt lat="43.89053619390201" lon="12.405427064600897"><ele>385.0</ele><time>2026-04-18T10:10:25.999Z</time></trkpt><trkpt lat="43.89065479233459" lon="12.405447874576389"><ele>385.0</ele><time>2026-04-18T10:10:26.999Z</time></trkpt><trkpt lat="43.89072867618682" lon="12.405515929584402"><ele>385.0</ele><time>2026-04-18T10:10:27.999Z</time></trkpt><trkpt lat="43.890744331095995" lon="12.405610613129216"><ele>385.0</ele><time>2026-04-18T10:10:28.999Z</time></trkpt><trkpt lat="43.89069524575793" lon="12.405678792830686"><ele>385.0</ele><time>2026-04-18T10:10:29.999Z</time></trkpt><trkpt lat="43.89063693425479" lon="12.405806076218274"><ele>388.00000000000006</ele><time>2026-04-18T10:10:31.999Z</time></trkpt><trkpt lat="43.89061688169113" lon="12.405899962967984"><ele>391.0</ele><time>2026-04-18T10:10:32.999Z</time></trkpt><trkpt lat="43.89060355012651" lon="12.405997865095312"><ele>394.0</ele><time>2026-04-18T10:10:33.999Z</time></trkpt><trkpt lat="43.890591947809774" lon="12.406114859104214"><ele>397.0</ele><time>2026-04-18T10:10:34.999Z</time></trkpt><trkpt lat="43.8906415488633" lon="12.406183454020079"><ele>400.00000000000006</ele><time>2026-04-18T10:10:35.999Z</time></trkpt><trkpt lat="43.890720842401386" lon="12.406153230567153"><ele>403.0</ele><time>2026-04-18T10:10:36.999Z</time></trkpt><trkpt lat="43.890876574458986" lon="12.406130640547335"><ele>403.6666666666667</ele><time>2026-04-18T10:10:39Z</time></trkpt><trkpt lat="43.89095695375532" lon="12.406093901722228"><ele>404.33333333333337</ele><time>2026-04-18T10:10:40Z</time></trkpt><trkpt lat="43.89105738891215" lon="12.406111166004344"><ele>405.0</ele><time>2026-04-18T10:10:41Z</time></trkpt><trkpt lat="43.891121244755126" lon="12.406177635769133"><ele>405.66666666666663</ele><time>2026-04-18T10:10:42Z</time></trkpt><trkpt lat="43.89114106778872" lon="12.406277966783515"><ele>406.3333333333333</ele><time>2026-04-18T10:10:43Z</time></trkpt><trkpt lat="43.891117735884905" lon="12.406397319791484"><ele>407.0</ele><time>2026-04-18T10:10:44Z</time></trkpt><trkpt lat="43.891071964797966" lon="12.406513277220233"><ele>410.0</ele><time>2026-04-18T10:10:45Z</time></trkpt><trkpt lat="43.89100153536161" lon="12.406636780806004"><ele>413.0</ele><time>2026-04-18T10:10:46Z</time></trkpt><trkpt lat="43.89093083628367" lon="12.40676270570355"><ele>416.0</ele><time>2026-04-18T10:10:47Z</time></trkpt><trkpt lat="43.89088769113028" lon="12.40692724344218"><ele>419.0</ele><time>2026-04-18T10:10:48Z</time></trkpt><trkpt lat="43.89084111782363" lon="12.407088440133876"><ele>424.25</ele><time>2026-04-18T10:10:49Z</time></trkpt><trkpt lat="43.890800749286576" lon="12.407259914036935"><ele>429.5</ele><time>2026-04-18T10:10:50Z</time></trkpt><trkpt lat="43.89076647348486" lon="12.407435328099016"><ele>434.75</ele><time>2026-04-18T10:10:51Z</time></trkpt><trkpt lat="43.89073513241653" lon="12.407609062323342"><ele>440.0</ele><time>2026-04-18T10:10:52Z</time></trkpt><trkpt lat="43.89070430411575" lon="12.407769374963594"><ele>440.0</ele><time>2026-04-18T10:10:53Z</time></trkpt><trkpt lat="43.89068504825547" lon="12.407909346472573"><ele>440.0</ele><time>2026-04-18T10:10:54Z</time></trkpt><trkpt lat="43.890689747704116" lon="12.408037481935311"><ele>440.0</ele><time>2026-04-18T10:10:55Z</time></trkpt><trkpt lat="43.89072775884295" lon="12.408153386734325"><ele>440.0</ele><time>2026-04-18T10:10:56Z</time></trkpt><trkpt lat="43.89080106496979" lon="12.408213091121238"><ele>440.0</ele><time>2026-04-18T10:10:57Z</time></trkpt><trkpt lat="43.890886645774266" lon="12.408220327284855"><ele>445.0</ele><time>2026-04-18T10:10:58Z</time></trkpt><trkpt lat="43.89097154619608" lon="12.408176587413426"><ele>450.0</ele><time>2026-04-18T10:10:59Z</time></trkpt><trkpt lat="43.89106440155939" lon="12.408108340668639"><ele>455.0</ele><time>2026-04-18T10:11:00Z</time></trkpt><trkpt lat="43.89122887738095" lon="12.4081447182469"><ele>460.0</ele><time>2026-04-18T10:11:01Z</time></trkpt><trkpt lat="43.89137475655678" lon="12.40806710154996"><ele>458.0</ele><time>2026-04-18T10:11:02Z</time></trkpt><trkpt lat="43.89151489130521" lon="12.407982304280507"><ele>456.0</ele><time>2026-04-18T10:11:03Z</time></trkpt><trkpt lat="43.891629909952435" lon="12.407910282251592"><ele>454.0</ele><time>2026-04-18T10:11:04Z</time></trkpt><trkpt lat="43.89170876971606" lon="12.407859239557856"><ele>452.0</ele><time>2026-04-18T10:11:05Z</time></trkpt><trkpt lat="43.89178145803115" lon="12.407833648573398"><ele>450.0</ele><time>2026-04-18T10:11:06Z</time></trkpt><trkpt lat="43.89190577255581" lon="12.407991385234428"><ele>448.0</ele><time>2026-04-18T10:11:08Z</time></trkpt><trkpt lat="43.89196881811579" lon="12.40810244491037"><ele>446.0</ele><time>2026-04-18T10:11:09Z</time></trkpt><trkpt lat="43.89199567357137" lon="12.408238800570091"><ele>444.0</ele><time>2026-04-18T10:11:10Z</time></trkpt><trkpt lat="43.892012620566874" lon="12.408431841475226"><ele>442.0</ele><time>2026-04-18T10:11:11Z</time></trkpt><trkpt lat="43.89200563380294" lon="12.408592656180945"><ele>442.0</ele><time>2026-04-18T10:11:12Z</time></trkpt><trkpt lat="43.89193706695796" lon="12.408752647599542"><ele>442.0</ele><time>2026-04-18T10:11:13Z</time></trkpt><trkpt lat="43.89191601119957" lon="12.408925138753238"><ele>442.0</ele><time>2026-04-18T10:11:14Z</time></trkpt><trkpt lat="43.89190133373084" lon="12.409045378352818"><ele>442.0</ele><time>2026-04-18T10:11:15Z</time></trkpt><trkpt lat="43.891866258111634" lon="12.409215077404024"><ele>444.75</ele><time>2026-04-18T10:11:16Z</time></trkpt><trkpt lat="43.89182022393503" lon="12.409365264426793"><ele>447.5</ele><time>2026-04-18T10:11:17Z</time></trkpt><trkpt lat="43.89176898859628" lon="12.409496280511501"><ele>450.25</ele><time>2026-04-18T10:11:18Z</time></trkpt><trkpt lat="43.89172385122166" lon="12.409665072463943"><ele>453.0</ele><time>2026-04-18T10:11:19Z</time></trkpt><trkpt lat="43.89169323387678" lon="12.409842396084336"><ele>459.2</ele><time>2026-04-18T10:11:20Z</time></trkpt><trkpt lat="43.89166065233112" lon="12.410017055018546"><ele>465.4</ele><time>2026-04-18T10:11:21Z</time></trkpt><trkpt lat="43.89164307504517" lon="12.410179681663074"><ele>471.59999999999997</ele><time>2026-04-18T10:11:22Z</time></trkpt><trkpt lat="43.89162875365991" lon="12.410309876978218"><ele>477.79999999999995</ele><time>2026-04-18T10:11:23Z</time></trkpt><trkpt lat="43.8916172750939" lon="12.41043782222129"><ele>484.0</ele><time>2026-04-18T10:11:24Z</time></trkpt><trkpt lat="43.89160151045464" lon="12.410570029897038"><ele>486.0</ele><time>2026-04-18T10:11:25Z</time></trkpt><trkpt lat="43.89156891361588" lon="12.41070187932417"><ele>488.0</ele><time>2026-04-18T10:11:26Z</time></trkpt><trkpt lat="43.89153163190507" lon="12.410816619955929"><ele>490.0</ele><time>2026-04-18T10:11:27Z</time></trkpt><trkpt lat="43.891474015986596" lon="12.410911513079443"><ele>492.0</ele><time>2026-04-18T10:11:28Z</time></trkpt><trkpt lat="43.89139776837738" lon="12.41092539199967"><ele>494.0</ele><time>2026-04-18T10:11:29Z</time></trkpt><trkpt lat="43.891302806116336" lon="12.410939881693873"><ele>494.0</ele><time>2026-04-18T10:11:30Z</time></trkpt><trkpt lat="43.89120395637938" lon="12.410945988273918"><ele>494.0</ele><time>2026-04-18T10:11:31Z</time></trkpt><trkpt lat="43.89113086323597" lon="12.411024638371252"><ele>494.0</ele><time>2026-04-18T10:11:32Z</time></trkpt><trkpt lat="43.891092794616725" lon="12.411155135621133"><ele>494.0</ele><time>2026-04-18T10:11:33Z</time></trkpt><trkpt lat="43.891096136327384" lon="12.411313289114872"><ele>494.0</ele><time>2026-04-18T10:11:34Z</time></trkpt><trkpt lat="43.89106061244892" lon="12.411480690944146"><ele>496.0</ele><time>2026-04-18T10:11:35Z</time></trkpt><trkpt lat="43.89105146701089" lon="12.411670052477342"><ele>498.0</ele><time>2026-04-18T10:11:36Z</time></trkpt><trkpt lat="43.89106221114183" lon="12.411849702482694"><ele>500.0</ele><time>2026-04-18T10:11:37Z</time></trkpt><trkpt lat="43.89106157635564" lon="12.411996975827911"><ele>502.0</ele><time>2026-04-18T10:11:38Z</time></trkpt><trkpt lat="43.891084773655386" lon="12.412130191908732"><ele>502.0</ele><time>2026-04-18T10:11:39Z</time></trkpt><trkpt lat="43.89116354590082" lon="12.412236893405646"><ele>502.00000000000006</ele><time>2026-04-18T10:11:40Z</time></trkpt><trkpt lat="43.89121107325094" lon="12.412333548610619"><ele>502.00000000000006</ele><time>2026-04-18T10:11:41Z</time></trkpt><trkpt lat="43.8912674969527" lon="12.412439312506141"><ele>502.0</ele><time>2026-04-18T10:11:42Z</time></trkpt><trkpt lat="43.8913416771188" lon="12.412523608882905"><ele>502.0</ele><time>2026-04-18T10:11:43Z</time></trkpt><trkpt lat="43.89141415679237" lon="12.412630278320151"><ele>502.0</ele><time>2026-04-18T10:11:44Z</time></trkpt><trkpt lat="43.89147901813889" lon="12.412737178227335"><ele>502.00000000000006</ele><time>2026-04-18T10:11:45Z</time></trkpt><trkpt lat="43.89154336338791" lon="12.41285041660266"><ele>502.00000000000006</ele><time>2026-04-18T10:11:46Z</time></trkpt><trkpt lat="43.891581979348445" lon="12.412988902983296"><ele>502.0</ele><time>2026-04-18T10:11:47Z</time></trkpt><trkpt lat="43.89161623043111" lon="12.41312719074202"><ele>502.0</ele><time>2026-04-18T10:11:48Z</time></trkpt><trkpt lat="43.891589497863286" lon="12.413269444732354"><ele>502.5</ele><time>2026-04-18T10:11:49Z</time></trkpt><trkpt lat="43.89160893844262" lon="12.413442905553342"><ele>503.0</ele><time>2026-04-18T10:11:50Z</time></trkpt><trkpt lat="43.891616424072794" lon="12.413598328174373"><ele>503.5</ele><time>2026-04-18T10:11:51Z</time></trkpt><trkpt lat="43.891687017711554" lon="12.413725149721579"><ele>504.0</ele><time>2026-04-18T10:11:52Z</time></trkpt><trkpt lat="43.89175030882165" lon="12.413836303171477"><ele>502.75</ele><time>2026-04-18T10:11:53Z</time></trkpt><trkpt lat="43.891900103781765" lon="12.413821479223442"><ele>501.5</ele><time>2026-04-18T10:11:54Z</time></trkpt><trkpt lat="43.89202999811763" lon="12.413779453373488"><ele>500.25</ele><time>2026-04-18T10:11:55Z</time></trkpt><trkpt lat="43.892170965783464" lon="12.413742566802663"><ele>499.0</ele><time>2026-04-18T10:11:56Z</time></trkpt><trkpt lat="43.89230258677033" lon="12.413750778443875"><ele>499.75</ele><time>2026-04-18T10:11:57Z</time></trkpt><trkpt lat="43.89240286143602" lon="12.413828641980789"><ele>500.5</ele><time>2026-04-18T10:11:58Z</time></trkpt><trkpt lat="43.89247669970546" lon="12.413938572058056"><ele>501.25</ele><time>2026-04-18T10:11:59Z</time></trkpt><trkpt lat="43.89256992152949" lon="12.414076193190223"><ele>502.0</ele><time>2026-04-18T10:12:00Z</time></trkpt><trkpt lat="43.89266139911354" lon="12.414215240593496"><ele>502.0</ele><time>2026-04-18T10:12:01Z</time></trkpt><trkpt lat="43.892755218254024" lon="12.414354156481872"><ele>502.0</ele><time>2026-04-18T10:12:02Z</time></trkpt><trkpt lat="43.89286546273284" lon="12.414489600272889"><ele>502.0</ele><time>2026-04-18T10:12:03Z</time></trkpt><trkpt lat="43.892998136198685" lon="12.414590781002438"><ele>502.0</ele><time>2026-04-18T10:12:04Z</time></trkpt></trkseg></trk></gpx>